Work Boat No.22 — 0000000 — position and weather

sailwx.info

Track history (hours):
 
Tides and Currents Weather Stations Pressure Air Temp Water Temp Dewpoint Dewpoint Depression Visibility Wind Speed Wind Dir Waves Ship Positions

Work Boat No.22

Last reported at 2018-Feb-24 08:01 UTC. Time now 2018-Feb-24 08:09 UTC.
Position N 01°21' E 103°37'.

Length 30 m.

Type: Cargo ship. MMSI: 4150008.

Date/timePositionNaut miles runAvg speedWind from/ knotsBaromVisibWave heightAir tempDewpointWater temp
2018-Feb-24 08:01N 01°21' E 103°37'15725658939.5
2018-Feb-24 08:00N 23°44' E 117°32'619862.3
2018-Feb-24 08:00N 23°49' E 117°36'45908261813.0
2018-Feb-24 08:00N 44°09' E 028°40'45773295628.2
2018-Feb-24 08:00N 24°26' E 117°52'5751684.0
2018-Feb-24 08:00N 23°39' E 117°17'57655188309.3
2018-Feb-24 08:00N 48°57' E 002°16'57634149059.6
2018-Feb-24 08:00N 24°33' E 118°12'43871597.9
2018-Feb-24 08:00N 31°14' E 121°30'5291903912.9
2018-Feb-24 08:00N 22°28' E 120°23'100061029137.7
2018-Feb-24 07:59N 40°38' W 074°09'97892517056.0
2018-Feb-24 07:59N 23°28' E 117°16'53842099.1
2018-Feb-24 07:58N 31°59' E 120°26'20771246266.5
2018-Feb-24 07:58N 01°21' E 103°37'2056145107.8
2018-Feb-24 07:57N 31°12' E 121°07'36313901.4
2018-Feb-24 07:56N 25°10' E 121°23'18517566.0
2018-Feb-24 07:55N 24°27' E 118°04'7102.2
2018-Feb-24 07:51N 24°24' E 117°58'16858.6
2018-Feb-24 07:50N 24°10' E 118°07'72128505.8
2018-Feb-24 07:49N 36°02' E 120°13'30484147.5
2018-Feb-24 07:48N 31°02' E 121°05'9353806.9
2018-Feb-24 07:34N 19°46' E 109°10'56911010.9
2018-Feb-24 07:30N 24°27' E 118°03'458516506713.4
2018-Feb-24 07:30N 44°09' E 028°40'447516109681.5
2018-Feb-24 07:30N 31°14' E 121°30'20682481360.0
2018-Feb-24 07:30N 01°21' E 103°37'16175821274.3
2018-Feb-24 07:30N 24°26' E 117°52'4654718.3
2018-Feb-24 07:30N 23°44' E 117°32'1865782.4
2018-Feb-24 07:30N 23°35' E 117°15'78281245.9
2018-Feb-24 07:30N 24°31' E 118°14'429386103.5
2018-Feb-24 07:30N 31°12' E 121°07'20563700539.4
2018-Feb-24 07:30N 01°21' E 103°37'16051925424.3
2018-Feb-24 07:30N 22°31' E 120°19'170610229.3
2018-Feb-24 07:30N 25°10' E 121°23'98942095249.0
2018-Feb-24 07:30N 40°38' W 074°09'97901762196.4
2018-Feb-24 07:30N 24°11' E 118°09'48379035.9
2018-Feb-24 07:29N 31°59' E 120°26'6511177.3
2018-Feb-24 07:29N 31°02' E 121°03'42533253.9
2018-Feb-24 07:28N 24°27' E 118°04'5705270.6
2018-Feb-24 07:22N 19°46' E 109°10'95919502.1
2018-Feb-24 07:19N 31°13' E 121°30'2962336.7
2018-Feb-24 07:11N 36°02' E 120°13'7174092.0
2018-Feb-24 07:00N 24°13' E 118°11'2213061.0
2018-Feb-24 07:00N 24°26' E 117°52'4682039.0
2018-Feb-24 07:00N 23°44' E 117°32'6054106.0
2018-Feb-24 07:00N 24°33' E 118°11'167150489.4
2018-Feb-24 07:00N 22°33' E 120°19'50973365.1
2018-Feb-24 07:00N 31°01' E 120°60'6428882.0
2018-Feb-24 07:00N 31°59' E 120°26'94223768949.8
2018-Feb-24 07:00N 40°38' W 074°09'97685861074.8
2018-Feb-24 06:59N 24°24' E 117°59'7469.4
2018-Feb-24 06:59N 24°23' E 118°06'1622201370.0
2018-Feb-24 06:58N 01°21' E 103°37'1153143132.9
2018-Feb-24 06:58N 19°46' E 109°10'959575239.5
2018-Feb-24 06:57N 31°14' E 121°30'205444.8
2018-Feb-24 06:57N 31°12' E 121°07'3639678.9
2018-Feb-24 06:55N 25°10' E 121°23'65621652.0
2018-Feb-24 06:53N 36°02' E 120°13'73017521.5
2018-Feb-24 06:51N 23°60' E 118°16'493161286.6
2018-Feb-24 06:50N 31°59' E 120°27'53918472.2
2018-Feb-24 06:49N 23°27' E 117°15'292850.4
2018-Feb-24 06:48N 23°49' E 117°36'41138.2
2018-Feb-24 06:31N 24°02' E 118°18'2137402.7
2018-Feb-24 06:30N 24°20' E 118°08'45948268908.9
2018-Feb-24 06:30N 44°09' E 028°40'48783512035.2
2018-Feb-24 06:30N 01°21' E 103°37'15722829020.8
2018-Feb-24 06:30N 23°44' E 117°32'473567603.3
2018-Feb-24 06:30N 31°01' E 120°56'1417118.1
2018-Feb-24 06:30N 31°12' E 121°07'4411588187.3
2018-Feb-24 06:30N 24°26' E 117°52'4016134.1
2018-Feb-24 06:30N 23°49' E 117°36'97851036057.8
2018-Feb-24 06:30N 40°38' W 074°09'942216960295.9
2018-Feb-24 06:29N 31°59' E 120°26'478861299.3
2018-Feb-24 06:29N 24°15' E 118°14'5722456.8
2018-Feb-24 06:15N 19°46' E 109°10'5047630.9
2018-Feb-24 06:12N 23°28' E 117°17'652202.6
2018-Feb-24 06:10N 24°25' E 117°52'43362351.5
2018-Feb-24 06:09N 31°06' E 120°58'950564804.3
2018-Feb-24 06:01N 40°38' W 074°09'999417988731.7
2018-Feb-24 06:00N 22°35' E 120°17'150269394.9
2018-Feb-24 06:00N 24°16' E 118°17'476285886.4
2018-Feb-24 06:00N 31°59' E 120°26'48758412.8
2018-Feb-24 06:00N 24°05' E 118°21'438262521.7
2018-Feb-24 06:00N 31°01' E 120°53'2040236863.9
2018-Feb-24 05:59N 01°21' E 103°37'16175821272.4
2018-Feb-24 05:59N 24°26' E 117°52'432259259.5
2018-Feb-24 05:59N 31°06' E 120°57'10328.5
2018-Feb-24 05:57N 31°12' E 121°07'50612836.5
2018-Feb-24 05:55N 23°29' E 117°17'5058957.4
2018-Feb-24 05:51N 19°46' E 109°10'62124841.9
2018-Feb-24 05:50N 23°25' E 119°35'1063497.5
2018-Feb-24 05:48N 24°24' E 117°58'41757.0
2018-Feb-24 05:45N 23°49' E 117°36'521.9
2018-Feb-24 05:30N 23°44' E 117°32'15721131823.1
2018-Feb-24 05:30N 01°21' E 103°37'16205832479.7
2018-Feb-24 05:30N 24°20' E 118°08'1657448.3
2018-Feb-24 05:30N 24°26' E 117°52'173311503.9
2018-Feb-24 05:30N 22°35' E 120°17'47704292704.0
2018-Feb-24 05:30N 44°09' E 028°40'45853301288.9
2018-Feb-24 05:30N 24°27' E 118°03'10226284.7
2018-Feb-24 05:30N 23°28' E 119°34'8576066.0
2018-Feb-24 05:30N 24°18' E 118°20'50178320.9
2018-Feb-24 05:30N 23°49' E 117°36'978511741988.0
2018-Feb-24 05:30N 40°38' W 074°09'98071217429.3
2018-Feb-24 05:29N 24°08' E 118°25'48326747.1
2018-Feb-24 05:28N 31°59' E 120°26'244438858.2
2018-Feb-24 05:28N 36°02' E 120°13'113991124.1
2018-Feb-24 05:27N 19°46' E 109°10'943226406.5
2018-Feb-24 05:27N 31°12' E 121°07'50741508.7
2018-Feb-24 05:26N 23°28' E 117°15'4908961.1
2018-Feb-24 05:23N 31°01' E 120°49'2992308.0
2018-Feb-24 05:15N 35°60' E 120°27'6983245.1
2018-Feb-24 05:03N 24°32' E 118°10'591739.8
2018-Feb-24 05:00N 23°44' E 117°33'11199809.4
2018-Feb-24 05:00N 23°30' E 119°33'16255849498.3
2018-Feb-24 05:00N 01°21' E 103°37'16205832479.7
2018-Feb-24 05:00N 24°20' E 118°08'1345490.9
2018-Feb-24 05:00N 24°20' E 118°22'2174039.9
2018-Feb-24 05:00N 24°25' E 118°01'6962474.5
2018-Feb-24 05:00N 23°29' E 117°16'45871651487.2
2018-Feb-24 05:00N 44°09' E 028°40'4590917978.2
2018-Feb-24 05:00N 23°49' E 117°36'5410158.7
2018-Feb-24 05:00N 24°32' E 118°10'181378.8
2018-Feb-24 04:59N 24°26' E 117°52'9761474878.4
2018-Feb-24 04:58N 40°38' W 074°09'95042012692.3
2018-Feb-24 04:57N 31°12' E 121°07'584538.5
2018-Feb-24 04:56N 31°59' E 120°26'2444026.3
2018-Feb-24 04:53N 36°02' E 120°13'7512019.7
2018-Feb-24 04:31N 23°44' E 117°32'45894130458.6
2018-Feb-24 04:30N 44°09' E 028°40'469316895556.2
2018-Feb-24 04:30N 23°33' E 119°32'90322253.1
2018-Feb-24 04:30N 24°20' E 118°08'235788.7
2018-Feb-24 04:30N 24°14' E 118°32'388636.4
2018-Feb-24 04:30N 24°26' E 117°52'193067.6
2018-Feb-24 04:30N 24°32' E 118°12'555039.3
2018-Feb-24 04:29N 23°49' E 117°36'51383923.1
2018-Feb-24 04:29N 31°59' E 120°26'470169133.7
2018-Feb-24 04:28N 24°21' E 118°25'97941101797.8
2018-Feb-24 04:28N 40°38' W 074°09'97887047658.8
2018-Feb-24 04:28N 23°28' E 117°16'50760888.0
2018-Feb-24 04:27N 31°12' E 121°07'3634970.2
2018-Feb-24 04:23N 25°09' E 121°23'6565402.0
2018-Feb-24 04:16N 36°02' E 120°13'113921811.6
2018-Feb-24 04:12N 19°46' E 109°10'59044263.1
2018-Feb-24 04:12N 24°33' E 118°27'271920.4
2018-Feb-24 04:11N 24°24' E 117°59'7231.5
2018-Feb-24 04:09N 24°25' E 117°51'748.6
2018-Feb-24 04:01N 24°24' E 117°59'3461787.4
2018-Feb-24 04:00N 24°18' E 118°36'67241458.0
2018-Feb-24 04:00N 23°44' E 117°32'111199194.1
2018-Feb-24 04:00N 23°37' E 119°33'104187186.3
2018-Feb-24 04:00N 24°26' E 117°52'16175821274.3
2018-Feb-24 04:00N 01°21' E 103°37'16202916231.8
2018-Feb-24 04:00N 24°20' E 118°08'441198668.1
2018-Feb-24 04:00N 31°12' E 121°07'95041425657.2
2018-Feb-24 04:00N 40°38' W 074°09'978817618151.7
2018-Feb-24 04:00N 23°27' E 117°15'836606.4
2018-Feb-24 03:59N 24°32' E 118°10'70187035.9
2018-Feb-24 03:59N 36°05' E 120°14'659124780.0
2018-Feb-24 03:58N 25°09' E 121°23'166119654.5
2018-Feb-24 03:58N 24°32' E 118°25'15618102.3
2018-Feb-24 03:58N 22°35' E 120°17'16525883.4
2018-Feb-24 03:57N 23°49' E 117°36'74726347.1
2018-Feb-24 03:56N 36°02' E 120°13'113961203.0
2018-Feb-24 03:54N 19°46' E 109°10'58754202.9
2018-Feb-24 03:54N 24°23' E 118°28'46813910.3
2018-Feb-24 03:52N 31°59' E 120°26'4736285.9
2018-Feb-24 03:47N 24°24' E 117°58'46165.0
2018-Feb-24 03:30N 23°44' E 117°32'47168044.7
2018-Feb-24 03:30N 24°24' E 117°59'564676584.6
2018-Feb-24 03:30N 19°46' E 109°10'5692049798.0
2018-Feb-24 03:30N 24°21' E 118°08'1621530411.6
2018-Feb-24 03:30N 01°21' E 103°37'16225840465.5
2018-Feb-24 03:30N 24°26' E 118°02'181884.1
2018-Feb-24 03:30N 24°30' E 118°21'97823912672.2
2018-Feb-24 03:29N 40°38' W 074°09'98071176846.1
2018-Feb-24 03:29N 24°20' E 118°40'9329.7
2018-Feb-24 03:27N 24°25' E 118°31'430516590.1
2018-Feb-24 03:27N 31°12' E 121°07'482433365.1
2018-Feb-24 03:27N 23°49' E 117°36'49124213.4
2018-Feb-24 03:26N 31°13' E 121°30'52218429.2
2018-Feb-24 03:24N 22°35' E 120°17'8076302.8
2018-Feb-24 03:17N 36°02' E 120°13'771185004.3
2018-Feb-24 03:16N 23°27' E 117°15'5041903.7
2018-Feb-24 03:00N 19°46' E 109°08'1153829917.1
2018-Feb-24 03:00N 01°21' E 103°37'16072892912.7
2018-Feb-24 03:00N 22°35' E 120°17'512920991.0
2018-Feb-24 03:00N 31°06' E 120°58'109058.7
2018-Feb-24 03:00N 31°12' E 121°07'430221058.3
2018-Feb-24 03:00N 24°29' E 118°17'236347.5
2018-Feb-24 03:00N 24°26' E 117°52'97611464208.2
2018-Feb-24 02:59N 40°38' W 074°09'456116418319.9
2018-Feb-24 02:59N 44°09' E 028°40'45881270500.3
2018-Feb-24 02:59N 23°27' E 117°15'77169359.0
2018-Feb-24 02:59N 36°02' E 120°13'70777161.2
2018-Feb-24 02:58N 24°25' E 117°60'482377.2
2018-Feb-24 02:57N 23°44' E 117°32'51729548.5
2018-Feb-24 02:56N 31°58' E 120°25'669109524.5
2018-Feb-24 02:55N 22°19' E 114°09'2119038.1
2018-Feb-24 02:54N 23°49' E 117°36'51315916.8
2018-Feb-24 02:52N 31°59' E 120°26'5181438.6
2018-Feb-24 02:30N 23°44' E 117°32'458916521845.9
2018-Feb-24 02:30N 44°09' E 028°40'48783512036.6
2018-Feb-24 02:30N 01°21' E 103°37'16175821274.3
2018-Feb-24 02:30N 24°26' E 117°52'405186.0
2018-Feb-24 02:30N 23°49' E 117°36'16685255.2
2018-Feb-24 02:30N 22°35' E 120°18'16148349.6
2018-Feb-24 02:30N 24°29' E 118°13'9776281552.0
2018-Feb-24 02:27N 40°38' W 074°09'9772902069.4
2018-Feb-24 02:27N 24°26' E 118°05'43787407.3
2018-Feb-24 02:27N 31°12' E 121°07'582783.4
2018-Feb-24 02:25N 31°59' E 120°26'2445451.9
2018-Feb-24 02:23N 36°02' E 120°13'7694325.0
2018-Feb-24 02:12N 23°29' E 117°17'651957.1
2018-Feb-24 02:10N 24°25' E 117°52'1 5.8
2018-Feb-24 02:01N 24°26' E 117°52'976117570508.0
2018-Feb-24 02:00N 40°38' W 074°09'45615472774.6
2018-Feb-24 02:00N 44°09' E 028°40'459216531278.6
2018-Feb-24 02:00N 24°26' E 118°11'7545285.8
2018-Feb-24 02:00N 23°30' E 117°17'70253189.2
2018-Feb-24 02:00N 24°23' E 118°07'1622233522.0
2018-Feb-24 02:00N 01°21' E 103°37'16071157164.4
2018-Feb-24 02:00N 22°35' E 120°17'1656542.0
2018-Feb-24 01:58N 23°49' E 117°36'74845658.0
2018-Feb-24 01:57N 36°03' E 120°19'294211522.9
2018-Feb-24 01:57N 31°12' E 121°07'58390.6
2018-Feb-24 01:48N 31°58' E 120°26'54935268.5
2018-Feb-24 01:47N 22°50' E 120°06'15045030.8
2018-Feb-24 01:47N 24°24' E 117°58'70870794.0
2018-Feb-24 01:47N 36°02' E 120°13'65610983.6
2018-Feb-24 01:43N 25°09' E 121°23'43220752.0
2018-Feb-24 01:42N 22°19' E 114°09'1893368.0
2018-Feb-24 01:38N 23°23' E 117°22'1894005.0
2018-Feb-24 01:36N 22°18' E 114°09'2052422.6
2018-Feb-24 01:30N 23°44' E 117°32'45895507282.0
2018-Feb-24 01:30N 44°09' E 028°40'45852063345.9
2018-Feb-24 01:30N 24°27' E 118°03'7119542.1
2018-Feb-24 01:30N 23°31' E 117°15'17652929.7
2018-Feb-24 01:30N 22°35' E 120°17'99948994365.8
2018-Feb-24 01:30N 40°38' W 074°09'102331364401.5
2018-Feb-24 01:29N 01°21' E 103°37'1620153485.8
2018-Feb-24 01:29N 24°20' E 118°08'711365532.8
2018-Feb-24 01:29N 36°02' E 120°13'65662144.1
2018-Feb-24 01:28N 25°09' E 121°23'244175811.6
2018-Feb-24 01:28N 23°24' E 117°21'50943612.8
2018-Feb-24 01:27N 31°12' E 121°07'50438618.7
2018-Feb-24 01:26N 22°51' E 120°05'3307476.4
2018-Feb-24 01:24N 22°19' E 114°09'2574218.4
2018-Feb-24 01:20N 24°21' E 118°15'2266.0
2018-Feb-24 01:00N 24°26' E 117°52'45778239068.6
2018-Feb-24 01:00N 44°09' E 028°40'47478545240.2
2018-Feb-24 01:00N 22°52' E 120°04'14547500.4
2018-Feb-24 01:00N 24°25' E 118°02'713112.7
2018-Feb-24 01:00N 24°20' E 118°08'9948.8
2018-Feb-24 01:00N 24°25' E 118°00'6922718.7
2018-Feb-24 00:59N 23°30' E 117°14'52744.7
2018-Feb-24 00:59N 23°29' E 117°20'7318824.8
2018-Feb-24 00:59N 24°21' E 118°16'1625243733.2
2018-Feb-24 00:59N 01°21' E 103°37'205682227.8
2018-Feb-24 00:57N 31°12' E 121°07'950493999.4
2018-Feb-24 00:51N 40°38' W 074°09'9151366057.8
2018-Feb-24 00:50N 36°02' E 120°13'77086592.0
2018-Feb-24 00:49N 23°28' E 117°18'26339.0
2018-Feb-24 00:44N 23°49' E 117°36'146626.1
2018-Feb-24 00:30N 22°54' E 120°04'1614446868.7
2018-Feb-24 00:30N 01°21' E 103°37'20567400495.7
2018-Feb-24 00:30N 31°12' E 121°07'441794050.8
2018-Feb-24 00:30N 24°24' E 117°58'61716.5
2018-Feb-24 00:30N 24°25' E 117°51'6136824.0
2018-Feb-24 00:30N 23°32' E 117°18'6830430.1
2018-Feb-24 00:30N 24°23' E 118°06'1323677.9
2018-Feb-24 00:30N 24°26' E 117°52'4641043.7
2018-Feb-24 00:30N 23°44' E 117°32'1866273.2
2018-Feb-24 00:30N 23°31' E 117°18'45871834876.9
2018-Feb-24 00:29N 44°09' E 028°40'45904130909.4
2018-Feb-24 00:29N 23°49' E 117°36'498348.0
2018-Feb-24 00:29N 24°21' E 118°16'709110929.3
2018-Feb-24 00:29N 36°02' E 120°13'91511062747.9
2018-Feb-24 00:28N 40°38' W 074°09'9786409643.3
2018-Feb-24 00:27N 23°29' E 117°15'2481491.5
2018-Feb-24 00:17N 25°10' E 121°24'227837.2
2018-Feb-24 00:00N 23°44' E 117°33'45908262607.6
2018-Feb-24 00:00N 44°09' E 028°40'45844125586.9
2018-Feb-24 00:00N 23°36' E 117°18'6634183.3
2018-Feb-24 00:00N 24°27' E 118°04'436523266.2
2018-Feb-24 00:00N 31°12' E 121°07'442318433.3
2018-Feb-24 00:00N 24°24' E 117°54'656160.0
2018-Feb-23 23:59N 23°29' E 117°16'71067.9
2018-Feb-23 23:59N 23°36' E 117°18'596826.1
2018-Feb-23 23:59N 24°26' E 117°52'1979310.5
2018-Feb-23 23:57N 25°10' E 121°23'17739917.4
2018-Feb-23 23:57N 24°21' E 118°15'9786489291.7
2018-Feb-23 23:56N 40°38' W 074°09'9151176177.6
2018-Feb-23 23:53N 36°02' E 120°13'311.1
2018-Feb-23 23:37N 36°05' E 120°14'422938936.3
2018-Feb-23 23:30N 44°09' E 028°40'48781254298.2
2018-Feb-23 23:30N 01°21' E 103°37'1559350803.0
2018-Feb-23 23:30N 23°39' E 117°16'032.2
2018-Feb-23 23:30N 23°39' E 117°17'9808.3
2018-Feb-23 23:29N 23°29' E 117°18'15712813.4
2018-Feb-23 23:28N 22°54' E 120°04'152273600.9
2018-Feb-23 23:28N 24°26' E 117°52'34123104.7
2018-Feb-23 23:28N 23°52' E 117°49'382031.6
2018-Feb-23 23:27N 24°27' E 118°04'436784899.3
2018-Feb-23 23:27N 31°12' E 121°07'44136959.5
2018-Feb-23 23:26N 24°26' E 117°52'22268.4
2018-Feb-23 23:22N 24°21' E 118°16'9786577532.4
2018-Feb-23 23:20N 40°38' W 074°09'9782704274.2
2018-Feb-23 23:20N 23°33' E 117°14'5332007.6
2018-Feb-23 23:04N 31°59' E 120°26'439681156.1
2018-Feb-23 23:00N 44°09' E 028°40'47485697156.1
2018-Feb-23 23:00N 22°52' E 120°04'14547562.1
2018-Feb-23 23:00N 24°27' E 118°04'113310.2
2018-Feb-23 23:00N 24°26' E 117°52'635036.6
2018-Feb-23 22:59N 23°31' E 117°20'24233460.7
2018-Feb-23 22:59N 25°09' E 121°22'1765353015.6
2018-Feb-23 22:59N 01°21' E 103°37'1023312279607.3
2018-Feb-23 22:59N 40°38' W 074°09'9504438663.7
2018-Feb-23 22:57N 31°12' E 121°07'438131416.4
2018-Feb-23 22:57N 24°21' E 118°16'84346.3
2018-Feb-23 22:42N 23°34' E 119°31'75084332.4
2018-Feb-23 22:42N 36°02' E 120°13'244877738.0
2018-Feb-23 22:42N 31°59' E 120°26'55368.1
2018-Feb-23 22:33N 31°31' E 121°22'4429135113.7
2018-Feb-23 22:31N 31°49' E 034°39'79389166.2
2018-Feb-23 22:30N 44°09' E 028°40'48785853391.5
2018-Feb-23 22:30N 01°21' E 103°37'16175821272.4
2018-Feb-23 22:30N 24°26' E 117°52'6131547.0
2018-Feb-23 22:30N 23°32' E 117°20'68245330.7
2018-Feb-23 22:30N 24°27' E 118°04'469843741.4
2018-Feb-23 22:30N 31°59' E 120°26'47239502.6
2018-Feb-23 22:29N 24°21' E 118°16'44491601538.3
2018-Feb-23 22:29N 31°49' E 034°39'5292656992.2
2018-Feb-23 22:29N 40°38' W 074°09'9497275724.3
2018-Feb-23 22:27N 31°31' E 121°22'488125437.8
2018-Feb-23 22:27N 23°33' E 119°32'5247089.3
2018-Feb-23 22:26N 22°51' E 120°05'79215837.0
2018-Feb-23 22:23N 36°02' E 120°13'3217.3
2018-Feb-23 22:23N 36°05' E 120°14'914924745.1
2018-Feb-23 22:00N 40°38' W 074°09'45618209167.9
2018-Feb-23 22:00N 44°09' E 028°40'45881032213.8
2018-Feb-23 22:00N 23°32' E 117°19'6224819.7
2018-Feb-23 22:00N 24°26' E 117°52'4631668012.8
2018-Feb-23 22:00N 31°31' E 121°22'44281226296.4
2018-Feb-23 22:00N 31°49' E 034°39'45871376134.5
2018-Feb-23 22:00N 22°49' E 120°06'1611241716.9
2018-Feb-23 21:59N 01°21' E 103°37'205661670.7
2018-Feb-23 21:57N 31°12' E 121°07'43832839.1
2018-Feb-23 21:56N 24°21' E 118°16'47232658.7
2018-Feb-23 21:56N 31°59' E 120°26'4123357.9
2018-Feb-23 21:48N 25°10' E 121°24'3642145.5
2018-Feb-23 21:38N 31°14' E 121°30'952176341.0
2018-Feb-23 21:31N 40°38' W 074°09'45614104576.0
2018-Feb-23 21:30N 44°09' E 028°40'48785853396.1
2018-Feb-23 21:30N 01°21' E 103°37'16175821268.6
2018-Feb-23 21:30N 24°26' E 117°52'197177085.3
2018-Feb-23 21:30N 25°10' E 121°24'36524302.4
2018-Feb-23 21:29N 31°14' E 121°29'514132108.2
2018-Feb-23 21:29N 23°32' E 117°17'7316416.7
2018-Feb-23 21:29N 24°21' E 118°16'47215869.0
2018-Feb-23 21:27N 31°59' E 120°26'585091.9
2018-Feb-23 21:26N 31°12' E 121°07'5084099.5
2018-Feb-23 21:19N 22°47' E 120°08'5281986.3
2018-Feb-23 21:03N 31°31' E 121°21'46310975.6
2018-Feb-23 21:01N 24°26' E 117°52'45774119539.5
2018-Feb-23 21:00N 44°09' E 028°40'4715998548.0
2018-Feb-23 21:00N 25°09' E 121°22'17651588915.7
2018-Feb-23 21:00N 01°21' E 103°37'10233657837.0
2018-Feb-23 20:59N 40°38' W 074°09'94964883425.1
2018-Feb-23 20:59N 31°31' E 121°21'46042477.7
2018-Feb-23 20:58N 24°21' E 118°16'47215030.7
2018-Feb-23 20:57N 31°59' E 120°26'24419503.5
2018-Feb-23 20:56N 36°02' E 120°13'29411241.9
2018-Feb-23 20:54N 31°12' E 121°07'5105428.7
2018-Feb-23 20:49N 22°45' E 120°12'459564866.2
2018-Feb-23 20:44N 31°49' E 034°39'442893227.1
2018-Feb-23 20:41N 23°49' E 117°36'40221.0
2018-Feb-23 20:31N 24°26' E 117°52'45773295627.5
2018-Feb-23 20:30N 44°09' E 028°40'4561965783.8
2018-Feb-23 20:30N 40°38' W 074°09'97862201792.5
2018-Feb-23 20:30N 24°21' E 118°15'491470.7
2018-Feb-23 20:28N 23°49' E 117°36'48241273.3
2018-Feb-23 20:27N 31°12' E 121°07'363261303.3
2018-Feb-23 20:27N 25°10' E 121°23'17661271668.3
2018-Feb-23 20:27N 01°21' E 103°37'436741046.1
2018-Feb-23 20:21N 31°49' E 034°39'7932354.2
2018-Feb-23 20:00N 44°09' E 028°40'48785853393.2
2018-Feb-23 20:00N 01°21' E 103°37'102332631345.6
2018-Feb-23 20:00N 40°38' W 074°09'9893868653.8
2018-Feb-23 19:59N 25°09' E 121°21'19577873.3
2018-Feb-23 19:59N 24°26' E 117°52'401512.6
2018-Feb-23 19:58N 23°49' E 117°36'4428109190.7
2018-Feb-23 19:55N 31°49' E 034°39'442364466.1
2018-Feb-23 19:51N 31°12' E 121°07'2966348.6
2018-Feb-23 19:48N 36°05' E 120°14'6592688.4
2018-Feb-23 19:34N 25°11' E 121°48'461386947.8
2018-Feb-23 19:30N 31°49' E 034°39'7932853337.6
2018-Feb-23 19:30N 44°09' E 028°40'48781254298.7
2018-Feb-23 19:30N 01°21' E 103°37'1617388084.8
2018-Feb-23 19:30N 24°26' E 117°52'1611853.1
2018-Feb-23 19:30N 24°19' E 118°09'18234557.2
2018-Feb-23 19:30N 25°09' E 121°22'221794235.6
2018-Feb-23 19:30N 23°49' E 117°36'24438117.1
2018-Feb-23 19:29N 25°11' E 121°48'99143244453.0
2018-Feb-23 19:29N 40°38' W 074°09'9504313906.3
2018-Feb-23 19:27N 31°12' E 121°07'2966273.9
2018-Feb-23 19:24N 36°05' E 120°14'247886.9
2018-Feb-23 19:08N 31°59' E 120°26'942278702.7
2018-Feb-23 19:00N 40°38' W 074°09'529219052774.3
2018-Feb-23 19:00N 31°49' E 034°39'7931426668.8
2018-Feb-23 19:00N 44°09' E 028°40'48785853393.8
2018-Feb-23 19:00N 01°21' E 103°37'1617388084.8
2018-Feb-23 19:00N 24°26' E 117°52'21513607.8
2018-Feb-23 18:59N 25°11' E 121°44'36311077.3
2018-Feb-23 18:57N 31°12' E 121°07'436261653.3
2018-Feb-23 18:57N 24°27' E 118°04'70436741.3
2018-Feb-23 18:56N 36°02' E 120°13'7086403.1
2018-Feb-23 18:49N 24°23' E 118°06'10542107211.8
2018-Feb-23 18:43N 31°59' W 081°03'589427308.3
2018-Feb-23 18:30N 31°49' E 034°39'793951112.5
2018-Feb-23 18:30N 44°09' E 028°40'48784390045.7
2018-Feb-23 18:30N 01°21' E 103°37'16171455318.6
2018-Feb-23 18:30N 24°26' E 117°52'113611.1
2018-Feb-23 18:30N 24°27' E 118°04'1053837935562.2
2018-Feb-23 18:30N 31°59' W 081°03'10333213777.2
2018-Feb-23 18:27N 31°12' E 121°07'9504468709.8
2018-Feb-23 18:26N 40°38' W 074°09'942251239.7
2018-Feb-23 18:15N 31°59' E 120°26'4132797.4
2018-Feb-23 18:06N 25°09' E 121°24'65913549.2
2018-Feb-23 18:03N 36°05' E 120°14'71015678.8
2018-Feb-23 18:00N 24°26' E 117°52'19635259.6
2018-Feb-23 18:00N 25°09' E 121°23'185221951.4
2018-Feb-23 18:00N 24°27' E 118°04'162452201.1
2018-Feb-23 17:58N 01°21' E 103°37'2056119362.5
2018-Feb-23 17:57N 31°12' E 121°07'4423482519.0
2018-Feb-23 17:57N 31°49' E 034°39'426714687.1
2018-Feb-23 17:39N 36°05' E 120°14'2473594.3
2018-Feb-23 17:35N 31°59' E 120°26'437056795.4
2018-Feb-23 17:30N 31°49' E 034°39'7932853331.6
2018-Feb-23 17:30N 44°09' E 028°40'48784390045.7
2018-Feb-23 17:30N 01°21' E 103°37'1617970212.4
2018-Feb-23 17:30N 24°26' E 117°52'441264697.9
2018-Feb-23 17:30N 31°12' E 121°07'436261653.3
2018-Feb-23 17:30N 24°27' E 118°04'7073575.2
2018-Feb-23 17:18N 36°05' E 120°14'7716987.0
2018-Feb-23 17:12N 23°30' E 117°18'9788101549.1
2018-Feb-23 17:06N 40°38' W 074°09'529259354.4
2018-Feb-23 17:00N 31°49' E 034°39'7931426658.8
2018-Feb-23 17:00N 44°09' E 028°40'45771647815.8
2018-Feb-23 17:00N 24°26' E 117°52'70731039.8
2018-Feb-23 16:59N 36°02' E 120°13'91511372716.2
2018-Feb-23 16:59N 40°38' W 074°09'9504433111.0
2018-Feb-23 16:57N 31°12' E 121°07'205632601.3
2018-Feb-23 16:53N 01°21' E 103°37'228916780.3
2018-Feb-23 16:45N 36°05' E 120°14'422917183.0
2018-Feb-23 16:30N 44°09' E 028°40'45778239070.4
2018-Feb-23 16:30N 24°26' E 117°52'16171940424.1
2018-Feb-23 16:30N 01°21' E 103°37'205638746.0
2018-Feb-23 16:27N 31°12' E 121°07'2944244.0
2018-Feb-23 16:23N 36°02' E 120°13'70421126.2
2018-Feb-23 16:21N 24°27' E 118°04'9770105309.8
2018-Feb-23 16:15N 40°38' W 074°09'456118222.3
2018-Feb-23 16:00N 44°09' E 028°40'4577749007.2
2018-Feb-23 16:00N 24°26' E 117°52'161795430.7
2018-Feb-23 15:59N 01°21' E 103°37'2077155783.7
2018-Feb-23 15:58N 31°59' E 120°26'583211.3
2018-Feb-23 15:57N 31°12' E 121°07'95042443985.0
2018-Feb-23 15:57N 40°38' W 074°09'9151141395.7
2018-Feb-23 15:53N 36°02' E 120°13'6562008.1
2018-Feb-23 15:33N 25°09' E 121°23'471694324.7
2018-Feb-23 15:30N 44°09' E 028°40'45774119535.2
2018-Feb-23 15:30N 24°26' E 117°52'16172910635.2
2018-Feb-23 15:30N 01°21' E 103°37'1766353236.7
2018-Feb-23 15:30N 25°09' E 121°24'3635837.5
2018-Feb-23 15:26N 31°12' E 121°07'2943582.2
2018-Feb-23 15:21N 36°02' E 120°13'24415397.5
2018-Feb-23 15:20N 31°59' E 120°26'942293963.0
2018-Feb-23 15:14N 40°38' W 074°09'456119091.1
2018-Feb-23 15:00N 44°09' E 028°40'47164243968.9
2018-Feb-23 15:00N 25°10' E 121°23'19678432.6
2018-Feb-23 15:00N 24°26' E 117°52'1617306382.8
2018-Feb-23 15:00N 01°21' E 103°37'10233995644.3
2018-Feb-23 14:59N 40°38' W 074°09'9504325864.7
2018-Feb-23 14:57N 31°12' E 121°07'2944127.9
2018-Feb-23 14:53N 36°02' E 120°13'2442041.0
2018-Feb-23 14:46N 31°59' E 120°26'536.1
2018-Feb-23 14:37N 32°01' E 120°32'208218972.1
2018-Feb-23 14:30N 01°21' E 103°37'102335262691.2
2018-Feb-23 14:30N 40°38' W 074°09'97618785254.0
2018-Feb-23 14:30N 24°26' E 117°52'45772354019.6
2018-Feb-23 14:30N 44°09' E 028°40'4396322969.9
2018-Feb-23 14:29N 31°59' E 120°26'412106069.2
2018-Feb-23 14:29N 25°09' E 121°24'656472138.8
2018-Feb-23 14:29N 36°02' E 120°13'2949876.3
2018-Feb-23 14:27N 31°12' E 121°07'591820.3
2018-Feb-23 14:25N 32°02' E 120°30'439710630.7
2018-Feb-23 14:00N 44°09' E 028°40'45774119534.3
2018-Feb-23 14:00N 24°26' E 117°52'47326182.9
2018-Feb-23 13:59N 31°59' E 120°26'53439232.9
2018-Feb-23 13:58N 23°32' E 117°17'24312693.2
2018-Feb-23 13:57N 25°09' E 121°22'989335616102.6
2018-Feb-23 13:57N 40°38' W 074°09'95044276973.7
2018-Feb-23 13:57N 31°12' E 121°07'445810005.7
2018-Feb-23 13:30N 44°09' E 028°40'45774119534.3
2018-Feb-23 13:30N 24°26' E 117°52'441132350.6
2018-Feb-23 13:30N 31°12' E 121°07'3636433.0
2018-Feb-23 13:27N 25°10' E 121°23'24511149.9
2018-Feb-23 13:25N 23°32' E 117°17'97863522801.1
2018-Feb-23 13:25N 40°38' W 074°09'942230178.4
2018-Feb-23 13:07N 31°59' E 120°26'4134092.9
2018-Feb-23 13:01N 25°09' E 121°23'197707548.9
2018-Feb-23 13:01N 24°26' E 117°52'45774119534.3
2018-Feb-23 13:00N 44°09' E 028°40'48784390045.7
2018-Feb-23 13:00N 01°21' E 103°37'102331534951.7
2018-Feb-23 13:00N 40°38' W 074°09'978735231425.4
2018-Feb-23 13:00N 23°32' E 117°18'231325.7
2018-Feb-23 12:59N 23°49' E 117°36'48216668.1
2018-Feb-23 12:57N 31°12' E 121°07'201384.4
2018-Feb-23 12:56N 31°14' E 121°30'4451144.5
2018-Feb-23 12:33N 24°27' E 118°04'4586108618.9
2018-Feb-23 12:30N 44°09' E 028°40'48784390045.3
2018-Feb-23 12:30N 01°21' E 103°37'16175821272.4
2018-Feb-23 12:30N 24°26' E 117°52'71054367.4
2018-Feb-23 12:30N 36°05' E 120°14'91492058488.2
2018-Feb-23 12:29N 40°38' W 074°09'97851174198.2
2018-Feb-23 12:29N 23°49' E 117°36'244131.1
2018-Feb-23 12:28N 23°32' E 117°17'514231508.4
2018-Feb-23 12:28N 31°15' E 121°30'201036.6
2018-Feb-23 12:27N 31°12' E 121°07'436130826.6
2018-Feb-23 12:27N 24°27' E 118°04'7043262.7
2018-Feb-23 12:14N 36°02' E 120°13'2441691.2
2018-Feb-23 12:05N 31°59' E 120°26'439653645.5
2018-Feb-23 12:00N 44°09' E 028°40'45772746356.8
2018-Feb-23 12:00N 24°26' E 117°52'1617727659.5
2018-Feb-23 12:00N 01°21' E 103°37'10233387777.2
2018-Feb-23 11:59N 40°38' W 074°09'97843202113.6
2018-Feb-23 11:58N 23°32' E 117°16'24644275.3
2018-Feb-23 11:58N 25°09' E 121°23'36322947.0
2018-Feb-23 11:57N 31°12' E 121°07'29415315.0
2018-Feb-23 11:56N 36°02' E 120°13'746122153.6
2018-Feb-23 11:56N 23°49' E 117°36'5179489.8
2018-Feb-23 11:52N 32°01' E 120°32'6101.3
2018-Feb-23 11:49N 31°59' E 120°26'701508.0
2018-Feb-23 11:46N 31°14' E 121°30'447516904.2
2018-Feb-23 11:30N 44°09' E 028°40'45612052292.0
2018-Feb-23 11:30N 40°38' W 074°09'97615020145.1
2018-Feb-23 11:30N 24°26' E 117°52'645149.1
2018-Feb-23 11:29N 23°32' E 117°14'1552164352.1
2018-Feb-23 11:29N 01°21' E 103°37'1577283905.4
2018-Feb-23 11:29N 23°49' E 117°36'222159949.4
2018-Feb-23 11:28N 25°10' E 121°23'3639895.8
2018-Feb-23 11:26N 31°12' E 121°07'592369.8
2018-Feb-23 11:25N 32°02' E 120°30'2413065.1
2018-Feb-23 11:20N 36°02' E 120°13'2955172.3
2018-Feb-23 11:17N 31°15' E 121°30'4512245.6
2018-Feb-23 11:05N 24°24' E 117°59'458466539.6
2018-Feb-23 11:00N 44°09' E 028°40'45848250908.5
2018-Feb-23 11:00N 24°24' E 117°59'19016693.1
2018-Feb-23 11:00N 25°09' E 121°22'24649234.1
2018-Feb-23 10:59N 23°31' E 117°15'9784733825.1
2018-Feb-23 10:59N 40°38' W 074°09'97852935497.0
2018-Feb-23 10:58N 23°49' E 117°36'4024197.8
2018-Feb-23 10:58N 24°26' E 117°52'1617102127.6
2018-Feb-23 10:57N 01°21' E 103°37'2056528607.0
2018-Feb-23 10:57N 31°12' E 121°07'4077148271.1
2018-Feb-23 10:56N 45°16' E 036°28'4016116594.4
2018-Feb-23 10:53N 31°59' E 120°26'2443567.7
2018-Feb-23 10:49N 36°02' E 120°13'2951869.4
2018-Feb-23 10:40N 31°14' E 121°30'4564916.2
2018-Feb-23 10:34N 24°14' E 118°09'459972294.7
2018-Feb-23 10:30N 44°09' E 028°40'45848250908.5
2018-Feb-23 10:30N 24°24' E 117°59'66118296.5
2018-Feb-23 10:30N 23°31' E 117°17'6533227.4
2018-Feb-23 10:30N 24°14' E 118°09'16161163361.8
2018-Feb-23 10:30N 01°21' E 103°37'1617447790.2
2018-Feb-23 10:30N 24°26' E 117°52'976117570499.4
2018-Feb-23 10:30N 40°38' W 074°09'978535225947.2
2018-Feb-23 10:30N 23°49' E 117°36'2228162.0
2018-Feb-23 10:28N 25°09' E 121°23'36318956.2
2018-Feb-23 10:27N 31°12' E 121°07'4075431484.3
2018-Feb-23 10:27N 45°18' E 036°30'385035539.3
2018-Feb-23 10:20N 36°02' E 120°13'2442887.0
2018-Feb-23 10:15N 31°59' E 120°26'207715677.7
2018-Feb-23 10:07N 01°21' E 103°37'161714701.8
2018-Feb-23 10:00N 24°26' E 117°52'45778239063.0
2018-Feb-23 10:00N 44°09' E 028°40'458416501802.3
2018-Feb-23 10:00N 24°24' E 117°59'16191942594.4
2018-Feb-23 10:00N 01°21' E 103°37'16201943914.0
2018-Feb-23 10:00N 24°19' E 118°10'47681531.2
2018-Feb-23 10:00N 31°59' E 120°26'513142040.7
2018-Feb-23 10:00N 23°49' E 117°36'233376.3
2018-Feb-23 09:59N 23°31' E 117°19'978817618117.3
2018-Feb-23 09:59N 40°38' W 074°09'9895583952.9
2018-Feb-23 09:58N 25°09' E 121°23'36319235.0
2018-Feb-23 09:57N 31°12' E 121°07'4421398.2
2018-Feb-23 09:38N 24°25' E 117°52'457735589.8
2018-Feb-23 09:30N 44°09' E 028°40'45843300362.7
2018-Feb-23 09:30N 24°24' E 117°59'96238.7
2018-Feb-23 09:30N 24°22' E 118°08'473113550.6
2018-Feb-23 09:30N 31°59' E 120°26'533639583.6
2018-Feb-23 09:30N 23°32' E 117°20'224650.7
2018-Feb-23 09:30N 23°49' E 117°36'22299937.9
2018-Feb-23 09:30N 25°10' E 121°23'9894962667.1
2018-Feb-23 09:29N 40°38' W 074°09'102331534949.8
2018-Feb-23 09:29N 01°21' E 103°37'205652490.1
2018-Feb-23 09:26N 31°12' E 121°07'2952351.8
2018-Feb-23 09:19N 36°04' E 120°16'71010923.9
2018-Feb-23 09:15N 24°24' E 117°59'473657.5
2018-Feb-23 09:14N 23°44' E 117°33'521458.9
2018-Feb-23 09:12N 24°27' E 118°04'458624032.2
2018-Feb-23 09:00N 44°09' E 028°40'458516506682.4
2018-Feb-23 09:00N 24°26' E 118°02'50180904.3
2018-Feb-23 09:00N 23°44' E 117°32'4632803.1
2018-Feb-23 09:00N 24°26' E 117°52'16175821890.3
2018-Feb-23 09:00N 01°21' E 103°37'1555266545.1
2018-Feb-23 09:00N 23°32' E 117°19'76695037.1
2018-Feb-23 08:59N 36°02' E 120°13'746191955.7
2018-Feb-23 08:59N 23°49' E 117°36'221795119.5
2018-Feb-23 08:59N 25°09' E 121°22'1765317745.3
2018-Feb-23 08:59N 01°21' E 103°37'163127440.9
2018-Feb-23 08:55N 24°32' E 118°10'4638630.0
2018-Feb-23 08:52N 31°59' E 120°26'581847.2
2018-Feb-23 08:50N 31°12' E 121°07'2962212.4
2018-Feb-23 08:42N 36°05' E 120°14'423021567.1
2018-Feb-23 08:30N 44°09' E 028°40'458916521915.1
2018-Feb-23 08:30N 23°44' E 117°32'4610929.1
2018-Feb-23 08:30N 24°26' E 117°52'97612928419.4
2018-Feb-23 08:30N 40°38' W 074°09'97708793371.3
2018-Feb-23 08:30N 24°32' E 118°11'114495.2
2018-Feb-23 08:30N 24°25' E 118°01'471339349.8
2018-Feb-23 08:30N 31°59' E 120°26'51397183.6
2018-Feb-23 08:29N 23°49' E 117°36'413381.7
2018-Feb-23 08:29N 24°24' E 117°59'1619448289.9
2018-Feb-23 08:28N 01°21' E 103°37'15542796525.0
2018-Feb-23 08:28N 23°32' E 117°17'24513551.4
2018-Feb-23 08:27N 25°10' E 121°23'363163352.5
2018-Feb-23 08:27N 31°12' E 121°07'2944421.5
2018-Feb-23 08:23N 36°02' E 120°13'7703373.6
2018-Feb-23 08:09N 23°28' E 117°16'67447.8
2018-Feb-23 08:00N 24°26' E 117°52'611408.1
2018-Feb-23 08:00N 24°24' E 117°59'458416501798.7
2018-Feb-23 08:00N 44°09' E 028°40'45905508398.2
2018-Feb-23 08:00N 23°44' E 117°33'22473457.5
2018-Feb-23 08:00N 25°09' E 121°21'244219366.4
2018-Feb-23 08:00N 23°32' E 117°16'97853522446.2
2018-Feb-23 08:00N 40°38' W 074°09'102331052538.2
2018-Feb-23 07:59N 01°21' E 103°37'1577473175.4
2018-Feb-23 07:59N 23°49' E 117°36'1577354920.3
2018-Feb-23 07:59N 01°21' E 103°37'16321174689.5
2018-Feb-23 07:59N 24°32' E 118°10'42928106.4
2018-Feb-23 07:58N 31°12' E 121°07'50620704.7
2018-Feb-23 07:56N 23°30' E 117°16'53611847.5
2018-Feb-23 07:54N 31°59' E 120°26'2442244.7
2018-Feb-23 07:47N 36°02' E 120°13'7512689.0
2018-Feb-23 07:30N 23°44' E 117°33'47168097.1
2018-Feb-23 07:30N 24°24' E 117°59'1450141.1
2018-Feb-23 07:30N 24°33' E 118°11'1810959.2
2018-Feb-23 07:30N 24°26' E 117°52'1617831610.3
2018-Feb-23 07:30N 01°21' E 103°37'48782926696.9
2018-Feb-23 07:30N 44°09' E 028°40'4561586368.7
2018-Feb-23 07:30N 40°38' W 074°09'98931548516.1
2018-Feb-23 07:29N 25°09' E 121°22'22129438.1
2018-Feb-23 07:29N 23°49' E 117°36'253299.1
2018-Feb-23 07:28N 23°34' E 117°14'50324455.9
2018-Feb-23 07:27N 31°12' E 121°07'50419717.1
2018-Feb-23 07:26N 23°32' E 117°16'713218.1
2018-Feb-23 07:24N 24°27' E 118°04'4695589.4
2018-Feb-23 07:19N 31°59' E 120°26'2441895.7
2018-Feb-23 07:12N 36°02' E 120°13'7073844.8
2018-Feb-23 07:00N 24°26' E 117°52'45778239068.6
2018-Feb-23 07:00N 44°09' E 028°40'458416501798.7
2018-Feb-23 07:00N 24°24' E 117°59'1619971299.1
2018-Feb-23 07:00N 01°21' E 103°37'1572282963.5
2018-Feb-23 07:00N 23°44' E 117°33'978717616145.8
2018-Feb-23 07:00N 40°38' W 074°09'977011724265.1
2018-Feb-23 07:00N 24°32' E 118°10'25830974.8
2018-Feb-23 06:59N 22°19' E 114°09'21025212.8
2018-Feb-23 06:59N 23°49' E 117°36'4414526.4
2018-Feb-23 06:59N 24°23' E 118°06'6811655.1
2018-Feb-23 06:58N 23°32' E 117°17'243124955.5
2018-Feb-23 06:58N 25°09' E 121°22'36318949.4
2018-Feb-23 06:57N 31°12' E 121°07'2944535.4
2018-Feb-23 06:53N 36°02' E 120°13'2442135.4
2018-Feb-23 06:46N 31°59' E 120°26'56447.4
2018-Feb-23 06:39N 31°30' E 121°22'3563.6
2018-Feb-23 06:39N 31°31' E 121°19'4503355.8
2018-Feb-23 06:31N 24°33' E 118°11'45883303066.3
2018-Feb-23 06:30N 44°09' E 028°40'458416501802.3
2018-Feb-23 06:30N 24°24' E 117°59'16191942594.4
2018-Feb-23 06:30N 01°21' E 103°37'16172910633.4
2018-Feb-23 06:30N 24°26' E 117°52'976117570508.0
2018-Feb-23 06:30N 40°38' W 074°09'978117605899.8
2018-Feb-23 06:30N 24°20' E 118°08'18254735.3
2018-Feb-23 06:30N 25°09' E 121°22'24262185.7
2018-Feb-23 06:30N 23°32' E 117°19'1715663.7
2018-Feb-23 06:30N 23°44' E 117°33'51417630.1
2018-Feb-23 06:28N 31°40' E 121°13'281873.9
2018-Feb-23 06:27N 31°12' E 121°07'5813915.5
2018-Feb-23 06:27N 31°59' E 120°26'4741413.6
2018-Feb-23 06:07N 24°25' E 117°52'1 8.4
2018-Feb-23 06:00N 24°26' E 117°52'45778239070.4
2018-Feb-23 06:00N 44°09' E 028°40'45611824259.5
2018-Feb-23 06:00N 40°38' W 074°09'942233920825.1
2018-Feb-23 06:00N 31°59' E 120°26'475189904.4
2018-Feb-23 06:00N 24°20' E 118°08'6577783.9
2018-Feb-23 06:00N 23°32' E 117°20'6311876.8
2018-Feb-23 06:00N 24°24' E 117°59'1619176599.1
2018-Feb-23 05:59N 01°21' E 103°37'176693498.1
2018-Feb-23 05:58N 25°10' E 121°23'17811461.7
2018-Feb-23 05:57N 24°33' E 118°11'429771461.3
2018-Feb-23 05:57N 31°12' E 121°07'4412164.6
2018-Feb-23 05:45N 24°24' E 117°58'4675319.9
2018-Feb-23 05:40N 31°37' E 121°16'101619.9
2018-Feb-23 05:39N 31°29' E 121°24'27919707.2
2018-Feb-23 05:38N 36°02' E 120°13'2659645.7
2018-Feb-23 05:37N 31°41' E 121°11'151073.0
2018-Feb-23 05:36N 31°30' E 121°22'4635124.6
2018-Feb-23 05:30N 24°26' E 117°52'45778239070.4
2018-Feb-23 05:30N 44°09' E 028°40'44504004688.9
2018-Feb-23 05:30N 31°37' E 121°17'20817492853.8
2018-Feb-23 05:30N 01°21' E 103°37'16311957445.4
2018-Feb-23 05:30N 24°32' E 118°10'910942.7
2018-Feb-23 05:30N 24°26' E 118°03'84294.9
2018-Feb-23 05:30N 24°20' E 118°08'46435506.7
2018-Feb-23 05:29N 31°32' E 121°20'42585.0
2018-Feb-23 05:29N 31°30' E 121°23'5091830705.7
2018-Feb-23 05:29N 23°44' E 117°33'227272122.4
2018-Feb-23 05:29N 25°09' E 121°23'98951017747.0
2018-Feb-23 05:29N 40°38' W 074°09'9504375997.7
2018-Feb-23 05:27N 31°12' E 121°07'2944614.6
2018-Feb-23 05:23N 36°02' E 120°13'2442708.8
2018-Feb-23 05:18N 31°59' E 120°26'2442395.4
2018-Feb-23 05:12N 36°03' E 120°19'2783768.9
2018-Feb-23 05:07N 31°30' E 121°24'321837.1
2018-Feb-23 05:06N 31°05' E 120°59'325164.0
2018-Feb-23 05:06N 31°30' E 121°22'148.1
2018-Feb-23 05:04N 31°30' E 121°24'4617273.8
2018-Feb-23 05:01N 24°25' E 118°01'813731.6
2018-Feb-23 05:00N 24°26' E 117°52'457716478140.8
2018-Feb-23 05:00N 44°09' E 028°40'48784390042.4
2018-Feb-23 05:00N 01°21' E 103°37'20781870560.7
2018-Feb-23 05:00N 31°30' E 121°23'22998.9
2018-Feb-23 05:00N 31°31' E 121°21'464166990.9
2018-Feb-23 05:00N 24°20' E 118°08'133073.3
2018-Feb-23 05:00N 24°33' E 118°11'462554361.1
2018-Feb-23 05:00N 31°59' E 120°26'534174715.1
2018-Feb-23 05:00N 23°32' E 117°18'97861761531.5
2018-Feb-23 04:59N 40°38' W 074°09'98945088359.8
2018-Feb-23 04:59N 25°09' E 121°23'3861388034.8
2018-Feb-23 04:59N 31°35' E 121°19'512230235.0
2018-Feb-23 04:59N 23°44' E 117°33'509166492.5
2018-Feb-23 04:59N 31°30' E 121°23'23786.7
2018-Feb-23 04:57N 31°12' E 121°07'29434119.2
2018-Feb-23 04:57N 36°03' E 120°19'010.3
2018-Feb-23 04:56N 36°03' E 120°19'30025083.6
2018-Feb-23 04:55N 31°06' E 120°58'3492511.2
2018-Feb-23 04:47N 25°19' E 121°43'37112609.9
2018-Feb-23 04:45N 31°30' E 121°22'26518315.3
2018-Feb-23 04:44N 35°51' E 120°33'20445.2
2018-Feb-23 04:41N 36°02' E 120°13'7115923.6
2018-Feb-23 04:34N 24°20' E 118°08'46310093.9
2018-Feb-23 04:31N 31°28' E 121°26'50832098.1
2018-Feb-23 04:30N 23°44' E 117°33'510229344.7
2018-Feb-23 04:30N 31°32' E 121°20'44555346543.0
2018-Feb-23 04:30N 44°09' E 028°40'44552672960.3
2018-Feb-23 04:30N 31°33' E 121°20'528633531.8
2018-Feb-23 04:30N 23°31' E 117°16'68122561.6
2018-Feb-23 04:30N 24°20' E 118°08'433519146.4
2018-Feb-23 04:30N 31°06' E 120°57'432518504.2
2018-Feb-23 04:30N 24°26' E 117°52'976135141016.0
2018-Feb-23 04:30N 40°38' W 074°09'949817096997.4
2018-Feb-23 04:30N 31°30' E 121°22'2078534328.9
2018-Feb-23 04:30N 01°21' E 103°37'20771495526.9
2018-Feb-23 04:30N 31°59' E 120°26'24454852.4
2018-Feb-23 04:29N 36°02' E 120°13'65644543.8
2018-Feb-23 04:28N 25°09' E 121°22'645116075.8
2018-Feb-23 04:28N 35°53' E 120°32'26821443.3
2018-Feb-23 04:27N 31°28' E 121°26'235157.6
2018-Feb-23 04:27N 31°12' E 121°07'234317.5
2018-Feb-23 04:27N 31°32' E 121°21'37620813.7
2018-Feb-23 04:26N 25°16' E 121°43'20219701.2
2018-Feb-23 04:25N 24°20' E 118°08'71398658.0
2018-Feb-23 04:25N 36°03' E 120°19'7007121.8
2018-Feb-23 04:19N 24°32' E 118°10'4533808.0
2018-Feb-23 04:12N 31°33' E 121°19'2755500.8
2018-Feb-23 04:09N 36°03' E 120°18'70923422.6
2018-Feb-23 04:07N 24°25' E 117°52'1 8.6
2018-Feb-23 04:00N 24°26' E 117°52'45778239068.6
2018-Feb-23 04:00N 44°09' E 028°40'44543206618.0
2018-Feb-23 04:00N 31°33' E 121°19'4531629598.3
2018-Feb-23 04:00N 24°32' E 118°10'6017855.7
2018-Feb-23 04:00N 23°44' E 117°32'4943905.3
2018-Feb-23 04:00N 24°20' E 118°08'4631667204.5
2018-Feb-23 04:00N 31°30' E 121°23'4621663339.3
2018-Feb-23 04:00N 24°21' E 118°07'7062639.5
2018-Feb-23 04:00N 23°31' E 117°14'978435221675.3
2018-Feb-23 04:00N 40°38' W 074°09'94883415537.8
2018-Feb-23 04:00N 31°36' E 121°17'2081174182.4
2018-Feb-23 03:59N 01°21' E 103°37'2285117529.4
2018-Feb-23 03:58N 35°55' E 120°28'28521829.7
2018-Feb-23 03:57N 31°12' E 121°07'29448033.5
2018-Feb-23 03:57N 36°02' E 120°13'5541.3
2018-Feb-23 03:56N 36°03' E 120°19'24410992.9
2018-Feb-23 03:55N 31°59' E 120°26'2445943.7
2018-Feb-23 03:52N 36°03' E 120°18'2765142.7
2018-Feb-23 03:49N 31°32' E 121°20'594.7
2018-Feb-23 03:46N 31°36' E 121°16'46644165.9
2018-Feb-23 03:45N 24°24' E 117°58'7118889.1
2018-Feb-23 03:40N 36°03' E 120°29'2701756.1
2018-Feb-23 03:31N 31°36' E 121°16'4450320366.9
2018-Feb-23 03:30N 44°09' E 028°40'458916519683.6
2018-Feb-23 03:30N 24°32' E 118°12'455204849.1
2018-Feb-23 03:30N 31°38' E 121°14'513923373.9
2018-Feb-23 03:30N 23°44' E 117°32'4627359.2
2018-Feb-23 03:30N 24°26' E 117°52'159080.1
2018-Feb-23 03:30N 24°21' E 118°08'97801408286.5
2018-Feb-23 03:30N 40°38' W 074°09'9782482417.6
2018-Feb-23 03:28N 23°32' E 117°13'528189979.3
2018-Feb-23 03:28N 31°32' E 121°21'67475876.1
2018-Feb-23 03:28N 22°18' E 114°10'67686894.4
2018-Feb-23 03:27N 31°36' E 121°17'2511303.2
2018-Feb-23 03:27N 31°12' E 121°07'28894312.7
2018-Feb-23 03:27N 35°58' E 120°24'2286249418.5
2018-Feb-23 03:26N 01°21' E 103°37'2291152748.8
2018-Feb-23 03:25N 36°03' E 120°26'2449342.7
2018-Feb-23 03:24N 31°59' E 120°26'24440001.0
2018-Feb-23 03:24N 36°03' E 120°19'112.4
2018-Feb-23 03:20N 36°03' E 120°18'2705547.1
2018-Feb-23 03:18N 31°38' E 121°15'2691047.7
2018-Feb-23 03:02N 36°03' E 120°19'70825757.9
2018-Feb-23 03:00N 24°26' E 117°52'45778239068.6
2018-Feb-23 03:00N 44°09' E 028°40'44538015826.1
2018-Feb-23 03:00N 31°34' E 121°19'528380232.7
2018-Feb-23 03:00N 23°32' E 117°15'532956730.3
2018-Feb-23 03:00N 31°40' E 121°12'465128889.4
2018-Feb-23 03:00N 24°25' E 118°06'58796.1
2018-Feb-23 03:00N 24°25' E 118°00'4843474.5
2018-Feb-23 03:00N 23°44' E 117°32'5432239.5
2018-Feb-23 03:00N 24°29' E 118°04'1626146322.3
2018-Feb-23 02:59N 01°21' E 103°37'102332455922.9
2018-Feb-23 02:59N 40°38' W 074°09'9158339881.0
2018-Feb-23 02:57N 36°02' E 120°21'29270154.8
2018-Feb-23 02:57N 31°12' E 121°07'50614222.7
2018-Feb-23 02:55N 22°49' E 120°07'79415207.1
2018-Feb-23 02:52N 36°03' E 120°19'5104.3
2018-Feb-23 02:49N 36°02' E 120°13'5137.4
2018-Feb-23 02:47N 36°03' E 120°19'2454947.7
2018-Feb-23 02:44N 31°59' E 120°26'52417145.1
2018-Feb-23 02:42N 23°39' E 117°27'75753450.7
2018-Feb-23 02:41N 36°02' E 120°18'69920793.1
2018-Feb-23 02:39N 24°32' E 118°10'18119.7
2018-Feb-23 02:30N 24°26' E 117°52'4682077.5
2018-Feb-23 02:30N 23°44' E 117°32'4580522.5
2018-Feb-23 02:30N 24°25' E 117°52'16165817984.0
2018-Feb-23 02:30N 01°21' E 103°37'1630977736.3
2018-Feb-23 02:30N 24°33' E 118°06'6425545.1
2018-Feb-23 02:30N 23°39' E 117°27'4931774440.6
2018-Feb-23 02:30N 31°12' E 121°07'436174571.1
2018-Feb-23 02:30N 24°27' E 118°05'7012614.0
2018-Feb-23 02:30N 23°32' E 117°17'16115251.4
2018-Feb-23 02:29N 22°50' E 120°06'79319028.8
2018-Feb-23 02:27N 36°03' E 120°16'2452620.1
2018-Feb-23 02:21N 31°59' E 120°26'2441863.4
2018-Feb-23 02:13N 36°02' E 120°13'7083384.3
2018-Feb-23 02:01N 24°23' E 118°06'142511417.6
2018-Feb-23 02:00N 22°52' E 120°05'154554268.1
2018-Feb-23 02:00N 24°26' E 117°52'6244618.2
2018-Feb-23 02:00N 23°32' E 117°18'7645756.5
2018-Feb-23 02:00N 24°32' E 118°10'97711758744.4
2018-Feb-23 02:00N 40°38' W 074°09'4561529623.3
2018-Feb-23 01:59N 44°09' E 028°40'48784390044.9
2018-Feb-23 01:59N 01°21' E 103°37'15725658529.8
2018-Feb-23 01:59N 23°44' E 117°32'573276.6
2018-Feb-23 01:58N 24°33' E 118°06'43021517.8
2018-Feb-23 01:57N 31°12' E 121°07'2949031.8
2018-Feb-23 01:55N 36°02' E 120°13'24412906.4
2018-Feb-23 01:54N 31°59' E 120°26'4734151.4
2018-Feb-23 01:47N 24°24' E 117°59'22577.3
2018-Feb-23 01:45N 24°09' E 118°16'4835994.5
2018-Feb-23 01:40N 31°58' E 120°26'034.1
2018-Feb-23 01:40N 31°58' E 120°26'228.3
2018-Feb-23 01:36N 31°60' E 120°27'4765693.3
2018-Feb-23 01:30N 24°20' E 118°08'1657456.6
2018-Feb-23 01:30N 24°26' E 117°52'1451124.4
2018-Feb-23 01:30N 24°33' E 118°06'458416501502.8
2018-Feb-23 01:30N 44°09' E 028°40'460516578071.8
2018-Feb-23 01:30N 24°11' E 118°15'6319000.1
2018-Feb-23 01:30N 23°35' E 117°18'66118981.8
2018-Feb-23 01:30N 24°27' E 118°03'470281708.6
2018-Feb-23 01:30N 31°59' E 120°27'546393266.2
2018-Feb-23 01:30N 22°53' E 120°04'14918498.3
2018-Feb-23 01:30N 23°44' E 117°32'5915217.4
2018-Feb-23 01:29N 24°32' E 118°10'97711758743.4
2018-Feb-23 01:29N 40°38' W 074°09'102331083494.8
2018-Feb-23 01:28N 01°21' E 103°37'205696110.1
2018-Feb-23 01:27N 31°12' E 121°07'581329.6
2018-Feb-23 01:24N 31°59' E 120°26'2445102.7
2018-Feb-23 01:22N 36°02' E 120°13'71149250.3
2018-Feb-23 01:21N 24°19' E 118°07'4768781.7
2018-Feb-23 01:18N 31°59' E 120°27'2452709.9
2018-Feb-23 01:12N 36°03' E 120°19'7894092.5
2018-Feb-23 01:01N 22°55' E 120°04'136488786.0
2018-Feb-23 01:01N 24°20' E 118°08'1113793.0
2018-Feb-23 01:00N 24°31' E 118°05'723562.8
2018-Feb-23 01:00N 24°25' E 118°01'1450879.1
2018-Feb-23 01:00N 24°15' E 118°12'4828600.9
2018-Feb-23 01:00N 23°44' E 117°32'4718978.0
2018-Feb-23 01:00N 24°19' E 118°08'476428221.6
2018-Feb-23 01:00N 31°59' E 120°26'94221211451.8
2018-Feb-23 01:00N 40°38' W 074°09'102331083495.3
2018-Feb-23 00:59N 01°21' E 103°37'205662715.9
2018-Feb-23 00:57N 31°12' E 121°07'2946334.3
2018-Feb-23 00:54N 36°03' E 120°19'533.0
2018-Feb-23 00:46N 36°02' E 120°13'7023957.4
2018-Feb-23 00:35N 24°29' E 118°04'8105.8
2018-Feb-23 00:30N 24°22' E 118°07'621882.7
2018-Feb-23 00:30N 24°27' E 118°04'458616510288.7
2018-Feb-23 00:30N 44°09' E 028°40'45958271228.1
2018-Feb-23 00:30N 24°19' E 118°08'112055.0
2018-Feb-23 00:30N 24°29' E 118°04'1220791.2
2018-Feb-23 00:30N 24°20' E 118°12'195283.4
2018-Feb-23 00:30N 24°25' E 117°52'9762481401.7
2018-Feb-23 00:29N 40°38' W 074°09'979717634964.8
2018-Feb-23 00:29N 23°25' E 117°22'15114679.0
2018-Feb-23 00:28N 22°55' E 120°03'50015530.7
2018-Feb-23 00:26N 31°12' E 121°07'58141.3
2018-Feb-23 00:01N 32°00' E 120°27'47139432.2
2018-Feb-23 00:01N 24°26' E 118°05'142255899.4
2018-Feb-23 00:00N 22°54' E 120°04'47458541883.3
2018-Feb-23 00:00N 44°09' E 028°40'457716478158.1
2018-Feb-23 00:00N 24°26' E 117°52'1346576.1
2018-Feb-23 00:00N 24°23' E 118°06'4255.0
2018-Feb-22 23:59N 24°19' E 118°07'97804401133.8
2018-Feb-22 23:59N 40°38' W 074°09'97912517667.6
2018-Feb-22 23:59N 23°29' E 117°20'53787900.0
2018-Feb-22 23:59N 31°60' E 120°27'47337014.2
2018-Feb-22 23:58N 24°21' E 118°16'43830927.9
2018-Feb-22 23:57N 31°12' E 121°07'2056528605.8
2018-Feb-22 23:57N 01°21' E 103°37'15776372.7
2018-Feb-22 23:42N 23°49' E 117°36'7473940.5
2018-Feb-22 23:31N 36°02' E 120°13'42301269075.6
2018-Feb-22 23:30N 44°09' E 028°40'48783512038.6
2018-Feb-22 23:30N 01°21' E 103°37'17661271601.8
2018-Feb-22 23:30N 25°09' E 121°24'197353876.8
2018-Feb-22 23:30N 24°26' E 117°52'9761616508.8
2018-Feb-22 23:29N 40°38' W 074°09'99652110283.8
2018-Feb-22 23:29N 22°53' E 120°04'54622608.4
2018-Feb-22 23:28N 31°59' E 120°26'582244.6
2018-Feb-22 23:26N 31°12' E 121°07'43823897.1
2018-Feb-22 23:25N 24°21' E 118°16'12184.9
2018-Feb-22 23:21N 24°27' E 118°04'7046964.3
2018-Feb-22 23:15N 36°02' E 120°13'7913287.7
2018-Feb-22 23:01N 22°52' E 120°05'1612725609.0
2018-Feb-22 23:00N 01°21' E 103°37'1617727659.3
2018-Feb-22 23:00N 24°26' E 117°52'112837.3
2018-Feb-22 23:00N 24°27' E 118°04'45864127527.1
2018-Feb-22 23:00N 44°09' E 028°40'4561912127.3
2018-Feb-22 23:00N 40°38' W 074°09'97862348608.9
2018-Feb-22 22:59N 24°21' E 118°16'472130631.0
2018-Feb-22 22:59N 31°59' E 120°26'581683.5
2018-Feb-22 22:57N 31°12' E 121°07'36323318.0
2018-Feb-22 22:56N 25°10' E 121°24'65526214.9
2018-Feb-22 22:55N 36°02' E 120°13'3201162.9
2018-Feb-22 22:38N 30°57' E 122°11'4525458.3
2018-Feb-22 22:33N 24°24' E 117°59'0 0.0
2018-Feb-22 22:31N 24°24' E 117°59'45843300362.7
2018-Feb-22 22:30N 44°09' E 028°40'45994139252.9
2018-Feb-22 22:30N 24°21' E 118°16'228716.7
2018-Feb-22 22:30N 24°26' E 117°52'112837.3
2018-Feb-22 22:30N 24°27' E 118°04'977017586746.9
2018-Feb-22 22:30N 40°38' W 074°09'9891741830.9
2018-Feb-22 22:29N 25°10' E 121°20'17641058586.9
2018-Feb-22 22:29N 01°21' E 103°37'2077152604.5
2018-Feb-22 22:28N 31°59' E 120°26'581557.8
2018-Feb-22 22:26N 31°12' E 121°07'571016.7
2018-Feb-22 22:23N 30°55' E 122°10'114.8
2018-Feb-22 22:17N 30°57' E 122°10'4934143.5
2018-Feb-22 22:10N 23°49' E 117°36'41256.6
2018-Feb-22 22:01N 24°24' E 117°59'45844125453.4
2018-Feb-22 22:00N 44°09' E 028°40'45774119534.3
2018-Feb-22 22:00N 24°26' E 117°52'2226295.2
2018-Feb-22 22:00N 24°21' E 118°16'1625731297.5
2018-Feb-22 22:00N 01°21' E 103°37'102332833756.9
2018-Feb-22 22:00N 40°38' W 074°09'9504198929.1
2018-Feb-22 21:57N 31°12' E 121°07'436196240.0
2018-Feb-22 21:57N 24°27' E 118°04'46922499.8
2018-Feb-22 21:56N 31°59' E 120°26'5132432.9
2018-Feb-22 21:43N 23°49' E 117°36'47611740.2
2018-Feb-22 21:41N 30°44' E 121°59'3353725.3
2018-Feb-22 21:35N 25°10' E 121°23'471658946.0
2018-Feb-22 21:30N 44°09' E 028°40'48784390049.6
2018-Feb-22 21:30N 01°21' E 103°37'102339209709.9
2018-Feb-22 21:30N 40°38' W 074°09'97701674928.3
2018-Feb-22 21:30N 24°27' E 118°04'61375.6
2018-Feb-22 21:30N 24°24' E 117°59'19120839.3
2018-Feb-22 21:29N 25°10' E 121°23'1966610.0
2018-Feb-22 21:27N 24°26' E 117°52'44118907.0
2018-Feb-22 21:26N 31°12' E 121°07'5083901.7
2018-Feb-22 21:18N 22°47' E 120°09'141472.7
2018-Feb-22 21:00N 24°21' E 118°16'45991505191.4
2018-Feb-22 21:00N 44°09' E 028°40'45771029883.6
2018-Feb-22 21:00N 24°26' E 117°52'19421132.3
2018-Feb-22 20:59N 25°09' E 121°20'1764186814.5
2018-Feb-22 20:59N 01°21' E 103°37'162453637.9
2018-Feb-22 20:57N 24°27' E 118°04'97701954082.0
2018-Feb-22 20:57N 40°38' W 074°09'95211713810.0
2018-Feb-22 20:56N 31°14' E 121°30'5144282.3
2018-Feb-22 20:49N 22°45' E 120°13'5102748.0
2018-Feb-22 20:38N 31°12' E 121°07'2942434.9
2018-Feb-22 20:31N 36°02' E 120°13'4230951806.0
2018-Feb-22 20:30N 44°09' E 028°40'48784390045.7
2018-Feb-22 20:30N 01°21' E 103°37'16241948256.2
2018-Feb-22 20:30N 24°21' E 118°14'111535.2
2018-Feb-22 20:30N 24°27' E 118°04'97702069029.1
2018-Feb-22 20:30N 40°38' W 074°09'9895287267.5
2018-Feb-22 20:28N 25°09' E 121°23'36346714.3
2018-Feb-22 20:27N 31°12' E 121°07'2872549.1
2018-Feb-22 20:20N 35°59' E 120°35'18107.0
2018-Feb-22 20:10N 36°02' E 120°13'423025594.8
2018-Feb-22 20:00N 44°09' E 028°40'48782508596.1
2018-Feb-22 20:00N 01°21' E 103°37'16175821270.5
2018-Feb-22 20:00N 24°26' E 117°52'111589.0
2018-Feb-22 20:00N 24°27' E 118°04'916829.2
2018-Feb-22 20:00N 24°19' E 118°10'1834800.8
2018-Feb-22 19:58N 25°09' E 121°23'36345102.7
2018-Feb-22 19:57N 31°12' E 121°07'2942096.7
2018-Feb-22 19:49N 36°02' E 120°13'915157496.0
2018-Feb-22 19:39N 40°38' W 074°09'9164135212.8
2018-Feb-22 19:35N 35°60' E 120°26'24161930.3
2018-Feb-22 19:35N 31°59' E 120°26'439659945.9
2018-Feb-22 19:30N 44°09' E 028°40'4577915452.3
2018-Feb-22 19:30N 24°26' E 117°52'976135141016.0
2018-Feb-22 19:30N 40°38' W 074°09'97702512390.9
2018-Feb-22 19:30N 24°27' E 118°04'162444973.4
2018-Feb-22 19:28N 01°21' E 103°37'1766205090.8
2018-Feb-22 19:27N 25°09' E 121°23'4135140.8
2018-Feb-22 19:22N 31°59' E 120°26'2415913.4
2018-Feb-22 19:20N 36°00' E 120°23'529685884.5
2018-Feb-22 19:16N 48°57' E 001°60'5571145335.8
2018-Feb-22 19:14N 31°12' E 121°07'4822394.3
2018-Feb-22 19:02N 23°49' E 117°36'2229633.4
2018-Feb-22 19:00N 25°10' E 121°23'47168488477.3
2018-Feb-22 19:00N 44°09' E 028°40'45771647814.1
2018-Feb-22 19:00N 24°26' E 117°52'111471.3
2018-Feb-22 19:00N 24°27' E 118°04'462883.8
2018-Feb-22 18:59N 23°49' E 117°36'48216200.8
2018-Feb-22 18:57N 31°12' E 121°07'95041900876.1
2018-Feb-22 18:57N 40°38' W 074°09'10233223265.7
2018-Feb-22 18:54N 01°21' E 103°37'228732667.8
2018-Feb-22 18:50N 36°02' E 120°17'27817251.5
2018-Feb-22 18:49N 31°29' E 121°23'2129.9
2018-Feb-22 18:48N 31°31' E 121°24'2787461.3
2018-Feb-22 18:46N 36°02' E 120°13'423016499.4
2018-Feb-22 18:30N 44°09' E 028°40'4878319275.9
2018-Feb-22 18:30N 01°21' E 103°37'1617171213.9
2018-Feb-22 18:29N 24°26' E 117°52'44114054.8
2018-Feb-22 18:27N 31°12' E 121°07'436104658.6
2018-Feb-22 18:27N 24°27' E 118°04'9770434239.9
2018-Feb-22 18:25N 40°38' W 074°09'9149129664.0
2018-Feb-22 18:21N 36°05' E 120°14'7102046.3
2018-Feb-22 18:00N 24°26' E 117°52'16171455318.1
2018-Feb-22 18:00N 01°21' E 103°37'48781097511.3
2018-Feb-22 18:00N 44°09' E 028°40'445889161.7
2018-Feb-22 17:57N 31°12' E 121°07'4367969.0
2018-Feb-22 17:54N 24°27' E 118°04'70421484.3
2018-Feb-22 17:52N 36°02' E 120°13'9151135021.1
2018-Feb-22 17:48N 40°38' W 074°09'61841957.0
2018-Feb-22 17:47N 31°59' W 081°03'1025548961.8
2018-Feb-22 17:34N 31°58' E 120°26'439668211.7
2018-Feb-22 17:30N 44°09' E 028°40'48781254298.5
2018-Feb-22 17:30N 01°21' E 103°37'1624224867.1
2018-Feb-22 17:30N 24°27' E 118°04'111281.4
2018-Feb-22 17:29N 24°26' E 117°52'97613514101.6
2018-Feb-22 17:29N 40°38' W 074°09'9423302868.3
2018-Feb-22 17:27N 31°58' E 120°26'582569.5
2018-Feb-22 17:26N 31°12' E 121°07'36314217.2
2018-Feb-22 17:24N 25°09' E 121°23'1 1.4
2018-Feb-22 17:01N 25°10' E 121°23'414744804.6
2018-Feb-22 17:00N 32°00' E 120°27'439615823945.6
2018-Feb-22 17:00N 44°09' E 028°40'457716478140.8
2018-Feb-22 17:00N 24°26' E 117°52'105261222398.8
2018-Feb-22 17:00N 31°59' W 081°02'10771901779.8
2018-Feb-22 16:59N 01°21' E 103°37'205658271.7
2018-Feb-22 16:57N 31°12' E 121°07'43692348.2
2018-Feb-22 16:57N 24°27' E 118°04'443617963.9
2018-Feb-22 16:42N 31°49' E 034°39'442622992.1
2018-Feb-22 16:30N 24°26' E 117°52'44262276216.9
2018-Feb-22 16:30N 31°49' E 034°39'43672620111.5
2018-Feb-22 16:30N 01°21' E 103°37'107712040804.2
2018-Feb-22 16:30N 32°01' W 081°02'105356320746.2
2018-Feb-22 16:30N 24°27' E 118°04'4586532583.6
2018-Feb-22 16:29N 44°09' E 028°40'4396452155.5
2018-Feb-22 16:29N 31°60' E 120°27'41487566.4
2018-Feb-22 16:28N 25°09' E 121°23'36316340.7
2018-Feb-22 16:27N 31°12' E 121°07'4664424.1
2018-Feb-22 16:21N 23°34' E 119°34'469513864.6
2018-Feb-22 16:00N 44°09' E 028°40'47161697779.4
2018-Feb-22 16:00N 25°09' E 121°23'197353750.6
2018-Feb-22 16:00N 24°26' E 117°52'161781989.8
2018-Feb-22 15:59N 01°21' E 103°37'4367604641.8
2018-Feb-22 15:59N 31°49' E 034°39'4423171216.6
2018-Feb-22 15:57N 31°12' E 121°07'2942716.6
2018-Feb-22 15:51N 36°02' E 120°13'423012585.9
2018-Feb-22 15:30N 44°09' E 028°40'45778239068.6
2018-Feb-22 15:30N 24°26' E 117°52'105203787327.5
2018-Feb-22 15:30N 32°04' W 080°59'10767317729.3
2018-Feb-22 15:28N 01°21' E 103°37'1766397452.3
2018-Feb-22 15:28N 25°10' E 121°24'36325122.5
2018-Feb-22 15:27N 31°12' E 121°07'2941247.6
2018-Feb-22 15:13N 36°02' E 120°13'423020278.2
2018-Feb-22 15:00N 44°09' E 028°40'52271567970.2
2018-Feb-22 15:00N 32°06' W 080°60'105193787002.6
2018-Feb-22 15:00N 24°26' E 117°52'161757636.4
2018-Feb-22 14:58N 01°21' E 103°37'205648687.4
2018-Feb-22 14:56N 31°12' E 121°07'29417910.8
2018-Feb-22 14:55N 36°02' E 120°13'2441298.3
2018-Feb-22 14:44N 31°59' E 120°26'439620032.3
2018-Feb-22 14:30N 44°09' E 028°40'45778239068.6
2018-Feb-22 14:30N 24°26' E 117°52'105223787982.2
2018-Feb-22 14:30N 32°05' W 081°02'100071242219.0
2018-Feb-22 14:30N 36°02' E 120°13'24415957.1
2018-Feb-22 14:29N 31°59' E 120°26'581969.3
2018-Feb-22 14:27N 31°12' E 121°07'205611709.6
2018-Feb-22 14:17N 01°21' E 103°37'487818197.1
2018-Feb-22 14:00N 44°09' E 028°40'52301569074.9
2018-Feb-22 14:00N 32°05' W 081°04'1052418942439.2
2018-Feb-22 14:00N 24°26' E 117°52'1617116425.4
2018-Feb-22 13:59N 01°21' E 103°37'205653240.9
2018-Feb-22 13:57N 31°12' E 121°07'581373.2
2018-Feb-22 13:55N 31°59' E 120°26'2441255.6
2018-Feb-22 13:43N 36°02' E 120°13'423020414.1
2018-Feb-22 13:30N 44°09' E 028°40'52301448359.5
2018-Feb-22 13:30N 32°05' W 081°04'1052437884620.2
2018-Feb-22 13:30N 24°26' E 117°52'1617582126.9
2018-Feb-22 13:30N 01°21' E 103°37'1624307711.8
2018-Feb-22 13:30N 24°27' E 118°04'704133428.9
2018-Feb-22 13:29N 36°02' E 120°13'24410087.8
2018-Feb-22 13:28N 31°59' E 120°26'581630.9
2018-Feb-22 13:26N 31°12' E 121°07'445810530.9
2018-Feb-22 13:00N 44°09' E 028°40'45775492713.6
2018-Feb-22 13:00N 24°26' E 117°52'16175821270.5
2018-Feb-22 13:00N 01°21' E 103°37'107715539584.9
2018-Feb-22 13:00N 32°05' W 081°04'10327194649.1
2018-Feb-22 12:57N 31°12' E 121°07'584441.1
2018-Feb-22 12:56N 31°59' E 120°26'46911029.3
2018-Feb-22 12:54N 24°27' E 118°04'7045417.0
2018-Feb-22 12:46N 36°02' E 120°13'74920432.5
2018-Feb-22 12:44N 23°34' E 119°35'47113145.8
2018-Feb-22 12:42N 31°14' E 121°30'447524080.6
2018-Feb-22 12:30N 44°09' E 028°40'48784390047.5
2018-Feb-22 12:30N 01°21' E 103°37'107715539610.2
2018-Feb-22 12:30N 32°05' W 081°04'1052437884876.1
2018-Feb-22 12:30N 24°26' E 117°52'1074229.4
2018-Feb-22 12:29N 23°34' E 119°35'74961297.6
2018-Feb-22 12:28N 36°02' E 120°13'29419213.4
2018-Feb-22 12:27N 31°12' E 121°07'4367849.7
2018-Feb-22 12:24N 24°27' E 118°04'44559385.7
2018-Feb-22 12:23N 31°14' E 121°30'49110280.1
2018-Feb-22 12:20N 23°49' E 117°36'22211938.5
2018-Feb-22 12:19N 25°09' E 121°23'989533259.7
2018-Feb-22 12:01N 40°38' W 074°09'9761557793.3
2018-Feb-22 12:00N 24°26' E 117°52'45772059769.8
2018-Feb-22 12:00N 44°09' E 028°40'52309414448.8
2018-Feb-22 12:00N 32°05' W 081°04'106713201200.7
2018-Feb-22 12:00N 25°10' E 121°23'18537089.2
2018-Feb-22 12:00N 24°27' E 118°04'466969.3
2018-Feb-22 11:59N 23°49' E 117°36'97852709689.8
2018-Feb-22 11:59N 40°38' W 074°09'9151374377.1
2018-Feb-22 11:58N 36°02' E 120°13'29430192.5
2018-Feb-22 11:57N 31°12' E 121°07'2056672772.5
2018-Feb-22 11:57N 01°21' E 103°37'162923452.4
2018-Feb-22 11:53N 23°34' E 119°35'4723496.8
2018-Feb-22 11:45N 31°15' E 121°30'4513104.6
2018-Feb-22 11:36N 24°24' E 117°59'0 0.0
2018-Feb-22 11:30N 24°24' E 117°59'45848250915.3
2018-Feb-22 11:30N 44°09' E 028°40'52301569072.6
2018-Feb-22 11:30N 32°05' W 081°04'1052437884876.1
2018-Feb-22 11:30N 24°26' E 117°52'1617646808.3
2018-Feb-22 11:30N 01°21' E 103°37'102332166989.1
2018-Feb-22 11:30N 40°38' W 074°09'9770190126.7
2018-Feb-22 11:27N 24°27' E 118°04'43629072.6
2018-Feb-22 11:26N 31°12' E 121°07'466418976.8
2018-Feb-22 11:26N 23°34' E 119°35'5062844.1
2018-Feb-22 11:15N 31°58' E 120°26'4721943.4
2018-Feb-22 11:00N 24°24' E 117°59'458416501830.7
2018-Feb-22 11:00N 44°09' E 028°40'45773295630.9
2018-Feb-22 11:00N 24°26' E 117°52'105245412125.2
2018-Feb-22 11:00N 32°05' W 081°04'105331115283.6
2018-Feb-22 11:00N 24°27' E 118°04'1624153856.4
2018-Feb-22 10:59N 01°21' E 103°37'205662189.0
2018-Feb-22 10:57N 31°12' E 121°07'586296.7
2018-Feb-22 10:57N 31°59' E 120°27'5074486.0
2018-Feb-22 10:50N 23°34' E 119°35'46816504.6
2018-Feb-22 10:48N 31°01' E 122°07'351487.4
2018-Feb-22 10:47N 31°14' E 121°29'447416622.3
2018-Feb-22 10:30N 44°09' E 028°40'45772354019.6
2018-Feb-22 10:30N 24°26' E 117°52'976111713660.2
2018-Feb-22 10:30N 40°38' W 074°09'613551352.1
2018-Feb-22 10:30N 32°05' W 081°04'107711846536.9
2018-Feb-22 10:30N 01°21' E 103°37'1624449734.5
2018-Feb-22 10:30N 24°27' E 118°04'70425868.7
2018-Feb-22 10:28N 36°02' E 120°13'29418219.6
2018-Feb-22 10:27N 31°12' E 121°07'48228417.7
2018-Feb-22 10:26N 23°49' E 117°36'10920744.1
2018-Feb-22 10:26N 23°34' E 119°35'46739091.6
2018-Feb-22 10:25N 31°00' E 122°09'1061517.0
2018-Feb-22 10:21N 31°59' E 120°26'133.0
2018-Feb-22 10:19N 31°58' E 120°25'7028119.0
2018-Feb-22 10:19N 31°14' E 121°29'4523640.4
2018-Feb-22 10:11N 24°25' E 117°51'1971116.3
2018-Feb-22 10:01N 25°10' E 121°23'47162425256.1
2018-Feb-22 10:00N 44°09' E 028°40'48788780087.4
2018-Feb-22 10:00N 01°21' E 103°37'102336139801.1
2018-Feb-22 10:00N 40°38' W 074°09'989417809365.7
2018-Feb-22 10:00N 25°10' E 121°23'1067119207281.5
2018-Feb-22 10:00N 32°05' W 081°04'105331115283.6
2018-Feb-22 10:00N 24°27' E 118°04'64129.0
2018-Feb-22 10:00N 24°24' E 117°59'61630.2
2018-Feb-22 09:59N 24°26' E 117°52'10710402.1
2018-Feb-22 09:59N 23°34' E 119°35'46616759.1
2018-Feb-22 09:57N 31°12' E 121°07'5740928.3
2018-Feb-22 09:57N 30°57' E 122°11'1082881.0
2018-Feb-22 09:55N 31°60' E 120°27'2434706.0
2018-Feb-22 09:52N 36°02' E 120°13'24413713.9
2018-Feb-22 09:51N 31°59' E 120°26'4738304.3
2018-Feb-22 09:47N 24°24' E 117°58'458316467.2
2018-Feb-22 09:30N 44°09' E 028°40'458416501798.7
2018-Feb-22 09:30N 24°24' E 117°59'16191456945.3
2018-Feb-22 09:30N 01°21' E 103°37'17663179286.7
2018-Feb-22 09:30N 25°10' E 121°23'106716402445.8
2018-Feb-22 09:30N 32°05' W 081°04'105329478696.8
2018-Feb-22 09:30N 24°27' E 118°03'2172.8
2018-Feb-22 09:30N 24°27' E 118°04'977035173458.5
2018-Feb-22 09:30N 40°38' W 074°09'9761763934.4
2018-Feb-22 09:29N 24°26' E 117°52'4418538.7
2018-Feb-22 09:26N 31°12' E 121°07'581312.0
2018-Feb-22 09:23N 31°59' E 120°26'111870.9
2018-Feb-22 09:15N 30°52' E 122°09'3259523.9
2018-Feb-22 09:13N 36°02' E 120°13'7073280.0
2018-Feb-22 09:01N 24°26' E 117°52'712061.2
2018-Feb-22 09:00N 24°25' E 117°59'458416502229.9
2018-Feb-22 09:00N 44°09' E 028°40'48785853391.6
2018-Feb-22 09:00N 01°21' E 103°37'1766706369.5
2018-Feb-22 09:00N 25°09' E 121°23'1067119207198.9
2018-Feb-22 09:00N 32°05' W 081°04'105331083417.8
2018-Feb-22 09:00N 24°27' E 118°04'43610194.4
2018-Feb-22 08:57N 31°12' E 121°07'46620948.8
2018-Feb-22 08:56N 23°34' E 119°35'5074972.7
2018-Feb-22 08:50N 31°59' E 120°26'1114086.7
2018-Feb-22 08:48N 30°48' E 122°07'4893006.3
2018-Feb-22 08:38N 23°44' E 117°33'2052111.4
2018-Feb-22 08:32N 22°17' E 114°10'4488139277.1
2018-Feb-22 08:30N 44°09' E 028°40'45904130970.4
2018-Feb-22 08:30N 23°44' E 117°33'105426325234.8
2018-Feb-22 08:30N 32°05' W 081°04'107712585147.3
2018-Feb-22 08:30N 01°21' E 103°37'102339209699.3
2018-Feb-22 08:30N 40°38' W 074°09'97701674926.6
2018-Feb-22 08:30N 24°27' E 118°04'25150233.7
2018-Feb-22 08:29N 22°17' E 114°10'25247746.4
2018-Feb-22 08:29N 24°29' E 118°04'11214.3
2018-Feb-22 08:26N 24°26' E 117°52'10764146.1
2018-Feb-22 08:26N 23°34' E 119°35'4661675907.1
2018-Feb-22 08:26N 31°12' E 121°07'581533.7
2018-Feb-22 08:23N 31°59' E 120°26'24410326.0
2018-Feb-22 08:22N 36°02' E 120°13'3306383.6
2018-Feb-22 08:19N 30°46' E 122°03'4416638.7
2018-Feb-22 08:15N 24°26' E 117°51'457618893.4
2018-Feb-22 08:00N 44°09' E 028°40'48788780084.1
2018-Feb-22 08:00N 01°21' E 103°37'15725659125.2
2018-Feb-22 08:00N 23°44' E 117°32'105391459302.2
2018-Feb-22 08:00N 32°05' W 081°02'105215410927.3
2018-Feb-22 08:00N 24°26' E 117°52'976117570507.5
2018-Feb-22 08:00N 40°38' W 074°09'97702931124.4
2018-Feb-22 08:00N 24°27' E 118°04'2176.6
2018-Feb-22 07:59N 24°29' E 118°04'46743110.0
2018-Feb-22 07:58N 31°59' E 120°26'582708.9
2018-Feb-22 07:57N 31°12' E 121°07'20700.4
2018-Feb-22 07:55N 31°15' E 121°30'29566289.2
2018-Feb-22 07:55N 36°02' E 120°13'2796659.4
2018-Feb-22 07:53N 31°29' E 121°23'46210328.5
2018-Feb-22 07:50N 24°24' E 117°58'4355255.7
2018-Feb-22 07:45N 30°44' E 121°59'66914.7
2018-Feb-22 07:41N 31°38' E 121°15'472262.3
2018-Feb-22 07:39N 31°58' E 120°25'46217507.1
2018-Feb-22 07:38N 24°32' E 118°10'4515636.6
2018-Feb-22 07:33N 31°30' E 121°22'46311178.3
2018-Feb-22 07:30N 24°26' E 117°52'4621664981.2
2018-Feb-22 07:30N 31°29' E 121°23'44608027788.1
2018-Feb-22 07:30N 44°09' E 028°40'45898260923.0
2018-Feb-22 07:30N 23°44' E 117°32'105376322414.6
2018-Feb-22 07:30N 32°05' W 080°59'107671490851.7
2018-Feb-22 07:30N 01°21' E 103°37'102332631343.5
2018-Feb-22 07:30N 40°38' W 074°09'942216960405.0
2018-Feb-22 07:30N 31°59' E 120°26'469112465.1
2018-Feb-22 07:29N 24°27' E 118°04'46849544.8
2018-Feb-22 07:29N 31°58' E 120°25'462831597.5
2018-Feb-22 07:29N 24°32' E 118°10'7262.6
2018-Feb-22 07:27N 24°27' E 118°04'42922693.9
2018-Feb-22 07:26N 30°43' E 121°57'33127066.3
2018-Feb-22 07:25N 36°02' E 120°13'2717277.8
2018-Feb-22 07:23N 31°37' E 121°17'4671246.4
2018-Feb-22 07:00N 24°26' E 117°52'457716478137.3
2018-Feb-22 07:00N 44°09' E 028°40'45905507727.7
2018-Feb-22 07:00N 23°44' E 117°32'6023871.5
2018-Feb-22 07:00N 24°33' E 118°11'462184787.8
2018-Feb-22 07:00N 31°59' E 120°26'4721699589.2
2018-Feb-22 07:00N 24°23' E 118°06'62780.4
2018-Feb-22 07:00N 24°25' E 117°60'10529971875.5
2018-Feb-22 06:59N 32°04' W 080°60'103952338918.8
2018-Feb-22 06:59N 30°40' E 121°54'2052738662.7
2018-Feb-22 06:59N 01°21' E 103°37'205668523.1
2018-Feb-22 06:57N 31°12' E 121°07'2943734.1
2018-Feb-22 06:52N 36°02' E 120°13'2751491.9
2018-Feb-22 06:41N 31°33' E 121°20'533350.5
2018-Feb-22 06:40N 31°58' E 120°25'942257008.1
2018-Feb-22 06:30N 40°38' W 074°09'1023312279602.8
2018-Feb-22 06:30N 01°21' E 103°37'16171455316.7
2018-Feb-22 06:30N 24°26' E 117°52'105241804086.6
2018-Feb-22 06:30N 32°03' W 081°02'102505271484.8
2018-Feb-22 06:30N 31°59' E 120°26'46325238.0
2018-Feb-22 06:29N 24°32' E 118°10'45142718.0
2018-Feb-22 06:28N 31°29' E 121°25'46348994.7
2018-Feb-22 06:28N 24°20' E 118°08'46319141.3
2018-Feb-22 06:26N 31°29' E 121°23'3639.2
2018-Feb-22 06:26N 31°32' E 121°22'2417143.6
2018-Feb-22 06:26N 31°12' E 121°07'22216.7
2018-Feb-22 06:20N 31°30' E 121°22'132.4
2018-Feb-22 06:17N 31°29' E 121°23'45674546.0
2018-Feb-22 06:17N 24°29' E 118°04'46770001.3
2018-Feb-22 06:17N 31°58' E 120°27'41238047.2
2018-Feb-22 06:16N 25°09' E 121°24'65614759.5
2018-Feb-22 06:13N 36°02' E 120°13'7087197.9
2018-Feb-22 06:07N 24°25' E 117°52'1 7.7
2018-Feb-22 06:00N 24°26' E 117°52'45778239070.4
2018-Feb-22 06:00N 44°09' E 028°40'48785853389.9
2018-Feb-22 06:00N 01°21' E 103°37'2080623925.1
2018-Feb-22 06:00N 31°31' E 121°24'2799.0
2018-Feb-22 06:00N 31°30' E 121°23'2240284.7
2018-Feb-22 06:00N 31°12' E 121°07'95045702628.7
2018-Feb-22 06:00N 40°38' W 074°09'9894501682.0
2018-Feb-22 05:59N 25°10' E 121°23'18526668.8
2018-Feb-22 05:58N 24°29' E 118°04'467336262.4
2018-Feb-22 05:58N 31°59' E 120°26'47539746.5
2018-Feb-22 05:58N 24°20' E 118°08'463208161.8
2018-Feb-22 05:57N 31°29' E 121°23'46420106.6
2018-Feb-22 05:56N 24°24' E 117°55'39212.8
2018-Feb-22 05:45N 23°49' E 117°36'5132132.3
2018-Feb-22 05:31N 31°59' E 120°26'473567308.1
2018-Feb-22 05:30N 24°26' E 117°52'457716478137.3
2018-Feb-22 05:30N 44°09' E 028°40'48784390045.3
2018-Feb-22 05:30N 01°21' E 103°37'16231460366.6
2018-Feb-22 05:30N 24°26' E 118°03'1053637930752.6
2018-Feb-22 05:30N 31°59' W 081°03'1067512809778.4
2018-Feb-22 05:30N 25°09' E 121°23'98942095211.9
2018-Feb-22 05:30N 40°38' W 074°09'97868807029.9
2018-Feb-22 05:30N 23°44' E 117°32'51043689.2
2018-Feb-22 05:29N 31°32' E 121°20'23647.2
2018-Feb-22 05:27N 31°12' E 121°07'44110525.5
2018-Feb-22 05:25N 24°20' E 118°08'71426229.9
2018-Feb-22 05:23N 36°06' E 120°14'353.3
2018-Feb-22 05:19N 36°02' E 120°14'7026434.6
2018-Feb-22 05:13N 24°29' E 118°04'976847910.9
2018-Feb-22 05:00N 40°38' W 074°09'456116418291.9
2018-Feb-22 05:00N 44°09' E 028°40'48788780087.4
2018-Feb-22 05:00N 01°21' E 103°37'1617970210.8
2018-Feb-22 05:00N 24°26' E 117°52'105301895484.2
2018-Feb-22 05:00N 31°57' W 081°04'102581153983.5
2018-Feb-22 04:59N 31°59' E 120°26'41278103.5
2018-Feb-22 04:59N 25°10' E 121°23'36310535.4
2018-Feb-22 04:57N 31°12' E 121°07'29728867.9
2018-Feb-22 04:56N 36°06' E 120°14'75038559.4
2018-Feb-22 04:55N 23°49' E 117°36'433615.9
2018-Feb-22 04:55N 24°20' E 118°08'1011753.9
2018-Feb-22 04:55N 24°29' E 118°04'7709.7
2018-Feb-22 04:54N 24°24' E 117°58'615.0
2018-Feb-22 04:30N 24°26' E 117°52'473850951.9
2018-Feb-22 04:30N 31°59' E 120°26'439615825733.3
2018-Feb-22 04:30N 44°09' E 028°40'48785853392.2
2018-Feb-22 04:30N 01°21' E 103°37'1572565807.1
2018-Feb-22 04:30N 23°44' E 117°32'105512532261.6
2018-Feb-22 04:30N 31°55' W 081°06'622223945.9
2018-Feb-22 04:30N 40°38' W 074°09'97851136320.2
2018-Feb-22 04:29N 23°49' E 117°36'431480.8
2018-Feb-22 04:28N 24°20' E 118°08'44154805.0
2018-Feb-22 04:27N 31°12' E 121°07'36310213.3
2018-Feb-22 04:25N 25°09' E 121°24'18510270.5
2018-Feb-22 04:24N 24°29' E 118°04'4567664.9
2018-Feb-22 04:20N 31°29' E 121°23'13744.3
2018-Feb-22 04:19N 31°39' E 121°13'12180.3
2018-Feb-22 04:15N 31°30' E 121°22'1 4.7
2018-Feb-22 04:00N 31°29' E 121°23'44608027788.1
2018-Feb-22 04:00N 44°09' E 028°40'48783512035.3
2018-Feb-22 04:00N 01°21' E 103°37'16175821266.7
2018-Feb-22 04:00N 24°26' E 117°52'105349481026.6
2018-Feb-22 04:00N 31°52' W 081°05'624112346.3
2018-Feb-22 04:00N 40°38' W 074°09'94773411626.3
2018-Feb-22 04:00N 31°41' E 121°10'514154274.6
2018-Feb-22 04:00N 23°44' E 117°32'518233060.1
2018-Feb-22 03:59N 31°59' E 120°26'513115407.7
2018-Feb-22 03:59N 23°49' E 117°36'21910116.9
2018-Feb-22 03:58N 25°10' E 121°20'182218541.7
2018-Feb-22 03:58N 24°29' E 118°04'101959.0
2018-Feb-22 03:58N 24°20' E 118°08'44154805.0
2018-Feb-22 03:57N 31°12' E 121°07'22901.5
2018-Feb-22 03:56N 31°30' E 121°22'45128480.5
2018-Feb-22 03:55N 24°32' E 118°10'13103.5
2018-Feb-22 03:47N 24°24' E 117°58'7104236.8
2018-Feb-22 03:37N 36°03' E 120°19'7096733.5
2018-Feb-22 03:31N 24°26' E 117°52'1011645.7
2018-Feb-22 03:30N 24°27' E 118°03'45858253293.7
2018-Feb-22 03:30N 44°09' E 028°40'45895507282.0
2018-Feb-22 03:30N 23°44' E 117°32'97867045616.0
2018-Feb-22 03:30N 40°38' W 074°09'97712512527.5
2018-Feb-22 03:30N 24°33' E 118°12'16322938171.3
2018-Feb-22 03:30N 01°21' E 103°37'1766794672.9
2018-Feb-22 03:30N 25°09' E 121°23'18433104.1
2018-Feb-22 03:30N 24°21' E 118°08'46223087.2
2018-Feb-22 03:28N 31°29' E 121°23'221009.2
2018-Feb-22 03:27N 31°12' E 121°07'582708.9
2018-Feb-22 03:26N 31°59' E 120°26'562027.1
2018-Feb-22 03:24N 31°30' E 121°22'45612820.3
2018-Feb-22 03:22N 24°29' E 118°04'43827675.0
2018-Feb-22 03:21N 31°20' E 120°57'474865.3
2018-Feb-22 03:20N 31°58' E 120°25'2451071.9
2018-Feb-22 03:07N 36°03' E 120°19'7086815.2
2018-Feb-22 03:01N 24°25' E 118°06'4711694362.7
2018-Feb-22 03:00N 31°59' E 120°26'43965275251.5
2018-Feb-22 03:00N 44°09' E 028°40'458416503447.3
2018-Feb-22 03:00N 24°25' E 118°00'16205832516.7
2018-Feb-22 03:00N 01°21' E 103°37'16171940424.1
2018-Feb-22 03:00N 24°26' E 117°52'976111713659.9
2018-Feb-22 03:00N 40°38' W 074°09'978735231951.1
2018-Feb-22 03:00N 23°44' E 117°33'6035822.8
2018-Feb-22 03:00N 24°33' E 118°11'450540216.3
2018-Feb-22 03:00N 31°30' E 121°22'241541.0
2018-Feb-22 02:59N 31°20' E 120°56'10331395639.9
2018-Feb-22 02:58N 31°49' W 081°10'103452660176.8
2018-Feb-22 02:57N 31°29' E 121°23'223796.4
2018-Feb-22 02:57N 31°12' E 121°07'36310218.6
2018-Feb-22 02:55N 25°09' E 121°23'6565182.8
2018-Feb-22 02:47N 36°03' E 120°19'2168.5
2018-Feb-22 02:47N 36°05' E 120°19'70626203.9
2018-Feb-22 02:45N 24°29' E 118°04'4393996.8
2018-Feb-22 02:38N 31°20' E 120°57'48552951.7
2018-Feb-22 02:38N 23°49' E 117°36'74821540.2
2018-Feb-22 02:36N 36°03' E 120°18'41378.1
2018-Feb-22 02:36N 36°06' E 120°14'556.1
2018-Feb-22 02:30N 36°03' E 120°19'915532957414.5
2018-Feb-22 02:30N 40°38' W 074°09'97615856806.9
2018-Feb-22 02:30N 24°25' E 117°51'474243533.2
2018-Feb-22 02:30N 31°59' E 120°26'20773738826.1
2018-Feb-22 02:30N 01°21' E 103°37'15772839050.6
2018-Feb-22 02:30N 23°49' E 117°36'5031810748.4
2018-Feb-22 02:30N 31°30' E 121°22'46397971.1
2018-Feb-22 02:30N 24°26' E 117°52'1119993.7
2018-Feb-22 02:30N 24°27' E 118°04'45826152.0
2018-Feb-22 02:29N 31°29' E 121°23'508914602.3
2018-Feb-22 02:29N 23°44' E 117°32'755247079.6
2018-Feb-22 02:29N 36°05' E 120°19'100332124587.1
2018-Feb-22 02:28N 31°47' W 081°10'10349231402.0
2018-Feb-22 02:26N 31°12' E 121°07'133828.3
2018-Feb-22 02:25N 31°19' E 120°54'3715423.1
2018-Feb-22 02:21N 25°09' E 121°23'65654924.3
2018-Feb-22 02:21N 36°03' E 120°18'70433336.7
2018-Feb-22 02:19N 24°29' E 118°04'7065195.4
2018-Feb-22 02:11N 36°06' E 120°14'914851219.1
2018-Feb-22 02:00N 40°38' W 074°09'456116418304.0
2018-Feb-22 02:00N 44°09' E 028°40'439615825796.7
2018-Feb-22 02:00N 31°59' E 120°26'518186410.3
2018-Feb-22 02:00N 23°44' E 117°32'226406833.8
2018-Feb-22 02:00N 25°09' E 121°22'19563950.4
2018-Feb-22 02:00N 24°26' E 117°52'4072593.4
2018-Feb-22 02:00N 23°49' E 117°36'1577118293.9
2018-Feb-22 01:59N 01°21' E 103°37'162580161.4
2018-Feb-22 01:58N 24°29' E 118°04'740.8
2018-Feb-22 01:48N 24°24' E 117°59'71160945.8
2018-Feb-22 01:47N 36°06' E 120°14'3103.0
2018-Feb-22 01:46N 36°04' E 120°17'246967.8
2018-Feb-22 01:30N 31°59' E 120°26'518621355.5
2018-Feb-22 01:30N 23°45' E 117°32'15721886273.6
2018-Feb-22 01:30N 01°21' E 103°37'16231460942.7
2018-Feb-22 01:30N 24°27' E 118°03'976935169570.6
2018-Feb-22 01:30N 40°38' W 074°09'45611492573.1
2018-Feb-22 01:30N 44°09' E 028°40'47162122040.2
2018-Feb-22 01:30N 25°09' E 121°23'18315350.0
2018-Feb-22 01:29N 24°20' E 118°08'162498.1
2018-Feb-22 01:29N 24°26' E 117°52'112893.2
2018-Feb-22 01:29N 24°29' E 118°04'4843121.5
2018-Feb-22 01:29N 23°49' E 117°36'74733599.7
2018-Feb-22 01:27N 36°02' E 120°14'42319465.8
2018-Feb-22 01:00N 44°09' E 028°40'45774119531.5
2018-Feb-22 01:00N 24°26' E 117°52'71248.7
2018-Feb-22 01:00N 24°25' E 118°00'97692512041.1
2018-Feb-22 01:00N 40°38' W 074°09'102331601687.8
2018-Feb-22 00:59N 01°21' E 103°37'1620729057.5
2018-Feb-22 00:59N 24°20' E 118°08'18318265.6
2018-Feb-22 00:59N 25°09' E 121°22'22166312.7
2018-Feb-22 00:58N 23°49' E 117°36'5132543.2
2018-Feb-22 00:46N 31°59' E 120°26'439616554.0
2018-Feb-22 00:30N 44°09' E 028°40'45612052286.7
2018-Feb-22 00:30N 40°38' W 074°09'977635193237.7
2018-Feb-22 00:30N 24°23' E 118°07'472169813.7
2018-Feb-22 00:30N 31°59' E 120°26'518932087.9
2018-Feb-22 00:30N 23°44' E 117°32'1572435256.1
2018-Feb-22 00:30N 01°21' E 103°37'161753406.2
2018-Feb-22 00:28N 24°26' E 117°52'71514135.3
2018-Feb-22 00:25N 36°10' E 120°13'66445072.4
2018-Feb-22 00:24N 25°09' E 121°24'222867.9
2018-Feb-22 00:09N 23°49' E 117°36'51261466.3
2018-Feb-22 00:08N 31°58' E 120°25'4724799.5
2018-Feb-22 00:02N 24°21' E 118°15'9786306337.0
2018-Feb-22 00:00N 40°38' W 074°09'97618785245.2
2018-Feb-22 00:00N 24°26' E 117°52'2277446.4
2018-Feb-22 00:00N 24°21' E 118°15'45991034799.6
2018-Feb-22 00:00N 44°09' E 028°40'48785853394.8
2018-Feb-22 00:00N 01°21' E 103°37'1624389770.0
2018-Feb-22 00:00N 24°27' E 118°04'461760.7
2018-Feb-21 23:58N 23°49' E 117°36'2222196.9
2018-Feb-21 23:52N 25°10' E 121°23'4123174.7
2018-Feb-21 23:44N 31°58' E 120°26'0 4.2
2018-Feb-21 23:38N 31°59' E 120°26'439633960.6
2018-Feb-21 23:30N 44°09' E 028°40'4561566148.0
2018-Feb-21 23:30N 40°38' W 074°09'97611464207.5
2018-Feb-21 23:30N 24°26' E 117°52'4011169.8
2018-Feb-21 23:29N 23°49' E 117°36'513369272.9
2018-Feb-21 23:29N 31°59' E 120°26'41211324.2
2018-Feb-21 23:27N 25°10' E 121°24'18639344.1
2018-Feb-21 23:27N 24°27' E 118°04'46880312.5
2018-Feb-21 23:26N 31°58' E 120°27'207787967.0
2018-Feb-21 23:25N 01°21' E 103°37'162515724.3
2018-Feb-21 23:19N 24°21' E 118°16'459915011.2
2018-Feb-21 23:00N 44°09' E 028°40'45773295627.5
2018-Feb-21 23:00N 24°26' E 117°52'4731701049.9
2018-Feb-21 23:00N 31°58' E 120°27'20777477236.0
2018-Feb-21 23:00N 01°21' E 103°37'17651271023.0
2018-Feb-21 23:00N 25°09' E 121°22'98944452102.7
2018-Feb-21 23:00N 40°38' W 074°09'97701851235.6
2018-Feb-21 23:00N 24°27' E 118°04'469421816.5
2018-Feb-21 23:00N 31°59' E 120°26'47265334.0
2018-Feb-21 22:59N 24°21' E 118°16'4929253.6
2018-Feb-21 22:59N 23°49' E 117°36'41265.8
2018-Feb-21 22:50N 24°24' E 117°59'976930212.8
2018-Feb-21 22:30N 40°38' W 074°09'456116418307.8
2018-Feb-21 22:30N 44°09' E 028°40'48785853393.8
2018-Feb-21 22:30N 01°21' E 103°37'16175821272.4
2018-Feb-21 22:30N 24°26' E 117°52'61901.9
2018-Feb-21 22:30N 24°24' E 117°59'1916944.9
2018-Feb-21 22:29N 25°09' E 121°23'17713845.5
2018-Feb-21 22:28N 24°21' E 118°16'12738.6
2018-Feb-21 22:27N 24°27' E 118°04'469120471.6
2018-Feb-21 22:27N 31°58' E 120°27'5135141.2
2018-Feb-21 22:21N 23°49' E 117°36'51383926.6
2018-Feb-21 22:20N 31°59' E 120°26'4731440.1
2018-Feb-21 22:01N 24°24' E 117°59'1619647530.1
2018-Feb-21 22:00N 01°21' E 103°37'1617646808.0
2018-Feb-21 22:00N 24°26' E 117°52'45772746356.2
2018-Feb-21 22:00N 44°09' E 028°40'43971758639.3
2018-Feb-21 22:00N 31°58' E 120°27'94233392344.3
2018-Feb-21 22:00N 40°38' W 074°09'9895345836.4
2018-Feb-21 21:58N 25°09' E 121°23'17730319.3
2018-Feb-21 21:58N 24°21' E 118°16'4724503.6
2018-Feb-21 21:51N 31°59' E 120°26'5134396.0
2018-Feb-21 21:44N 23°49' E 117°36'459019647.6
2018-Feb-21 21:30N 44°09' E 028°40'45845500605.7
2018-Feb-21 21:30N 24°24' E 117°59'622822.6
2018-Feb-21 21:30N 24°26' E 117°52'97611004028.0
2018-Feb-21 21:30N 40°38' W 074°09'102339209703.8
2018-Feb-21 21:30N 01°21' E 103°37'162562897.3
2018-Feb-21 21:28N 24°21' E 118°16'47249951.1
2018-Feb-21 21:28N 31°59' E 120°27'175.3
2018-Feb-21 21:27N 31°59' E 120°26'46973367.9
2018-Feb-21 21:27N 24°27' E 118°04'461429.4
2018-Feb-21 21:25N 23°49' E 117°36'2224818.6
2018-Feb-21 21:22N 25°09' E 121°23'471613080.5
2018-Feb-21 21:00N 44°09' E 028°40'45773295628.2
2018-Feb-21 21:00N 24°26' E 117°52'9761549077.8
2018-Feb-21 20:59N 40°38' W 074°09'94236784680.5
2018-Feb-21 20:59N 31°59' E 120°27'2077186931.3
2018-Feb-21 20:59N 01°21' E 103°37'2077575206.1
2018-Feb-21 20:58N 31°59' E 120°26'47242483.4
2018-Feb-21 20:58N 24°21' E 118°16'12782.7
2018-Feb-21 20:57N 24°27' E 118°04'1125.1
2018-Feb-21 20:30N 24°26' E 117°52'473567301.3
2018-Feb-21 20:30N 31°59' E 120°26'472188983.4
2018-Feb-21 20:30N 24°21' E 118°15'16241461732.1
2018-Feb-21 20:30N 01°21' E 103°37'102331416877.0
2018-Feb-21 20:30N 40°38' W 074°09'4561820915.2
2018-Feb-21 20:29N 44°09' E 028°40'4397104819.5
2018-Feb-21 20:27N 31°59' E 120°27'469562207.9
2018-Feb-21 20:27N 24°27' E 118°04'458610462.7
2018-Feb-21 20:00N 44°09' E 028°40'45612052290.0
2018-Feb-21 20:00N 40°38' W 074°09'97844402669.6
2018-Feb-21 20:00N 24°20' E 118°11'1621126886.0
2018-Feb-21 19:59N 01°21' E 103°37'2077747767.7
2018-Feb-21 19:59N 31°59' E 120°26'47337820.1
2018-Feb-21 19:58N 24°26' E 117°52'4737560.2
2018-Feb-21 19:55N 31°58' E 120°27'942323299.1
2018-Feb-21 19:30N 40°38' W 074°09'45618209159.9
2018-Feb-21 19:30N 44°09' E 028°40'45772059767.6
2018-Feb-21 19:30N 24°26' E 117°52'168009.9
2018-Feb-21 19:30N 24°19' E 118°08'1619208149.5
2018-Feb-21 19:30N 01°21' E 103°37'207786949.8
2018-Feb-21 19:28N 31°59' E 120°26'120.1
2018-Feb-21 19:27N 31°59' E 120°27'4699216.5
2018-Feb-21 19:24N 24°27' E 118°04'458611826.7
2018-Feb-21 19:00N 44°09' E 028°40'48782195022.7
2018-Feb-21 19:00N 01°21' E 103°37'2077747767.7
2018-Feb-21 19:00N 31°59' E 120°26'473141825.3
2018-Feb-21 19:00N 24°26' E 117°52'97613514099.8
2018-Feb-21 19:00N 40°38' W 074°09'9423418807.9
2018-Feb-21 18:58N 31°58' E 120°27'4122545.7
2018-Feb-21 18:49N 25°09' E 121°24'4121352.9
2018-Feb-21 18:30N 31°59' E 120°27'20772492455.3
2018-Feb-21 18:30N 01°21' E 103°37'20771246282.9
2018-Feb-21 18:30N 31°59' E 120°26'4731701924.4
2018-Feb-21 18:30N 24°26' E 117°52'19670729.2
2018-Feb-21 18:30N 25°09' E 121°23'4716209601.0
2018-Feb-21 18:29N 44°09' E 028°40'423038457.2
2018-Feb-21 18:22N 36°02' E 120°14'74792670.2
2018-Feb-21 18:22N 23°49' E 117°36'7502373.9
2018-Feb-21 18:03N 36°06' E 120°14'7071273453.4
2018-Feb-21 18:03N 24°27' E 118°04'4586121397.7
2018-Feb-21 18:00N 44°09' E 028°40'439615825719.2
2018-Feb-21 18:00N 31°59' E 120°26'20773738847.8
2018-Feb-21 18:00N 01°21' E 103°37'1617970212.1
2018-Feb-21 18:00N 24°26' E 117°52'9761901051.2
2018-Feb-21 18:00N 40°38' W 074°09'98941187299.6
2018-Feb-21 17:59N 25°10' E 121°23'41214677.4
2018-Feb-21 17:57N 31°59' E 120°27'5135477.1
2018-Feb-21 17:52N 23°49' E 117°36'46274.2
2018-Feb-21 17:42N 24°27' E 118°04'70410263.9
2018-Feb-21 17:38N 36°02' E 120°14'423035833.1
2018-Feb-21 17:30N 44°09' E 028°40'45778239068.6
2018-Feb-21 17:30N 24°26' E 117°52'16171455317.6
2018-Feb-21 17:30N 01°21' E 103°37'102337367763.7
2018-Feb-21 17:30N 40°38' W 074°09'99161322094.9
2018-Feb-21 17:30N 25°09' E 121°48'256371.6
2018-Feb-21 17:30N 25°09' E 121°20'41214271.0
2018-Feb-21 17:28N 31°59' E 120°26'513307757.3
2018-Feb-21 17:28N 23°49' E 117°36'462572.7
2018-Feb-21 17:27N 24°27' E 118°04'4698031.8
2018-Feb-21 17:23N 31°59' E 120°27'2443647.5
2018-Feb-21 17:19N 36°02' E 120°14'423013561.1
2018-Feb-21 17:00N 44°09' E 028°40'47141060558.1
2018-Feb-21 17:00N 25°10' E 121°20'989211870254.9
2018-Feb-21 17:00N 40°38' W 074°09'99162099796.7
2018-Feb-21 17:00N 25°09' E 121°48'21814265.1
2018-Feb-21 16:59N 24°26' E 117°52'1617447790.3
2018-Feb-21 16:59N 01°21' E 103°37'162447149.4
2018-Feb-21 16:57N 24°27' E 118°04'46914795.4
2018-Feb-21 16:55N 31°59' E 120°27'2471335.4
2018-Feb-21 16:44N 36°06' E 120°14'24711257.7
2018-Feb-21 16:42N 31°59' E 120°26'942247708.6
2018-Feb-21 16:30N 40°38' W 074°09'456116418291.9
2018-Feb-21 16:30N 44°09' E 028°40'48784390044.9
2018-Feb-21 16:30N 01°21' E 103°37'1617323403.9
2018-Feb-21 16:30N 24°26' E 117°52'197101125.0
2018-Feb-21 16:30N 25°09' E 121°24'229857.0
2018-Feb-21 16:30N 25°09' E 121°48'20762091.8
2018-Feb-21 16:30N 24°27' E 118°04'46934438.6
2018-Feb-21 16:29N 31°59' E 120°26'2471608.2
2018-Feb-21 16:20N 36°06' E 120°14'2472757.6
2018-Feb-21 16:14N 31°59' E 120°27'51315642.0
2018-Feb-21 16:12N 23°49' E 117°36'459023338.4
2018-Feb-21 16:00N 44°09' E 028°40'48784390044.5
2018-Feb-21 16:00N 01°21' E 103°37'1577567810.3
2018-Feb-21 16:00N 23°49' E 117°36'97857045185.5
2018-Feb-21 16:00N 40°38' W 074°09'99161983141.3
2018-Feb-21 16:00N 25°09' E 121°48'20762092.2
2018-Feb-21 16:00N 24°27' E 118°04'18433114.6
2018-Feb-21 15:59N 25°09' E 121°22'19516317.0
2018-Feb-21 15:59N 24°26' E 117°52'70711018.6
2018-Feb-21 15:55N 36°02' E 120°14'24419534.2
2018-Feb-21 15:54N 31°59' E 120°27'56321570.2
2018-Feb-21 15:52N 22°35' E 120°17'5642483.3
2018-Feb-21 15:39N 31°59' E 120°26'439631651.1
2018-Feb-21 15:30N 44°09' E 028°40'48784390044.9
2018-Feb-21 15:30N 01°21' E 103°37'17666358144.4
2018-Feb-21 15:30N 25°10' E 121°23'222431.9
2018-Feb-21 15:30N 25°09' E 121°48'416749691.2
2018-Feb-21 15:30N 31°59' E 120°26'47370912.1
2018-Feb-21 15:29N 24°26' E 117°52'71053271.9
2018-Feb-21 15:29N 36°06' E 120°14'810208376.6
2018-Feb-21 15:28N 22°35' E 120°17'1657535.8
2018-Feb-21 15:27N 23°49' E 117°36'51320738.9
2018-Feb-21 15:26N 31°59' E 120°27'2442144.1
2018-Feb-21 15:19N 36°02' E 120°13'9151128692.0
2018-Feb-21 15:14N 40°38' W 074°09'1023343544.7
2018-Feb-21 15:00N 01°21' E 103°37'1617582127.0
2018-Feb-21 15:00N 24°26' E 117°52'45773295628.2
2018-Feb-21 15:00N 44°09' E 028°40'4736304460.6
2018-Feb-21 14:59N 25°09' E 121°48'17412287.9
2018-Feb-21 14:58N 22°35' E 120°17'564156068.9
2018-Feb-21 14:58N 31°59' E 120°26'51325645.9
2018-Feb-21 14:57N 23°49' E 117°36'46299.7
2018-Feb-21 14:48N 24°27' E 118°04'7048712.0
2018-Feb-21 14:43N 36°02' E 120°14'91511733964.2
2018-Feb-21 14:42N 40°38' W 074°09'9298643.1
2018-Feb-21 14:36N 25°55' W 079°55'10803115057.6
2018-Feb-21 14:30N 01°21' E 103°37'48781170678.1
2018-Feb-21 14:30N 44°09' E 028°40'47361002929.0
2018-Feb-21 14:30N 25°09' E 121°48'243291191.9
2018-Feb-21 14:30N 23°49' E 117°36'4024197.8
2018-Feb-21 14:30N 24°26' E 117°52'9761663037.7
2018-Feb-21 14:29N 40°38' W 074°09'99941383747.9
2018-Feb-21 14:28N 22°35' E 120°17'1655672.3
2018-Feb-21 14:27N 24°27' E 118°04'70435706.8
2018-Feb-21 14:25N 36°02' E 120°14'10315905742.0
2018-Feb-21 14:25N 25°54' W 079°56'10527125491.5
2018-Feb-21 14:20N 31°59' E 120°26'4731477.3
2018-Feb-21 14:01N 24°26' E 117°52'4577484651.2
2018-Feb-21 14:00N 44°09' E 028°40'4878331324.0
2018-Feb-21 13:59N 01°21' E 103°37'102332302426.2
2018-Feb-21 13:59N 40°38' W 074°09'99941199248.2
2018-Feb-21 13:58N 22°35' E 120°17'16519204.1
2018-Feb-21 13:58N 23°49' E 117°36'51336930.2
2018-Feb-21 13:57N 31°59' E 120°26'10533519423.4
2018-Feb-21 13:56N 25°51' W 079°59'10534446125.8
2018-Feb-21 13:54N 31°58' E 120°27'244716.4
2018-Feb-21 13:34N 36°02' E 120°14'70712538.4
2018-Feb-21 13:30N 24°26' E 117°52'45778239079.0
2018-Feb-21 13:30N 44°09' E 028°40'43963956390.3
2018-Feb-21 13:30N 31°59' E 120°26'94226784123.3
2018-Feb-21 13:30N 40°38' W 074°09'99161322094.2
2018-Feb-21 13:30N 25°09' E 121°48'178072798.2
2018-Feb-21 13:28N 01°21' E 103°37'1577118293.9
2018-Feb-21 13:28N 23°49' E 117°36'74715996.5
2018-Feb-21 13:25N 36°02' E 120°14'103271161786.6
2018-Feb-21 13:24N 25°48' W 080°03'1053960320.6
2018-Feb-21 13:14N 31°58' E 120°27'4732134.4
2018-Feb-21 13:00N 24°26' E 117°52'40145186.8
2018-Feb-21 13:00N 23°49' E 117°36'107692769250.9
2018-Feb-21 13:00N 25°46' W 080°06'105436325552.9
2018-Feb-21 13:00N 31°59' E 120°26'43961438672.5
2018-Feb-21 13:00N 44°09' E 028°40'4561820913.9
2018-Feb-21 13:00N 40°38' W 074°09'102332455919.8
2018-Feb-21 12:59N 01°21' E 103°37'160798064.8
2018-Feb-21 12:58N 22°35' E 120°17'5633782.8
2018-Feb-21 12:49N 31°58' E 120°27'4692022.4
2018-Feb-21 12:36N 24°27' E 118°04'11130.7
2018-Feb-21 12:30N 24°26' E 117°52'45775492712.4
2018-Feb-21 12:30N 44°09' E 028°40'4878408376.2
2018-Feb-21 12:30N 01°21' E 103°37'102336139798.4
2018-Feb-21 12:30N 40°38' W 074°09'94230819.0
2018-Feb-21 12:28N 25°46' W 080°09'105461998220.0
2018-Feb-21 12:27N 31°58' E 120°27'4697146.8
2018-Feb-21 12:24N 24°27' E 118°04'461267.0
2018-Feb-21 12:21N 23°49' E 117°36'5135975.0
2018-Feb-21 12:16N 31°59' E 120°26'4733078.0
2018-Feb-21 12:07N 24°24' E 117°59'7086906.2
2018-Feb-21 12:01N 36°02' E 120°14'4230662133.0
2018-Feb-21 12:00N 44°09' E 028°40'48785853392.2
2018-Feb-21 12:00N 01°21' E 103°37'16191456941.2
2018-Feb-21 12:00N 24°24' E 117°59'622822.6
2018-Feb-21 12:00N 24°26' E 117°52'97611757049.0
2018-Feb-21 12:00N 40°38' W 074°09'94221541847.7
2018-Feb-21 12:00N 31°59' E 120°26'469241032.0
2018-Feb-21 11:59N 24°27' E 118°04'469843316.5
2018-Feb-21 11:59N 31°58' E 120°27'105472920613.2
2018-Feb-21 11:59N 25°47' W 080°11'10334141456.7
2018-Feb-21 11:55N 36°02' E 120°14'6564029.8
2018-Feb-21 11:45N 25°09' E 121°23'989540570.7
2018-Feb-21 11:30N 40°38' W 074°09'97614392616.1
2018-Feb-21 11:30N 24°26' E 117°52'47350048.5
2018-Feb-21 11:30N 31°59' E 120°26'20773738674.7
2018-Feb-21 11:30N 01°21' E 103°37'207763367.1
2018-Feb-21 11:28N 31°58' E 120°27'4733060.3
2018-Feb-21 11:18N 24°24' E 117°59'6322.6
2018-Feb-21 11:17N 24°27' E 118°04'46292.9
2018-Feb-21 11:08N 23°49' E 117°36'74742657.7
2018-Feb-21 11:07N 36°02' E 120°14'7076645.7
2018-Feb-21 11:00N 24°26' E 117°52'976135140928.1
2018-Feb-21 11:00N 40°38' W 074°09'102336139796.7
2018-Feb-21 11:00N 01°21' E 103°37'1619176599.1
2018-Feb-21 11:00N 24°24' E 117°59'47340513.0
2018-Feb-21 10:59N 31°58' E 120°27'114.0
2018-Feb-21 10:57N 31°59' E 120°26'469241032.0
2018-Feb-21 10:56N 24°27' E 118°04'464919.0
2018-Feb-21 10:56N 23°49' E 117°36'2227016.7
2018-Feb-21 10:54N 25°09' E 121°23'6567766.0
2018-Feb-21 10:49N 36°02' E 120°14'7072301.4
2018-Feb-21 10:30N 24°26' E 117°52'16171164254.1
2018-Feb-21 10:30N 01°21' E 103°37'102339209693.0
2018-Feb-21 10:30N 40°38' W 074°09'9769879190.8
2018-Feb-21 10:30N 24°24' E 117°59'61586.4
2018-Feb-21 10:29N 24°27' E 118°04'1844333.0
2018-Feb-21 10:27N 25°09' E 121°22'2218733.7
2018-Feb-21 10:25N 23°49' E 117°36'5137887.8
2018-Feb-21 10:21N 31°58' E 120°27'135.6
2018-Feb-21 10:20N 31°59' E 120°26'2443192.1
2018-Feb-21 10:16N 36°02' E 120°14'7072754.7
2018-Feb-21 10:00N 24°26' E 117°52'1617582126.9
2018-Feb-21 10:00N 01°21' E 103°37'2077679760.7
2018-Feb-21 10:00N 31°59' E 120°26'412742265.6
2018-Feb-21 10:00N 25°09' E 121°23'2228883.1
2018-Feb-21 09:59N 23°49' E 117°36'46537.7
2018-Feb-21 09:53N 24°27' E 118°04'70428808.9
2018-Feb-21 09:52N 36°02' E 120°14'24412927.4
2018-Feb-21 09:51N 31°58' E 120°27'4732994.7
2018-Feb-21 09:41N 24°25' E 117°51'45617.9
2018-Feb-21 09:37N 23°44' E 117°33'2272108.8
2018-Feb-21 09:31N 25°09' E 121°23'989517810539.2
2018-Feb-21 09:30N 40°38' W 074°09'456116418249.7
2018-Feb-21 09:30N 44°09' E 028°40'459016523942.3
2018-Feb-21 09:30N 23°44' E 117°32'15722829357.1
2018-Feb-21 09:30N 01°21' E 103°37'1617323403.9
2018-Feb-21 09:30N 24°26' E 117°52'401437.5
2018-Feb-21 09:28N 23°49' E 117°36'51316334.0
2018-Feb-21 09:27N 31°58' E 120°27'469140554.5
2018-Feb-21 09:26N 24°27' E 118°04'70637912.0
2018-Feb-21 09:25N 36°03' E 120°19'24425864.1
2018-Feb-21 09:25N 31°59' E 120°26'2441246.8
2018-Feb-21 09:13N 36°02' E 120°14'70729262.7
2018-Feb-21 09:11N 24°25' E 117°60'976953204.4
2018-Feb-21 09:00N 40°38' W 074°09'976135140946.2
2018-Feb-21 09:00N 24°26' E 117°52'9705.4
2018-Feb-21 09:00N 24°26' E 118°03'2343.7
2018-Feb-21 08:59N 24°27' E 118°04'1624835218.1
2018-Feb-21 08:59N 01°21' E 103°37'1577101394.7
2018-Feb-21 08:58N 23°49' E 117°36'2229503.7
2018-Feb-21 08:57N 25°09' E 121°23'65620009.1
2018-Feb-21 08:55N 36°02' E 120°14'2448703.6
2018-Feb-21 08:53N 31°58' E 120°27'41539300.4
2018-Feb-21 08:53N 38°50' E 121°32'4155146.4
2018-Feb-21 08:48N 31°59' E 120°26'2441308.8
2018-Feb-21 08:37N 36°03' E 120°19'423441532.5
2018-Feb-21 08:30N 44°09' E 028°40'48785853391.0
2018-Feb-21 08:30N 01°21' E 103°37'1621833437.3
2018-Feb-21 08:30N 24°25' E 118°01'471154284.6
2018-Feb-21 08:30N 31°59' E 120°26'41449692.0
2018-Feb-21 08:30N 38°49' E 121°35'884289209.9
2018-Feb-21 08:29N 24°26' E 117°52'97611255033.1
2018-Feb-21 08:29N 40°38' W 074°09'9893147784.1
2018-Feb-21 08:25N 25°09' E 121°22'65638108.1
2018-Feb-21 08:24N 36°03' E 120°19'24526723.6
2018-Feb-21 08:23N 31°58' E 120°27'469562218.0
2018-Feb-21 08:23N 24°27' E 118°04'704507035.9
2018-Feb-21 08:23N 36°02' E 120°14'444.4
2018-Feb-21 08:17N 36°03' E 120°19'915532599.0
2018-Feb-21 08:00N 40°38' W 074°09'978735231904.9
2018-Feb-21 08:00N 23°44' E 117°33'15721886154.5
2018-Feb-21 08:00N 01°21' E 103°37'2467592013.4
2018-Feb-21 08:00N 38°48' E 121°39'419215092086.3
2018-Feb-21 08:00N 44°09' E 028°40'43972261132.6
2018-Feb-21 08:00N 31°58' E 120°27'473340220.9
2018-Feb-21 08:00N 24°26' E 117°52'111073.6
2018-Feb-21 07:59N 24°27' E 118°04'18414748.7
2018-Feb-21 07:59N 25°09' E 121°22'41210311.0
2018-Feb-21 07:56N 31°59' E 120°26'46312429.7
2018-Feb-21 07:54N 24°32' E 118°10'7008398.3
2018-Feb-21 07:49N 36°03' E 120°19'117.2
2018-Feb-21 07:47N 36°03' E 120°19'5262.2
2018-Feb-21 07:46N 36°02' E 120°13'7086886.2
2018-Feb-21 07:40N 24°25' E 117°51'457729371.5
2018-Feb-21 07:30N 44°09' E 028°40'459016523334.1
2018-Feb-21 07:30N 23°44' E 117°32'518310722.7
2018-Feb-21 07:30N 31°59' E 120°26'942211306924.9
2018-Feb-21 07:30N 40°38' W 074°09'976111713642.7
2018-Feb-21 07:30N 24°26' E 117°52'16175821272.4
2018-Feb-21 07:30N 01°21' E 103°37'1632267083.9
2018-Feb-21 07:30N 24°33' E 118°11'8881.1
2018-Feb-21 07:29N 24°27' E 118°04'70432091.8
2018-Feb-21 07:28N 36°02' E 120°14'24441860.0
2018-Feb-21 07:28N 31°58' E 120°27'4734592.2
2018-Feb-21 07:21N 24°24' E 117°57'7104309.1
2018-Feb-21 07:12N 36°03' E 120°19'65634228.9
2018-Feb-21 07:10N 25°09' E 121°23'1381866.2
2018-Feb-21 07:06N 23°34' E 119°34'991079.8
2018-Feb-21 07:00N 24°26' E 118°03'977035170616.1
2018-Feb-21 07:00N 40°38' W 074°09'45618209124.9
2018-Feb-21 07:00N 44°09' E 028°40'47155658232.4
2018-Feb-21 07:00N 25°09' E 121°22'412494432.6
2018-Feb-21 07:00N 31°58' E 120°27'473130854.2
2018-Feb-21 07:00N 24°26' E 117°52'132232.8
2018-Feb-21 07:00N 24°23' E 118°06'9669.3
2018-Feb-21 06:59N 24°32' E 118°10'46311408.2
2018-Feb-21 06:56N 31°59' E 120°26'24597849.3
2018-Feb-21 06:56N 36°03' E 120°19'1761097.6
2018-Feb-21 06:47N 38°46' E 121°44'1765613.5
2018-Feb-21 06:45N 36°03' E 120°19'7082960.8
2018-Feb-21 06:30N 24°25' E 118°00'45848251909.6
2018-Feb-21 06:30N 44°09' E 028°40'459016525239.0
2018-Feb-21 06:30N 23°44' E 117°33'15721886135.1
2018-Feb-21 06:30N 01°21' E 103°37'17651588465.6
2018-Feb-21 06:30N 25°09' E 121°22'656196921.5
2018-Feb-21 06:30N 36°03' E 120°19'7092551776.6
2018-Feb-21 06:30N 24°26' E 117°52'47321011.2
2018-Feb-21 06:29N 31°59' E 120°26'137.6
2018-Feb-21 06:28N 31°58' E 120°27'475213527.3
2018-Feb-21 06:28N 24°20' E 118°08'88515035.6
2018-Feb-21 06:24N 38°46' E 121°45'904422848.1
2018-Feb-21 06:00N 40°38' W 074°09'978735231986.0
2018-Feb-21 06:00N 23°44' E 117°33'459016525239.0
2018-Feb-21 06:00N 44°09' E 028°40'48784390044.9
2018-Feb-21 06:00N 01°21' E 103°37'1617831610.1
2018-Feb-21 06:00N 24°26' E 117°52'19535122.0
2018-Feb-21 06:00N 25°09' E 121°22'41270634.0
2018-Feb-21 06:00N 31°58' E 120°27'123.4
2018-Feb-21 05:58N 31°59' E 120°26'47565732.9
2018-Feb-21 05:58N 24°20' E 118°08'2113.8
2018-Feb-21 05:57N 24°19' E 118°07'7136977.5
2018-Feb-21 05:51N 36°03' E 120°19'7615906.8
2018-Feb-21 05:43N 23°39' E 117°16'7591366872.0
2018-Feb-21 05:43N 36°02' E 120°14'7475575.6
2018-Feb-21 05:35N 23°49' E 117°36'9785129984.9
2018-Feb-21 05:30N 40°38' W 074°09'45618209132.8
2018-Feb-21 05:30N 44°09' E 028°40'45771498012.5
2018-Feb-21 05:30N 24°26' E 117°52'16171940422.9
2018-Feb-21 05:30N 01°21' E 103°37'15721131735.6
2018-Feb-21 05:30N 23°44' E 117°33'1513839.5
2018-Feb-21 05:30N 23°38' E 117°17'6124516.3
2018-Feb-21 05:30N 24°19' E 118°07'243.7
2018-Feb-21 05:28N 24°20' E 118°08'47412560.3
2018-Feb-21 05:25N 31°58' E 120°27'129.0
2018-Feb-21 05:24N 31°59' E 120°26'2446314.4
2018-Feb-21 05:22N 36°02' E 120°14'461.0
2018-Feb-21 05:18N 36°03' E 120°19'5144.1
2018-Feb-21 05:16N 36°06' E 120°14'7118364.5
2018-Feb-21 05:11N 24°25' E 117°52'60360.0
2018-Feb-21 05:01N 23°33' E 117°18'45864127164.6
2018-Feb-21 05:00N 44°09' E 028°40'45778239068.6
2018-Feb-21 05:00N 24°26' E 117°52'4623447.9
2018-Feb-21 05:00N 23°44' E 117°32'97861258143.1
2018-Feb-21 05:00N 40°38' W 074°09'9422916777.7
2018-Feb-21 04:59N 31°59' E 120°26'244439970.0
2018-Feb-21 04:59N 36°03' E 120°19'71229472.2
2018-Feb-21 04:58N 24°20' E 118°08'12338.4
2018-Feb-21 04:56N 24°32' E 118°10'70217920.6
2018-Feb-21 04:53N 36°06' E 120°14'2478247.0
2018-Feb-21 04:51N 31°58' E 120°27'2447991.7
2018-Feb-21 04:50N 36°02' E 120°14'70817945.7
2018-Feb-21 04:47N 24°24' E 117°58'70988065.4
2018-Feb-21 04:47N 36°03' E 120°19'915533767.9
2018-Feb-21 04:30N 40°38' W 074°09'45618209123.9
2018-Feb-21 04:30N 44°09' E 028°40'45775492713.6
2018-Feb-21 04:30N 24°26' E 117°52'1011757.1
2018-Feb-21 04:30N 24°27' E 118°03'5160993.6
2018-Feb-21 04:30N 23°44' E 117°33'1572226336.1
2018-Feb-21 04:30N 01°21' E 103°37'2077233677.2
2018-Feb-21 04:29N 31°59' E 120°26'46336209.2
2018-Feb-21 04:29N 24°32' E 118°10'12839.4
2018-Feb-21 04:28N 24°20' E 118°08'47447448.6
2018-Feb-21 04:27N 31°58' E 120°27'2441039.1
2018-Feb-21 04:13N 36°02' E 120°14'433.3
2018-Feb-21 04:05N 36°03' E 120°19'6568782.3
2018-Feb-21 04:01N 25°09' E 121°24'98958905250.1
2018-Feb-21 04:00N 40°38' W 074°09'456116418261.8
2018-Feb-21 04:00N 44°09' E 028°40'45775492713.6
2018-Feb-21 04:00N 24°26' E 117°52'16175821264.8
2018-Feb-21 04:00N 01°21' E 103°37'15721131680.3
2018-Feb-21 04:00N 23°44' E 117°33'518373039.4
2018-Feb-21 04:00N 31°59' E 120°26'119.8
2018-Feb-21 03:59N 31°58' E 120°27'462277450.1
2018-Feb-21 03:59N 24°32' E 118°10'132677.6
2018-Feb-21 03:58N 24°25' E 117°59'70914581.9
2018-Feb-21 03:55N 36°03' E 120°19'4881.3
2018-Feb-21 03:55N 36°02' E 120°14'711106614.9
2018-Feb-21 03:55N 24°20' E 118°08'43335.8
2018-Feb-21 03:47N 23°49' E 117°36'978535617.7
2018-Feb-21 03:30N 40°38' W 074°09'45618209130.9
2018-Feb-21 03:30N 44°09' E 028°40'48785853388.8
2018-Feb-21 03:30N 01°21' E 103°37'1617529205.7
2018-Feb-21 03:30N 24°26' E 117°52'1833067.3
2018-Feb-21 03:30N 24°33' E 118°11'127113.6
2018-Feb-21 03:30N 24°21' E 118°07'449815.3
2018-Feb-21 03:30N 23°49' E 117°36'59773.0
2018-Feb-21 03:30N 23°44' E 117°33'453165.5
2018-Feb-21 03:29N 24°25' E 117°51'21941431.5
2018-Feb-21 03:29N 25°09' E 121°48'231226.0
2018-Feb-21 03:27N 25°09' E 121°22'6567980.3
2018-Feb-21 03:23N 36°03' E 120°19'245146797.3
2018-Feb-21 03:22N 31°58' E 120°27'2442663.9
2018-Feb-21 03:17N 36°02' E 120°14'24414628.7
2018-Feb-21 03:16N 31°59' E 120°26'2474656.1
2018-Feb-21 03:13N 36°06' E 120°14'914844625.8
2018-Feb-21 03:00N 40°38' W 074°09'97862935678.4
2018-Feb-21 03:00N 23°44' E 117°32'59856.6
2018-Feb-21 03:00N 23°49' E 117°36'4514840.8
2018-Feb-21 03:00N 24°25' E 118°06'1244667.7
2018-Feb-21 03:00N 24°26' E 117°52'47377319.5
2018-Feb-21 03:00N 31°58' E 120°27'46287615.8
2018-Feb-21 02:59N 24°32' E 118°10'1631209725.7
2018-Feb-21 02:59N 01°21' E 103°37'2286171443.2
2018-Feb-21 02:58N 36°02' E 120°14'65620702.4
2018-Feb-21 02:56N 25°10' E 121°23'6598409.8
2018-Feb-21 02:51N 36°06' E 120°14'71110200.5
2018-Feb-21 02:47N 24°24' E 117°58'10767280869.8
2018-Feb-21 02:45N 25°47' W 080°10'546422530.8
2018-Feb-21 02:30N 44°09' E 028°40'459016524887.5
2018-Feb-21 02:30N 23°44' E 117°33'5191301.2
2018-Feb-21 02:30N 24°27' E 118°03'16235842738.6
2018-Feb-21 02:30N 01°21' E 103°37'16321958250.9
2018-Feb-21 02:30N 24°33' E 118°11'462554278.6
2018-Feb-21 02:30N 31°59' E 120°26'469140668.8
2018-Feb-21 02:30N 24°27' E 118°04'1077019386442.5
2018-Feb-21 02:30N 25°47' W 080°10'941199293.0
2018-Feb-21 02:30N 40°38' W 074°09'9894962668.1
2018-Feb-21 02:29N 25°10' E 121°23'41240075.6
2018-Feb-21 02:29N 31°58' E 120°27'47334021.7
2018-Feb-21 02:28N 24°26' E 117°52'70923191.7
2018-Feb-21 02:26N 36°03' E 120°19'5225.8
2018-Feb-21 02:25N 36°06' E 120°14'596.4
2018-Feb-21 02:22N 36°03' E 120°19'448.1
2018-Feb-21 02:16N 36°02' E 120°14'74717227.0
2018-Feb-21 02:14N 23°49' E 117°36'43199.6
2018-Feb-21 02:00N 24°25' E 118°01'4987687.0
2018-Feb-21 02:00N 23°44' E 117°32'1572435292.8
2018-Feb-21 02:00N 01°21' E 103°37'20771068173.3
2018-Feb-21 02:00N 31°58' E 120°27'105477593530.3
2018-Feb-21 02:00N 25°47' W 080°10'1077538790303.0
2018-Feb-21 02:00N 24°23' E 118°06'135986.3
2018-Feb-21 02:00N 24°26' E 117°52'19747175.2
2018-Feb-21 02:00N 25°10' E 121°23'17949595.9
2018-Feb-21 01:59N 24°32' E 118°10'543386.4
2018-Feb-21 01:58N 23°49' E 117°36'74713370.2
2018-Feb-21 01:55N 36°02' E 120°14'3285.5
2018-Feb-21 01:54N 36°06' E 120°14'540.8
2018-Feb-21 01:47N 36°03' E 120°19'7725680.1
2018-Feb-21 01:39N 23°28' E 117°18'979069241.2
2018-Feb-21 01:30N 40°38' W 074°09'456116418249.7
2018-Feb-21 01:30N 44°09' E 028°40'48783512036.3
2018-Feb-21 01:30N 01°21' E 103°37'1617646808.0
2018-Feb-21 01:30N 24°26' E 117°52'4627359.2
2018-Feb-21 01:30N 23°44' E 117°32'107725539961.0
2018-Feb-21 01:30N 25°47' W 080°10'105462531015.3
2018-Feb-21 01:30N 31°59' E 120°26'412114222.2
2018-Feb-21 01:30N 25°09' E 121°22'24330226.0
2018-Feb-21 01:29N 23°28' E 117°19'53624760.4
2018-Feb-21 01:28N 31°58' E 120°27'47412843.2
2018-Feb-21 01:26N 24°20' E 118°08'71410578.0
2018-Feb-21 01:21N 36°06' E 120°14'75067477.4
2018-Feb-21 01:21N 23°49' E 117°36'24449.5
2018-Feb-21 01:18N 23°36' E 117°14'76330168.1
2018-Feb-21 01:16N 36°02' E 120°14'7085898.0
2018-Feb-21 01:09N 24°25' E 117°51'45317.4
2018-Feb-21 01:00N 23°44' E 117°33'4641079.7
2018-Feb-21 01:00N 24°26' E 117°52'16175821272.4
2018-Feb-21 01:00N 01°21' E 103°37'1023312279591.2
2018-Feb-21 01:00N 40°38' W 074°09'941188222.3
2018-Feb-21 01:00N 25°47' W 080°10'1077938804648.9
2018-Feb-21 01:00N 24°20' E 118°08'684708.7
2018-Feb-21 00:59N 23°33' E 117°14'24663265.1
2018-Feb-21 00:59N 25°09' E 121°23'22220474.1
2018-Feb-21 00:58N 23°49' E 117°36'747537487.1
2018-Feb-21 00:58N 36°02' E 120°14'76664157.4
2018-Feb-21 00:57N 23°31' E 117°23'533192010.9
2018-Feb-21 00:57N 31°58' E 120°27'2471709.5
2018-Feb-21 00:49N 36°06' E 120°14'7103369.8
2018-Feb-21 00:36N 24°25' E 118°01'458550165.5
2018-Feb-21 00:30N 44°09' E 028°40'45934133950.7
2018-Feb-21 00:30N 23°33' E 117°27'63226400.6
2018-Feb-21 00:30N 24°26' E 118°02'916720.0
2018-Feb-21 00:30N 24°26' E 117°52'1617831610.1
2018-Feb-21 00:30N 01°21' E 103°37'15531118262.2
2018-Feb-21 00:30N 23°30' E 117°18'107704308097.4
2018-Feb-21 00:30N 25°47' W 080°10'1091739302746.2
2018-Feb-21 00:30N 25°09' E 121°22'184661248.1
2018-Feb-21 00:30N 24°24' E 118°06'4717821.6
2018-Feb-21 00:26N 31°59' E 120°26'24412026.2
2018-Feb-21 00:25N 36°02' E 120°14'3249.1
2018-Feb-21 00:24N 36°06' E 120°14'75019558.8
2018-Feb-21 00:22N 23°49' E 117°36'51310197.1
2018-Feb-21 00:19N 31°58' E 120°27'4731531.1
2018-Feb-21 00:01N 24°26' E 117°52'1617831610.3
2018-Feb-21 00:00N 01°21' E 103°37'16212918131.7
2018-Feb-21 00:00N 24°26' E 118°01'311655.9
2018-Feb-21 00:00N 24°27' E 118°04'61109119.3
2018-Feb-21 00:00N 23°35' E 117°31'107782042121.0
2018-Feb-21 00:00N 25°47' W 080°10'105461998220.0
2018-Feb-21 00:00N 31°58' E 120°26'43961130459.1
2018-Feb-20 23:59N 44°09' E 028°40'4561820912.5
2018-Feb-20 23:59N 40°38' W 074°09'94223768978.5
2018-Feb-20 23:59N 31°59' E 120°26'1142.0
2018-Feb-20 23:59N 31°58' E 120°27'51340123.5
2018-Feb-20 23:58N 23°49' E 117°36'22113021.5
2018-Feb-20 23:57N 25°09' E 121°22'2412141.7
2018-Feb-20 23:50N 23°39' E 117°16'75950626.9
2018-Feb-20 23:49N 36°02' E 120°14'3230.8
2018-Feb-20 23:48N 36°06' E 120°14'174882.0
2018-Feb-20 23:37N 38°46' E 121°40'904088433.8
2018-Feb-20 23:30N 40°38' W 074°09'456116418249.7
2018-Feb-20 23:30N 44°09' E 028°40'47163395381.7
2018-Feb-20 23:30N 25°09' E 121°23'19664209.9
2018-Feb-20 23:30N 24°26' E 117°52'107603521437.5
2018-Feb-20 23:30N 25°47' W 080°10'107792586981.3
2018-Feb-20 23:30N 23°38' E 117°34'1619346.9
2018-Feb-20 23:30N 23°39' E 117°17'1559701639.7
2018-Feb-20 23:30N 01°21' E 103°37'2077207703.7
2018-Feb-20 23:29N 31°59' E 120°26'51397172.0
2018-Feb-20 23:29N 23°49' E 117°36'46648.7
2018-Feb-20 23:24N 24°27' E 118°04'87941614.6
2018-Feb-20 23:23N 38°46' E 121°40'1781302.5
2018-Feb-20 23:15N 36°02' E 120°14'2441135.8
2018-Feb-20 23:02N 31°58' E 120°27'47318693.2
2018-Feb-20 23:00N 24°26' E 117°52'976117570464.1
2018-Feb-20 23:00N 40°38' W 074°09'456116418249.7
2018-Feb-20 23:00N 44°09' E 028°40'4396930913.2
2018-Feb-20 23:00N 31°59' E 120°26'105467593008.2
2018-Feb-20 23:00N 25°47' W 080°10'105462531110.3
2018-Feb-20 23:00N 31°59' E 120°27'520234182.2
2018-Feb-20 23:00N 23°41' E 117°38'5310618.3
2018-Feb-20 22:59N 24°21' E 118°16'7019429.8
2018-Feb-20 22:59N 23°35' E 117°18'9391127150.2
2018-Feb-20 22:59N 38°48' E 121°37'2466682818.0
2018-Feb-20 22:59N 01°21' E 103°37'2077133523.4
2018-Feb-20 22:58N 31°58' E 120°27'46942165.8
2018-Feb-20 22:57N 24°27' E 118°04'1849606.7
2018-Feb-20 22:56N 25°09' E 121°22'6565661.7
2018-Feb-20 22:49N 36°02' E 120°14'7473550.1
2018-Feb-20 22:37N 23°49' E 117°36'411340.8
2018-Feb-20 22:35N 24°24' E 117°59'632232.3
2018-Feb-20 22:33N 23°37' E 117°14'601400.0
2018-Feb-20 22:30N 24°26' E 117°52'457716478140.8
2018-Feb-20 22:30N 44°09' E 028°40'43967912726.0
2018-Feb-20 22:30N 31°59' E 120°26'20777476466.1
2018-Feb-20 22:30N 01°21' E 103°37'102335262682.9
2018-Feb-20 22:30N 40°38' W 074°09'977035173405.9
2018-Feb-20 22:30N 24°27' E 118°04'6820472.4
2018-Feb-20 22:30N 23°37' E 117°14'107619684996.4
2018-Feb-20 22:30N 25°47' W 080°10'105465423607.0
2018-Feb-20 22:30N 31°59' E 120°26'473189125.7
2018-Feb-20 22:30N 24°24' E 117°59'439196.4
2018-Feb-20 22:29N 23°43' E 117°42'254912.3
2018-Feb-20 22:29N 23°34' E 117°18'7114243.4
2018-Feb-20 22:29N 24°21' E 118°16'1767099.2
2018-Feb-20 22:27N 25°09' E 121°22'6564437.4
2018-Feb-20 22:19N 36°02' E 120°14'7472687435.4
2018-Feb-20 22:18N 23°49' E 117°36'5131781.5
2018-Feb-20 22:01N 31°58' E 120°27'9423737464.5
2018-Feb-20 22:00N 40°38' W 074°09'94226784157.2
2018-Feb-20 22:00N 31°59' E 120°26'473340332.7
2018-Feb-20 22:00N 24°26' E 117°52'1139722.0
2018-Feb-20 22:00N 24°27' E 118°04'7118239.9
2018-Feb-20 22:00N 23°33' E 117°15'1076519377419.4
2018-Feb-20 22:00N 25°47' W 080°10'10767692186.7
2018-Feb-20 21:59N 24°24' E 117°59'1619277512.7
2018-Feb-20 21:59N 01°21' E 103°37'2077373825.9
2018-Feb-20 21:58N 31°59' E 120°26'24473203.4
2018-Feb-20 21:58N 36°02' E 120°14'24413524.2
2018-Feb-20 21:57N 31°58' E 120°27'47135355.4
2018-Feb-20 21:56N 24°21' E 118°16'711353.4
2018-Feb-20 21:53N 23°34' E 117°18'224718.1
2018-Feb-20 21:53N 23°49' E 117°36'25194.7
2018-Feb-20 21:45N 23°33' E 117°15'978239927.6
2018-Feb-20 21:30N 40°38' W 074°09'97698791917.9
2018-Feb-20 21:30N 24°24' E 117°59'1619582777.1
2018-Feb-20 21:30N 01°21' E 103°37'48782508598.8
2018-Feb-20 21:30N 44°09' E 028°40'4577867271.5
2018-Feb-20 21:30N 24°26' E 117°52'47389561.2
2018-Feb-20 21:29N 31°59' E 120°26'53291170.0
2018-Feb-20 21:29N 23°34' E 117°18'53291145.2
2018-Feb-20 21:29N 31°58' E 120°27'4711697229.8
2018-Feb-20 21:29N 24°21' E 118°16'47138570.6
2018-Feb-20 21:28N 31°59' E 120°26'105461186405.7
2018-Feb-20 21:28N 25°47' W 080°10'10334271554.8
2018-Feb-20 21:25N 36°02' E 120°14'74746335.5
2018-Feb-20 21:24N 23°49' E 117°36'978524685.3
2018-Feb-20 21:00N 40°38' W 074°09'97698791917.9
2018-Feb-20 21:00N 24°24' E 117°59'63260.4
2018-Feb-20 21:00N 24°26' E 117°52'4577323100.8
2018-Feb-20 20:59N 44°09' E 028°40'43961055047.6
2018-Feb-20 20:59N 31°59' E 120°26'413495152.8
2018-Feb-20 20:59N 25°09' E 121°23'1766115597.0
2018-Feb-20 20:58N 01°21' E 103°37'1577378539.6
2018-Feb-20 20:58N 23°49' E 117°36'499764.1
2018-Feb-20 20:58N 24°21' E 118°16'107853882444.4
2018-Feb-20 20:58N 25°47' W 080°10'107702154010.7
2018-Feb-20 20:57N 24°27' E 118°04'46832434.3
2018-Feb-20 20:56N 31°58' E 120°27'110.8
2018-Feb-20 20:53N 31°59' E 120°26'2442207.4
2018-Feb-20 20:46N 36°02' E 120°14'915134789.1
2018-Feb-20 20:30N 40°38' W 074°09'456116418247.7
2018-Feb-20 20:30N 44°09' E 028°40'45771647814.1
2018-Feb-20 20:30N 24°26' E 117°52'2219622.1
2018-Feb-20 20:30N 24°21' E 118°16'7264410.2
2018-Feb-20 20:30N 23°33' E 117°18'24497526.6
2018-Feb-20 20:30N 25°09' E 121°24'41392823.9
2018-Feb-20 20:30N 31°59' E 120°26'50329703.9
2018-Feb-20 20:29N 23°38' E 119°32'1630117395.8
2018-Feb-20 20:28N 01°21' E 103°37'108191770434.4
2018-Feb-20 20:28N 25°47' W 080°10'10547368618.0
2018-Feb-20 20:26N 31°58' E 120°27'46817568.6
2018-Feb-20 20:24N 24°27' E 118°04'4683634.6
2018-Feb-20 20:16N 31°59' E 120°26'2441591.5
2018-Feb-20 20:07N 36°02' E 120°14'423037234.9
2018-Feb-20 20:00N 44°09' E 028°40'45771373179.8
2018-Feb-20 20:00N 24°26' E 117°52'1113240.7
2018-Feb-20 20:00N 24°27' E 118°04'1214237.2
2018-Feb-20 20:00N 24°21' E 118°16'97861677616.9
2018-Feb-20 20:00N 40°39' W 074°09'94232826804.7
2018-Feb-20 20:00N 31°59' E 120°26'41278156.3
2018-Feb-20 19:59N 25°09' E 121°22'24423104.8
2018-Feb-20 19:59N 23°28' E 117°18'12287921.5
2018-Feb-20 19:59N 23°34' E 119°31'1627650702.8
2018-Feb-20 19:58N 01°21' E 103°37'2077131179.1
2018-Feb-20 19:57N 31°58' E 120°27'1 3.2
2018-Feb-20 19:46N 31°59' E 120°26'439617090.1
2018-Feb-20 19:30N 44°09' E 028°40'4586868951.4
2018-Feb-20 19:30N 24°27' E 118°04'1037733.0
2018-Feb-20 19:30N 24°20' E 118°13'205091.2
2018-Feb-20 19:30N 24°26' E 117°52'47385094.2
2018-Feb-20 19:30N 31°59' E 120°26'94235653605.5
2018-Feb-20 19:29N 40°39' W 074°09'10233818672.7
2018-Feb-20 19:29N 01°21' E 103°37'207781274.3
2018-Feb-20 19:27N 31°58' E 120°27'4751069.1
2018-Feb-20 19:01N 24°19' E 118°09'978311739528.0
2018-Feb-20 19:00N 40°39' W 074°09'456116419172.3
2018-Feb-20 19:00N 44°09' E 028°40'45771177009.8
2018-Feb-20 19:00N 24°26' E 117°52'47360782.3
2018-Feb-20 19:00N 31°59' E 120°26'134.7
2018-Feb-20 18:59N 31°58' E 120°27'207784013.7
2018-Feb-20 18:57N 01°21' E 103°37'1624343914.7
2018-Feb-20 18:57N 24°27' E 118°04'458610331.7
2018-Feb-20 18:30N 44°09' E 028°40'45772746356.2
2018-Feb-20 18:30N 24°26' E 117°52'473283654.1
2018-Feb-20 18:30N 31°59' E 120°26'469168749.2
2018-Feb-20 18:30N 24°27' E 118°04'16241948849.6
2018-Feb-20 18:30N 01°21' E 103°37'102332302516.8
2018-Feb-20 18:30N 40°39' W 074°09'9798277752.2
2018-Feb-20 18:28N 24°07' E 118°13'460710162.9
2018-Feb-20 18:00N 44°09' E 028°40'48784390045.3
2018-Feb-20 18:00N 01°21' E 103°37'16171940424.1
2018-Feb-20 18:00N 24°26' E 117°52'277589.6
2018-Feb-20 18:00N 24°09' E 118°16'2118689.9
2018-Feb-20 18:00N 24°27' E 118°04'97712069083.1
2018-Feb-20 18:00N 40°39' W 074°09'94231027926.9
2018-Feb-20 17:59N 31°59' E 120°26'5134196.7
2018-Feb-20 17:52N 23°49' E 117°36'2222962.5
2018-Feb-20 17:47N 25°09' E 121°23'197697.8
2018-Feb-20 17:31N 24°26' E 117°52'45774119534.3
2018-Feb-20 17:30N 44°09' E 028°40'4396376798.8
2018-Feb-20 17:30N 31°59' E 120°26'207793470.0
2018-Feb-20 17:28N 01°21' E 103°37'102332167074.1
2018-Feb-20 17:28N 40°39' W 074°09'9894395757.0
2018-Feb-20 17:27N 25°09' E 121°22'2217301.1
2018-Feb-20 17:25N 23°49' E 117°36'463716.2
2018-Feb-20 17:24N 24°27' E 118°04'21750.1
2018-Feb-20 17:22N 24°12' E 118°20'70349.5
2018-Feb-20 17:10N 23°29' E 117°21'53515168.4
2018-Feb-20 17:08N 31°58' E 120°27'4733596.3
2018-Feb-20 17:00N 24°26' E 117°52'457716478158.1
2018-Feb-20 17:00N 44°09' E 028°40'46092074128.1
2018-Feb-20 17:00N 24°15' E 118°22'214662.9
2018-Feb-20 17:00N 24°27' E 118°04'97712344960.9
2018-Feb-20 17:00N 40°39' W 074°09'98957124213.1
2018-Feb-20 17:00N 25°09' E 121°23'41215467.5
2018-Feb-20 16:58N 31°59' E 120°26'51324296.6
2018-Feb-20 16:57N 23°49' E 117°36'157797898.4
2018-Feb-20 16:56N 01°21' E 103°37'1555103644.9
2018-Feb-20 16:55N 23°30' E 117°22'5341839.8
2018-Feb-20 16:38N 31°58' E 120°27'942375893.1
2018-Feb-20 16:30N 40°39' W 074°09'942311307195.8
2018-Feb-20 16:30N 31°59' E 120°26'4691687512.8
2018-Feb-20 16:30N 24°27' E 118°04'6760208.4
2018-Feb-20 16:30N 23°31' E 117°24'45928266169.3
2018-Feb-20 16:30N 44°09' E 028°40'45772059767.2
2018-Feb-20 16:30N 24°26' E 117°52'31743.7
2018-Feb-20 16:27N 24°18' E 118°25'16271952232.1
2018-Feb-20 16:27N 01°21' E 103°37'207713094.9
2018-Feb-20 16:18N 31°58' E 120°27'5301851.7
2018-Feb-20 16:01N 23°33' E 117°27'45932755947.6
2018-Feb-20 16:00N 44°09' E 028°40'4586717830.9
2018-Feb-20 16:00N 24°27' E 118°04'111588.9
2018-Feb-20 16:00N 24°26' E 117°52'47348625.8
2018-Feb-20 15:59N 31°59' E 120°26'2077191735.2
2018-Feb-20 15:58N 01°21' E 103°37'102332302516.4
2018-Feb-20 15:58N 40°39' W 074°09'942316962111.2
2018-Feb-20 15:58N 31°58' E 120°27'5134012.3
2018-Feb-20 15:50N 23°49' E 117°36'40121.2
2018-Feb-20 15:30N 24°26' E 117°52'457716478158.1
2018-Feb-20 15:30N 44°09' E 028°40'4397344082.4
2018-Feb-20 15:30N 31°58' E 120°27'9423408725.0
2018-Feb-20 15:28N 40°39' W 074°09'942333921566.1
2018-Feb-20 15:28N 31°59' E 120°26'413123797.3
2018-Feb-20 15:28N 25°09' E 121°24'17663179089.0
2018-Feb-20 15:28N 01°21' E 103°37'156262485.6
2018-Feb-20 15:27N 23°35' E 117°29'154217.6
2018-Feb-20 15:26N 23°49' E 117°36'46521.0
2018-Feb-20 15:21N 24°27' E 118°04'977028573.0
2018-Feb-20 15:00N 40°38' W 074°09'45618209109.9
2018-Feb-20 15:00N 44°09' E 028°40'48781463349.9
2018-Feb-20 15:00N 01°21' E 103°37'1577709763.3
2018-Feb-20 15:00N 23°49' E 117°36'4620903.4
2018-Feb-20 15:00N 24°27' E 118°04'46843245.7
2018-Feb-20 14:59N 31°58' E 120°27'47377319.5
2018-Feb-20 14:59N 24°26' E 117°52'47373992.5
2018-Feb-20 14:59N 31°59' E 120°26'5261893491.6
2018-Feb-20 14:59N 23°36' E 117°32'5791257386.9
2018-Feb-20 14:57N 48°57' E 002°00'589294278.4
2018-Feb-20 14:53N 25°09' E 121°24'989525830.6
2018-Feb-20 14:30N 40°38' W 074°09'45618209109.9
2018-Feb-20 14:30N 44°09' E 028°40'48788780091.4
2018-Feb-20 14:30N 01°21' E 103°37'1567296917.9
2018-Feb-20 14:30N 23°38' E 117°34'116598.4
2018-Feb-20 14:30N 23°49' E 117°36'46167209.2
2018-Feb-20 14:30N 24°27' E 118°04'11640.6
2018-Feb-20 14:29N 24°26' E 117°52'47313829.5
2018-Feb-20 14:27N 31°58' E 120°27'127.7
2018-Feb-20 14:26N 31°59' E 120°26'942222389.9
2018-Feb-20 14:00N 40°38' W 074°09'45618209146.9
2018-Feb-20 14:00N 44°09' E 028°40'457716478137.3
2018-Feb-20 14:00N 24°26' E 117°52'407259.3
2018-Feb-20 14:00N 23°49' E 117°36'157793083.7
2018-Feb-20 13:59N 01°21' E 103°37'2077373877.9
2018-Feb-20 13:59N 31°59' E 120°26'521187633.7
2018-Feb-20 13:59N 23°40' E 117°36'521937770.8
2018-Feb-20 13:59N 31°58' E 120°27'437116510.3
2018-Feb-20 13:43N 31°49' E 034°39'426763478.8
2018-Feb-20 13:39N 36°06' E 120°14'422931130.7
2018-Feb-20 13:30N 44°09' E 028°40'43975275922.6
2018-Feb-20 13:30N 31°58' E 120°27'20773738602.8
2018-Feb-20 13:30N 01°21' E 103°37'1617646807.4
2018-Feb-20 13:30N 24°26' E 117°52'4620713.5
2018-Feb-20 13:30N 23°42' E 117°39'73330.3
2018-Feb-20 13:30N 23°49' E 117°36'97853522591.1
2018-Feb-20 13:30N 40°38' W 074°09'5292476318.2
2018-Feb-20 13:29N 31°49' E 034°39'4370655507.3
2018-Feb-20 13:29N 31°59' E 120°26'168.1
2018-Feb-20 13:28N 31°59' E 120°27'2445452.1
2018-Feb-20 13:25N 36°02' E 120°14'3102.7
2018-Feb-20 13:24N 36°06' E 120°14'247989.0
2018-Feb-20 13:09N 31°59' E 120°26'439632495.4
2018-Feb-20 13:00N 44°09' E 028°40'45774119534.3
2018-Feb-20 13:00N 24°26' E 117°52'449215.9
2018-Feb-20 13:00N 23°44' E 117°42'97953917865.6
2018-Feb-20 13:00N 40°38' W 074°09'102331052537.0
2018-Feb-20 12:59N 01°21' E 103°37'207782167.2
2018-Feb-20 12:58N 31°58' E 120°27'39702382090.6
2018-Feb-20 12:58N 44°35' E 037°42'3970291639.3
2018-Feb-20 12:57N 31°59' E 120°26'513307707.8
2018-Feb-20 12:57N 23°49' E 117°36'5137471.2
2018-Feb-20 12:53N 31°59' E 120°26'24451676.4
2018-Feb-20 12:52N 36°02' E 120°14'324.6
2018-Feb-20 12:45N 36°06' E 120°14'426721043.6
2018-Feb-20 12:32N 31°49' E 034°39'79325250.8
2018-Feb-20 12:30N 44°09' E 028°40'4577659125.5
2018-Feb-20 12:30N 24°26' E 117°52'408065.9
2018-Feb-20 12:30N 23°49' E 117°36'44283188365.7
2018-Feb-20 12:30N 31°49' E 034°39'529219052729.7
2018-Feb-20 12:30N 40°38' W 074°09'91483293388.4
2018-Feb-20 12:29N 36°06' E 120°14'247445335.8
2018-Feb-20 12:29N 31°58' E 120°27'39661427911.9
2018-Feb-20 12:29N 44°34' E 037°47'4467193732.5
2018-Feb-20 12:28N 01°21' E 103°37'1579334444.0
2018-Feb-20 12:28N 23°46' E 117°45'51320990.8
2018-Feb-20 12:26N 31°59' E 120°26'5494120609.5
2018-Feb-20 12:23N 48°54' E 002°11'528143904.2
2018-Feb-20 12:16N 36°02' E 120°14'426816310.8
2018-Feb-20 12:00N 31°49' E 034°39'7931426668.8
2018-Feb-20 12:00N 44°09' E 028°40'487817560176.5
2018-Feb-20 12:00N 01°21' E 103°37'16171164253.3
2018-Feb-20 12:00N 24°26' E 117°52'976111713648.4
2018-Feb-20 12:00N 40°38' W 074°09'4954149860.1
2018-Feb-20 11:58N 44°33' E 037°52'3963180575.6
2018-Feb-20 11:57N 31°58' E 120°27'4733902.5
2018-Feb-20 11:50N 24°24' E 117°59'6187.7
2018-Feb-20 11:48N 24°27' E 118°04'5761691357.5
2018-Feb-20 11:47N 48°57' E 002°16'329211653.0
2018-Feb-20 11:30N 40°38' W 074°09'456116418307.8
2018-Feb-20 11:30N 44°09' E 028°40'45772746356.2
2018-Feb-20 11:30N 24°26' E 117°52'63803.8
2018-Feb-20 11:30N 24°24' E 117°59'4139177375.3
2018-Feb-20 11:29N 44°32' E 037°57'39591425262.7
2018-Feb-20 11:29N 31°58' E 120°27'4371749252.9
2018-Feb-20 11:28N 31°49' E 034°39'4436187880.7
2018-Feb-20 11:27N 24°27' E 118°04'576176530.5
2018-Feb-20 11:22N 48°56' E 002°17'5876128207.8
2018-Feb-20 11:20N 23°34' E 119°35'110425.2
2018-Feb-20 11:04N 23°49' E 117°36'442872462.9
2018-Feb-20 11:00N 31°49' E 034°39'7931426658.8
2018-Feb-20 11:00N 44°09' E 028°40'4577915452.3
2018-Feb-20 11:00N 24°26' E 117°52'10695495.8
2018-Feb-20 11:00N 23°34' E 119°33'98995090694.5
2018-Feb-20 11:00N 40°38' W 074°09'102331052537.1
2018-Feb-20 10:59N 01°21' E 103°37'2077128917.4
2018-Feb-20 10:58N 31°58' E 120°27'5490898323.9
2018-Feb-20 10:58N 48°56' E 002°17'57712308566.0
2018-Feb-20 10:58N 23°49' E 117°36'41547.1
2018-Feb-20 10:53N 24°24' E 117°59'623.7
2018-Feb-20 10:39N 24°27' E 118°04'7049826.2
2018-Feb-20 10:35N 36°02' E 120°14'70710431.5
2018-Feb-20 10:30N 24°26' E 117°52'45775492712.4
2018-Feb-20 10:30N 44°09' E 028°40'45841269370.3
2018-Feb-20 10:30N 24°24' E 117°59'473189052.7
2018-Feb-20 10:30N 31°58' E 120°27'94234846206.9
2018-Feb-20 10:30N 40°38' W 074°09'10233818639.9
2018-Feb-20 10:29N 01°21' E 103°37'157732261.9
2018-Feb-20 10:26N 23°49' E 117°36'577197089.2
2018-Feb-20 10:23N 48°56' E 002°17'527598912.3
2018-Feb-20 10:20N 36°02' E 120°14'70425607.7
2018-Feb-20 10:18N 24°27' E 118°04'522146.6
2018-Feb-20 10:16N 23°44' E 117°33'46172.0
2018-Feb-20 10:00N 24°26' E 117°52'45775492712.4
2018-Feb-20 10:00N 44°09' E 028°40'458916521826.5
2018-Feb-20 10:00N 23°44' E 117°32'15725658421.9
2018-Feb-20 10:00N 01°21' E 103°37'1619291388.5
2018-Feb-20 10:00N 24°24' E 117°59'9769764515.7
2018-Feb-20 09:59N 40°38' W 074°09'9423339234.5
2018-Feb-20 09:58N 31°58' E 120°27'46834419.6
2018-Feb-20 09:57N 24°27' E 118°04'464079.1
2018-Feb-20 09:56N 23°49' E 117°36'5771136691.7
2018-Feb-20 09:54N 48°56' E 002°17'575247716.3
2018-Feb-20 09:46N 24°25' E 117°51'457717235.5
2018-Feb-20 09:30N 44°09' E 028°40'459016525212.7
2018-Feb-20 09:30N 23°44' E 117°33'15725658445.4
2018-Feb-20 09:30N 01°21' E 103°37'1624158014.3
2018-Feb-20 09:30N 24°27' E 118°04'97701758669.4
2018-Feb-20 09:29N 40°38' W 074°09'9761732102.3
2018-Feb-20 09:29N 24°26' E 117°52'473121502.1
2018-Feb-20 09:28N 31°58' E 120°27'5138276.6
2018-Feb-20 09:25N 23°49' E 117°36'41405.3
2018-Feb-20 09:19N 24°24' E 117°59'191698.4
2018-Feb-20 09:02N 25°10' E 121°23'41214539.0
2018-Feb-20 09:00N 31°58' E 120°27'518621432.9
2018-Feb-20 09:00N 23°44' E 117°33'51182155.7
2018-Feb-20 09:00N 24°27' E 118°03'16235841900.4
2018-Feb-20 09:00N 01°21' E 103°37'48781097511.2
2018-Feb-20 09:00N 44°09' E 028°40'4561566148.5
2018-Feb-20 09:00N 40°38' W 074°09'9761924763.1
2018-Feb-20 08:59N 24°26' E 117°52'70946389.5
2018-Feb-20 08:58N 36°03' E 120°19'527919002833.0
2018-Feb-20 08:58N 48°56' E 002°17'57711888828.4
2018-Feb-20 08:58N 23°49' E 117°36'221265718.7
2018-Feb-20 08:58N 25°09' E 121°23'1852726.8
2018-Feb-20 08:54N 24°27' E 118°04'70611394.5
2018-Feb-20 08:50N 36°03' E 120°19'7092175.0
2018-Feb-20 08:30N 24°26' E 117°52'45775492713.6
2018-Feb-20 08:30N 44°09' E 028°40'459016522480.8
2018-Feb-20 08:30N 23°44' E 117°32'97864403590.2
2018-Feb-20 08:30N 40°38' W 074°09'1023312279599.1
2018-Feb-20 08:30N 01°21' E 103°37'16211945335.1
2018-Feb-20 08:30N 24°26' E 118°01'18714666.5
2018-Feb-20 08:29N 25°09' E 121°22'41274191.5
2018-Feb-20 08:29N 31°58' E 120°27'5490482026.7
2018-Feb-20 08:28N 48°56' E 002°17'5279193907.8
2018-Feb-20 08:27N 36°03' E 120°19'70613806.8
2018-Feb-20 08:24N 24°27' E 118°04'7044169.7
2018-Feb-20 08:14N 36°02' E 120°14'6997463.2
2018-Feb-20 08:08N 24°32' E 118°10'70011005.1
2018-Feb-20 08:04N 36°03' E 120°19'423468968.7
2018-Feb-20 08:00N 44°09' E 028°40'45895507282.0
2018-Feb-20 08:00N 23°44' E 117°32'15721886023.6
2018-Feb-20 08:00N 01°21' E 103°37'1624153855.9
2018-Feb-20 08:00N 24°27' E 118°04'119930.5
2018-Feb-20 08:00N 24°26' E 117°52'976117570489.9
2018-Feb-20 08:00N 40°38' W 074°09'9762245746.1
2018-Feb-20 07:57N 24°25' E 117°52'222064.7
2018-Feb-20 07:57N 24°12' E 118°11'18482881.7
2018-Feb-20 07:56N 25°09' E 121°23'65645412.7
2018-Feb-20 07:56N 36°02' E 120°14'5460.8
2018-Feb-20 07:55N 36°03' E 120°19'0 1.0
2018-Feb-20 07:49N 36°03' E 120°19'74879240.4
2018-Feb-20 07:48N 23°49' E 117°36'459015457.1
2018-Feb-20 07:30N 44°09' E 028°40'45905507689.8
2018-Feb-20 07:30N 23°44' E 117°32'226162910.7
2018-Feb-20 07:30N 25°09' E 121°23'58792351589.5
2018-Feb-20 07:30N 48°56' E 002°17'57531725783.9
2018-Feb-20 07:30N 24°26' E 117°52'112482.6
2018-Feb-20 07:30N 24°27' E 118°04'161490.1
2018-Feb-20 07:29N 24°14' E 118°14'1618582467.8
2018-Feb-20 07:29N 01°21' E 103°37'157755127.2
2018-Feb-20 07:27N 23°49' E 117°36'39135.4
2018-Feb-20 07:10N 24°25' E 117°52'70820384.0
2018-Feb-20 07:08N 36°02' E 120°14'7075974.9
2018-Feb-20 07:00N 24°26' E 117°52'57534141875.5
2018-Feb-20 07:00N 48°56' E 002°17'32921693214.7
2018-Feb-20 07:00N 40°38' W 074°09'978711744006.6
2018-Feb-20 07:00N 23°44' E 117°33'1572565840.3
2018-Feb-20 07:00N 01°21' E 103°37'16225837567.9
2018-Feb-20 07:00N 24°16' E 118°18'4605473608.3
2018-Feb-20 06:59N 44°09' E 028°40'4590330475.7
2018-Feb-20 06:59N 24°24' E 118°06'70916151.5
2018-Feb-20 06:56N 36°03' E 120°19'441.1
2018-Feb-20 06:50N 36°02' E 120°14'70840460.7
2018-Feb-20 06:49N 24°24' E 117°58'41199.0
2018-Feb-20 06:36N 23°49' E 117°36'75010839.7
2018-Feb-20 06:32N 36°06' E 120°14'71025569.9
2018-Feb-20 06:30N 24°26' E 117°52'45778239068.6
2018-Feb-20 06:30N 44°09' E 028°40'45905508413.0
2018-Feb-20 06:30N 23°44' E 117°33'15725658403.4
2018-Feb-20 06:30N 01°21' E 103°37'16231460715.0
2018-Feb-20 06:30N 24°27' E 118°03'83032.2
2018-Feb-20 06:30N 24°20' E 118°08'97813201020.8
2018-Feb-20 06:30N 40°38' W 074°09'3292740781.2
2018-Feb-20 06:30N 48°56' E 002°17'5781162603.3
2018-Feb-20 06:28N 24°19' E 118°21'71221544.4
2018-Feb-20 06:26N 36°03' E 120°19'0 1.1
2018-Feb-20 06:23N 36°03' E 120°19'915524162.3
2018-Feb-20 06:00N 40°38' W 074°09'978717616019.0
2018-Feb-20 06:00N 23°44' E 117°33'4934965.3
2018-Feb-20 06:00N 24°20' E 118°08'93362.5
2018-Feb-20 06:00N 24°25' E 117°60'71232.4
2018-Feb-20 06:00N 24°26' E 117°52'3021574.7
2018-Feb-20 06:00N 24°21' E 118°25'1629189164.5
2018-Feb-20 05:59N 01°21' E 103°37'228945029.0
2018-Feb-20 05:56N 36°03' E 120°19'70036017.6
2018-Feb-20 05:55N 24°32' E 118°10'700109605.4
2018-Feb-20 05:54N 36°03' E 120°19'5279791775.2
2018-Feb-20 05:54N 48°56' E 002°17'527519438.2
2018-Feb-20 05:38N 36°02' E 120°14'376961962.1
2018-Feb-20 05:34N 44°05' E 038°49'4377118.2
2018-Feb-20 05:30N 44°09' E 028°40'48785853393.2
2018-Feb-20 05:30N 01°21' E 103°37'102331416876.6
2018-Feb-20 05:30N 40°38' W 074°09'97951259304.0
2018-Feb-20 05:30N 24°23' E 118°28'331288.7
2018-Feb-20 05:28N 24°26' E 117°52'16249.8
2018-Feb-20 05:24N 24°20' E 118°08'712512742.1
2018-Feb-20 05:24N 36°03' E 120°19'65629877.7
2018-Feb-20 05:23N 25°10' E 121°23'65631905.8
2018-Feb-20 05:22N 36°03' E 120°19'5279279454.2
2018-Feb-20 05:20N 48°56' E 002°17'5275431617.0
2018-Feb-20 05:20N 36°02' E 120°14'376856751.6
2018-Feb-20 05:16N 44°04' E 038°52'4091113300.9
2018-Feb-20 05:14N 24°25' E 117°51'16167402.1
2018-Feb-20 05:00N 01°21' E 103°37'16171164253.3
2018-Feb-20 05:00N 24°26' E 117°52'40902454002.0
2018-Feb-20 05:00N 44°03' E 038°54'41074928210.1
2018-Feb-20 05:00N 24°20' E 118°08'45945513211.6
2018-Feb-20 05:00N 44°09' E 028°40'4561820915.3
2018-Feb-20 05:00N 40°38' W 074°09'9894178090.7
2018-Feb-20 04:56N 25°10' E 121°23'65650219.3
2018-Feb-20 04:56N 36°02' E 120°14'4137.5
2018-Feb-20 04:54N 36°03' E 120°19'2455127.4
2018-Feb-20 04:51N 31°58' E 120°27'47214786.9
2018-Feb-20 04:49N 24°24' E 117°59'4430938032.9
2018-Feb-20 04:49S 18°10' E 178°24'0 2.9
2018-Feb-20 04:45S 18°10' E 178°23'474169947.9
2018-Feb-20 04:41N 36°06' E 120°14'76711225.0
2018-Feb-20 04:37N 23°35' E 117°14'20899.6
2018-Feb-20 04:36N 23°43' E 117°34'52609.9
2018-Feb-20 04:31N 24°27' E 118°03'1036913.3
2018-Feb-20 04:30N 24°26' E 117°52'45778239070.4
2018-Feb-20 04:30N 44°09' E 028°40'48785853390.5
2018-Feb-20 04:30N 01°21' E 103°37'102335262684.4
2018-Feb-20 04:30N 40°38' W 074°09'50233616217.8
2018-Feb-20 04:30N 44°00' E 038°59'896632276139.3
2018-Feb-20 04:30S 18°08' E 178°25'44193977330.0
2018-Feb-20 04:30N 24°20' E 118°08'44193181639.0
2018-Feb-20 04:30S 18°08' E 178°24'4428136243.4
2018-Feb-20 04:28N 23°44' E 117°34'75119315.0
2018-Feb-20 04:26N 36°02' E 120°14'69966186.8
2018-Feb-20 04:25N 24°32' E 118°10'784015.4
2018-Feb-20 04:24N 23°33' E 117°15'76949423.0
2018-Feb-20 04:23N 36°06' E 120°14'6592372891.8
2018-Feb-20 04:23N 25°09' E 121°23'2271285.3
2018-Feb-20 04:12N 23°44' E 117°33'459022983.6
2018-Feb-20 04:00N 44°09' E 028°40'448161110.4
2018-Feb-20 04:00N 43°57' E 039°03'40967372384.0
2018-Feb-20 04:00N 23°44' E 117°33'4819371.3
2018-Feb-20 04:00N 24°20' E 118°08'168206.9
2018-Feb-20 04:00N 24°26' E 117°52'4436694406.6
2018-Feb-20 04:00S 18°08' E 178°26'4432531828.8
2018-Feb-20 03:59N 23°45' E 117°30'9784749388.7
2018-Feb-20 03:58N 40°38' W 074°09'152756110183.2
2018-Feb-20 03:58S 18°08' E 178°26'44253982390.7
2018-Feb-20 03:58N 24°32' E 118°10'7025177.9
2018-Feb-20 03:50N 36°06' E 120°14'3836.0
2018-Feb-20 03:50N 36°02' E 120°14'423013173.9
2018-Feb-20 03:30N 44°09' E 028°40'45908262066.5
2018-Feb-20 03:30N 23°44' E 117°33'1572565880.4
2018-Feb-20 03:30N 01°21' E 103°37'1617970211.4
2018-Feb-20 03:30N 24°26' E 117°52'155803.7
2018-Feb-20 03:30N 24°21' E 118°07'40951134075.0
2018-Feb-20 03:30N 43°54' E 039°07'50321811680.1
2018-Feb-20 03:30N 40°38' W 074°09'1527518330531.2
2018-Feb-20 03:30S 18°08' E 178°26'4432550167.8
2018-Feb-20 03:29N 23°45' E 117°30'4432290088.5
2018-Feb-20 03:28S 18°08' E 178°26'10955857328.9
2018-Feb-20 03:27N 48°56' E 002°17'5279246790.2
2018-Feb-20 03:26N 36°03' E 120°19'70041329.0
2018-Feb-20 03:25N 24°32' E 118°10'1980.3
2018-Feb-20 03:11N 24°25' E 117°51'47320518.6
2018-Feb-20 03:10N 31°58' E 120°26'2442578.7
2018-Feb-20 03:04N 36°02' E 120°14'70711561.8
2018-Feb-20 03:01N 24°25' E 118°06'45893303952.4
2018-Feb-20 03:00N 44°09' E 028°40'458916521811.7
2018-Feb-20 03:00N 23°44' E 117°32'15722829218.2
2018-Feb-20 03:00N 01°21' E 103°37'20772492796.0
2018-Feb-20 03:00N 31°59' E 120°27'94231541922.5
2018-Feb-20 03:00N 40°38' W 074°09'152752291316.8
2018-Feb-20 03:00S 18°08' E 178°26'44362661889.9
2018-Feb-20 02:59N 24°26' E 117°52'184141.7
2018-Feb-20 02:59N 24°33' E 118°11'6027107.3
2018-Feb-20 02:59N 23°45' E 117°30'4432301035.2
2018-Feb-20 02:58S 18°08' E 178°26'109551408468.9
2018-Feb-20 02:58N 48°56' E 002°17'527945461.9
2018-Feb-20 02:51N 36°03' E 120°19'7095933.7
2018-Feb-20 02:44N 24°25' E 118°00'70814248.3
2018-Feb-20 02:41N 36°03' E 120°19'70927166.4
2018-Feb-20 02:39N 24°24' E 117°59'1493655.0
2018-Feb-20 02:37N 22°51' E 120°06'792142498.0
2018-Feb-20 02:36N 36°02' E 120°14'7057331.1
2018-Feb-20 02:30N 24°27' E 118°03'469844188.9
2018-Feb-20 02:30N 31°58' E 120°27'439715827767.7
2018-Feb-20 02:30N 44°09' E 028°40'11262027021.2
2018-Feb-20 02:30N 48°56' E 002°17'57711888851.2
2018-Feb-20 02:30N 23°45' E 117°32'31188.5
2018-Feb-20 02:30N 23°43' E 117°34'97895034209.0
2018-Feb-20 02:30N 40°38' W 074°09'152752291316.7
2018-Feb-20 02:30S 18°08' E 178°26'4275641322.3
2018-Feb-20 02:29N 22°52' E 120°05'154277386.1
2018-Feb-20 02:29N 24°26' E 117°52'114414.8
2018-Feb-20 02:29N 24°27' E 118°04'7603.4
2018-Feb-20 02:28N 24°32' E 118°10'44252654925.0
2018-Feb-20 02:28S 18°08' E 178°26'4430183311.6
2018-Feb-20 02:27N 24°24' E 117°59'1913699.7
2018-Feb-20 02:24N 25°09' E 121°24'65610693.6
2018-Feb-20 02:20N 36°03' E 120°19'5172.9
2018-Feb-20 02:18N 36°02' E 120°14'7082381.2
2018-Feb-20 02:00N 24°23' E 118°06'977635193408.1
2018-Feb-20 02:00N 40°38' W 074°09'978617614010.2
2018-Feb-20 02:00N 23°44' E 117°32'4819083.0
2018-Feb-20 02:00N 24°25' E 117°60'14744083.0
2018-Feb-20 02:00N 22°52' E 120°05'7912846247.3
2018-Feb-20 02:00N 36°03' E 120°19'527919003896.7
2018-Feb-20 02:00N 48°56' E 002°17'5489987992.3
2018-Feb-20 02:00N 31°60' E 120°27'45792060603.6
2018-Feb-20 02:00S 18°08' E 178°26'4592787190.8
2018-Feb-20 01:59N 01°21' E 103°37'2077149544.2
2018-Feb-20 01:58N 31°58' E 120°27'462415417.0
2018-Feb-20 01:58N 24°33' E 118°11'44251769825.4
2018-Feb-20 01:58S 18°08' E 178°26'4739328110.6
2018-Feb-20 01:57N 36°02' E 120°14'522.0
2018-Feb-20 01:44N 36°03' E 120°19'423418432.9
2018-Feb-20 01:30N 44°09' E 028°40'45898260915.6
2018-Feb-20 01:30N 23°44' E 117°32'15725658090.8
2018-Feb-20 01:30N 01°21' E 103°37'1614341707.8
2018-Feb-20 01:30N 22°54' E 120°04'59337119430.9
2018-Feb-20 01:30N 48°56' E 002°17'3292438980.7
2018-Feb-20 01:30N 40°38' W 074°09'1527518330538.0
2018-Feb-20 01:30S 18°08' E 178°26'42911544858.7
2018-Feb-20 01:29N 25°10' E 121°23'65659053.0
2018-Feb-20 01:29N 36°03' E 120°19'4736516640.0
2018-Feb-20 01:28S 18°08' E 178°26'4420883980.5
2018-Feb-20 01:28N 24°20' E 118°08'47514235.6
2018-Feb-20 01:26N 31°59' E 120°27'2441382.0
2018-Feb-20 01:15N 36°02' E 120°14'3134.1
2018-Feb-20 01:14N 36°06' E 120°14'71117411.8
2018-Feb-20 01:11N 24°25' E 117°51'1280.1
2018-Feb-20 01:02N 24°29' E 118°04'162552718.8
2018-Feb-20 01:00N 01°21' E 103°37'487817560181.3
2018-Feb-20 01:00N 44°09' E 028°40'45905507951.2
2018-Feb-20 01:00N 23°44' E 117°32'4843638.2
2018-Feb-20 01:00N 24°20' E 118°08'1618824.7
2018-Feb-20 01:00N 24°26' E 117°52'15138759.8
2018-Feb-20 01:00N 22°55' E 120°03'99621434590.4
2018-Feb-20 01:00N 40°38' W 074°09'1527518330538.0
2018-Feb-20 01:00S 18°08' E 178°26'4291908731.6
2018-Feb-20 00:59N 25°10' E 121°23'58791511807.9
2018-Feb-20 00:59N 48°56' E 002°17'5759863914.3
2018-Feb-20 00:59N 24°29' E 118°04'4428514260.4
2018-Feb-20 00:58S 18°08' E 178°26'473973226.5
2018-Feb-20 00:54N 36°02' E 120°14'24417934.9
2018-Feb-20 00:53N 31°59' E 120°27'4734353.4
2018-Feb-20 00:47N 24°24' E 117°58'15134.9
2018-Feb-20 00:40N 24°20' E 118°14'71115807.0
2018-Feb-20 00:38N 36°03' E 120°19'423435202.2
2018-Feb-20 00:30N 44°09' E 028°40'457716478140.8
2018-Feb-20 00:30N 24°26' E 117°52'16172910636.2
2018-Feb-20 00:30N 01°21' E 103°37'16231460416.5
2018-Feb-20 00:30N 24°27' E 118°03'131646.7
2018-Feb-20 00:30N 24°21' E 118°15'97862516355.6
2018-Feb-20 00:30N 40°38' W 074°09'1527513747903.5
2018-Feb-20 00:30S 18°08' E 178°26'44301594932.9
2018-Feb-20 00:29N 23°44' E 117°32'5036206.7
2018-Feb-20 00:29N 24°24' E 118°06'13831029.8
2018-Feb-20 00:29N 22°56' E 120°03'143171382.2
2018-Feb-20 00:29N 24°29' E 118°04'4428318841.4
2018-Feb-20 00:28S 18°08' E 178°26'4295276088.7
2018-Feb-20 00:27N 25°10' E 121°19'5876293782.6
2018-Feb-20 00:26N 48°56' E 002°17'5490150863.9
2018-Feb-20 00:24N 31°59' E 120°27'5133216.2
2018-Feb-20 00:14N 23°49' E 117°36'7504710.4
2018-Feb-20 00:05N 36°06' E 120°14'7109949.1
2018-Feb-20 00:00N 24°26' E 117°52'457716478158.1
2018-Feb-20 00:00N 44°09' E 028°40'45858252208.7
2018-Feb-20 00:00N 24°25' E 118°01'54226.9
2018-Feb-20 00:00N 24°29' E 118°04'976817583294.4
2018-Feb-20 00:00N 40°38' W 074°09'99632391006.6
2018-Feb-20 00:00N 22°55' E 120°03'54467533.6
2018-Feb-20 00:00N 31°59' E 120°27'2077679787.6
2018-Feb-19 23:59N 01°21' E 103°37'1577709760.8
2018-Feb-19 23:59N 23°49' E 117°36'4429245310.2
2018-Feb-19 23:58S 18°08' E 178°26'42913861893.6
2018-Feb-19 23:58N 25°09' E 121°23'18639292.2
2018-Feb-19 23:58N 24°27' E 118°04'121386.9
2018-Feb-19 23:57N 24°21' E 118°16'577558397.2
2018-Feb-19 23:51N 48°56' E 002°17'527375328.1
2018-Feb-19 23:47N 36°06' E 120°14'7435529.3
2018-Feb-19 23:39N 23°54' E 117°44'459331798.3
2018-Feb-19 23:30N 44°09' E 028°40'48785853396.6
2018-Feb-19 23:30N 01°21' E 103°37'1617831610.1
2018-Feb-19 23:30N 24°26' E 117°52'4012100.6
2018-Feb-19 23:30N 23°49' E 117°36'14717616.5
2018-Feb-19 23:30N 22°53' E 120°04'427715398118.8
2018-Feb-19 23:30S 18°08' E 178°26'42912574469.5
2018-Feb-19 23:29N 25°09' E 121°23'98951228314.1
2018-Feb-19 23:29N 40°38' W 074°09'9787782967.9
2018-Feb-19 23:28N 23°54' E 117°44'44257965084.5
2018-Feb-19 23:28S 18°08' E 178°26'109554929641.2
2018-Feb-19 23:28N 48°56' E 002°17'5490318760.9
2018-Feb-19 23:27N 31°59' E 120°27'47221223.9
2018-Feb-19 23:26N 24°21' E 118°16'12804.0
2018-Feb-19 23:25N 24°27' E 118°04'7073017.7
2018-Feb-19 23:11N 36°06' E 120°14'422923898.1
2018-Feb-19 23:00N 44°09' E 028°40'45771373178.4
2018-Feb-19 23:00N 24°26' E 117°52'224192.1
2018-Feb-19 23:00N 24°21' E 118°16'44157946190.3
2018-Feb-19 23:00S 18°08' E 178°26'45921653100.5
2018-Feb-19 22:59N 01°21' E 103°37'102336139799.8
2018-Feb-19 22:59N 40°38' W 074°09'9423916850.7
2018-Feb-19 22:59N 31°59' E 120°27'513115380.1
2018-Feb-19 22:58N 23°49' E 117°36'44291063010.9
2018-Feb-19 22:58S 18°08' E 178°26'109556572854.6
2018-Feb-19 22:58N 48°56' E 002°17'5761105815.0
2018-Feb-19 22:55N 24°27' E 118°04'413876.8
2018-Feb-19 22:54N 23°50' E 117°45'459511617.8
2018-Feb-19 22:30N 44°09' E 028°40'45778239070.4
2018-Feb-19 22:30N 24°26' E 117°52'9761763934.0
2018-Feb-19 22:30N 40°38' W 074°09'1527513747903.5
2018-Feb-19 22:30S 18°08' E 178°26'4579915704.8
2018-Feb-19 22:29N 31°59' E 120°27'4579249737.7
2018-Feb-19 22:28S 18°08' E 178°26'4415454071.6
2018-Feb-19 22:28N 24°21' E 118°16'12259.7
2018-Feb-19 22:25N 24°27' E 118°04'576160115.2
2018-Feb-19 22:19N 48°56' E 002°17'5759177210.0
2018-Feb-19 22:17N 24°24' E 117°59'458416501.8
2018-Feb-19 22:00N 44°09' E 028°40'45775492719.4
2018-Feb-19 22:00N 24°26' E 117°52'47363016.6
2018-Feb-19 22:00N 31°59' E 120°27'20773738843.3
2018-Feb-19 22:00N 01°21' E 103°37'102332166988.4
2018-Feb-19 22:00N 40°38' W 074°09'1527513747901.0
2018-Feb-19 22:00S 18°08' E 178°26'44301993511.6
2018-Feb-19 21:59N 24°24' E 117°59'4430215514.9
2018-Feb-19 21:58S 18°08' E 178°26'44152270377.9
2018-Feb-19 21:58N 24°21' E 118°16'4321993.0
2018-Feb-19 21:58N 23°47' E 117°47'4315369.2
2018-Feb-19 21:58N 24°27' E 118°04'576151463.4
2018-Feb-19 21:51N 48°56' E 002°17'5940737334.0
2018-Feb-19 21:51N 22°48' E 120°07'157470.8
2018-Feb-19 21:31N 24°26' E 117°52'45773295631.6
2018-Feb-19 21:30N 44°09' E 028°40'458416501834.2
2018-Feb-19 21:30N 24°24' E 117°59'161076.9
2018-Feb-19 21:30N 24°21' E 118°16'5775670632.5
2018-Feb-19 21:29N 48°56' E 002°17'10955744096.8
2018-Feb-19 21:28S 18°08' E 178°26'4592295196.5
2018-Feb-19 21:27N 01°21' E 103°37'10233196999.0
2018-Feb-19 21:24N 40°38' W 074°09'9976513045.1
2018-Feb-19 21:23N 22°46' E 120°09'1438597.1
2018-Feb-19 21:22N 23°49' E 117°49'4113429.7
2018-Feb-19 21:22N 24°27' E 118°04'964167.2
2018-Feb-19 21:20N 23°33' E 119°31'50815383.0
2018-Feb-19 21:18N 31°59' E 120°27'439714696.3
2018-Feb-19 21:00N 44°09' E 028°40'45772746359.7
2018-Feb-19 21:00N 24°26' E 117°52'97618785244.9
2018-Feb-19 21:00N 40°38' W 074°09'97852072055.8
2018-Feb-19 21:00N 24°20' E 118°13'4416635924.3
2018-Feb-19 21:00S 18°08' E 178°26'109553585192.0
2018-Feb-19 20:59N 48°56' E 002°17'10955532934.2
2018-Feb-19 20:58S 18°08' E 178°26'45922361571.8
2018-Feb-19 20:58N 01°21' E 103°37'1624365408.4
2018-Feb-19 20:58N 24°27' E 118°04'1563362.1
2018-Feb-19 20:55N 22°45' E 120°13'159990.4
2018-Feb-19 20:45N 25°10' E 121°23'4122124.2
2018-Feb-19 20:34N 31°59' E 120°27'4758725.5
2018-Feb-19 20:30N 24°19' E 118°10'459616545983.5
2018-Feb-19 20:30N 44°09' E 028°40'423015229067.9
2018-Feb-19 20:30N 36°02' E 120°14'707159081.0
2018-Feb-19 20:30N 24°26' E 117°52'97612510070.0
2018-Feb-19 20:30N 40°38' W 074°09'102332833755.0
2018-Feb-19 20:30N 01°21' E 103°37'45921653100.0
2018-Feb-19 20:30S 18°08' E 178°26'0 0.3
2018-Feb-19 20:28S 18°08' E 178°26'10955448149.2
2018-Feb-19 20:27N 48°56' E 002°17'58791007841.0
2018-Feb-19 20:26N 25°10' E 121°23'1856945.2
2018-Feb-19 20:25N 24°27' E 118°04'4699021.1
2018-Feb-19 20:22N 31°59' E 120°27'247866.3
2018-Feb-19 20:05N 36°06' E 120°14'422962133.8
2018-Feb-19 20:00N 44°09' E 028°40'45612052286.7
2018-Feb-19 20:00N 40°38' W 074°09'1023336838815.1
2018-Feb-19 20:00N 01°21' E 103°37'1617831610.6
2018-Feb-19 20:00N 24°26' E 117°52'4436443648.7
2018-Feb-19 20:00S 18°08' E 178°26'0 0.0
2018-Feb-19 19:58S 18°08' E 178°26'4579323189.7
2018-Feb-19 19:57N 31°59' E 120°27'5490205866.6
2018-Feb-19 19:56N 48°56' E 002°17'5761363855.3
2018-Feb-19 19:55N 24°27' E 118°04'70426408.1
2018-Feb-19 19:53N 36°02' E 120°14'7071868.8
2018-Feb-19 19:30N 24°26' E 117°52'45778239068.6
2018-Feb-19 19:30N 44°09' E 028°40'4878798190.3
2018-Feb-19 19:30N 01°21' E 103°37'102332302424.1
2018-Feb-19 19:30N 40°38' W 074°09'152754230122.9
2018-Feb-19 19:30S 18°08' E 178°26'4579392444.9
2018-Feb-19 19:29N 31°59' E 120°27'4579383318.3
2018-Feb-19 19:28S 18°08' E 178°26'473918054.8
2018-Feb-19 19:12N 36°02' E 120°14'74732378.7
2018-Feb-19 19:11N 23°49' E 117°36'5771149475.5
2018-Feb-19 19:09N 48°56' E 002°17'11268173.5
2018-Feb-19 19:00N 44°09' E 028°40'48785853392.1
2018-Feb-19 19:00N 01°21' E 103°37'1617342427.9
2018-Feb-19 19:00N 24°26' E 117°52'4436499104.8
2018-Feb-19 19:00S 18°08' E 178°26'0 0.0
2018-Feb-19 18:58S 18°08' E 178°26'10955147153.5
2018-Feb-19 18:54N 48°56' E 002°17'5761174283.6
2018-Feb-19 18:52N 24°27' E 118°04'704133430.5
2018-Feb-19 18:51N 36°02' E 120°14'24413731.1
2018-Feb-19 18:50N 31°59' E 120°27'4121443.8
2018-Feb-19 18:33N 25°09' E 121°24'4716102280.7
2018-Feb-19 18:30N 44°09' E 028°40'4561820915.2
2018-Feb-19 18:30N 40°38' W 074°09'152751617400.5
2018-Feb-19 18:30S 18°08' E 178°26'4436939491.3
2018-Feb-19 18:29N 24°26' E 117°52'473243061.1
2018-Feb-19 18:29N 31°59' E 120°27'20771246277.3
2018-Feb-19 18:29N 01°21' E 103°37'4592311905.8
2018-Feb-19 18:28S 18°08' E 178°26'10955372048.4
2018-Feb-19 18:26N 48°56' E 002°17'576174336.0
2018-Feb-19 18:22N 24°27' E 118°04'1866892.0
2018-Feb-19 18:20N 25°10' E 121°23'2462907.3
2018-Feb-19 18:15N 23°35' E 117°14'458118806.1
2018-Feb-19 18:00N 44°09' E 028°40'4561864121.4
2018-Feb-19 18:00N 40°38' W 074°09'97612928415.1
2018-Feb-19 18:00N 24°26' E 117°52'4436694406.6
2018-Feb-19 18:00S 18°08' E 178°26'45922066375.6
2018-Feb-19 17:59N 01°21' E 103°37'4592223392.0
2018-Feb-19 17:58S 18°08' E 178°26'4739437480.8
2018-Feb-19 17:58N 36°02' E 120°14'76522963.0
2018-Feb-19 17:56N 23°33' E 117°15'715302.5
2018-Feb-19 17:55N 24°27' E 118°04'18615200.8
2018-Feb-19 17:54N 25°10' E 121°24'41219005.1
2018-Feb-19 17:53N 31°59' E 120°27'549090656.8
2018-Feb-19 17:49N 48°56' E 002°17'11263632.7
2018-Feb-19 17:30N 44°09' E 028°40'45775492712.4
2018-Feb-19 17:30N 24°26' E 117°52'16175821272.4
2018-Feb-19 17:30N 01°21' E 103°37'4592324137.3
2018-Feb-19 17:30S 18°08' E 178°26'10955788766.5
2018-Feb-19 17:29N 48°57' E 002°17'109551272204.0
2018-Feb-19 17:28S 18°08' E 178°26'42942208508.6
2018-Feb-19 17:28N 25°10' E 121°19'6554087.0
2018-Feb-19 17:18N 36°02' E 120°14'7477035.1
2018-Feb-19 17:12N 23°49' E 117°36'459023672.8
2018-Feb-19 17:00N 44°09' E 028°40'1126168958.0
2018-Feb-19 17:00N 48°57' E 002°17'577220777916.1
2018-Feb-19 17:00N 23°49' E 117°36'97852516137.7
2018-Feb-19 17:00N 40°38' W 074°09'152753927971.7
2018-Feb-19 17:00S 18°08' E 178°26'4592403195.2
2018-Feb-19 16:59N 01°21' E 103°37'4592393595.4
2018-Feb-19 16:58S 18°08' E 178°26'429156581.7
2018-Feb-19 16:54N 25°09' E 121°23'4126371.0
2018-Feb-19 16:50N 31°59' E 120°27'439713668.3
2018-Feb-19 16:30N 44°09' E 028°40'11261351658.5
2018-Feb-19 16:30N 48°57' E 002°17'575310355118.0
2018-Feb-19 16:30N 24°26' E 117°52'1617646808.0
2018-Feb-19 16:30N 01°21' E 103°37'102336139802.2
2018-Feb-19 16:30N 40°38' W 074°09'152751571189.6
2018-Feb-19 16:30S 18°08' E 178°26'0 0.0
2018-Feb-19 16:28S 18°08' E 178°26'4429207080.2
2018-Feb-19 16:27N 23°49' E 117°36'461266.9
2018-Feb-19 16:25N 24°27' E 118°04'70719442.0
2018-Feb-19 16:23N 36°06' E 120°14'2471315.3
2018-Feb-19 16:11N 31°59' E 120°27'2441906.3
2018-Feb-19 16:04N 36°02' E 120°14'228643541.1
2018-Feb-19 16:00N 01°21' E 103°37'620122323160.8
2018-Feb-19 16:00N 48°57' E 002°17'1126810998.0
2018-Feb-19 16:00N 44°09' E 028°40'9519796927.5
2018-Feb-19 16:00S 18°08' E 178°26'44361330946.0
2018-Feb-19 15:59N 24°26' E 117°52'97612342729.6
2018-Feb-19 15:59N 40°38' W 074°09'15275964764.8
2018-Feb-19 15:58S 18°08' E 178°26'4429123606.0
2018-Feb-19 15:56N 23°49' E 117°36'5133822.0
2018-Feb-19 15:48N 31°59' E 120°27'2446060.8
2018-Feb-19 15:46N 36°02' E 120°14'70524179.5
2018-Feb-19 15:44N 24°27' E 117°59'628.3
2018-Feb-19 15:31N 24°26' E 117°52'45775492712.4
2018-Feb-19 15:30N 44°09' E 028°40'11261351662.9
2018-Feb-19 15:30N 48°57' E 002°17'62012232316.4
2018-Feb-19 15:30N 01°21' E 103°37'102331023300.3
2018-Feb-19 15:30N 40°38' W 074°09'1527513747908.7
2018-Feb-19 15:30S 18°08' E 178°26'0 0.0
2018-Feb-19 15:28S 18°08' E 178°26'442915945174.6
2018-Feb-19 15:28N 23°49' E 117°36'5138546.5
2018-Feb-19 15:25N 31°59' E 120°27'47015965.4
2018-Feb-19 15:23N 24°26' E 118°02'458512299.1
2018-Feb-19 15:00N 44°09' E 028°40'11261013747.5
2018-Feb-19 15:00N 48°57' E 002°17'54902470487.2
2018-Feb-19 15:00N 31°59' E 120°27'2077356078.3
2018-Feb-19 15:00N 01°21' E 103°37'102336139799.5
2018-Feb-19 15:00N 40°38' W 074°09'152754582634.8
2018-Feb-19 15:00S 18°08' E 178°26'44361064756.8
2018-Feb-19 14:59N 24°26' E 117°52'4436228162.2
2018-Feb-19 14:58S 18°08' E 178°26'442912984.7
2018-Feb-19 14:38N 23°49' E 117°36'459037898.2
2018-Feb-19 14:30N 44°09' E 028°40'11261351663.3
2018-Feb-19 14:30N 48°57' E 002°17'57536903412.0
2018-Feb-19 14:30N 24°26' E 117°52'97611597318.1
2018-Feb-19 14:30N 40°38' W 074°09'102337367763.0
2018-Feb-19 14:30N 01°21' E 103°37'4592826550.3
2018-Feb-19 14:30S 18°08' E 178°26'44292657529.1
2018-Feb-19 14:29N 23°49' E 117°36'4429207080.2
2018-Feb-19 14:28S 18°08' E 178°26'457932130.0
2018-Feb-19 14:20N 31°59' E 120°27'2472439.6
2018-Feb-19 14:14N 36°06' E 120°14'422919392.2
2018-Feb-19 14:00N 44°09' E 028°40'45772354019.6
2018-Feb-19 14:00N 24°26' E 117°52'9761817232.1
2018-Feb-19 14:00N 40°38' W 074°09'1527527495817.4
2018-Feb-19 14:00S 18°08' E 178°26'4579969569.0
2018-Feb-19 13:59N 31°59' E 120°27'4579249737.5
2018-Feb-19 13:58S 18°08' E 178°26'4429346634.2
2018-Feb-19 13:57N 23°49' E 117°36'15771892699.8
2018-Feb-19 13:57N 01°21' E 103°37'228964884.3
2018-Feb-19 13:55N 36°06' E 120°14'527319939.6
2018-Feb-19 13:39N 48°56' E 002°17'527555046.8
2018-Feb-19 13:34N 36°02' E 120°14'70713396.3
2018-Feb-19 13:30N 24°26' E 117°52'45778239068.6
2018-Feb-19 13:30N 44°09' E 028°40'45903304721.6
2018-Feb-19 13:30N 23°49' E 117°36'1577630900.5
2018-Feb-19 13:30N 01°21' E 103°37'102336139798.7
2018-Feb-19 13:30N 40°38' W 074°09'152751718487.5
2018-Feb-19 13:30S 18°08' E 178°26'0 0.3
2018-Feb-19 13:28S 18°08' E 178°26'4579222738.8
2018-Feb-19 13:27N 31°59' E 120°27'5490114902.3
2018-Feb-19 13:24N 48°56' E 002°17'527537457.9
2018-Feb-19 13:16N 36°02' E 120°14'65681429.7
2018-Feb-19 13:15N 25°09' E 121°23'186768.0
2018-Feb-19 13:01N 24°27' E 118°04'113972.2
2018-Feb-19 13:00N 24°26' E 117°52'97611757049.9
2018-Feb-19 13:00N 40°38' W 074°09'152751527545.5
2018-Feb-19 13:00S 18°08' E 178°26'0 0.0
2018-Feb-19 12:58S 18°08' E 178°26'42911287276.6
2018-Feb-19 12:58N 25°09' E 121°23'656112409.5
2018-Feb-19 12:58N 36°02' E 120°14'747116844.1
2018-Feb-19 12:57N 23°49' E 117°36'1577270385.9
2018-Feb-19 12:57N 01°21' E 103°37'6201173038.9
2018-Feb-19 12:55N 48°56' E 002°17'11262784.4
2018-Feb-19 12:30N 44°09' E 028°40'456116418304.0
2018-Feb-19 12:30N 40°38' W 074°09'97613514098.0
2018-Feb-19 12:30N 24°26' E 117°52'4018148.4
2018-Feb-19 12:30N 23°49' E 117°36'1577354881.4
2018-Feb-19 12:30N 01°21' E 103°37'1766397409.2
2018-Feb-19 12:30N 25°10' E 121°23'42915149378.4
2018-Feb-19 12:30S 18°08' E 178°26'0 0.0
2018-Feb-19 12:28S 18°08' E 178°26'474146129.8
2018-Feb-19 12:22N 36°06' E 120°14'359.1
2018-Feb-19 12:19N 36°02' E 120°14'7072324.5
2018-Feb-19 12:00N 24°26' E 117°52'16175821263.0
2018-Feb-19 12:00N 01°21' E 103°37'1577227123.9
2018-Feb-19 12:00N 23°49' E 117°36'4429613275.9
2018-Feb-19 12:00S 18°08' E 178°26'42921545122.2
2018-Feb-19 11:59N 25°09' E 121°22'98945088108.1
2018-Feb-19 11:59N 40°38' W 074°09'15275820770.4
2018-Feb-19 11:58S 18°08' E 178°26'4430144982.8
2018-Feb-19 11:56N 24°24' E 117°59'70826003.8
2018-Feb-19 11:55N 36°02' E 120°14'2441603.7
2018-Feb-19 11:46N 31°59' E 120°27'457823957.1
2018-Feb-19 11:34S 18°08' E 178°26'443073832.9
2018-Feb-19 11:31N 24°24' E 117°59'45844125458.6
2018-Feb-19 11:30N 44°09' E 028°40'45771647815.8
2018-Feb-19 11:30N 24°26' E 117°52'1617485105.7
2018-Feb-19 11:30N 01°21' E 103°37'102332166988.1
2018-Feb-19 11:30N 40°38' W 074°09'152754230124.5
2018-Feb-19 11:30S 18°08' E 178°26'4429224579.8
2018-Feb-19 11:28N 23°49' E 117°36'513923030.8
2018-Feb-19 11:28N 31°59' E 120°27'45791498424.8
2018-Feb-19 11:28S 18°08' E 178°26'429140543.6
2018-Feb-19 11:22N 25°10' E 121°24'186613.3
2018-Feb-19 11:04N 24°27' E 118°04'704120638.1
2018-Feb-19 11:03N 36°02' E 120°14'423189066.6
2018-Feb-19 11:00N 44°09' E 028°40'471316967377.2
2018-Feb-19 11:00N 25°10' E 121°20'188169314.7
2018-Feb-19 11:00N 24°24' E 117°59'97692511981.5
2018-Feb-19 11:00N 40°38' W 074°09'97851853998.3
2018-Feb-19 11:00N 23°49' E 117°36'44291226551.0
2018-Feb-19 11:00S 18°08' E 178°26'0 0.0
2018-Feb-19 10:58S 18°08' E 178°26'0 7.2
2018-Feb-19 10:58S 18°08' E 178°26'473928965.1
2018-Feb-19 10:48N 36°02' E 120°14'7047451.2
2018-Feb-19 10:43N 24°27' E 118°04'458622585.6
2018-Feb-19 10:30N 44°09' E 028°40'45778239070.4
2018-Feb-19 10:30N 24°26' E 117°52'16172910630.5
2018-Feb-19 10:30N 01°21' E 103°37'22852056928.6
2018-Feb-19 10:30N 36°02' E 120°14'707134031.4
2018-Feb-19 10:30N 24°24' E 117°59'417833.3
2018-Feb-19 10:30N 23°49' E 117°36'44292277880.4
2018-Feb-19 10:30S 18°08' E 178°26'152753436976.1
2018-Feb-19 10:29N 40°38' W 074°09'15275808700.3
2018-Feb-19 10:28S 18°08' E 178°26'014.4
2018-Feb-19 10:28S 18°08' E 178°26'4429531535.8
2018-Feb-19 10:28N 23°44' E 117°33'52520.2
2018-Feb-19 10:22N 24°27' E 118°04'576116512.6
2018-Feb-19 10:01N 48°56' E 002°17'1126270273.7
2018-Feb-19 10:00N 44°09' E 028°40'48788780086.6
2018-Feb-19 10:00N 01°21' E 103°37'15772839039.6
2018-Feb-19 10:00N 23°49' E 117°36'4430797330.7
2018-Feb-19 10:00S 18°08' E 178°26'47391066382.6
2018-Feb-19 10:00N 36°02' E 120°14'7071271750.9
2018-Feb-19 10:00N 24°26' E 117°52'44361597135.2
2018-Feb-19 10:00S 18°08' E 178°26'4579484787.0
2018-Feb-19 09:59N 31°58' E 120°27'4579323191.4
2018-Feb-19 09:58S 18°08' E 178°26'109551460637.2
2018-Feb-19 09:58N 48°56' E 002°17'5761111504.3
2018-Feb-19 09:55N 24°27' E 118°04'4691557.7
2018-Feb-19 09:37N 31°59' E 120°27'439743245.7
2018-Feb-19 09:30N 44°09' E 028°40'45901377025.2
2018-Feb-19 09:30N 23°44' E 117°33'4581859.4
2018-Feb-19 09:30N 24°26' E 117°52'57532958596.6
2018-Feb-19 09:30N 48°57' E 002°17'6201930128.4
2018-Feb-19 09:30N 01°21' E 103°37'45921836777.3
2018-Feb-19 09:30S 18°08' E 178°26'44291328760.4
2018-Feb-19 09:29N 23°49' E 117°36'97858806487.3
2018-Feb-19 09:29N 40°38' W 074°09'94231884638.6
2018-Feb-19 09:29N 31°58' E 120°27'4579329656.0
2018-Feb-19 09:28S 18°08' E 178°26'4427482973.0
2018-Feb-19 09:28N 24°27' E 118°04'4698786.2
2018-Feb-19 09:24N 31°59' E 120°27'47222058.3
2018-Feb-19 09:23N 24°25' E 118°00'7075107.5
2018-Feb-19 09:15N 36°02' E 120°14'540.4
2018-Feb-19 09:08N 36°03' E 120°19'70011456.8
2018-Feb-19 09:04N 24°32' E 118°10'9771149046.0
2018-Feb-19 09:00N 40°38' W 074°09'1023312279599.1
2018-Feb-19 09:00N 01°21' E 103°37'16172910634.3
2018-Feb-19 09:00N 24°26' E 117°52'117755.0
2018-Feb-19 09:00N 24°28' E 118°04'45861500712.3
2018-Feb-19 09:00N 44°09' E 028°40'45891652186.3
2018-Feb-19 09:00N 23°44' E 117°32'4430724969.5
2018-Feb-19 09:00S 18°08' E 178°26'0 0.3
2018-Feb-19 08:58S 18°08' E 178°26'0 8.6
2018-Feb-19 08:58S 18°08' E 178°26'4427549589.5
2018-Feb-19 08:58N 24°27' E 118°04'7201.9
2018-Feb-19 08:55N 24°32' E 118°10'69827925.3
2018-Feb-19 08:54N 36°02' E 120°14'5405.2
2018-Feb-19 08:53N 36°03' E 120°19'52791727613.4
2018-Feb-19 08:53N 48°56' E 002°17'5279234606.9
2018-Feb-19 08:52N 36°03' E 120°19'7082004.9
2018-Feb-19 08:31N 24°25' E 118°00'45848251917.0
2018-Feb-19 08:30N 44°09' E 028°40'45898261007.0
2018-Feb-19 08:30N 23°44' E 117°32'60108306.9
2018-Feb-19 08:30N 24°33' E 118°11'1632587634.2
2018-Feb-19 08:30N 01°21' E 103°37'1617277203.3
2018-Feb-19 08:30N 24°26' E 117°52'9761408615.8
2018-Feb-19 08:28N 40°38' W 074°09'15275279145.2
2018-Feb-19 08:25S 18°08' E 178°26'4427442725.3
2018-Feb-19 08:25N 24°27' E 118°04'4427265635.2
2018-Feb-19 08:24S 18°08' E 178°26'021.6
2018-Feb-19 08:24S 18°08' E 178°26'4429261395.5
2018-Feb-19 08:23N 23°49' E 117°36'7485895.1
2018-Feb-19 08:15N 36°03' E 120°19'0 2.4
2018-Feb-19 08:07N 36°03' E 120°19'2456117.4
2018-Feb-19 08:05N 31°59' E 120°27'439761587.3
2018-Feb-19 08:00N 44°09' E 028°40'458916521716.2
2018-Feb-19 08:00N 23°44' E 117°32'4611712.7
2018-Feb-19 08:00N 24°26' E 117°52'187931.1
2018-Feb-19 08:00N 24°32' E 118°10'4425530986.6
2018-Feb-19 08:00S 18°08' E 178°26'4592826550.3
2018-Feb-19 07:59N 01°21' E 103°37'102331416877.6
2018-Feb-19 07:59N 40°38' W 074°09'152751447148.4
2018-Feb-19 07:58S 18°08' E 178°26'0 5.4
2018-Feb-19 07:58S 18°08' E 178°26'4739230546.3
2018-Feb-19 07:57N 36°02' E 120°14'24458464.5
2018-Feb-19 07:57N 31°59' E 120°27'2459572.8
2018-Feb-19 07:55N 36°03' E 120°19'70641641.5
2018-Feb-19 07:54N 24°27' E 118°04'70620660.1
2018-Feb-19 07:52N 36°03' E 120°19'5279162417.4
2018-Feb-19 07:50N 48°56' E 002°17'5771494694.4
2018-Feb-19 07:49N 23°49' E 117°36'22343.9
2018-Feb-19 07:46N 23°27' E 117°36'980638965.0
2018-Feb-19 07:30N 40°38' W 074°09'456116418305.8
2018-Feb-19 07:30N 44°09' E 028°40'48784390042.8
2018-Feb-19 07:30N 01°21' E 103°37'1632367242.8
2018-Feb-19 07:30N 24°33' E 118°11'1811093.2
2018-Feb-19 07:30N 24°26' E 117°52'598107.0
2018-Feb-19 07:30N 23°30' E 117°35'442015910703.7
2018-Feb-19 07:30S 18°08' E 178°26'0 0.0
2018-Feb-19 07:28S 18°08' E 178°26'010.8
2018-Feb-19 07:28S 18°08' E 178°26'4426482854.8
2018-Feb-19 07:28N 24°26' E 118°05'5762140166.8
2018-Feb-19 07:25N 48°56' E 002°17'527675972.2
2018-Feb-19 07:21N 36°02' E 120°14'5402.7
2018-Feb-19 07:20N 36°03' E 120°19'0 4.8
2018-Feb-19 07:14N 36°03' E 120°19'915539756.2
2018-Feb-19 07:00N 40°38' W 074°09'456116418291.9
2018-Feb-19 07:00N 44°09' E 028°40'45772354019.6
2018-Feb-19 07:00N 24°26' E 117°52'5413869.8
2018-Feb-19 07:00N 23°35' E 117°34'5750943.5
2018-Feb-19 07:00N 24°23' E 118°07'111758.3
2018-Feb-19 07:00N 24°33' E 118°11'44253185851.2
2018-Feb-19 07:00S 18°08' E 178°26'4592516594.0
2018-Feb-19 06:59N 01°21' E 103°37'459216530999.8
2018-Feb-19 06:59S 18°08' E 178°26'0 0.8
2018-Feb-19 06:58S 18°08' E 178°26'10955190517.7
2018-Feb-19 06:55N 48°56' E 002°17'5779800128.2
2018-Feb-19 06:54N 23°30' E 117°26'12280.6
2018-Feb-19 06:52N 23°39' E 117°16'76127124.1
2018-Feb-19 06:50N 36°03' E 120°19'385.9
2018-Feb-19 06:48N 36°03' E 120°15'315.3
2018-Feb-19 06:36N 36°03' E 120°19'7087457.9
2018-Feb-19 06:31N 24°26' E 117°52'45778239068.6
2018-Feb-19 06:30N 44°09' E 028°40'459016523039.9
2018-Feb-19 06:30N 23°44' E 117°32'97863522933.1
2018-Feb-19 06:30N 40°38' W 074°09'102339209698.9
2018-Feb-19 06:30N 01°21' E 103°37'1568806543.7
2018-Feb-19 06:30N 23°40' E 117°33'4427482936.2
2018-Feb-19 06:30S 18°08' E 178°26'4420241085.6
2018-Feb-19 06:28N 24°20' E 118°08'124365.0
2018-Feb-19 06:28N 24°32' E 118°10'44252275650.0
2018-Feb-19 06:28S 18°08' E 178°26'0 5.4
2018-Feb-19 06:28S 18°08' E 178°26'4440694952.7
2018-Feb-19 06:28N 23°39' E 117°16'269193869.5
2018-Feb-19 06:28N 25°11' E 121°54'4141492039.9
2018-Feb-19 06:28N 31°58' E 120°26'2452250.9
2018-Feb-19 06:21N 36°03' E 120°19'527919003587.2
2018-Feb-19 06:21N 48°57' E 002°17'587962993.7
2018-Feb-19 06:15N 25°09' E 121°23'6563651.2
2018-Feb-19 06:05N 36°03' E 120°19'9155130267.0
2018-Feb-19 06:00N 40°38' W 074°09'978617614587.7
2018-Feb-19 06:00N 23°44' E 117°32'4590869626.1
2018-Feb-19 06:00N 44°09' E 028°40'45772746356.2
2018-Feb-19 06:00N 24°26' E 117°52'184737.4
2018-Feb-19 06:00N 24°33' E 118°11'57616913305.2
2018-Feb-19 06:00N 48°56' E 002°17'62012480226.4
2018-Feb-19 06:00N 01°21' E 103°37'45928265503.4
2018-Feb-19 06:00S 18°08' E 178°26'4420233994.8
2018-Feb-19 05:58N 24°20' E 118°08'4420994478.0
2018-Feb-19 05:58S 18°08' E 178°26'0 7.2
2018-Feb-19 05:58S 18°08' E 178°26'4440694952.7
2018-Feb-19 05:58N 23°39' E 117°16'7616061.6
2018-Feb-19 05:50N 36°03' E 120°19'656295245.9
2018-Feb-19 05:50N 25°09' E 121°24'421755206.7
2018-Feb-19 05:45N 43°54' E 039°10'409034806.6
2018-Feb-19 05:38N 23°49' E 117°36'40306.3
2018-Feb-19 05:31N 24°26' E 117°52'407914686136.6
2018-Feb-19 05:31N 43°55' E 039°08'50339058988.8
2018-Feb-19 05:30N 40°38' W 074°09'978617615573.0
2018-Feb-19 05:30N 23°44' E 117°33'1572171482.2
2018-Feb-19 05:30N 01°21' E 103°37'4592826550.0
2018-Feb-19 05:30S 18°08' E 178°26'4425201639.5
2018-Feb-19 05:28N 24°32' E 118°10'44253982387.4
2018-Feb-19 05:28S 18°08' E 178°26'42911544766.2
2018-Feb-19 05:28N 25°10' E 121°24'1844301.5
2018-Feb-19 05:25N 24°20' E 118°08'431274.4
2018-Feb-19 05:23N 23°49' E 117°36'74821040.3
2018-Feb-19 05:21N 36°03' E 120°19'527945900.8
2018-Feb-19 05:14N 48°56' E 002°17'575362191.6
2018-Feb-19 05:09N 24°25' E 117°52'1961409.0
2018-Feb-19 05:00N 25°09' E 121°22'47158486691.6
2018-Feb-19 05:00N 44°09' E 028°40'459016525194.7
2018-Feb-19 05:00N 23°44' E 117°33'4627383.2
2018-Feb-19 05:00N 24°26' E 117°52'1810837.9
2018-Feb-19 05:00N 24°33' E 118°11'40921339310.3
2018-Feb-19 05:00N 43°58' E 039°04'89611112398.1
2018-Feb-19 05:00S 18°08' E 178°26'4592787190.8
2018-Feb-19 04:59N 01°21' E 103°37'62012232203.9
2018-Feb-19 04:59N 48°56' E 002°17'3292740778.9
2018-Feb-19 04:59N 40°38' W 074°09'97811676749.7
2018-Feb-19 04:58N 24°20' E 118°08'44201060776.6
2018-Feb-19 04:58S 18°08' E 178°26'443121760.0
2018-Feb-19 04:46N 24°24' E 117°58'7085639.5
2018-Feb-19 04:38N 35°59' E 120°35'13161.5
2018-Feb-19 04:34N 36°03' E 120°19'75314577.4
2018-Feb-19 04:30N 23°44' E 117°33'5036152.9
2018-Feb-19 04:30N 24°26' E 118°02'94136.8
2018-Feb-19 04:30N 24°32' E 118°10'57622304638.7
2018-Feb-19 04:30N 48°56' E 002°17'620122322044.3
2018-Feb-19 04:30N 01°21' E 103°37'102332302424.9
2018-Feb-19 04:30N 40°38' W 074°09'152754230124.5
2018-Feb-19 04:30S 18°08' E 178°26'4430693468.1
2018-Feb-19 04:29N 23°45' E 117°32'4589718319.5
2018-Feb-19 04:29N 44°09' E 028°40'4577915452.1
2018-Feb-19 04:29N 24°26' E 117°52'169576.1
2018-Feb-19 04:28N 24°20' E 118°08'44201060776.6
2018-Feb-19 04:28S 18°08' E 178°26'89654610696.2
2018-Feb-19 04:28N 44°01' E 038°60'377845339.6
2018-Feb-19 04:23N 35°60' E 120°32'11301.9
2018-Feb-19 04:21N 36°03' E 120°19'0 2.8
2018-Feb-19 04:18N 36°03' E 120°19'6562476.7
2018-Feb-19 04:02N 25°09' E 121°23'2276748.5
2018-Feb-19 04:00N 23°44' E 117°32'15722829457.7
2018-Feb-19 04:00N 01°21' E 103°37'1568513191.4
2018-Feb-19 04:00N 23°39' E 117°33'5059766.1
2018-Feb-19 04:00N 24°26' E 117°52'97611098155.1
2018-Feb-19 04:00N 40°38' W 074°09'1527513747903.5
2018-Feb-19 04:00S 18°08' E 178°26'4420224107.7
2018-Feb-19 03:58N 24°20' E 118°08'44201136546.3
2018-Feb-19 03:58S 18°08' E 178°26'44281594017.0
2018-Feb-19 03:58N 24°28' E 118°04'1866967.9
2018-Feb-19 03:56N 25°09' E 121°23'6526709.2
2018-Feb-19 03:51N 35°60' E 120°29'74718795.7
2018-Feb-19 03:48N 23°49' E 117°36'7505170.7
2018-Feb-19 03:39N 36°06' E 120°14'7104752.8
2018-Feb-19 03:31N 24°26' E 117°52'4654693.4
2018-Feb-19 03:30N 23°44' E 117°33'60215546.5
2018-Feb-19 03:30N 24°33' E 118°11'16321468897.5
2018-Feb-19 03:30N 01°21' E 103°37'16241461796.4
2018-Feb-19 03:30N 24°28' E 118°04'6172681.3
2018-Feb-19 03:30N 23°34' E 117°34'156723.2
2018-Feb-19 03:30N 23°49' E 117°36'4429483187.1
2018-Feb-19 03:30S 18°08' E 178°26'152751571189.0
2018-Feb-19 03:29N 40°38' W 074°09'9781951668.2
2018-Feb-19 03:28N 24°20' E 118°08'44201446513.5
2018-Feb-19 03:28S 18°08' E 178°26'89738075714.9
2018-Feb-19 03:28N 44°06' E 038°52'4230153813.4
2018-Feb-19 03:26N 25°09' E 121°23'6546002.0
2018-Feb-19 03:20N 36°01' E 120°24'10127.9
2018-Feb-19 03:15N 36°06' E 120°14'7012820.4
2018-Feb-19 03:00N 24°33' E 118°10'458716513692.6
2018-Feb-19 03:00N 44°09' E 028°40'45901377060.5
2018-Feb-19 03:00N 23°44' E 117°33'51204.1
2018-Feb-19 03:00N 23°49' E 117°36'4014518.7
2018-Feb-19 03:00N 24°26' E 117°52'4436998209.5
2018-Feb-19 03:00S 18°08' E 178°26'152753234800.8
2018-Feb-19 02:59N 40°38' W 074°09'152753666105.7
2018-Feb-19 02:59S 18°08' E 178°26'4592918388.9
2018-Feb-19 02:59N 01°21' E 103°37'1620277736.0
2018-Feb-19 02:58N 24°20' E 118°08'44201136546.3
2018-Feb-19 02:58S 18°08' E 178°26'4291164327.8
2018-Feb-19 02:57N 25°09' E 121°23'65750285.4
2018-Feb-19 02:56N 36°03' E 120°19'215.3
2018-Feb-19 02:50N 36°02' E 120°20'6982164.8
2018-Feb-19 02:30N 24°33' E 118°11'6071685.0
2018-Feb-19 02:30N 23°44' E 117°32'22754417.0
2018-Feb-19 02:30N 25°10' E 121°23'47164244204.1
2018-Feb-19 02:30N 44°09' E 028°40'4878763486.0
2018-Feb-19 02:30N 01°21' E 103°37'45921836778.4
2018-Feb-19 02:30S 18°08' E 178°26'0 0.7
2018-Feb-19 02:29S 18°08' E 178°26'4429442921.2
2018-Feb-19 02:28N 23°49' E 117°36'4331096.5
2018-Feb-19 02:28N 24°20' E 118°08'44201325970.7
2018-Feb-19 02:28S 18°08' E 178°26'473691663.8
2018-Feb-19 02:25N 36°03' E 120°19'7091731.1
2018-Feb-19 02:00N 24°26' E 117°52'45778239079.0
2018-Feb-19 02:00N 44°09' E 028°40'458916521866.4
2018-Feb-19 02:00N 23°44' E 117°32'15725658076.4
2018-Feb-19 02:00N 01°21' E 103°37'16201166466.6
2018-Feb-19 02:00N 24°20' E 118°08'434568.6
2018-Feb-19 02:00N 23°49' E 117°36'44291328764.6
2018-Feb-19 02:00S 18°08' E 178°26'42911029875.7
2018-Feb-19 01:59N 25°10' E 121°23'4291908713.0
2018-Feb-19 01:59S 18°08' E 178°26'152752199664.0
2018-Feb-19 01:59N 40°38' W 074°09'152752115062.1
2018-Feb-19 01:58S 18°08' E 178°26'4741348326.4
2018-Feb-19 01:57N 36°06' E 120°14'3 8.2
2018-Feb-19 01:32N 36°05' E 120°18'4232129113.8
2018-Feb-19 01:30N 44°09' E 028°40'4561864120.5
2018-Feb-19 01:30N 40°38' W 074°09'102339209697.6
2018-Feb-19 01:30N 01°21' E 103°37'2289633762.9
2018-Feb-19 01:30N 36°04' E 120°17'709850701.7
2018-Feb-19 01:30N 24°26' E 117°52'4013198.8
2018-Feb-19 01:30N 23°49' E 117°36'44295315058.2
2018-Feb-19 01:30S 18°08' E 178°26'4427498061.7
2018-Feb-19 01:29N 23°26' E 117°23'4427569212.4
2018-Feb-19 01:29S 18°08' E 178°26'0 1.7
2018-Feb-19 01:28S 18°08' E 178°26'4291551679.5
2018-Feb-19 01:28N 25°09' E 121°24'19841831.0
2018-Feb-19 01:27N 24°25' E 117°51'7094574.8
2018-Feb-19 01:18N 36°03' E 120°18'249.1
2018-Feb-19 01:16N 36°04' E 120°16'7534562.7
2018-Feb-19 01:06N 23°45' E 117°30'7518094.5
2018-Feb-19 01:01N 36°02' E 120°15'751540971.6
2018-Feb-19 01:00N 23°44' E 117°32'1572628737.5
2018-Feb-19 01:00N 01°21' E 103°37'1571471446.6
2018-Feb-19 01:00N 23°45' E 117°30'97845031594.5
2018-Feb-19 01:00N 40°38' W 074°09'97613904553.3
2018-Feb-19 01:00N 24°26' E 117°52'44361064756.8
2018-Feb-19 01:00S 18°08' E 178°26'44313987456.0
2018-Feb-19 01:00N 24°24' E 117°58'41148129.7
2018-Feb-19 00:59N 23°49' E 117°36'232754.1
2018-Feb-19 00:59N 23°30' E 117°21'4431590835.3
2018-Feb-19 00:59S 18°08' E 178°26'0 1.0
2018-Feb-19 00:58S 18°08' E 178°26'4294417754.5
2018-Feb-19 00:58N 25°10' E 121°20'183751.2
2018-Feb-19 00:43N 24°29' E 118°04'458521977.8
2018-Feb-19 00:30N 44°09' E 028°40'48784390047.5
2018-Feb-19 00:30N 01°21' E 103°37'15725658914.9
2018-Feb-19 00:30N 23°44' E 117°33'97867046163.5
2018-Feb-19 00:30N 40°38' W 074°09'97683516658.9
2018-Feb-19 00:30N 24°29' E 118°04'5464378.5
2018-Feb-19 00:30N 23°45' E 117°30'169683.6
2018-Feb-19 00:30N 23°34' E 117°18'4436638779.5
2018-Feb-19 00:30S 18°08' E 178°26'44291993166.0
2018-Feb-19 00:29N 24°25' E 118°01'4338655.7
2018-Feb-19 00:29N 23°49' E 117°36'4429332190.9
2018-Feb-19 00:29S 18°08' E 178°26'44361228564.5
2018-Feb-19 00:28N 24°26' E 117°52'44361597135.2
2018-Feb-19 00:28S 18°08' E 178°26'42931405122.4
2018-Feb-19 00:28N 25°09' E 121°20'65621458.3
2018-Feb-19 00:26N 36°02' E 120°14'4104.7
2018-Feb-19 00:24N 36°03' E 120°18'428.6
2018-Feb-19 00:15N 36°06' E 120°14'7102895.8
2018-Feb-19 00:00N 24°26' E 117°52'457716478158.1
2018-Feb-19 00:00N 44°09' E 028°40'458316497030.2
2018-Feb-19 00:00N 23°38' E 117°17'97803912047.5
2018-Feb-19 00:00N 40°38' W 074°09'91484704840.5
2018-Feb-19 00:00N 36°06' E 120°14'71082480.4
2018-Feb-19 00:00N 24°25' E 118°00'472283052.1
2018-Feb-19 00:00N 31°59' E 120°27'4121483513.3
2018-Feb-19 00:00N 25°09' E 121°23'22240009.9
2018-Feb-18 23:59N 23°49' E 117°36'1577141952.7
2018-Feb-18 23:59N 01°21' E 103°37'4592751409.5
2018-Feb-18 23:58S 18°08' E 178°26'0 7.2
2018-Feb-18 23:58S 18°08' E 178°26'4432253255.0
2018-Feb-18 23:57N 23°45' E 117°30'54415.2
2018-Feb-18 23:49N 24°21' E 118°15'70934964.3
2018-Feb-18 23:48N 36°02' E 120°14'7472516.3
2018-Feb-18 23:30N 23°49' E 117°36'978517612963.9
2018-Feb-18 23:30N 40°38' W 074°09'97857044959.5
2018-Feb-18 23:30N 23°45' E 117°32'4511562.9
2018-Feb-18 23:30N 24°26' E 117°52'45771498012.8
2018-Feb-18 23:30N 44°09' E 028°40'951911422626.4
2018-Feb-18 23:30S 18°08' E 178°26'44153973270.8
2018-Feb-18 23:30N 24°21' E 118°16'1625974814.7
2018-Feb-18 23:29N 01°21' E 103°37'155998464.4
2018-Feb-18 23:28N 23°38' E 117°17'4439940054.9
2018-Feb-18 23:28S 18°08' E 178°26'0 5.4
2018-Feb-18 23:28S 18°08' E 178°26'4739236968.6
2018-Feb-18 23:27N 36°02' E 120°14'24421976.1
2018-Feb-18 23:26N 31°58' E 120°27'2477068.6
2018-Feb-18 23:24N 36°06' E 120°14'6592776.4
2018-Feb-18 23:10N 25°10' E 121°24'471629942.9
2018-Feb-18 23:00N 44°09' E 028°40'45771830906.1
2018-Feb-18 23:00N 24°26' E 117°52'4611106.8
2018-Feb-18 23:00N 23°43' E 117°35'621881.2
2018-Feb-18 23:00N 23°49' E 117°36'4944095.4
2018-Feb-18 23:00N 24°21' E 118°16'4415662199.5
2018-Feb-18 23:00S 18°08' E 178°26'15275964765.2
2018-Feb-18 22:59N 40°38' W 074°09'1527513747901.0
2018-Feb-18 22:59S 18°08' E 178°26'44392282988.6
2018-Feb-18 22:58N 23°38' E 117°17'15592806234.3
2018-Feb-18 22:58N 01°21' E 103°37'45921180786.1
2018-Feb-18 22:58S 18°08' E 178°26'4292328748.3
2018-Feb-18 22:57N 25°09' E 121°22'137833.9
2018-Feb-18 22:48N 23°26' E 119°44'136479.2
2018-Feb-18 22:31N 25°10' E 121°19'193173831.5
2018-Feb-18 22:30N 24°26' E 117°52'457716478137.3
2018-Feb-18 22:30N 44°09' E 028°40'45995519089.4
2018-Feb-18 22:30N 24°21' E 118°16'97862348594.7
2018-Feb-18 22:30N 40°38' W 074°09'102331083494.0
2018-Feb-18 22:30N 01°21' E 103°37'163094648.4
2018-Feb-18 22:29N 23°27' E 119°47'13882647.4
2018-Feb-18 22:28N 23°38' E 117°17'44391229303.5
2018-Feb-18 22:28S 18°08' E 178°26'0 5.9
2018-Feb-18 22:28S 18°08' E 178°26'4429241593.2
2018-Feb-18 22:27N 23°49' E 117°36'41211.4
2018-Feb-18 22:15N 24°24' E 117°59'0 0.0
2018-Feb-18 22:00N 24°24' E 117°59'6845.3
2018-Feb-18 22:00N 24°26' E 117°52'4018148.4
2018-Feb-18 22:00N 23°49' E 117°36'45901271046.8
2018-Feb-18 22:00N 44°09' E 028°40'951934267881.9
2018-Feb-18 22:00S 18°08' E 178°26'4439228299.0
2018-Feb-18 21:58N 23°38' E 117°17'44391065395.5
2018-Feb-18 21:58S 18°08' E 178°26'152754582634.5
2018-Feb-18 21:58N 40°38' W 074°09'152752115061.0
2018-Feb-18 21:58S 18°08' E 178°26'441571588.3
2018-Feb-18 21:54N 24°21' E 118°16'1625365607.2
2018-Feb-18 21:54N 01°21' E 103°37'16321175333.6
2018-Feb-18 21:53N 23°29' E 119°49'7545452.3
2018-Feb-18 21:45N 36°02' E 120°14'423017227.5
2018-Feb-18 21:30N 44°09' E 028°40'457716478158.1
2018-Feb-18 21:30N 24°26' E 117°52'2211304.7
2018-Feb-18 21:30N 24°21' E 118°16'4415934867.1
2018-Feb-18 21:30S 18°08' E 178°26'152753666103.4
2018-Feb-18 21:30N 40°38' W 074°09'97698791925.8
2018-Feb-18 21:30N 24°24' E 117°59'1619647530.3
2018-Feb-18 21:30N 01°21' E 103°37'4592196797.7
2018-Feb-18 21:28S 18°08' E 178°26'4440998978.1
2018-Feb-18 21:28N 23°39' E 117°17'201432.6
2018-Feb-18 21:27N 23°49' E 117°36'7471343707.0
2018-Feb-18 21:27N 36°02' E 120°14'527525054.3
2018-Feb-18 21:14N 48°56' E 002°17'5891290520.2
2018-Feb-18 21:13N 23°30' E 119°50'0 2.0
2018-Feb-18 21:01N 23°30' E 119°49'47095651079.3
2018-Feb-18 21:00N 44°09' E 028°40'4590550786.9
2018-Feb-18 21:00N 23°49' E 117°36'4072593.4
2018-Feb-18 21:00N 24°26' E 117°52'2211340.2
2018-Feb-18 21:00N 24°21' E 118°16'44151222494.9
2018-Feb-18 21:00S 18°08' E 178°26'0 0.0
2018-Feb-18 20:58S 18°08' E 178°26'0 8.6
2018-Feb-18 20:58S 18°08' E 178°26'44305316026.7
2018-Feb-18 20:58N 24°24' E 117°59'161921584.3
2018-Feb-18 20:54N 01°21' E 103°37'6201744068.1
2018-Feb-18 20:53N 48°56' E 002°17'527528774.5
2018-Feb-18 20:42N 36°02' E 120°14'7073636.1
2018-Feb-18 20:30N 24°26' E 117°52'45772354019.6
2018-Feb-18 20:30N 44°09' E 028°40'95192635989.8
2018-Feb-18 20:30S 18°08' E 178°26'44301594809.3
2018-Feb-18 20:30N 24°24' E 117°59'4430886005.9
2018-Feb-18 20:30S 18°08' E 178°26'44291449561.3
2018-Feb-18 20:29N 23°49' E 117°36'97855870985.1
2018-Feb-18 20:29N 40°38' W 074°09'97861174315.7
2018-Feb-18 20:29N 24°21' E 118°16'9917761.1
2018-Feb-18 20:28N 23°28' E 119°47'4311862188.8
2018-Feb-18 20:28S 18°08' E 178°26'4592359369.7
2018-Feb-18 20:27N 01°21' E 103°37'228617037.8
2018-Feb-18 20:19N 36°02' E 120°14'7102240.5
2018-Feb-18 20:00N 24°20' E 118°13'4416883284.1
2018-Feb-18 20:00S 18°08' E 178°26'1527510998317.2
2018-Feb-18 20:00N 40°38' W 074°09'97612510068.8
2018-Feb-18 20:00N 24°26' E 117°52'4036296.7
2018-Feb-18 20:00N 23°49' E 117°36'45905507875.1
2018-Feb-18 20:00N 44°09' E 028°40'951934267901.2
2018-Feb-18 20:00S 18°08' E 178°26'0 0.0
2018-Feb-18 19:58S 18°08' E 178°26'43111411028.4
2018-Feb-18 19:58N 23°29' E 119°46'163135584.7
2018-Feb-18 19:55N 01°21' E 103°37'487811809.1
2018-Feb-18 19:30N 44°09' E 028°40'45773295631.6
2018-Feb-18 19:30N 24°26' E 117°52'97612510070.0
2018-Feb-18 19:30N 40°38' W 074°09'152759165267.4
2018-Feb-18 19:30S 18°08' E 178°26'0 0.8
2018-Feb-18 19:30S 18°08' E 178°26'44191446275.4
2018-Feb-18 19:29N 24°19' E 118°09'4419220958.7
2018-Feb-18 19:28S 18°08' E 178°26'43121194178.7
2018-Feb-18 19:28N 23°29' E 119°46'163119314.7
2018-Feb-18 19:23N 01°21' E 103°37'22866909.6
2018-Feb-18 19:03N 36°02' E 120°14'423097000.3
2018-Feb-18 19:00N 44°09' E 028°40'45771098542.7
2018-Feb-18 19:00N 24°26' E 117°52'44361996415.8
2018-Feb-18 19:00S 18°08' E 178°26'0 1.5
2018-Feb-18 19:00S 18°08' E 178°26'4313238874.8
2018-Feb-18 18:58N 23°30' E 119°45'4313817203.1
2018-Feb-18 18:58S 18°08' E 178°26'4592459194.6
2018-Feb-18 18:58N 01°21' E 103°37'102336139802.2
2018-Feb-18 18:57N 40°38' W 074°09'9768732637.3
2018-Feb-18 18:57N 24°29' E 118°04'575943558.7
2018-Feb-18 18:49N 48°56' E 002°17'527586323.4
2018-Feb-18 18:45N 36°02' E 120°14'423017364.9
2018-Feb-18 18:30N 44°09' E 028°40'45773295628.2
2018-Feb-18 18:30N 24°26' E 117°52'97611464207.5
2018-Feb-18 18:30N 40°38' W 074°09'152752115062.2
2018-Feb-18 18:30S 18°08' E 178°26'4313242622.5
2018-Feb-18 18:28N 23°30' E 119°45'4313862657.6
2018-Feb-18 18:28S 18°08' E 178°26'473970213.0
2018-Feb-18 18:24N 36°02' E 120°14'5275441654.5
2018-Feb-18 18:23N 48°56' E 002°17'5759164555.2
2018-Feb-18 18:21N 24°29' E 118°04'162556267.1
2018-Feb-18 18:20N 01°21' E 103°37'459214475.5
2018-Feb-18 18:01S 18°08' E 178°26'95196853567.8
2018-Feb-18 18:00N 44°09' E 028°40'470516939689.3
2018-Feb-18 18:00N 23°31' E 119°45'9911914898.5
2018-Feb-18 18:00N 40°38' W 074°09'97617028199.6
2018-Feb-18 18:00N 24°26' E 117°52'44361597135.2
2018-Feb-18 18:00S 18°08' E 178°26'0 0.0
2018-Feb-18 17:58S 18°08' E 178°26'459269458.0
2018-Feb-18 17:54N 01°21' E 103°37'6201204789.4
2018-Feb-18 17:52N 48°56' E 002°17'527533612.7
2018-Feb-18 17:43N 36°02' E 120°14'7523578.7
2018-Feb-18 17:30N 23°31' E 119°45'47052822884.9
2018-Feb-18 17:30N 44°09' E 028°40'4577457726.0
2018-Feb-18 17:30N 24°26' E 117°52'976111713666.0
2018-Feb-18 17:30N 40°38' W 074°09'1527513747909.7
2018-Feb-18 17:30S 18°08' E 178°26'459216531005.3
2018-Feb-18 17:30N 01°21' E 103°37'6201744068.0
2018-Feb-18 17:29N 48°56' E 002°17'10955758406.9
2018-Feb-18 17:28S 18°08' E 178°26'473970503.1
2018-Feb-18 17:24N 36°02' E 120°14'527513327.1
2018-Feb-18 17:00N 48°56' E 002°17'575310354711.2
2018-Feb-18 17:00N 24°26' E 117°52'116418517.9
2018-Feb-18 17:00N 23°30' E 119°44'47055645753.9
2018-Feb-18 17:00N 44°09' E 028°40'4561529622.3
2018-Feb-18 17:00N 40°38' W 074°09'152753927970.7
2018-Feb-18 17:00S 18°08' E 178°26'0 0.5
2018-Feb-18 16:58S 18°08' E 178°26'442918078.4
2018-Feb-18 16:43N 23°49' E 117°36'157759769.5
2018-Feb-18 16:42N 01°21' E 103°37'16178523.1
2018-Feb-18 16:31N 24°26' E 117°52'11870790.1
2018-Feb-18 16:30N 23°29' E 119°45'12014418.2
2018-Feb-18 16:30N 23°49' E 117°36'57712077708.7
2018-Feb-18 16:30N 48°56' E 002°17'32921693208.9
2018-Feb-18 16:30N 40°38' W 074°09'1527513747900.4
2018-Feb-18 16:30S 18°08' E 178°26'0 0.0
2018-Feb-18 16:28S 18°08' E 178°26'0 5.5
2018-Feb-18 16:28S 18°08' E 178°26'4592826539.6
2018-Feb-18 16:27N 01°21' E 103°37'617339403.9
2018-Feb-18 16:18N 41°14' E 001°50'5558124274.1
2018-Feb-18 16:15N 36°02' E 120°14'6564141.2
2018-Feb-18 16:06N 25°10' E 121°24'65962420.5
2018-Feb-18 16:05N 36°06' E 120°14'7559782.3
2018-Feb-18 16:00N 23°31' E 119°45'117210840.6
2018-Feb-18 16:00N 24°26' E 117°52'97613194634.5
2018-Feb-18 16:00N 40°38' W 074°09'32922963116.4
2018-Feb-18 16:00N 48°56' E 002°17'57711154282.5
2018-Feb-18 16:00N 23°49' E 117°36'45901652360.8
2018-Feb-18 16:00N 44°09' E 028°40'951911422622.5
2018-Feb-18 16:00S 18°08' E 178°26'0 0.3
2018-Feb-18 15:58S 18°08' E 178°26'010.8
2018-Feb-18 15:58S 18°08' E 178°26'4739710904.9
2018-Feb-18 15:58N 36°02' E 120°14'228676197.2
2018-Feb-18 15:56N 01°21' E 103°37'1765129676.1
2018-Feb-18 15:55N 25°09' E 121°22'471511492.1
2018-Feb-18 15:30N 44°09' E 028°40'4716771637.9
2018-Feb-18 15:30N 25°10' E 121°23'429115449097.1
2018-Feb-18 15:30S 18°08' E 178°26'1095539437138.5
2018-Feb-18 15:30N 48°56' E 002°17'57535177354.8
2018-Feb-18 15:30N 24°26' E 117°52'4436614282.8
2018-Feb-18 15:30S 18°08' E 178°26'0 0.0
2018-Feb-18 15:28S 18°08' E 178°26'152752499618.8
2018-Feb-18 15:28N 40°38' W 074°09'10233274916.3
2018-Feb-18 15:26N 01°21' E 103°37'228631053.9
2018-Feb-18 15:21N 36°02' E 120°14'915126547.4
2018-Feb-18 15:00N 40°38' W 074°09'45618209146.9
2018-Feb-18 15:00N 44°09' E 028°40'11261351354.8
2018-Feb-18 15:00N 48°56' E 002°17'57531593032.4
2018-Feb-18 15:00N 24°26' E 117°52'19477750.0
2018-Feb-18 15:00N 25°09' E 121°21'4293594355.5
2018-Feb-18 15:00S 18°08' E 178°26'0 0.5
2018-Feb-18 14:58S 18°08' E 178°26'4592104626.6
2018-Feb-18 14:56N 01°21' E 103°37'228928812.2
2018-Feb-18 14:51N 36°06' E 120°14'7102065.4
2018-Feb-18 14:30N 24°26' E 117°52'97611757049.0
2018-Feb-18 14:30N 40°38' W 074°09'152753927971.7
2018-Feb-18 14:30S 18°08' E 178°26'109551272216.5
2018-Feb-18 14:29N 48°57' E 002°16'1095539438726.4
2018-Feb-18 14:29S 18°08' E 178°26'95198566970.5
2018-Feb-18 14:29N 44°09' E 028°40'9519744954.0
2018-Feb-18 14:28S 18°08' E 178°26'4592413275.2
2018-Feb-18 14:28N 01°21' E 103°37'15714191.2
2018-Feb-18 14:05N 23°43' E 117°32'7144.5
2018-Feb-18 14:02N 23°49' E 117°36'4590150214.6
2018-Feb-18 14:00N 44°09' E 028°40'4704940752.5
2018-Feb-18 14:00N 23°36' E 119°48'12187208.2
2018-Feb-18 14:00N 23°49' E 117°36'622237.5
2018-Feb-18 14:00N 23°43' E 117°32'4429569493.2
2018-Feb-18 14:00S 18°08' E 178°26'0 0.7
2018-Feb-18 13:59S 18°08' E 178°26'0 0.4
2018-Feb-18 13:58S 18°08' E 178°26'4579163219.1
2018-Feb-18 13:56N 31°58' E 120°26'207698354.4
2018-Feb-18 13:55N 01°21' E 103°37'1023324790.6
2018-Feb-18 13:30N 40°38' W 074°09'97613514096.3
2018-Feb-18 13:30N 24°26' E 117°52'11746790.1
2018-Feb-18 13:30N 23°35' E 119°47'12136292.8
2018-Feb-18 13:30N 23°49' E 117°36'4429724780.1
2018-Feb-18 13:30S 18°08' E 178°26'4579867679.2
2018-Feb-18 13:29N 32°00' E 120°27'4579383392.8
2018-Feb-18 13:29S 18°08' E 178°26'4592826550.0
2018-Feb-18 13:28N 01°21' E 103°37'45928265503.4
2018-Feb-18 13:28S 18°08' E 178°26'44312658789.3
2018-Feb-18 13:28N 23°45' E 117°31'45889968.8
2018-Feb-18 13:00N 44°09' E 028°40'45778239070.4
2018-Feb-18 13:00N 24°26' E 117°52'467805.0
2018-Feb-18 13:00N 23°45' E 117°31'4431514616.6
2018-Feb-18 13:00S 18°08' E 178°26'152752115062.1
2018-Feb-18 12:59N 40°38' W 074°09'15275964765.2
2018-Feb-18 12:58S 18°08' E 178°26'010.8
2018-Feb-18 12:58S 18°08' E 178°26'4429209804.6
2018-Feb-18 12:57N 23°49' E 117°36'157759146.9
2018-Feb-18 12:55N 01°21' E 103°37'207993553.9
2018-Feb-18 12:54N 32°01' E 120°27'5106846.0
2018-Feb-18 12:49N 23°32' E 119°46'1 3.4
2018-Feb-18 12:31N 23°32' E 119°45'47055645421.1
2018-Feb-18 12:30N 44°09' E 028°40'45771373178.4
2018-Feb-18 12:30N 24°26' E 117°52'44361228560.2
2018-Feb-18 12:30S 18°08' E 178°26'017.0
2018-Feb-18 12:30S 18°08' E 178°26'152756873952.3
2018-Feb-18 12:29N 40°38' W 074°09'10233695071.6
2018-Feb-18 12:29N 01°21' E 103°37'4592688791.9
2018-Feb-18 12:28S 18°08' E 178°26'4429181195.2
2018-Feb-18 12:27N 23°49' E 117°36'222562.9
2018-Feb-18 12:03N 25°09' E 121°23'4716103527.2
2018-Feb-18 12:00N 44°09' E 028°40'45778239077.2
2018-Feb-18 12:00N 24°26' E 117°52'403820.7
2018-Feb-18 12:00N 23°49' E 117°36'44293986290.5
2018-Feb-18 12:00S 18°08' E 178°26'1527510998324.1
2018-Feb-18 11:59N 40°38' W 074°09'15275714177.1
2018-Feb-18 11:58S 18°08' E 178°26'0 8.6
2018-Feb-18 11:58S 18°08' E 178°26'42915149072.2
2018-Feb-18 11:58N 25°09' E 121°23'13448281.4
2018-Feb-18 11:58N 23°31' E 119°43'163116313.1
2018-Feb-18 11:52N 01°21' E 103°37'487813654.9
2018-Feb-18 11:30N 44°09' E 028°40'45902753934.7
2018-Feb-18 11:30N 23°49' E 117°36'4024197.8
2018-Feb-18 11:30N 24°26' E 117°52'97611301517.1
2018-Feb-18 11:30N 40°38' W 074°09'152753436975.9
2018-Feb-18 11:30S 18°08' E 178°26'0 0.0
2018-Feb-18 11:28S 18°08' E 178°26'0 5.4
2018-Feb-18 11:28S 18°08' E 178°26'4316913931.1
2018-Feb-18 11:28N 23°30' E 119°42'163088912.4
2018-Feb-18 11:27N 01°21' E 103°37'176630418.4
2018-Feb-18 11:23N 25°09' E 121°23'471612418.8
2018-Feb-18 11:00N 44°09' E 028°40'45775492712.4
2018-Feb-18 11:00N 24°26' E 117°52'97615020140.1
2018-Feb-18 11:00N 40°38' W 074°09'152753666106.2
2018-Feb-18 11:00S 18°08' E 178°26'0 1.6
2018-Feb-18 11:00S 18°08' E 178°26'43161726331.0
2018-Feb-18 10:59N 23°30' E 119°42'1629139654.0
2018-Feb-18 10:59N 01°21' E 103°37'4592486206.0
2018-Feb-18 10:58S 18°08' E 178°26'442955173.6
2018-Feb-18 10:53N 23°49' E 117°36'221614.5
2018-Feb-18 10:32N 25°09' E 121°22'4715214858.0
2018-Feb-18 10:30N 44°09' E 028°40'4577659125.5
2018-Feb-18 10:30N 24°26' E 117°52'195234208.6
2018-Feb-18 10:30N 25°09' E 121°22'98932739705.7
2018-Feb-18 10:30N 40°38' W 074°09'152753927972.7
2018-Feb-18 10:30S 18°08' E 178°26'0 0.0
2018-Feb-18 10:30S 18°08' E 178°26'1097413168802.0
2018-Feb-18 10:29N 41°14' E 001°51'10974500081.1
2018-Feb-18 10:28S 18°08' E 178°26'4316817693.6
2018-Feb-18 10:28N 23°29' E 119°42'117140174.1
2018-Feb-18 10:28N 23°49' E 117°36'20603.8
2018-Feb-18 10:26N 23°39' E 117°17'577327563.2
2018-Feb-18 10:13N 48°59' E 002°05'5761691340.7
2018-Feb-18 10:13N 24°25' E 117°52'117570.8
2018-Feb-18 10:00N 23°29' E 119°44'13395715.6
2018-Feb-18 10:00N 25°10' E 121°19'239861755.7
2018-Feb-18 10:00N 23°39' E 117°16'44401229520.0
2018-Feb-18 10:00S 18°08' E 178°26'0 7.0
2018-Feb-18 10:00S 18°08' E 178°26'152759165269.0
2018-Feb-18 09:59N 40°38' W 074°09'97852516136.5
2018-Feb-18 09:59N 23°49' E 117°36'4013198.8
2018-Feb-18 09:59N 24°26' E 117°52'5937610690.4
2018-Feb-18 09:58N 41°14' E 001°49'109762195197.1
2018-Feb-18 09:58S 18°08' E 178°26'1096682934.3
2018-Feb-18 09:50N 48°59' E 002°05'5768194047.4
2018-Feb-18 09:48N 24°24' E 117°58'16196173.7
2018-Feb-18 09:33N 01°21' E 103°37'162342042.5
2018-Feb-18 09:30N 24°27' E 118°03'16235843903.2
2018-Feb-18 09:30N 01°21' E 103°37'0621.6
2018-Feb-18 09:30N 01°21' E 103°37'102332631342.5
2018-Feb-18 09:30N 40°38' W 074°09'97852072112.1
2018-Feb-18 09:30N 23°49' E 117°36'45901180256.9
2018-Feb-18 09:30N 44°09' E 028°40'47075648650.4
2018-Feb-18 09:30N 23°29' E 119°46'4312500764.7
2018-Feb-18 09:29S 18°08' E 178°26'109751097549.0
2018-Feb-18 09:28N 41°14' E 001°49'109752324222.9
2018-Feb-18 09:28S 18°08' E 178°26'4429212614.2
2018-Feb-18 09:27N 23°44' E 117°33'5781946005.3
2018-Feb-18 09:27N 48°59' E 002°05'579220810.0
2018-Feb-18 09:10N 23°47' E 117°50'39250.0
2018-Feb-18 09:00N 24°25' E 118°00'97692198025.4
2018-Feb-18 09:00N 40°38' W 074°09'97612196310.2
2018-Feb-18 09:00N 24°26' E 117°52'45771029883.6
2018-Feb-18 09:00N 44°09' E 028°40'45908262516.0
2018-Feb-18 09:00N 23°44' E 117°33'519331.1
2018-Feb-18 09:00N 23°49' E 117°36'5780533530.5
2018-Feb-18 08:59N 48°59' E 002°05'10966877247.3
2018-Feb-18 08:58S 18°08' E 178°26'016.2
2018-Feb-18 08:58S 18°08' E 178°26'4313277278.3
2018-Feb-18 08:57N 23°30' E 119°45'163222085.9
2018-Feb-18 08:53N 01°21' E 103°37'15837992.0
2018-Feb-18 08:41N 23°48' E 117°47'48417.2
2018-Feb-18 08:34N 24°32' E 118°10'9771172425.8
2018-Feb-18 08:30N 40°38' W 074°09'456116418304.0
2018-Feb-18 08:30N 44°09' E 028°40'45773295628.2
2018-Feb-18 08:30N 24°26' E 117°52'4618255.4
2018-Feb-18 08:30N 23°44' E 117°33'578120812064.4
2018-Feb-18 08:30N 48°59' E 002°05'6211745279.1
2018-Feb-18 08:30N 01°21' E 103°37'45922066375.8
2018-Feb-18 08:30S 18°08' E 178°26'0 0.0
2018-Feb-18 08:28S 18°08' E 178°26'0 4.3
2018-Feb-18 08:28S 18°08' E 178°26'44291594516.2
2018-Feb-18 08:28N 23°49' E 117°36'5464332.7
2018-Feb-18 08:28N 24°32' E 118°10'191067.3
2018-Feb-18 08:27N 24°26' E 117°51'4733043.8
2018-Feb-18 08:17N 31°58' E 120°26'4126557.6
2018-Feb-18 08:14N 25°10' E 121°23'2462459.4
2018-Feb-18 08:08N 23°28' E 117°18'458937892.5
2018-Feb-18 08:00N 44°09' E 028°40'45883303094.0
2018-Feb-18 08:00N 24°33' E 118°11'1833087.1
2018-Feb-18 08:00N 24°26' E 117°52'57613456638.7
2018-Feb-18 08:00N 48°59' E 002°05'57811892007.9
2018-Feb-18 08:00N 23°44' E 117°33'518310709.2
2018-Feb-18 08:00N 31°59' E 120°26'536137943.7
2018-Feb-18 08:00N 23°29' E 117°17'1551279219.8
2018-Feb-18 07:59N 01°21' E 103°37'15771135620.2
2018-Feb-18 07:59N 23°49' E 117°36'2224171.8
2018-Feb-18 07:56N 25°10' E 121°24'1921305.3
2018-Feb-18 07:47N 24°24' E 117°58'4722651.8
2018-Feb-18 07:37N 31°58' E 120°26'4614440.8
2018-Feb-18 07:30N 24°32' E 118°12'1934254.6
2018-Feb-18 07:30N 24°26' E 117°52'4654759.7
2018-Feb-18 07:30N 23°44' E 117°33'118424598.3
2018-Feb-18 07:30N 23°30' E 119°40'16292931739.0
2018-Feb-18 07:30N 01°21' E 103°37'16225840736.0
2018-Feb-18 07:30N 24°26' E 118°03'97701406901.9
2018-Feb-18 07:30N 40°38' W 074°09'45611368192.0
2018-Feb-18 07:30N 44°09' E 028°40'4590611985.6
2018-Feb-18 07:29N 23°49' E 117°36'513230759.8
2018-Feb-18 07:29N 31°59' E 120°27'53310898.3
2018-Feb-18 07:26N 23°34' E 117°14'2453600.8
2018-Feb-18 07:22N 25°09' E 121°22'195544.7
2018-Feb-18 07:01N 24°26' E 117°52'45774119535.2
2018-Feb-18 07:00N 44°09' E 028°40'45851833822.7
2018-Feb-18 07:00N 24°25' E 118°01'97693907701.6
2018-Feb-18 07:00N 40°38' W 074°09'97871174401.2
2018-Feb-18 07:00N 23°44' E 117°33'5543.4
2018-Feb-18 06:59N 23°49' E 117°36'113405991.6
2018-Feb-18 06:59N 23°29' E 119°37'10110732.1
2018-Feb-18 06:58N 24°32' E 118°10'5770155015.3
2018-Feb-18 06:56N 48°59' E 002°05'62112032579.0
2018-Feb-18 06:56N 01°21' E 103°37'0 0.5
2018-Feb-18 06:33N 01°21' E 103°37'161736615.6
2018-Feb-18 06:30N 24°26' E 117°52'45778239068.6
2018-Feb-18 06:30N 44°09' E 028°40'458816516665.9
2018-Feb-18 06:30N 24°32' E 118°11'54195790.6
2018-Feb-18 06:30N 23°49' E 117°36'57801733975.6
2018-Feb-18 06:30N 48°59' E 002°05'32832363736.9
2018-Feb-18 06:30N 40°38' W 074°09'102333683877.2
2018-Feb-18 06:30N 01°21' E 103°37'1572707374.8
2018-Feb-18 06:30N 23°44' E 117°33'1572120391.2
2018-Feb-18 06:29N 01°21' E 103°37'1023321467.8
2018-Feb-18 06:00N 40°38' W 074°09'456116418291.9
2018-Feb-18 06:00N 44°09' E 028°40'45772354019.6
2018-Feb-18 06:00N 24°26' E 117°52'57613456638.4
2018-Feb-18 06:00N 48°59' E 002°05'57701888227.8
2018-Feb-18 06:00N 24°33' E 118°10'6026785.9
2018-Feb-18 06:00N 23°44' E 117°33'5287.7
2018-Feb-18 05:59N 23°49' E 117°36'157739986.6
2018-Feb-18 05:56N 01°21' E 103°37'176515500.8
2018-Feb-18 05:50N 25°09' E 121°22'21115847.8
2018-Feb-18 05:49N 23°54' E 117°45'33370.6
2018-Feb-18 05:43N 24°25' E 117°59'98808.7
2018-Feb-18 05:36N 23°33' E 119°31'9897106358.4
2018-Feb-18 05:30N 40°38' W 074°09'989735628300.0
2018-Feb-18 05:30N 23°34' E 119°31'109196542.0
2018-Feb-18 05:30N 23°44' E 117°33'45901836137.7
2018-Feb-18 05:30N 44°09' E 028°40'11342042004.0
2018-Feb-18 05:30N 48°59' E 002°05'57701597772.6
2018-Feb-18 05:30N 24°33' E 118°11'542321.9
2018-Feb-18 05:29N 23°49' E 117°36'15771892702.3
2018-Feb-18 05:29N 01°21' E 103°37'1023321849.8
2018-Feb-18 05:00N 40°38' W 074°09'45618209146.0
2018-Feb-18 05:00N 44°09' E 028°40'45901502294.5
2018-Feb-18 05:00N 23°44' E 117°33'57816937371.8
2018-Feb-18 05:00N 48°59' E 002°05'58801175950.6
2018-Feb-18 05:00N 23°37' E 119°32'16305868847.0
2018-Feb-18 05:00N 01°21' E 103°37'1621583431.3
2018-Feb-18 05:00N 24°25' E 118°01'116689.6
2018-Feb-18 05:00N 24°32' E 118°10'182258.6
2018-Feb-18 04:59N 24°26' E 117°52'403630.2
2018-Feb-18 04:58N 23°49' E 117°36'4085.9
2018-Feb-18 04:30N 24°26' E 117°52'45775492712.4
2018-Feb-18 04:30N 44°09' E 028°40'459016525239.0
2018-Feb-18 04:30N 23°44' E 117°33'1572471534.1
2018-Feb-18 04:30N 01°21' E 103°37'102332455918.3
2018-Feb-18 04:30N 40°38' W 074°09'9771351753.5
2018-Feb-18 04:28N 24°32' E 118°11'5770593528.9
2018-Feb-18 04:28N 48°59' E 002°05'5761768129.2
2018-Feb-18 04:27N 24°25' E 117°51'1974155.2
2018-Feb-18 04:24N 25°09' E 121°23'1772351.7
2018-Feb-18 04:20N 24°21' E 118°16'2268.3
2018-Feb-18 04:00N 24°26' E 117°52'4610958.6
2018-Feb-18 04:00N 23°44' E 117°33'5781991053.2
2018-Feb-18 04:00N 48°59' E 002°05'32831969778.2
2018-Feb-18 04:00N 40°38' W 074°09'97717034974.5
2018-Feb-18 04:00N 24°32' E 118°10'45883303210.5
2018-Feb-18 04:00N 44°09' E 028°40'47161131811.5
2018-Feb-18 03:59N 25°10' E 121°24'1767706622.6
2018-Feb-18 03:59N 01°21' E 103°37'162532325.6
2018-Feb-18 03:56N 24°21' E 118°16'1677.7
2018-Feb-18 03:44N 24°24' E 117°58'458320992.0
2018-Feb-18 03:30N 44°09' E 028°40'45772354020.1
2018-Feb-18 03:30N 24°26' E 117°52'976117570498.9
2018-Feb-18 03:30N 40°38' W 074°09'1023312279604.5
2018-Feb-18 03:30N 01°21' E 103°37'621122358372.1
2018-Feb-18 03:30N 48°59' E 002°05'576910383526.3
2018-Feb-18 03:30N 24°26' E 118°02'5025675.6
2018-Feb-18 03:30N 23°44' E 117°33'609010.9
2018-Feb-18 03:30N 24°32' E 118°12'12280.3
2018-Feb-18 03:27N 24°21' E 118°16'1767349.0
2018-Feb-18 03:26N 25°09' E 121°22'989323493.3
2018-Feb-18 03:00N 40°38' W 074°09'97693516836.0
2018-Feb-18 03:00N 24°25' E 118°00'4813264.1
2018-Feb-18 03:00N 23°44' E 117°33'57812081211.5
2018-Feb-18 03:00N 48°59' E 002°05'1134240236.2
2018-Feb-18 03:00N 44°09' E 028°40'4577915452.3
2018-Feb-18 02:59N 24°26' E 117°52'1617970211.1
2018-Feb-18 02:59N 01°21' E 103°37'16325873566.6
2018-Feb-18 02:59N 24°32' E 118°10'13229.9
2018-Feb-18 02:56N 24°24' E 117°59'19117163.6
2018-Feb-18 02:55N 25°09' E 121°23'1773004.0
2018-Feb-18 02:52N 24°21' E 118°16'2261.9
2018-Feb-18 02:30N 24°26' E 117°52'457716478158.1
2018-Feb-18 02:30N 44°09' E 028°40'45845500611.4
2018-Feb-18 02:30N 24°24' E 117°59'57682076399.9
2018-Feb-18 02:30N 48°59' E 002°05'57812081211.5
2018-Feb-18 02:30N 23°44' E 117°33'15725658409.1
2018-Feb-18 02:30N 01°21' E 103°37'161696966.4
2018-Feb-18 02:29N 24°25' E 117°52'22648.4
2018-Feb-18 02:27N 24°21' E 118°15'16253674.0
2018-Feb-18 02:00N 01°21' E 103°37'16175821274.3
2018-Feb-18 02:00N 24°26' E 117°52'4682179.3
2018-Feb-18 02:00N 23°44' E 117°33'57811734343.1
2018-Feb-18 02:00N 48°59' E 002°05'57822081392.9
2018-Feb-18 02:00N 24°20' E 118°12'97842348207.9
2018-Feb-18 02:00N 40°38' W 074°09'45611492571.8
2018-Feb-18 02:00N 44°09' E 028°40'45841269370.5
2018-Feb-18 01:59N 24°24' E 117°59'18913055.4
2018-Feb-18 01:59N 25°10' E 121°21'188658.1
2018-Feb-18 01:41N 24°25' E 117°60'316.8
2018-Feb-18 01:31N 24°26' E 118°03'97707034266.4
2018-Feb-18 01:30N 40°38' W 074°09'978711744012.2
2018-Feb-18 01:30N 23°44' E 117°33'47168346.7
2018-Feb-18 01:30N 24°24' E 117°59'16195827770.6
2018-Feb-18 01:30N 01°21' E 103°37'48782926696.9
2018-Feb-18 01:30N 44°09' E 028°40'4595403435.9
2018-Feb-18 01:30N 24°19' E 118°08'166408.0
2018-Feb-18 01:29N 24°26' E 117°52'57611481416.5
2018-Feb-18 01:29N 48°59' E 002°05'578012076.9
2018-Feb-18 01:00N 23°44' E 117°32'45898260920.6
2018-Feb-18 01:00N 44°09' E 028°40'457716478137.3
2018-Feb-18 01:00N 24°26' E 117°52'16172910635.2
2018-Feb-18 01:00N 01°21' E 103°37'102332302424.5
2018-Feb-18 01:00N 40°38' W 074°09'97692512030.5
2018-Feb-18 01:00N 24°25' E 118°00'1140.7
2018-Feb-18 00:59N 24°24' E 117°59'5768190495.4
2018-Feb-18 00:58N 48°59' E 002°05'577220801.0
2018-Feb-18 00:41N 23°37' E 117°14'977856139.6
2018-Feb-18 00:30N 40°38' W 074°09'977917602103.8
2018-Feb-18 00:30N 23°36' E 117°14'193749.8
2018-Feb-18 00:30N 23°44' E 117°32'1572217618.3
2018-Feb-18 00:30N 01°21' E 103°37'6211770978.4
2018-Feb-18 00:29N 48°59' E 002°05'57611296239.3
2018-Feb-18 00:29N 24°26' E 117°52'0 0.0
2018-Feb-18 00:00N 24°26' E 117°52'9761901050.3
2018-Feb-18 00:00N 40°38' W 074°09'102332833753.4
2018-Feb-18 00:00N 01°21' E 103°37'6211276029.3
2018-Feb-17 23:58N 48°59' E 002°05'5780149688.1
2018-Feb-17 23:56N 23°30' E 117°16'2461394.2
2018-Feb-17 23:45N 25°10' E 121°24'989439977.6
2018-Feb-17 23:30N 40°38' W 074°09'45611641829.4
2018-Feb-17 23:30N 44°09' E 028°40'48784390044.9
2018-Feb-17 23:30N 01°21' E 103°37'6211573291.6
2018-Feb-17 23:30N 48°59' E 002°05'5780520209.7
2018-Feb-17 23:29N 23°30' E 117°16'7151.0
2018-Feb-17 23:26N 23°25' E 117°21'2447382.3
2018-Feb-17 23:24N 25°10' E 121°24'4121194.3
2018-Feb-17 23:04N 31°59' E 120°27'9423181403.5
2018-Feb-17 23:00N 40°38' W 074°09'45611492572.0
2018-Feb-17 23:00N 44°09' E 028°40'45771498012.5
2018-Feb-17 23:00N 24°26' E 117°52'57611595371.4
2018-Feb-17 23:00N 48°59' E 002°05'5783330445.8
2018-Feb-17 22:59N 23°29' E 117°19'1553151070.2
2018-Feb-17 22:58N 01°21' E 103°37'155562882.7
2018-Feb-17 22:57N 23°35' E 117°14'532106371.3
2018-Feb-17 22:56N 31°59' E 120°27'41211687.2
2018-Feb-17 22:54N 25°09' E 121°21'471511860.7
2018-Feb-17 22:30N 44°09' E 028°40'45771267549.0
2018-Feb-17 22:30N 24°26' E 117°52'576120739830.4
2018-Feb-17 22:30N 48°59' E 002°05'32831969778.2
2018-Feb-17 22:30N 40°38' W 074°09'102337367759.8
2018-Feb-17 22:30N 01°21' E 103°37'1023320754.2
2018-Feb-17 22:00N 40°38' W 074°09'3283844189.7
2018-Feb-17 22:00N 48°59' E 002°05'621122358373.8
2018-Feb-17 22:00N 01°21' E 103°37'1617194042.3
2018-Feb-17 22:00N 24°26' E 117°52'45779383.9
2018-Feb-17 21:30N 44°09' E 028°40'45771098542.7
2018-Feb-17 21:30N 24°26' E 117°52'97617028196.1
2018-Feb-17 21:30N 40°38' W 074°09'102331116327.7
2018-Feb-17 21:30N 01°21' E 103°37'6211366530.7
2018-Feb-17 21:29N 48°59' E 002°05'5971131885.9
2018-Feb-17 21:26N 22°33' E 120°20'477411290.9
2018-Feb-17 21:00N 44°09' E 028°40'1134255250.5
2018-Feb-17 21:00N 48°59' E 002°05'62111242132.0
2018-Feb-17 21:00N 01°21' E 103°37'16172910636.2
2018-Feb-17 21:00N 24°26' E 117°52'97617028199.6
2018-Feb-17 21:00N 40°38' W 074°09'9998154481.1
2018-Feb-17 20:56N 22°33' E 120°20'180659.4
2018-Feb-17 20:40N 23°32' E 117°15'458430393.9
2018-Feb-17 20:30N 44°09' E 028°40'45772746356.2
2018-Feb-17 20:30N 24°26' E 117°52'57612304425.6
2018-Feb-17 20:30N 48°59' E 002°05'5971255921.4
2018-Feb-17 20:29N 22°33' E 120°20'1607385742.3
2018-Feb-17 20:29N 01°21' E 103°37'102336139802.2
2018-Feb-17 20:28N 40°38' W 074°09'978183838.8
2018-Feb-17 20:21N 23°34' E 117°14'63179.8
2018-Feb-17 20:01N 24°26' E 117°52'19658813.5
2018-Feb-17 20:00N 25°09' E 121°23'5887847799.2
2018-Feb-17 20:00N 48°59' E 002°05'32832363731.2
2018-Feb-17 20:00N 40°38' W 074°09'45611492571.8
2018-Feb-17 20:00N 44°09' E 028°40'4878408376.1
2018-Feb-17 19:59N 01°21' E 103°37'161211516.9
2018-Feb-17 19:51N 22°54' E 120°01'144615.0
2018-Feb-17 19:36N 23°49' E 117°36'1461460.6
2018-Feb-17 19:31N 22°53' E 120°03'151544580.1
2018-Feb-17 19:30N 24°26' E 117°52'45775492712.4
2018-Feb-17 19:30N 44°09' E 028°40'45612052286.5
2018-Feb-17 19:30N 40°38' W 074°09'32832363733.9
2018-Feb-17 19:30N 48°59' E 002°05'6211745279.2
2018-Feb-17 19:30N 01°21' E 103°37'487810000.1
2018-Feb-17 19:00N 44°09' E 028°40'45772059767.6
2018-Feb-17 19:00N 24°26' E 117°52'1617161702.0
2018-Feb-17 19:00N 01°21' E 103°37'161444030.0
2018-Feb-17 18:58N 22°53' E 120°07'5944108079.1
2018-Feb-17 18:54N 48°59' E 002°05'588725082.1
2018-Feb-17 18:40N 25°09' E 121°23'989461410.4
2018-Feb-17 18:30N 40°38' W 074°09'3283844189.8
2018-Feb-17 18:30N 48°59' E 002°05'5761797685.7
2018-Feb-17 18:30N 24°26' E 117°52'16171164254.5
2018-Feb-17 18:30N 01°21' E 103°37'48789994.4
2018-Feb-17 18:00N 44°09' E 028°40'45772059767.2
2018-Feb-17 18:00N 24°26' E 117°52'16171164254.9
2018-Feb-17 18:00N 01°21' E 103°37'6211372639.6
2018-Feb-17 17:59N 48°59' E 002°05'3283157582.5
2018-Feb-17 17:58N 40°38' W 074°09'45619944.5
2018-Feb-17 17:30N 44°09' E 028°40'48784390045.3
2018-Feb-17 17:30N 01°21' E 103°37'102331023300.0
2018-Feb-17 17:30N 40°38' W 074°09'328333292.0
2018-Feb-17 17:24N 48°59' E 002°05'11342906.8
2018-Feb-17 17:00N 44°09' E 028°40'4561820914.5
2018-Feb-17 17:00N 40°38' W 074°09'97611133579.4
2018-Feb-17 17:00N 24°26' E 117°52'1617132301.6
2018-Feb-17 16:59N 01°21' E 103°37'6211102561.3
2018-Feb-17 16:55N 48°59' E 002°05'11342746.5
2018-Feb-17 16:30N 44°09' E 028°40'47164244610.6
2018-Feb-17 16:30N 25°09' E 121°23'197101078.4
2018-Feb-17 16:30N 24°26' E 117°52'97614392622.5
2018-Feb-17 16:30N 40°38' W 074°09'102331116327.3
2018-Feb-17 16:30N 01°21' E 103°37'6211545326.2
2018-Feb-17 16:29N 48°59' E 002°05'11342392.5
2018-Feb-17 16:00N 44°09' E 028°40'457716478137.3
2018-Feb-17 16:00N 24°26' E 117°52'196235024.7
2018-Feb-17 16:00N 25°10' E 121°23'5887706466.5
2018-Feb-17 16:00N 48°59' E 002°05'32831969776.5
2018-Feb-17 16:00N 40°38' W 074°09'10233443840.9
2018-Feb-17 15:58N 01°21' E 103°37'487810471.2
2018-Feb-17 15:30N 44°09' E 028°40'45778239070.4
2018-Feb-17 15:30N 24°26' E 117°52'5761414796.6
2018-Feb-17 15:30N 48°59' E 002°05'32831688379.4
2018-Feb-17 15:29N 40°38' W 074°09'1023398499.5
2018-Feb-17 15:23N 01°21' E 103°37'487812836.4
2018-Feb-17 15:00N 44°09' E 028°40'1134291715.5
2018-Feb-17 15:00N 48°59' E 002°05'3283787911.4
2018-Feb-17 15:00N 40°38' W 074°09'976117570490.3
2018-Feb-17 15:00N 24°26' E 117°52'405185.2
2018-Feb-17 14:59N 23°49' E 117°36'1577436777.3
2018-Feb-17 14:59N 01°21' E 103°37'1023321343.5
2018-Feb-17 14:30N 40°38' W 074°09'45618209146.0
2018-Feb-17 14:30N 44°09' E 028°40'1134291714.9
2018-Feb-17 14:30N 48°59' E 002°05'57612592478.8
2018-Feb-17 14:30N 24°26' E 117°52'403456.8
2018-Feb-17 14:29N 23°49' E 117°36'157711611.7
2018-Feb-17 14:21N 01°21' E 103°37'16174660.7
2018-Feb-17 14:00N 24°26' E 117°52'4577358220.5
2018-Feb-17 14:00N 44°09' E 028°40'1134170167.4
2018-Feb-17 13:59N 48°59' E 002°05'32831969776.0
2018-Feb-17 13:59N 40°38' W 074°09'102331023299.7
2018-Feb-17 13:59N 01°21' E 103°37'487810415.3
2018-Feb-17 13:30N 44°09' E 028°40'45775492707.5
2018-Feb-17 13:30N 24°26' E 117°52'97612342729.4
2018-Feb-17 13:30N 40°38' W 074°09'10233818639.8
2018-Feb-17 13:29N 01°21' E 103°37'621176832.9
2018-Feb-17 13:25N 48°59' E 002°05'4652530.8
2018-Feb-17 13:14N 41°14' E 001°49'11975502.4
2018-Feb-17 13:00N 44°09' E 028°40'45774119530.6
2018-Feb-17 13:00N 24°26' E 117°52'97615856820.5
2018-Feb-17 13:00N 40°38' W 074°09'102332833751.6
2018-Feb-17 13:00N 01°21' E 103°37'6173241567.6
2018-Feb-17 12:59N 41°14' E 001°49'4659412.4
2018-Feb-17 12:56N 48°59' E 002°05'32837842.5
2018-Feb-17 12:30N 40°38' W 074°09'97618785236.1
2018-Feb-17 12:30N 24°26' E 117°52'59371017723.7
2018-Feb-17 12:30N 41°14' E 001°49'465186156.4
2018-Feb-17 12:30N 48°59' E 002°05'1134255250.4
2018-Feb-17 12:30N 44°09' E 028°40'4878170487.2
2018-Feb-17 12:28N 01°21' E 103°37'487810661.9
2018-Feb-17 12:00N 44°09' E 028°40'45774119534.3
2018-Feb-17 12:00N 24°26' E 117°52'97612342732.0
2018-Feb-17 12:00N 40°38' W 074°09'3445182356.3
2018-Feb-17 11:59N 41°14' E 001°50'4665143.6
2018-Feb-17 11:54N 48°59' E 002°05'32838527.2
2018-Feb-17 11:30N 40°38' W 074°09'45618209138.0
2018-Feb-17 11:30N 44°09' E 028°40'45774119534.3
2018-Feb-17 11:30N 24°26' E 117°52'593681247.5
2018-Feb-17 11:26N 41°14' E 001°51'46510153.3
2018-Feb-17 11:23N 48°59' E 002°05'549895621.6
2018-Feb-17 11:20N 31°58' E 120°27'4721469.9
2018-Feb-17 11:01N 24°26' E 117°52'45773295627.5
2018-Feb-17 11:00N 44°09' E 028°40'4561864119.9
2018-Feb-17 11:00N 40°38' W 074°09'344498401.5
2018-Feb-17 10:58N 41°14' E 001°50'46624297.2
2018-Feb-17 10:57N 48°59' E 002°05'578047614.9
2018-Feb-17 10:50N 23°49' E 117°36'157731027.9
2018-Feb-17 10:47N 01°21' E 103°37'16176051.2
2018-Feb-17 10:31N 24°26' E 117°52'976111713648.1
2018-Feb-17 10:30N 40°38' W 074°09'3283909126.3
2018-Feb-17 10:30N 48°59' E 002°05'113452359.1
2018-Feb-17 10:29N 44°09' E 028°40'487890985.4
2018-Feb-17 10:26N 01°21' E 103°37'1577405578.8
2018-Feb-17 10:25N 23°49' E 117°36'4096.8
2018-Feb-17 10:00N 24°26' E 117°52'45771373178.4
2018-Feb-17 10:00N 44°09' E 028°40'113494977.1
2018-Feb-17 10:00N 48°59' E 002°05'6211721237.6
2018-Feb-17 09:59N 01°21' E 103°37'157743015.9
2018-Feb-17 09:57N 23°49' E 117°36'157733601.8
2018-Feb-17 09:54N 01°21' E 103°37'6173389897.4
2018-Feb-17 09:53N 41°14' E 001°49'5950184665.9
2018-Feb-17 09:51N 23°44' E 117°33'459013316.0
2018-Feb-17 09:30N 44°09' E 028°40'48783512033.9
2018-Feb-17 09:30N 01°21' E 103°37'15722829328.2
2018-Feb-17 09:30N 23°44' E 117°33'4654651.9
2018-Feb-17 09:30N 24°26' E 117°52'5761829593.1
2018-Feb-17 09:30N 48°59' E 002°05'3283472745.7
2018-Feb-17 09:29N 40°38' W 074°09'97853913988.1
2018-Feb-17 09:29N 23°49' E 117°36'40136.6
2018-Feb-17 09:12N 24°25' E 117°52'1 4.6
2018-Feb-17 09:00N 24°26' E 117°52'57611296239.4
2018-Feb-17 09:00N 48°59' E 002°05'3283787909.3
2018-Feb-17 09:00N 40°38' W 074°09'4561781822.5
2018-Feb-17 09:00N 44°09' E 028°40'45902360739.8
2018-Feb-17 09:00N 23°44' E 117°33'1572353675.3
2018-Feb-17 08:59N 01°21' E 103°37'16197292.4
2018-Feb-17 08:46N 24°24' E 117°58'411421.2
2018-Feb-17 08:44N 23°49' E 117°36'523.8
2018-Feb-17 08:31N 23°44' E 117°33'45908262599.0
2018-Feb-17 08:30N 44°09' E 028°40'45771830904.5
2018-Feb-17 08:30N 24°26' E 117°52'932647.9
2018-Feb-17 08:30N 24°26' E 118°02'57694153444.2
2018-Feb-17 08:30N 48°59' E 002°05'62112032579.1
2018-Feb-17 08:30N 01°21' E 103°37'157713682.2
2018-Feb-17 08:23N 23°49' E 117°36'2226665.7
2018-Feb-17 08:21N 25°09' E 121°23'179633.1
2018-Feb-17 08:04N 24°32' E 118°10'458874733.3
2018-Feb-17 08:00N 44°09' E 028°40'45892360264.2
2018-Feb-17 08:00N 23°44' E 117°32'46164155.0
2018-Feb-17 08:00N 24°26' E 117°52'828226.8
2018-Feb-17 08:00N 24°25' E 118°01'5768769103.8
2018-Feb-17 08:00N 48°59' E 002°05'57701597890.7
2018-Feb-17 08:00N 24°32' E 118°10'1631130496.4
2018-Feb-17 07:59N 01°21' E 103°37'157769245.2
2018-Feb-17 07:58N 23°49' E 117°36'4089.5
2018-Feb-17 07:30N 24°26' E 117°52'45778239068.6
2018-Feb-17 07:30N 44°09' E 028°40'48781350782.8
2018-Feb-17 07:30N 01°21' E 103°37'16321957914.4
2018-Feb-17 07:30N 24°31' E 118°12'57721154478.6
2018-Feb-17 07:30N 48°59' E 002°05'3283337675.0
2018-Feb-17 07:29N 40°38' W 074°09'9785170999.4
2018-Feb-17 07:26N 23°49' E 117°36'5310.5
2018-Feb-17 07:25N 23°44' E 117°33'46112.6
2018-Feb-17 07:00N 24°26' E 117°52'976135140944.4
2018-Feb-17 07:00N 40°38' W 074°09'45611368188.5
2018-Feb-17 07:00N 44°09' E 028°40'11341361335.5
2018-Feb-17 07:00N 48°59' E 002°05'5773742234.0
2018-Feb-17 07:00N 24°31' E 118°13'1631255344.2
2018-Feb-17 06:59N 01°21' E 103°37'15721886133.9
2018-Feb-17 06:59N 23°44' E 117°33'5592.8
2018-Feb-17 06:59N 23°49' E 117°36'222473.3
2018-Feb-17 06:31N 25°10' E 121°23'227101960.6
2018-Feb-17 06:30N 23°44' E 117°33'45905508413.0
2018-Feb-17 06:30N 44°09' E 028°40'45772354019.6
2018-Feb-17 06:30N 24°26' E 117°52'1617388084.2
2018-Feb-17 06:30N 01°21' E 103°37'102332302422.9
2018-Feb-17 06:30N 40°38' W 074°09'328386901.8
2018-Feb-17 06:28N 48°59' E 002°05'5887121103.5
2018-Feb-17 06:25N 25°09' E 121°22'226557.0
2018-Feb-17 06:00N 23°44' E 117°33'45905508413.0
2018-Feb-17 06:00N 44°09' E 028°40'11341021002.0
2018-Feb-17 06:00N 48°59' E 002°05'5770903168.4
2018-Feb-17 06:00N 24°32' E 118°10'97711674993.1
2018-Feb-17 05:59N 40°38' W 074°09'97615020134.3
2018-Feb-17 05:59N 24°26' E 117°52'161775601.0
2018-Feb-17 05:58N 01°21' E 103°37'17676051.0
2018-Feb-17 05:41N 25°10' E 121°24'1971174.4
2018-Feb-17 05:31N 24°26' E 117°52'45774119530.6
2018-Feb-17 05:30N 44°09' E 028°40'45872752257.2
2018-Feb-17 05:30N 24°33' E 118°11'57692967086.4
2018-Feb-17 05:30N 48°59' E 002°05'3283454563.1
2018-Feb-17 05:30N 40°38' W 074°09'102339209693.1
2018-Feb-17 05:30N 01°21' E 103°37'0 5.6
2018-Feb-17 05:28N 01°21' E 103°37'176524922.7
2018-Feb-17 05:24N 25°09' E 121°22'22530043.8
2018-Feb-17 05:23N 23°44' E 117°33'45260.7
2018-Feb-17 05:13N 24°25' E 117°51'45217.8
2018-Feb-17 05:01N 23°44' E 117°33'46164358.7
2018-Feb-17 05:00N 24°26' E 117°52'45778239070.4
2018-Feb-17 05:00N 44°09' E 028°40'1134291715.4
2018-Feb-17 05:00N 48°59' E 002°05'32831969775.7
2018-Feb-17 05:00N 40°38' W 074°09'97702705570.8
2018-Feb-17 05:00N 24°32' E 118°10'163283912.0
2018-Feb-17 04:59N 01°21' E 103°37'1766205091.2
2018-Feb-17 04:58N 25°09' E 121°23'1911220.5
2018-Feb-17 04:49N 24°24' E 117°59'47153.5
2018-Feb-17 04:31N 23°44' E 117°33'4682189.3
2018-Feb-17 04:30N 24°26' E 117°52'976117570470.1
2018-Feb-17 04:30N 40°38' W 074°09'456116418260.0
2018-Feb-17 04:30N 44°09' E 028°40'45871376224.8
2018-Feb-17 04:30N 24°32' E 118°10'81584.3
2018-Feb-17 04:30N 24°28' E 118°03'16241948649.4
2018-Feb-17 04:30N 01°21' E 103°37'6211573291.5
2018-Feb-17 04:29N 48°59' E 002°05'578048502.9
2018-Feb-17 04:22N 23°49' E 117°36'515.1
2018-Feb-17 04:01N 23°44' E 117°33'978717616000.8
2018-Feb-17 04:00N 40°38' W 074°09'97615020134.9
2018-Feb-17 04:00N 24°26' E 117°52'1617970212.1
2018-Feb-17 04:00N 01°21' E 103°37'1619728703.0
2018-Feb-17 04:00N 24°25' E 117°59'142430.1
2018-Feb-17 04:00N 24°32' E 118°11'5770223372.8
2018-Feb-17 03:58N 48°59' E 002°05'578057479.9
2018-Feb-17 03:52N 23°49' E 117°36'515.0
2018-Feb-17 03:31N 23°44' E 117°33'97878808004.6
2018-Feb-17 03:30N 40°38' W 074°09'97612067115.4
2018-Feb-17 03:30N 24°26' E 117°52'182642.2
2018-Feb-17 03:30N 24°32' E 118°10'45881835120.5
2018-Feb-17 03:30N 44°09' E 028°40'113492818.0
2018-Feb-17 03:29N 48°59' E 002°05'62111176756.4
2018-Feb-17 03:29N 01°21' E 103°37'1577189270.2
2018-Feb-17 03:28N 23°49' E 117°36'39184.0
2018-Feb-17 03:15N 24°25' E 117°52'1 3.8
2018-Feb-17 03:01N 24°26' E 117°52'1617727658.3
2018-Feb-17 03:00N 01°21' E 103°37'62112484263.2
2018-Feb-17 03:00N 48°59' E 002°05'32831969773.7
2018-Feb-17 03:00N 40°38' W 074°09'97761530114.8
2018-Feb-17 03:00N 24°30' E 118°14'45922361619.3
2018-Feb-17 03:00N 44°09' E 028°40'45903305048.4
2018-Feb-17 03:00N 23°44' E 117°33'46564.3
2018-Feb-17 02:55N 24°24' E 117°58'4113359.8
2018-Feb-17 02:54N 23°49' E 117°36'513.6
2018-Feb-17 02:31N 23°44' E 117°33'4682189.3
2018-Feb-17 02:30N 24°26' E 117°52'976135140922.9
2018-Feb-17 02:30N 40°38' W 074°09'456116418274.0
2018-Feb-17 02:30N 44°09' E 028°40'45868253918.2
2018-Feb-17 02:30N 24°28' E 118°04'83008.7
2018-Feb-17 02:30N 24°32' E 118°11'5771989236.7
2018-Feb-17 02:30N 48°59' E 002°05'6211438399.5
2018-Feb-17 02:29N 01°21' E 103°37'157776731.2
2018-Feb-17 02:28N 23°49' E 117°36'512.0
2018-Feb-17 02:01N 23°44' E 117°33'4682179.3
2018-Feb-17 02:00N 24°26' E 117°52'57611296239.4
2018-Feb-17 02:00N 48°59' E 002°05'62115589593.0
2018-Feb-17 02:00N 01°21' E 103°37'102331674489.0
2018-Feb-17 02:00N 40°38' W 074°09'4561273637.7
2018-Feb-17 01:59N 44°09' E 028°40'4590242994.2
2018-Feb-17 01:58N 23°49' E 117°36'511.8
2018-Feb-17 01:31N 23°44' E 117°32'978617614628.3
2018-Feb-17 01:30N 40°38' W 074°09'45618209123.0
2018-Feb-17 01:30N 44°09' E 028°40'48781463348.4
2018-Feb-17 01:30N 01°21' E 103°37'6211159702.7
2018-Feb-17 01:28N 48°59' E 002°05'5780945804.8
2018-Feb-17 01:28N 23°49' E 117°36'40148.8
2018-Feb-17 01:12N 24°25' E 117°51'457724666.3
2018-Feb-17 01:00N 44°09' E 028°40'45902360675.2
2018-Feb-17 01:00N 23°44' E 117°33'97862710102.2
2018-Feb-17 01:00N 40°38' W 074°09'102332302423.5
2018-Feb-17 01:00N 01°21' E 103°37'16171455318.6
2018-Feb-17 01:00N 24°26' E 117°52'57611595371.6
2018-Feb-17 01:00N 48°59' E 002°05'576728286.1
2018-Feb-17 00:47N 24°24' E 117°58'46165.7
2018-Feb-17 00:31N 23°44' E 117°32'97868807011.2
2018-Feb-17 00:30N 40°38' W 074°09'97705861755.6
2018-Feb-17 00:30N 24°27' E 118°03'57692595915.5
2018-Feb-17 00:30N 48°59' E 002°05'57613456638.1
2018-Feb-17 00:30N 24°26' E 117°52'4577336288.9
2018-Feb-17 00:29N 44°09' E 028°40'4590611986.7
2018-Feb-17 00:29N 23°49' E 117°36'1577210299.6
2018-Feb-17 00:28N 01°21' E 103°37'15723384.2
2018-Feb-17 00:01N 23°44' E 117°33'45904131303.0
2018-Feb-17 00:00N 44°09' E 028°40'457716478154.5
2018-Feb-17 00:00N 24°26' E 117°52'16171455318.1
2018-Feb-17 00:00N 01°21' E 103°37'16212917031.3
2018-Feb-17 00:00N 24°25' E 118°01'431614.2
2018-Feb-16 23:59N 23°49' E 117°36'5780288996.2
2018-Feb-16 23:58N 48°59' E 002°05'578448765.2
2018-Feb-16 23:50N 24°19' E 118°15'1599.7
2018-Feb-16 23:41N 24°24' E 117°59'458425348.4
2018-Feb-16 23:30N 44°09' E 028°40'458416501834.2
2018-Feb-16 23:30N 24°24' E 117°59'97694395963.1
2018-Feb-16 23:30N 40°38' W 074°09'32832363731.2
2018-Feb-16 23:30N 48°59' E 002°05'5761592566.5
2018-Feb-16 23:30N 24°26' E 117°52'406599.4
2018-Feb-16 23:29N 23°49' E 117°36'157777782.3
2018-Feb-16 23:28N 01°21' E 103°37'162359616.1
2018-Feb-16 23:26N 24°19' E 118°15'460010628.5
2018-Feb-16 23:00N 44°09' E 028°40'45771830906.5
2018-Feb-16 23:00N 24°26' E 117°52'622822.6
2018-Feb-16 23:00N 24°24' E 117°59'9769925465.5
2018-Feb-16 23:00N 40°38' W 074°09'9786800663.8
2018-Feb-16 22:59N 24°21' E 118°16'492335.1
2018-Feb-16 22:58N 23°49' E 117°36'578073009.5
2018-Feb-16 22:53N 48°59' E 002°05'588846582.7
2018-Feb-16 22:45N 25°09' E 121°23'471619031.9
2018-Feb-16 22:30N 44°09' E 028°40'45611824250.9
2018-Feb-16 22:30N 40°38' W 074°09'976935167687.9
2018-Feb-16 22:30N 24°24' E 117°59'16191456943.1
2018-Feb-16 22:30N 01°21' E 103°37'1617831610.6
2018-Feb-16 22:30N 24°26' E 117°52'57611728319.1
2018-Feb-16 22:30N 48°59' E 002°05'578320819910.2
2018-Feb-16 22:30N 24°21' E 118°16'49834.1
2018-Feb-16 22:26N 23°49' E 117°36'978522667.9
2018-Feb-16 22:00N 40°38' W 074°09'456116418261.9
2018-Feb-16 22:00N 44°09' E 028°40'459016523640.0
2018-Feb-16 22:00N 23°49' E 117°36'1577516189.9
2018-Feb-16 22:00N 01°21' E 103°37'621122358377.2
2018-Feb-16 22:00N 48°59' E 002°05'57612962833.1
2018-Feb-16 22:00N 24°26' E 117°52'216395.1
2018-Feb-16 22:00N 24°21' E 118°15'978619936.8
2018-Feb-16 21:30N 40°38' W 074°09'456116418272.1
2018-Feb-16 21:30N 44°09' E 028°40'48788780095.7
2018-Feb-16 21:30N 01°21' E 103°37'15771135617.7
2018-Feb-16 21:30N 23°49' E 117°36'404148.8
2018-Feb-16 21:30N 24°26' E 117°52'5761109157.0
2018-Feb-16 21:27N 48°59' E 002°05'32837547.0
2018-Feb-16 21:00N 40°38' W 074°09'97618785236.1
2018-Feb-16 21:00N 24°26' E 117°52'16175821272.4
2018-Feb-16 21:00N 01°21' E 103°37'1577473174.1
2018-Feb-16 21:00N 23°49' E 117°36'4590472103.5
2018-Feb-16 21:00N 44°09' E 028°40'113418313.9
2018-Feb-16 20:56N 48°59' E 002°05'32837749.9
2018-Feb-16 20:30N 40°38' W 074°09'97617028188.9
2018-Feb-16 20:30N 24°26' E 117°52'57612304425.6
2018-Feb-16 20:30N 48°59' E 002°05'1134583429.7
2018-Feb-16 20:30N 44°09' E 028°40'4590203995.3
2018-Feb-16 20:29N 23°49' E 117°36'15771892696.2
2018-Feb-16 20:29N 01°21' E 103°37'1023321733.8
2018-Feb-16 20:00N 40°38' W 074°09'456116418258.0
2018-Feb-16 20:00N 44°09' E 028°40'4716404249.5
2018-Feb-16 20:00N 25°09' E 121°23'19764322.2
2018-Feb-16 20:00N 24°26' E 117°52'1617187783.0
2018-Feb-16 19:59N 01°21' E 103°37'621197210.3
2018-Feb-16 19:55N 48°59' E 002°05'578025977.2
2018-Feb-16 19:42N 23°49' E 117°36'978551349.7
2018-Feb-16 19:30N 40°38' W 074°09'98947123574.1
2018-Feb-16 19:30N 25°09' E 121°23'58872649284.5
2018-Feb-16 19:30N 48°59' E 002°05'576120739830.4
2018-Feb-16 19:30N 24°26' E 117°52'1617306382.9
2018-Feb-16 19:30N 01°21' E 103°37'487868327.6
2018-Feb-16 19:26N 44°09' E 028°40'4590155883.2
2018-Feb-16 19:24N 23°49' E 117°36'415616458.6
2018-Feb-16 19:09N 44°37' E 037°43'494436100.9
2018-Feb-16 19:00N 40°38' W 074°09'4561746284.6
2018-Feb-16 19:00N 44°09' E 028°40'45775492712.4
2018-Feb-16 19:00N 24°26' E 117°52'57612073983.0
2018-Feb-16 19:00N 48°59' E 002°05'6211745279.3
2018-Feb-16 18:59N 01°21' E 103°37'1023321232.7
2018-Feb-16 18:30N 40°38' W 074°09'45611641826.2
2018-Feb-16 18:30N 44°09' E 028°40'45773295627.5
2018-Feb-16 18:30N 24°26' E 117°52'1617194042.5
2018-Feb-16 18:30N 01°21' E 103°37'1023320990.8
2018-Feb-16 18:00N 40°38' W 074°09'97618785236.1
2018-Feb-16 18:00N 24°26' E 117°52'1617138601.8
2018-Feb-16 18:00N 01°21' E 103°37'6211205122.7
2018-Feb-16 17:58N 48°59' E 002°05'32837180.2
2018-Feb-16 17:30N 40°38' W 074°09'102332833752.5
2018-Feb-16 17:30N 01°21' E 103°37'621122358375.5
2018-Feb-16 17:30N 48°59' E 002°05'57611036991.4
2018-Feb-16 17:30N 24°26' E 117°52'45773295628.2
2018-Feb-16 17:30N 44°09' E 028°40'45619323.2
2018-Feb-16 17:00N 40°38' W 074°09'102339209681.6
2018-Feb-16 17:00N 01°21' E 103°37'62112484263.6
2018-Feb-16 17:00N 48°59' E 002°05'576110369914.3
2018-Feb-16 17:00N 24°26' E 117°52'4577659125.6
2018-Feb-16 17:00N 44°09' E 028°40'45779330.8
2018-Feb-16 16:30N 24°26' E 117°52'4577470803.9
2018-Feb-16 16:30N 44°09' E 028°40'1134123757.8
2018-Feb-16 16:29N 48°59' E 002°05'6211573291.7
2018-Feb-16 16:29N 01°21' E 103°37'10233177962.6
2018-Feb-16 16:25N 40°40' W 074°09'976123774.2
2018-Feb-16 16:00N 24°26' E 117°52'457716478140.8
2018-Feb-16 16:00N 44°09' E 028°40'48782508596.4
2018-Feb-16 16:00N 01°21' E 103°37'102331534925.2
2018-Feb-16 16:00N 40°40' W 074°09'32822954127.9
2018-Feb-16 16:00N 48°59' E 002°05'576111750.6
2018-Feb-16 15:30N 24°26' E 117°52'57611481416.3
2018-Feb-16 15:30N 48°59' E 002°05'3282695088.9
2018-Feb-16 15:30N 40°40' W 074°09'45601641602.1
2018-Feb-16 15:30N 44°09' E 028°40'4878763485.9
2018-Feb-16 15:29N 01°21' E 103°37'447117669.9
2018-Feb-16 15:14N 44°38' E 037°43'414318056.8
2018-Feb-16 15:00N 24°26' E 117°52'57611595371.4
2018-Feb-16 15:00N 48°59' E 002°05'3282695088.9
2018-Feb-16 15:00N 40°40' W 074°09'4943240475.1
2018-Feb-16 14:59N 44°38' E 037°43'4471160961.5
2018-Feb-16 14:57N 01°21' E 103°37'1577167003.1
2018-Feb-16 14:56N 23°49' E 117°36'4092.2
2018-Feb-16 14:30N 24°26' E 117°52'4577568211.6
2018-Feb-16 14:30N 44°09' E 028°40'390702129.1
2018-Feb-16 14:30N 44°37' E 037°45'1488535631.5
2018-Feb-16 14:30N 48°59' E 002°05'32821969421.1
2018-Feb-16 14:29N 40°40' W 074°09'97845870525.0
2018-Feb-16 14:29N 23°49' E 117°36'157747715.2
2018-Feb-16 14:27N 01°21' E 103°37'487810859.7
2018-Feb-16 14:00N 44°09' E 028°40'45602052001.1
2018-Feb-16 14:00N 40°40' W 074°09'97611527744.5
2018-Feb-16 14:00N 24°26' E 117°52'41411242416.7
2018-Feb-16 14:00N 44°38' E 037°45'4154498457.4
2018-Feb-16 13:59N 23°49' E 117°36'1577567810.5
2018-Feb-16 13:59N 01°21' E 103°37'6211456293.4
2018-Feb-16 13:58N 48°59' E 002°05'11342448.4
2018-Feb-16 13:30N 44°09' E 028°40'1134340334.1
2018-Feb-16 13:30N 48°59' E 002°05'576120739813.9
2018-Feb-16 13:30N 24°26' E 117°52'97617027620.4
2018-Feb-16 13:30N 40°40' W 074°09'4945773943.3
2018-Feb-16 13:30N 44°38' E 037°46'4153575085.6
2018-Feb-16 13:29N 23°49' E 117°36'1577157725.0
2018-Feb-16 13:29N 01°21' E 103°37'487810353.9
2018-Feb-16 13:00N 44°09' E 028°40'45775492712.4
2018-Feb-16 13:00N 24°26' E 117°52'5762648223.6
2018-Feb-16 13:00N 48°59' E 002°04'1489670098.5
2018-Feb-16 13:00N 44°38' E 037°46'4153467218.1
2018-Feb-16 12:59N 23°49' E 117°36'157772796.2
2018-Feb-16 12:58N 01°21' E 103°37'487810655.4
2018-Feb-16 12:30N 44°09' E 028°40'45775492712.4
2018-Feb-16 12:30N 24°26' E 117°52'97615856353.9
2018-Feb-16 12:30N 40°40' W 074°09'32823937985.2
2018-Feb-16 12:30N 48°57' E 002°03'1490191554.5
2018-Feb-16 12:30N 44°39' E 037°46'4153339801.5
2018-Feb-16 12:29N 23°49' E 117°36'1577567810.7
2018-Feb-16 12:29N 01°21' E 103°37'161919233.6
2018-Feb-16 12:24N 24°24' E 117°59'0 0.0
2018-Feb-16 12:00N 24°24' E 117°59'458416501817.0
2018-Feb-16 12:00N 44°09' E 028°40'1137818860.1
2018-Feb-16 12:00N 48°57' E 002°00'3280787183.0
2018-Feb-16 12:00N 40°40' W 074°09'97617027628.2
2018-Feb-16 12:00N 24°26' E 117°52'402104.2
2018-Feb-16 11:59N 23°49' E 117°36'157743344.3
2018-Feb-16 11:57N 01°21' E 103°37'487811142.2
2018-Feb-16 11:30N 44°09' E 028°40'4584916767.6
2018-Feb-16 11:30N 24°24' E 117°59'1619971295.1
2018-Feb-16 11:30N 01°21' E 103°37'16175821272.4
2018-Feb-16 11:30N 24°26' E 117°52'97611405524.2
2018-Feb-16 11:30N 40°40' W 074°09'32793934667.9
2018-Feb-16 11:30N 48°59' E 001°60'5784424941.3
2018-Feb-16 11:29N 23°49' E 117°36'5133831.8
2018-Feb-16 11:21N 31°59' E 120°27'4731404.5
2018-Feb-16 11:01N 24°26' E 117°52'45774119535.2
2018-Feb-16 11:00N 44°09' E 028°40'4560420923.2
2018-Feb-16 11:00N 40°40' W 074°09'9784517987.0
2018-Feb-16 10:59N 23°49' E 117°36'157730527.5
2018-Feb-16 10:56N 01°21' E 103°37'1619416269.6
2018-Feb-16 10:55N 24°24' E 117°59'100725.4
2018-Feb-16 10:47N 23°33' E 119°33'106382.1
2018-Feb-16 10:31N 24°26' E 117°52'976117569061.8
2018-Feb-16 10:30N 40°40' W 074°09'102331473528.1
2018-Feb-16 10:30N 01°21' E 103°37'157791582.4
2018-Feb-16 10:29N 23°49' E 117°36'412066.9
2018-Feb-16 10:28N 24°24' E 117°59'47141.5
2018-Feb-16 10:08N 23°44' E 117°33'46365.1
2018-Feb-16 10:01N 24°26' E 117°52'45775492713.6
2018-Feb-16 10:00N 44°09' E 028°40'45902753925.2
2018-Feb-16 10:00N 23°44' E 117°32'9785800616.9
2018-Feb-16 10:00N 40°40' W 074°09'9784482508.7
2018-Feb-16 09:58N 23°49' E 117°36'1577183164.8
2018-Feb-16 09:58N 01°21' E 103°37'15723444.0
2018-Feb-16 09:31N 23°44' E 117°33'4682149.5
2018-Feb-16 09:30N 24°26' E 117°52'457716478137.3
2018-Feb-16 09:30N 44°09' E 028°40'48781350783.4
2018-Feb-16 09:30N 01°21' E 103°37'102331416854.1
2018-Feb-16 09:30N 40°40' W 074°09'978455469.5
2018-Feb-16 09:19N 23°49' E 117°36'39323.8
2018-Feb-16 09:12N 24°25' E 117°52'45235.2
2018-Feb-16 09:01N 23°44' E 117°32'45903304632.3
2018-Feb-16 09:00N 44°09' E 028°40'45772059765.8
2018-Feb-16 09:00N 24°26' E 117°52'9761702762.0
2018-Feb-16 08:59N 40°40' W 074°09'102331473528.3
2018-Feb-16 08:59N 01°21' E 103°37'1577189270.4
2018-Feb-16 08:59N 23°49' E 117°36'42200.8
2018-Feb-16 08:46N 24°24' E 117°59'624.0
2018-Feb-16 08:30N 24°26' E 117°52'104932.0
2018-Feb-16 08:30N 24°27' E 118°03'45854126604.9
2018-Feb-16 08:30N 44°09' E 028°40'45902360742.1
2018-Feb-16 08:30N 23°44' E 117°33'97862709937.3
2018-Feb-16 08:30N 40°40' W 074°09'10233682189.0
2018-Feb-16 08:29N 01°21' E 103°37'157775708.1
2018-Feb-16 08:28N 23°49' E 117°36'511.9
2018-Feb-16 08:01N 23°44' E 117°33'45904131283.9
2018-Feb-16 08:00N 44°09' E 028°40'45841500329.3
2018-Feb-16 08:00N 24°25' E 118°00'73821.0
2018-Feb-16 08:00N 24°26' E 117°52'9761836622.0
2018-Feb-16 07:59N 40°40' W 074°09'102332833708.2
2018-Feb-16 07:59N 01°21' E 103°37'157761718.6
2018-Feb-16 07:58N 23°49' E 117°36'978421556.4
2018-Feb-16 07:30N 40°40' W 074°09'456016416008.5
2018-Feb-16 07:30N 44°09' E 028°40'4590446628.1
2018-Feb-16 07:30N 23°44' E 117°33'1572943068.2
2018-Feb-16 07:30N 01°21' E 103°37'1617161702.0
2018-Feb-16 07:29N 24°26' E 117°52'40145166.7
2018-Feb-16 07:29N 23°49' E 117°36'54586.6
2018-Feb-16 07:24N 24°32' E 118°10'4621802.9
2018-Feb-16 07:08N 31°58' E 120°27'4754539.4
2018-Feb-16 07:02N 24°19' E 118°07'471933.0
2018-Feb-16 07:01N 23°44' E 117°33'519581.9
2018-Feb-16 07:00N 23°49' E 117°36'15771892707.1
2018-Feb-16 07:00N 01°21' E 103°37'1617306382.6
2018-Feb-16 07:00N 24°26' E 117°52'167013.5
2018-Feb-16 07:00N 24°19' E 118°08'97802934114.8
2018-Feb-16 07:00N 40°40' W 074°09'97703908168.6
2018-Feb-16 07:00N 24°32' E 118°11'415416325.9
2018-Feb-16 06:44N 44°38' E 037°43'494221334.5
2018-Feb-16 06:30N 40°40' W 074°09'976135138123.7
2018-Feb-16 06:30N 24°26' E 117°52'4048388.9
2018-Feb-16 06:30N 23°49' E 117°36'41553739408.8
2018-Feb-16 06:30N 44°38' E 037°44'44712299220.2
2018-Feb-16 06:30N 01°21' E 103°37'157283211.8
2018-Feb-16 06:29N 23°44' E 117°33'602643.6
2018-Feb-16 06:28N 24°31' E 118°15'2145.7
2018-Feb-16 06:00N 24°26' E 117°52'457716478137.3
2018-Feb-16 06:00N 44°09' E 028°40'48785853391.6
2018-Feb-16 06:00N 01°21' E 103°37'1577946352.9
2018-Feb-16 06:00N 23°49' E 117°36'556579.9
2018-Feb-16 06:00N 24°31' E 118°14'60108452.8
2018-Feb-16 06:00N 23°44' E 117°33'415586461.5
2018-Feb-16 05:57N 44°38' E 037°44'390886.0
2018-Feb-16 05:30N 44°09' E 028°40'456016415994.5
2018-Feb-16 05:30N 40°40' W 074°09'97703517020.5
2018-Feb-16 05:30N 24°33' E 118°11'1865030.8
2018-Feb-16 05:30N 24°26' E 117°52'4024201.2
2018-Feb-16 05:30N 23°49' E 117°36'1577709760.1
2018-Feb-16 05:30N 01°21' E 103°37'44701462952.0
2018-Feb-16 05:30N 44°38' E 037°45'4155110787.5
2018-Feb-16 05:28N 23°44' E 117°33'46100.8
2018-Feb-16 05:00N 24°26' E 117°52'4577422516.1
2018-Feb-16 05:00N 44°09' E 028°40'45601824000.5
2018-Feb-16 05:00N 40°40' W 074°09'9786568213.4
2018-Feb-16 04:59N 23°44' E 117°33'15722829200.8
2018-Feb-16 04:59N 01°21' E 103°37'163126333.3
2018-Feb-16 04:55N 24°32' E 118°10'4152164239.4
2018-Feb-16 04:53N 44°38' E 037°45'414755707.6
2018-Feb-16 04:49N 24°24' E 117°58'161919231.3
2018-Feb-16 04:44N 01°21' E 103°37'176711061.0
2018-Feb-16 04:34N 25°10' E 121°24'1872993.8
2018-Feb-16 04:30N 24°27' E 118°03'458516507279.3
2018-Feb-16 04:30N 44°09' E 028°40'457716478140.8
2018-Feb-16 04:30N 24°26' E 117°52'16171455317.2
2018-Feb-16 04:30N 01°21' E 103°37'014.2
2018-Feb-16 04:30N 01°21' E 103°37'10233877098.9
2018-Feb-16 04:29N 40°40' W 074°09'9786382926.6
2018-Feb-16 04:27N 23°44' E 117°33'2271452.4
2018-Feb-16 04:18N 25°10' E 121°23'4279152534.0
2018-Feb-16 04:16N 44°38' E 037°44'3901468.9
2018-Feb-16 04:00N 44°09' E 028°40'48785853390.5
2018-Feb-16 04:00N 01°21' E 103°37'0156.6
2018-Feb-16 04:00N 01°21' E 103°37'1617485156.7
2018-Feb-16 04:00N 24°26' E 117°52'976135138123.7
2018-Feb-16 04:00N 40°40' W 074°09'97683196786.7
2018-Feb-16 04:00N 24°24' E 117°59'4715437.8
2018-Feb-16 04:00N 23°44' E 117°33'4155182408.9
2018-Feb-16 03:58N 44°38' E 037°44'427857891.2
2018-Feb-16 03:54N 25°09' E 121°21'471412045.0
2018-Feb-16 03:30N 44°09' E 028°40'456016416020.6
2018-Feb-16 03:30N 40°40' W 074°09'1023312279400.7
2018-Feb-16 03:30N 01°21' E 103°37'1617831610.1
2018-Feb-16 03:30N 24°26' E 117°52'4142129649.4
2018-Feb-16 03:28N 44°38' E 037°45'42781711325.2
2018-Feb-16 03:28N 25°09' E 121°23'22647910.7
2018-Feb-16 03:28N 23°44' E 117°33'442929861.5
2018-Feb-16 03:19S 18°08' E 178°26'0 0.0
2018-Feb-16 03:18S 18°08' E 178°26'442517999.5
2018-Feb-16 03:03N 24°32' E 118°10'1794629.2
2018-Feb-16 03:00N 25°10' E 121°23'47168488142.2
2018-Feb-16 03:00N 44°09' E 028°40'48782195022.3
2018-Feb-16 03:00N 01°21' E 103°37'16172910634.3
2018-Feb-16 03:00N 24°26' E 117°52'97611211659.4
2018-Feb-16 03:00N 40°40' W 074°09'152753927971.5
2018-Feb-16 03:00S 18°08' E 178°26'0 0.0
2018-Feb-16 02:58S 18°08' E 178°26'4425201639.7
2018-Feb-16 02:57N 24°32' E 118°10'592335.7
2018-Feb-16 02:55N 23°44' E 117°33'15723790.0
2018-Feb-16 02:30N 01°21' E 103°37'1617215602.7
2018-Feb-16 02:30N 24°26' E 117°52'97613904236.0
2018-Feb-16 02:30N 40°40' W 074°09'977035172000.7
2018-Feb-16 02:30N 24°32' E 118°10'44251327461.4
2018-Feb-16 02:30S 18°08' E 178°26'4430270327.4
2018-Feb-16 02:29N 23°44' E 117°32'4430549976.4
2018-Feb-16 02:28S 18°08' E 178°26'9038204629.5
2018-Feb-16 02:25N 44°38' E 037°45'416311335.3
2018-Feb-16 02:03N 24°21' E 118°14'459992483.8
2018-Feb-16 02:00N 44°09' E 028°40'459816553781.3
2018-Feb-16 02:00N 24°21' E 118°14'16235844122.9
2018-Feb-16 02:00N 01°21' E 103°37'1572628720.2
2018-Feb-16 02:00N 23°44' E 117°33'97861957175.6
2018-Feb-16 02:00N 40°40' W 074°09'152752199662.7
2018-Feb-16 02:00S 18°08' E 178°26'0 0.0
2018-Feb-16 01:58S 18°08' E 178°26'442516490.2
2018-Feb-16 01:41N 24°32' E 118°10'458825024.3
2018-Feb-16 01:30N 44°09' E 028°40'459016525165.1
2018-Feb-16 01:30N 23°44' E 117°33'4682129.6
2018-Feb-16 01:30N 24°26' E 117°52'1761910.5
2018-Feb-16 01:30N 24°19' E 118°10'4419324629.9
2018-Feb-16 01:30S 18°08' E 178°26'15275981992.8
2018-Feb-16 01:29N 40°40' W 074°09'152751718486.6
2018-Feb-16 01:28S 18°08' E 178°26'4592384441.8
2018-Feb-16 01:27N 01°21' E 103°37'487810866.5
2018-Feb-16 01:00N 44°09' E 028°40'45898260939.0
2018-Feb-16 01:00N 23°44' E 117°32'467462.5
2018-Feb-16 01:00N 24°26' E 117°52'153827.0
2018-Feb-16 01:00N 24°20' E 118°07'97793200529.5
2018-Feb-16 01:00N 40°40' W 074°09'1527513747895.0
2018-Feb-16 01:00S 18°08' E 178°26'0 0.2
2018-Feb-16 00:58S 18°08' E 178°26'4592311905.6
2018-Feb-16 00:57N 01°21' E 103°37'487810934.1
2018-Feb-16 00:30N 44°09' E 028°40'45773295631.6
2018-Feb-16 00:30N 24°26' E 117°52'97617027624.7
2018-Feb-16 00:30N 40°40' W 074°09'978517612645.9
2018-Feb-16 00:30N 23°44' E 117°32'1572471506.4
2018-Feb-16 00:30N 01°21' E 103°37'4592570034.6
2018-Feb-16 00:30S 18°08' E 178°26'0 0.5
2018-Feb-16 00:28S 18°08' E 178°26'951920655.7
2018-Feb-16 00:00N 44°09' E 028°40'48784390044.0
2018-Feb-16 00:00N 01°21' E 103°37'16172910637.1
2018-Feb-16 00:00N 24°26' E 117°52'4436325946.0
2018-Feb-16 00:00S 18°08' E 178°26'152753927972.5
2018-Feb-15 23:59N 40°40' W 074°09'152753666106.7
2018-Feb-15 23:59S 18°08' E 178°26'951919958.0
2018-Feb-15 23:30N 44°09' E 028°40'45602052004.3
2018-Feb-15 23:30N 40°40' W 074°09'97847044637.7
2018-Feb-15 23:30N 23°49' E 117°36'44291594509.9
2018-Feb-15 23:30S 18°08' E 178°26'4592826549.4
2018-Feb-15 23:30N 01°21' E 103°37'16172910635.2
2018-Feb-15 23:30N 24°26' E 117°52'195966.1
2018-Feb-15 23:18N 25°09' E 121°22'429215451426.4
2018-Feb-15 23:18S 18°08' E 178°26'443615612.3
2018-Feb-15 23:01N 24°26' E 117°52'976117569070.4
2018-Feb-15 23:00N 40°40' W 074°09'45608208009.3
2018-Feb-15 23:00N 44°09' E 028°40'48782926698.0
2018-Feb-15 23:00N 01°21' E 103°37'4592359369.7
2018-Feb-15 23:00S 18°08' E 178°26'0 0.7
2018-Feb-15 22:59S 18°08' E 178°26'4429187590.1
2018-Feb-15 22:58N 23°49' E 117°36'2212986.8
2018-Feb-15 22:53N 25°09' E 121°22'471512443.6
2018-Feb-15 22:30N 44°09' E 028°40'48784390047.9
2018-Feb-15 22:30N 01°21' E 103°37'16171455318.1
2018-Feb-15 22:30N 24°26' E 117°52'4436354918.9
2018-Feb-15 22:30S 18°08' E 178°26'152759165268.5
2018-Feb-15 22:29N 40°40' W 074°09'97682068520.6
2018-Feb-15 22:29N 24°24' E 117°59'4430408925.1
2018-Feb-15 22:29S 18°08' E 178°26'442965889.0
2018-Feb-15 22:25N 23°49' E 117°36'40100.8
2018-Feb-15 22:00N 24°26' E 117°52'45775492718.2
2018-Feb-15 22:00N 44°09' E 028°40'459016523640.0
2018-Feb-15 22:00N 23°49' E 117°36'4137208.1
2018-Feb-15 22:00N 24°24' E 117°59'976811721622.4
2018-Feb-15 22:00N 40°40' W 074°09'152751249809.4
2018-Feb-15 22:00S 18°08' E 178°26'0 0.7
2018-Feb-15 21:58S 18°08' E 178°26'4592317903.7
2018-Feb-15 21:57N 01°21' E 103°37'1023322952.2
2018-Feb-15 21:30N 40°40' W 074°09'456016415992.6
2018-Feb-15 21:30N 44°09' E 028°40'45901835958.4
2018-Feb-15 21:30N 23°49' E 117°36'15771135622.1
2018-Feb-15 21:30N 01°21' E 103°37'4592435026.4
2018-Feb-15 21:30S 18°08' E 178°26'4430295335.3
2018-Feb-15 21:29N 24°24' E 117°59'4430234530.6
2018-Feb-15 21:28S 18°08' E 178°26'951921087.9
2018-Feb-15 21:00N 44°09' E 028°40'4590917978.2
2018-Feb-15 21:00N 23°49' E 117°36'4048395.6
2018-Feb-15 21:00N 24°26' E 117°52'44363194265.2
2018-Feb-15 21:00S 18°08' E 178°26'152753927914.7
2018-Feb-15 21:00N 40°39' W 074°09'152753436927.1
2018-Feb-15 21:00S 18°08' E 178°26'4592344395.9
2018-Feb-15 20:59N 01°21' E 103°37'487810341.7
2018-Feb-15 20:30N 44°09' E 028°40'4878798190.0
2018-Feb-15 20:30N 01°21' E 103°37'459216531001.8
2018-Feb-15 20:30S 18°08' E 178°26'4436591531.1
2018-Feb-15 20:30N 24°26' E 117°52'44367985676.0
2018-Feb-15 20:30S 18°08' E 178°26'15275981991.9
2018-Feb-15 20:29N 40°38' W 074°09'9785363153.0
2018-Feb-15 20:27N 23°49' E 117°36'978522112.9
2018-Feb-15 20:00N 40°38' W 074°09'456116418216.0
2018-Feb-15 20:00N 44°09' E 028°40'45778239068.6
2018-Feb-15 20:00N 24°26' E 117°52'4436319427.0
2018-Feb-15 20:00S 18°08' E 178°26'4592516593.8
2018-Feb-15 19:59N 01°21' E 103°37'4592285017.2
2018-Feb-15 19:58S 18°08' E 178°26'951920668.2
2018-Feb-15 19:30N 44°09' E 028°40'45775492712.4
2018-Feb-15 19:30N 24°26' E 117°52'97615856821.2
2018-Feb-15 19:30N 40°38' W 074°09'102332455917.8
2018-Feb-15 19:30N 01°21' E 103°37'4592590393.0
2018-Feb-15 19:30S 18°08' E 178°26'0 0.0
2018-Feb-15 19:28S 18°08' E 178°26'442983047.8
2018-Feb-15 19:25N 23°49' E 117°36'459011278.9
2018-Feb-15 19:00N 44°09' E 028°40'48783512036.3
2018-Feb-15 19:00N 01°21' E 103°37'16175821272.4
2018-Feb-15 19:00N 24°26' E 117°52'97612342728.5
2018-Feb-15 19:00N 40°38' W 074°09'152751666412.2
2018-Feb-15 19:00S 18°08' E 178°26'0 0.5
2018-Feb-15 18:58S 18°08' E 178°26'4429185408.7
2018-Feb-15 18:57N 23°49' E 117°36'50991608.7
2018-Feb-15 18:56N 31°40' E 121°13'28603.1
2018-Feb-15 18:54N 31°12' E 121°07'445811562.7
2018-Feb-15 18:30N 44°09' E 028°40'45773295628.2
2018-Feb-15 18:30N 24°26' E 117°52'97612703149.6
2018-Feb-15 18:30N 40°38' W 074°09'102337367754.2
2018-Feb-15 18:30N 01°21' E 103°37'4592570034.7
2018-Feb-15 18:30S 18°08' E 178°26'45321255048.5
2018-Feb-15 18:29N 31°40' E 121°13'4532217541.7
2018-Feb-15 18:28S 18°08' E 178°26'451856674.5
2018-Feb-15 18:23N 31°29' E 121°23'0 2.1
2018-Feb-15 18:17N 31°29' E 121°24'446016316.5
2018-Feb-15 18:00N 44°09' E 028°40'4577969302.4
2018-Feb-15 18:00N 24°26' E 117°52'44361996403.4
2018-Feb-15 18:00S 18°08' E 178°26'152753666096.0
2018-Feb-15 18:00N 40°38' W 074°09'152753666106.0
2018-Feb-15 18:00S 18°08' E 178°26'4520346236.1
2018-Feb-15 17:59N 31°12' E 121°07'2056231265.4
2018-Feb-15 17:58N 01°21' E 103°37'2078155847.3
2018-Feb-15 17:57N 31°29' E 121°23'13168.6
2018-Feb-15 17:53N 31°40' E 121°13'444512032.2
2018-Feb-15 17:30N 44°09' E 028°40'45772354020.1
2018-Feb-15 17:30N 24°26' E 117°52'462104060.1
2018-Feb-15 17:30N 31°29' E 121°23'4518542185.6
2018-Feb-15 17:30S 18°08' E 178°26'4532526311.1
2018-Feb-15 17:29N 31°40' E 121°13'4532526310.1
2018-Feb-15 17:29S 18°08' E 178°26'45922066374.7
2018-Feb-15 17:28N 01°21' E 103°37'162510177.0
2018-Feb-15 17:19N 24°29' E 118°04'1136.8
2018-Feb-15 17:00N 24°26' E 117°52'45775492712.4
2018-Feb-15 17:00N 44°09' E 028°40'9519671919.3
2018-Feb-15 17:00S 18°08' E 178°26'152751486259.2
2018-Feb-15 16:59N 40°38' W 074°09'102332455917.7
2018-Feb-15 16:59N 01°21' E 103°37'208245155.2
2018-Feb-15 16:56N 31°40' E 121°13'46235385.5
2018-Feb-15 16:55N 24°29' E 118°04'43415959.1
2018-Feb-15 16:54N 31°12' E 121°07'2274.7
2018-Feb-15 16:36N 31°30' E 121°22'445949387.1
2018-Feb-15 16:30N 44°09' E 028°40'45771830904.1
2018-Feb-15 16:30N 24°26' E 117°52'4436354918.6
2018-Feb-15 16:30S 18°08' E 178°26'021.6
2018-Feb-15 16:30S 18°08' E 178°26'45192033763.9
2018-Feb-15 16:29N 31°30' E 121°22'121593.0
2018-Feb-15 16:29N 31°40' E 121°13'94813413056.3
2018-Feb-15 16:29N 40°38' W 074°09'10233145607.8
2018-Feb-15 16:25N 01°21' E 103°37'16259229.9
2018-Feb-15 16:14N 24°29' E 118°04'458520276.8
2018-Feb-15 16:00N 44°09' E 028°40'4577915452.1
2018-Feb-15 16:00N 24°26' E 117°52'44145377.4
2018-Feb-15 16:00N 31°12' E 121°07'452016273094.7
2018-Feb-15 16:00S 18°08' E 178°26'0 0.7
2018-Feb-15 15:59S 18°08' E 178°26'4592239579.7
2018-Feb-15 15:58N 01°21' E 103°37'208290309.9
2018-Feb-15 15:57N 31°40' E 121°13'12239.8
2018-Feb-15 15:53N 31°30' E 121°22'9498449917.7
2018-Feb-15 15:52N 40°38' W 074°09'976126825.1
2018-Feb-15 15:30N 24°26' E 117°52'4577531552.8
2018-Feb-15 15:30N 44°09' E 028°40'44581234544.9
2018-Feb-15 15:30N 31°12' E 121°07'4520524938.1
2018-Feb-15 15:29S 18°08' E 178°26'4592239579.7
2018-Feb-15 15:28N 01°21' E 103°37'208265180.1
2018-Feb-15 15:26N 31°40' E 121°13'12287.7
2018-Feb-15 15:23N 31°30' E 121°22'9498104568.0
2018-Feb-15 15:18N 40°38' W 074°09'456115651.3
2018-Feb-15 15:00N 44°09' E 028°40'48782508595.9
2018-Feb-15 15:00N 01°21' E 103°37'1617415804.9
2018-Feb-15 15:00N 24°26' E 117°52'463138781.0
2018-Feb-15 15:00N 31°30' E 121°22'223766.6
2018-Feb-15 15:00N 31°12' E 121°07'452016273094.7
2018-Feb-15 15:00S 18°08' E 178°26'0 0.0
2018-Feb-15 14:59S 18°08' E 178°26'15275566923.1
2018-Feb-15 14:57N 40°38' W 074°09'9500319617.6
2018-Feb-15 14:55N 31°29' E 121°24'4076143866.7
2018-Feb-15 14:53N 45°19' E 036°31'4209797522.2
2018-Feb-15 14:53N 23°49' E 117°36'459012043.3
2018-Feb-15 14:30N 44°09' E 028°40'4561410462.7
2018-Feb-15 14:30N 40°38' W 074°09'950411405226.3
2018-Feb-15 14:30N 31°12' E 121°07'44127863.3
2018-Feb-15 14:29N 24°26' E 117°52'44363194267.8
2018-Feb-15 14:29S 18°08' E 178°26'4519126124.8
2018-Feb-15 14:26N 31°30' E 121°22'50390530.7
2018-Feb-15 14:26N 23°49' E 117°36'5031614.8
2018-Feb-15 14:07N 31°29' E 121°23'446038594.8
2018-Feb-15 14:00N 44°09' E 028°40'45778238977.7
2018-Feb-15 14:00N 24°26' E 117°52'97611351572.7
2018-Feb-15 14:00N 40°38' W 074°09'94986838752.3
2018-Feb-15 14:00N 31°30' E 121°22'4519903895.0
2018-Feb-15 14:00S 18°08' E 178°26'45205424364.9
2018-Feb-15 14:00N 31°12' E 121°07'22960.5
2018-Feb-15 13:58N 31°29' E 121°23'45185421850.7
2018-Feb-15 13:58S 18°08' E 178°26'4429121718.8
2018-Feb-15 13:56N 23°49' E 117°36'50345274.9
2018-Feb-15 13:55N 31°29' E 121°24'171019.0
2018-Feb-15 13:54N 31°13' E 121°30'2068676749.9
2018-Feb-15 13:54N 01°21' E 103°37'208230347.3
2018-Feb-15 13:50N 31°40' E 121°13'444513677.6
2018-Feb-15 13:30N 44°09' E 028°40'45611824276.8
2018-Feb-15 13:30N 40°38' W 074°09'97851761292.0
2018-Feb-15 13:30N 23°49' E 117°36'4029037.4
2018-Feb-15 13:30N 24°26' E 117°52'1617646807.8
2018-Feb-15 13:30N 01°21' E 103°37'45921653100.5
2018-Feb-15 13:30S 18°08' E 178°26'0 0.2
2018-Feb-15 13:28S 18°08' E 178°26'4518338865.4
2018-Feb-15 13:27N 31°29' E 121°23'131126.3
2018-Feb-15 13:27N 31°40' E 121°13'13353.7
2018-Feb-15 13:24N 31°29' E 121°24'1204.5
2018-Feb-15 13:24N 31°30' E 121°22'1752.9
2018-Feb-15 13:04N 31°14' E 121°30'447569140.6
2018-Feb-15 13:00N 44°09' E 028°40'48782195021.4
2018-Feb-15 13:00N 01°21' E 103°37'1023336838718.2
2018-Feb-15 13:00N 40°38' W 074°09'950011399831.7
2018-Feb-15 13:00N 31°29' E 121°23'462554987.2
2018-Feb-15 13:00N 24°26' E 117°52'45146375.4
2018-Feb-15 13:00N 31°14' E 121°30'45043242984.0
2018-Feb-15 13:00S 18°08' E 178°26'45182033210.4
2018-Feb-15 12:59N 31°29' E 121°24'503139307.5
2018-Feb-15 12:59N 23°49' E 117°36'48254170.6
2018-Feb-15 12:59N 31°12' E 121°07'4520169511.2
2018-Feb-15 12:57S 18°08' E 178°26'4519417181.9
2018-Feb-15 12:56N 31°30' E 121°22'445910308.8
2018-Feb-15 12:30N 44°09' E 028°40'4561820912.2
2018-Feb-15 12:30N 40°38' W 074°09'97612510064.9
2018-Feb-15 12:30N 24°26' E 117°52'462416240.4
2018-Feb-15 12:30N 31°29' E 121°23'503201132.8
2018-Feb-15 12:30N 23°49' E 117°36'44293189034.9
2018-Feb-15 12:30S 18°08' E 178°26'014.4
2018-Feb-15 12:30S 18°08' E 178°26'452016273064.5
2018-Feb-15 12:30N 31°12' E 121°07'2211299.9
2018-Feb-15 12:29N 31°30' E 121°22'207892351.2
2018-Feb-15 12:28N 01°21' E 103°37'20681489293.5
2018-Feb-15 12:28N 31°15' E 121°29'4511028.3
2018-Feb-15 12:02N 24°24' E 117°59'9769488440.1
2018-Feb-15 12:00N 40°38' W 074°09'45618209137.9
2018-Feb-15 12:00N 44°09' E 028°40'48788780084.9
2018-Feb-15 12:00N 01°21' E 103°37'16191456941.2
2018-Feb-15 12:00N 24°24' E 117°59'6787.0
2018-Feb-15 12:00N 24°26' E 117°52'462832480.8
2018-Feb-15 12:00N 31°29' E 121°23'4518956798.1
2018-Feb-15 12:00S 18°08' E 178°26'4520301353.6
2018-Feb-15 11:59N 31°12' E 121°07'45202712177.4
2018-Feb-15 11:59S 18°08' E 178°26'4504205248.0
2018-Feb-15 11:57N 31°14' E 121°30'4501011.4
2018-Feb-15 11:31N 24°24' E 117°59'622822.6
2018-Feb-15 11:31N 24°26' E 117°52'45774119539.5
2018-Feb-15 11:30N 44°09' E 028°40'48784390046.7
2018-Feb-15 11:30N 01°21' E 103°37'2056151030.4
2018-Feb-15 11:30N 31°12' E 121°07'95046843146.8
2018-Feb-15 11:29N 40°38' W 074°09'152752115062.1
2018-Feb-15 11:29S 18°08' E 178°26'451884277.6
2018-Feb-15 11:26N 31°29' E 121°23'15728.3
2018-Feb-15 11:25N 31°15' E 121°30'1641.9
2018-Feb-15 11:02N 31°29' E 121°24'4460142083.7
2018-Feb-15 11:00N 44°09' E 028°40'45842357402.4
2018-Feb-15 11:00N 24°24' E 117°59'622822.6
2018-Feb-15 11:00N 24°26' E 117°52'97611597314.9
2018-Feb-15 11:00N 40°38' W 074°09'152752499617.7
2018-Feb-15 11:00S 18°08' E 178°26'45181251197.5
2018-Feb-15 10:59N 31°29' E 121°23'2078249355.6
2018-Feb-15 10:59N 01°21' E 103°37'2056462530.6
2018-Feb-15 10:59N 31°12' E 121°07'4520542436.0
2018-Feb-15 10:58S 18°08' E 178°26'450434947.2
2018-Feb-15 10:50N 31°14' E 121°30'16101.7
2018-Feb-15 10:41N 31°29' E 121°24'446025895.9
2018-Feb-15 10:30N 44°09' E 028°40'48784390042.8
2018-Feb-15 10:30N 01°21' E 103°37'16171164253.7
2018-Feb-15 10:30N 24°26' E 117°52'462416240.4
2018-Feb-15 10:30N 31°29' E 121°23'4518387275.4
2018-Feb-15 10:30S 18°08' E 178°26'443015948106.0
2018-Feb-15 10:30N 24°24' E 117°59'9769817853.2
2018-Feb-15 10:29N 40°38' W 074°09'152753436975.6
2018-Feb-15 10:29S 18°08' E 178°26'4504108104.5
2018-Feb-15 10:26N 31°15' E 121°30'162334.0
2018-Feb-15 10:26N 31°29' E 121°24'38014560.2
2018-Feb-15 10:24N 25°09' E 121°23'222605.1
2018-Feb-15 10:02N 23°49' E 117°36'401528.3
2018-Feb-15 10:00N 24°26' E 117°52'16171455315.7
2018-Feb-15 10:00N 01°21' E 103°37'17666358835.8
2018-Feb-15 10:00N 25°10' E 121°23'47161131799.9
2018-Feb-15 10:00N 44°09' E 028°40'44604013864.2
2018-Feb-15 10:00N 31°29' E 121°24'4518542189.4
2018-Feb-15 10:00S 18°08' E 178°26'452016273094.7
2018-Feb-15 10:00N 31°12' E 121°07'95048553928.5
2018-Feb-15 09:59N 40°38' W 074°09'15275670629.2
2018-Feb-15 09:58S 18°08' E 178°26'4518338865.4
2018-Feb-15 09:57N 31°29' E 121°23'45611008.5
2018-Feb-15 09:55N 24°29' E 118°04'481582.3
2018-Feb-15 09:53N 23°49' E 117°36'15774187.4
2018-Feb-15 09:30N 01°21' E 103°37'48781032951.6
2018-Feb-15 09:30N 44°09' E 028°40'95191038420.7
2018-Feb-15 09:30S 18°08' E 178°26'45208136547.3
2018-Feb-15 09:30N 31°12' E 121°07'95048553928.5
2018-Feb-15 09:29N 40°38' W 074°09'976117570472.7
2018-Feb-15 09:29N 24°26' E 117°52'19735415.6
2018-Feb-15 09:29N 25°09' E 121°24'22280074.7
2018-Feb-15 09:29N 23°49' E 117°36'483669.5
2018-Feb-15 09:28N 24°29' E 118°04'44285314015.3
2018-Feb-15 09:28S 18°08' E 178°26'451866389.9
2018-Feb-15 09:24N 31°29' E 121°23'0 0.5
2018-Feb-15 09:17N 31°29' E 121°23'446015975.9
2018-Feb-15 09:00N 44°09' E 028°40'47153394669.5
2018-Feb-15 09:00N 25°09' E 121°22'195117045.9
2018-Feb-15 09:00N 24°26' E 117°52'462184995.7
2018-Feb-15 09:00N 31°29' E 121°23'45184066391.8
2018-Feb-15 09:00S 18°08' E 178°26'44281138719.4
2018-Feb-15 09:00N 24°29' E 118°04'44281138719.4
2018-Feb-15 09:00S 18°08' E 178°26'152756873948.7
2018-Feb-15 08:59N 40°38' W 074°09'9504645579.2
2018-Feb-15 08:59N 31°12' E 121°07'48261909.3
2018-Feb-15 08:58N 23°49' E 117°36'1577167003.0
2018-Feb-15 08:58N 01°21' E 103°37'228616897.9
2018-Feb-15 08:49N 36°02' E 120°14'2961348.7
2018-Feb-15 08:36N 31°13' E 121°30'4965765.3
2018-Feb-15 08:31N 23°44' E 117°33'4590434873.6
2018-Feb-15 08:30N 44°09' E 028°40'45775492713.6
2018-Feb-15 08:30N 24°26' E 117°52'196235566.2
2018-Feb-15 08:30N 25°10' E 121°23'1766908315.3
2018-Feb-15 08:30N 01°21' E 103°37'102336139796.7
2018-Feb-15 08:30N 40°38' W 074°09'152751617400.3
2018-Feb-15 08:30S 18°08' E 178°26'45205424364.9
2018-Feb-15 08:30N 31°12' E 121°07'43437237.9
2018-Feb-15 08:29N 24°29' E 118°04'702105366.2
2018-Feb-15 08:28N 36°02' E 120°14'4739853086.9
2018-Feb-15 08:28S 18°08' E 178°26'4429498286.3
2018-Feb-15 08:28N 23°49' E 117°36'50919084.9
2018-Feb-15 08:26N 31°40' E 121°13'301045.5
2018-Feb-15 08:24N 31°13' E 121°30'1 7.9
2018-Feb-15 08:20N 31°14' E 121°30'1761.8
2018-Feb-15 08:03N 31°30' E 121°22'50311681.4
2018-Feb-15 08:00N 23°49' E 117°36'459016523611.3
2018-Feb-15 08:00N 44°09' E 028°40'456116418275.9
2018-Feb-15 08:00N 40°38' W 074°09'976111713648.4
2018-Feb-15 08:00N 24°26' E 117°52'4618239.4
2018-Feb-15 08:00N 23°44' E 117°32'4430389008.0
2018-Feb-15 08:00S 18°08' E 178°26'010.8
2018-Feb-15 08:00S 18°08' E 178°26'452016273079.6
2018-Feb-15 08:00N 31°12' E 121°07'2056411138.5
2018-Feb-15 07:59N 01°21' E 103°37'1625130039.6
2018-Feb-15 07:58N 24°29' E 118°04'45619768.5
2018-Feb-15 07:57N 31°30' E 121°22'12685.4
2018-Feb-15 07:56N 31°40' E 121°13'39043912.4
2018-Feb-15 07:55N 25°09' E 121°23'6566503.6
2018-Feb-15 07:49N 36°02' E 120°14'2842312.6
2018-Feb-15 07:42N 31°25' E 121°29'446623102.4
2018-Feb-15 07:30N 44°09' E 028°40'45774119535.2
2018-Feb-15 07:30N 24°26' E 117°52'112893.2
2018-Feb-15 07:30N 24°29' E 118°04'976835166554.2
2018-Feb-15 07:30N 40°38' W 074°09'152751617399.9
2018-Feb-15 07:30S 18°08' E 178°26'45205424359.9
2018-Feb-15 07:30N 31°12' E 121°07'487250367.8
2018-Feb-15 07:29N 23°44' E 117°33'1572282923.0
2018-Feb-15 07:29N 01°21' E 103°37'1577516191.2
2018-Feb-15 07:29N 23°49' E 117°36'5036679.7
2018-Feb-15 07:24N 31°29' E 121°23'0 2.2
2018-Feb-15 07:23N 31°29' E 121°23'2795105.4
2018-Feb-15 07:19N 36°02' E 120°14'76421996.0
2018-Feb-15 07:17N 23°35' E 117°15'52986583.3
2018-Feb-15 07:17N 31°40' E 121°13'1293.9
2018-Feb-15 07:09N 31°30' E 121°22'445931046.1
2018-Feb-15 07:00N 44°09' E 028°40'45772746356.8
2018-Feb-15 07:00N 24°26' E 117°52'4623450.7
2018-Feb-15 07:00N 23°44' E 117°32'4430370914.6
2018-Feb-15 07:00S 18°08' E 178°26'452016273094.7
2018-Feb-15 07:00N 31°12' E 121°07'283147.7
2018-Feb-15 06:59N 31°40' E 121°13'509152679.5
2018-Feb-15 06:59N 23°49' E 117°36'97851853993.5
2018-Feb-15 06:58N 40°38' W 074°09'152752199663.0
2018-Feb-15 06:58S 18°08' E 178°26'4532418360.2
2018-Feb-15 06:57N 31°39' E 121°13'462110810.3
2018-Feb-15 06:57N 24°29' E 118°04'70254973.5
2018-Feb-15 06:56N 36°02' E 120°13'228682292.1
2018-Feb-15 06:55N 01°21' E 103°37'207812941.9
2018-Feb-15 06:45N 31°30' E 121°22'445918260.3
2018-Feb-15 06:30N 44°09' E 028°40'459016522249.0
2018-Feb-15 06:30N 23°44' E 117°32'15722829272.1
2018-Feb-15 06:30N 01°21' E 103°37'4592337367.5
2018-Feb-15 06:30S 18°08' E 178°26'44361228565.5
2018-Feb-15 06:29N 24°26' E 117°52'11562.6
2018-Feb-15 06:28N 24°29' E 118°04'9768184118.1
2018-Feb-15 06:25N 40°38' W 074°09'152752115061.4
2018-Feb-15 06:25S 18°08' E 178°26'4429664381.3
2018-Feb-15 06:24N 23°49' E 117°36'503603411.5
2018-Feb-15 06:24N 31°29' E 121°23'95335.9
2018-Feb-15 06:24N 31°36' E 121°17'263188.5
2018-Feb-15 06:24N 31°12' E 121°07'500224807.4
2018-Feb-15 06:23N 23°38' E 117°14'5279251.5
2018-Feb-15 06:20N 31°40' E 121°13'13125.7
2018-Feb-15 06:14N 31°29' E 121°24'0 1.0
2018-Feb-15 06:00N 31°29' E 121°23'20787480686.8
2018-Feb-15 06:00N 01°21' E 103°37'16171455316.7
2018-Feb-15 06:00N 24°26' E 117°52'45771267549.3
2018-Feb-15 06:00N 44°09' E 028°40'95191038420.6
2018-Feb-15 06:00S 18°08' E 178°26'4532466162.0
2018-Feb-15 05:59N 31°40' E 121°13'94812844211.5
2018-Feb-15 05:59N 40°38' W 074°09'95042138482.3
2018-Feb-15 05:59N 31°12' E 121°07'4520650923.2
2018-Feb-15 05:58S 18°08' E 178°26'4428339192.7
2018-Feb-15 05:57N 24°29' E 118°04'694438.4
2018-Feb-15 05:56N 23°38' E 117°14'1808101.0
2018-Feb-15 05:55N 22°35' E 120°17'53718599.8
2018-Feb-15 05:53N 31°29' E 121°24'5031378.2
2018-Feb-15 05:31N 23°49' E 117°36'4590284890.0
2018-Feb-15 05:30N 44°09' E 028°40'44601783952.9
2018-Feb-15 05:30N 31°29' E 121°23'078.3
2018-Feb-15 05:30N 31°29' E 121°24'45183253133.6
2018-Feb-15 05:30S 18°08' E 178°26'45921836777.9
2018-Feb-15 05:30N 01°21' E 103°37'20801247854.5
2018-Feb-15 05:30N 31°31' E 121°24'510612015.1
2018-Feb-15 05:30N 23°44' E 117°33'4627383.2
2018-Feb-15 05:30N 24°26' E 117°52'44363194270.4
2018-Feb-15 05:30S 18°08' E 178°26'4532479873.4
2018-Feb-15 05:29N 31°40' E 121°13'94811066577.8
2018-Feb-15 05:28N 40°38' W 074°09'978511741971.8
2018-Feb-15 05:28N 23°49' E 117°36'23684.1
2018-Feb-15 05:26N 23°38' E 117°14'1808308.7
2018-Feb-15 05:25N 22°35' E 120°17'167100045.1
2018-Feb-15 05:25N 24°29' E 118°04'962116.3
2018-Feb-15 05:22N 23°37' E 119°32'4696971.4
2018-Feb-15 05:18N 31°13' E 121°30'24308.0
2018-Feb-15 05:14N 31°35' E 121°18'5249879.8
2018-Feb-15 05:10N 23°37' E 117°14'52256892.3
2018-Feb-15 05:10N 31°30' E 121°22'949860735.0
2018-Feb-15 05:00N 40°38' W 074°09'456116418259.9
2018-Feb-15 05:00N 44°09' E 028°40'45895507283.1
2018-Feb-15 05:00N 23°44' E 117°32'1966790.6
2018-Feb-15 05:00N 23°36' E 117°14'12664888.3
2018-Feb-15 05:00N 23°34' E 119°31'4327362226.9
2018-Feb-15 05:00S 18°08' E 178°26'043.2
2018-Feb-15 05:00S 18°08' E 178°26'45208136532.3
2018-Feb-15 05:00N 31°12' E 121°07'50486456.2
2018-Feb-15 04:59N 23°32' E 117°15'6423035.1
2018-Feb-15 04:59N 24°26' E 117°52'1617223895.1
2018-Feb-15 04:59N 01°21' E 103°37'2082535414.3
2018-Feb-15 04:58N 31°40' E 121°13'547163990.5
2018-Feb-15 04:58N 22°35' E 120°17'538113843.1
2018-Feb-15 04:58N 31°30' E 121°22'45674581.1
2018-Feb-15 04:57N 24°29' E 118°04'711499.6
2018-Feb-15 04:55N 23°35' E 117°14'67820.5
2018-Feb-15 04:50N 24°20' E 118°08'7117993.6
2018-Feb-15 04:44N 36°02' E 120°14'2798170.4
2018-Feb-15 04:42N 31°29' E 121°24'1371.1
2018-Feb-15 04:31N 31°39' E 121°13'4445372154.2
2018-Feb-15 04:30N 44°09' E 028°40'45908262661.5
2018-Feb-15 04:30N 23°44' E 117°33'2072658.3
2018-Feb-15 04:30N 23°31' E 117°16'097.6
2018-Feb-15 04:30N 23°31' E 117°15'73262925.7
2018-Feb-15 04:30N 24°29' E 118°04'114500.6
2018-Feb-15 04:30N 24°26' E 117°52'16171164255.2
2018-Feb-15 04:30N 01°21' E 103°37'4592826550.2
2018-Feb-15 04:30S 18°08' E 178°26'45204068273.7
2018-Feb-15 04:30N 31°12' E 121°07'4520280570.3
2018-Feb-15 04:29S 18°08' E 178°26'45191479099.6
2018-Feb-15 04:28N 31°30' E 121°22'1244656.8
2018-Feb-15 04:28N 31°40' E 121°13'948117065255.9
2018-Feb-15 04:28N 40°38' W 074°09'9151198465.5
2018-Feb-15 04:26N 36°02' E 120°14'69928909.4
2018-Feb-15 04:24N 24°32' E 118°10'45614669.4
2018-Feb-15 04:22N 31°39' E 121°13'13101.8
2018-Feb-15 04:14N 31°29' E 121°24'46432719.4
2018-Feb-15 04:14N 24°25' E 117°51'16182.2
2018-Feb-15 04:08N 24°20' E 118°08'1845910.2
2018-Feb-15 04:06N 25°09' E 121°24'471648510.3
2018-Feb-15 04:00N 44°09' E 028°40'45895507286.9
2018-Feb-15 04:00N 23°44' E 117°32'225234.4
2018-Feb-15 04:00N 23°27' E 117°18'82147168.2
2018-Feb-15 04:00N 24°33' E 118°11'456136921.4
2018-Feb-15 04:00N 31°40' E 121°13'4532679820.1
2018-Feb-15 04:00S 18°08' E 178°26'1527513747902.5
2018-Feb-15 03:59N 40°38' W 074°09'102332455919.3
2018-Feb-15 03:59N 01°21' E 103°37'17666357854.1
2018-Feb-15 03:59N 25°10' E 121°23'390100175.0
2018-Feb-15 03:59N 31°39' E 121°13'273269.2
2018-Feb-15 03:58N 31°12' E 121°07'4520774908.6
2018-Feb-15 03:58S 18°08' E 178°26'451864038.1
2018-Feb-15 03:54N 31°29' E 121°24'5034881.4
2018-Feb-15 03:48N 23°49' E 117°36'412204.0
2018-Feb-15 03:47N 24°24' E 117°58'598902.2
2018-Feb-15 03:46N 23°39' E 117°16'5085422.4
2018-Feb-15 03:41N 31°14' E 121°30'29953753.5
2018-Feb-15 03:40N 36°06' E 120°14'2826689.5
2018-Feb-15 03:38N 31°29' E 121°23'451837826.9
2018-Feb-15 03:31S 18°08' E 178°26'1527513747893.8
2018-Feb-15 03:30N 40°38' W 074°09'45618209123.9
2018-Feb-15 03:30N 44°09' E 028°40'45908262597.3
2018-Feb-15 03:30N 23°44' E 117°33'508228770.1
2018-Feb-15 03:30N 31°29' E 121°24'519373769.2
2018-Feb-15 03:30N 23°39' E 117°17'6356887.4
2018-Feb-15 03:30N 24°26' E 118°02'94154.8
2018-Feb-15 03:30N 24°26' E 117°52'469843453.7
2018-Feb-15 03:30N 31°40' E 121°13'45791339.1
2018-Feb-15 03:30N 24°32' E 118°10'44253186200.7
2018-Feb-15 03:30S 18°08' E 178°26'45204068273.7
2018-Feb-15 03:30N 31°12' E 121°07'4341563993.3
2018-Feb-15 03:29N 24°29' E 118°04'91450.8
2018-Feb-15 03:29N 24°21' E 118°08'46229706.1
2018-Feb-15 03:28N 31°29' E 121°23'153949.1
2018-Feb-15 03:28N 31°15' E 121°29'49210236.4
2018-Feb-15 03:25N 23°49' E 117°36'7508763.3
2018-Feb-15 03:20N 36°06' E 120°14'369.4
2018-Feb-15 03:17N 36°02' E 120°14'2684194.5
2018-Feb-15 03:13N 31°39' E 121°13'4652184.3
2018-Feb-15 03:01N 24°26' E 118°02'915536.7
2018-Feb-15 03:00N 24°26' E 117°52'45778239068.6
2018-Feb-15 03:00N 44°09' E 028°40'45895507282.0
2018-Feb-15 03:00N 23°44' E 117°32'15722829039.1
2018-Feb-15 03:00N 01°21' E 103°37'1631839012.2
2018-Feb-15 03:00N 24°32' E 118°10'73915.6
2018-Feb-15 03:00N 24°29' E 118°04'59325.0
2018-Feb-15 03:00N 24°24' E 118°06'44243981711.3
2018-Feb-15 03:00S 18°08' E 178°26'429315454569.5
2018-Feb-15 03:00N 25°09' E 121°21'24137715.0
2018-Feb-15 03:00N 23°35' E 117°18'44373993143.4
2018-Feb-15 03:00S 18°08' E 178°26'453216315795.8
2018-Feb-15 03:00N 31°39' E 121°13'2724513.6
2018-Feb-15 03:00N 31°12' E 121°07'223797.2
2018-Feb-15 02:59N 31°29' E 121°23'950017099772.5
2018-Feb-15 02:59N 40°38' W 074°09'9785518027.9
2018-Feb-15 02:58N 23°49' E 117°36'74719195.8
2018-Feb-15 02:56N 36°02' E 120°14'2677293.7
2018-Feb-15 02:53N 31°40' E 121°13'1268.5
2018-Feb-15 02:43N 31°30' E 121°22'1 6.8
2018-Feb-15 02:32N 31°29' E 121°24'46317720.7
2018-Feb-15 02:30N 24°26' E 117°52'4611725.4
2018-Feb-15 02:30N 23°44' E 117°32'5332056.2
2018-Feb-15 02:30N 24°29' E 118°04'72129440.7
2018-Feb-15 02:30N 23°30' E 117°19'44333191756.2
2018-Feb-15 02:30S 18°08' E 178°26'1527513747894.9
2018-Feb-15 02:30N 40°38' W 074°09'152752291316.4
2018-Feb-15 02:30S 18°08' E 178°26'42917723362.5
2018-Feb-15 02:30N 25°09' E 121°24'390234244.7
2018-Feb-15 02:29N 31°40' E 121°13'45643205.4
2018-Feb-15 02:29N 24°33' E 118°11'82694.6
2018-Feb-15 02:29N 24°27' E 118°04'45738281.3
2018-Feb-15 02:28N 31°29' E 121°23'0 8.1
2018-Feb-15 02:26N 31°29' E 121°24'50321819.5
2018-Feb-15 02:25N 23°49' E 117°36'48211792.4
2018-Feb-15 02:22N 31°12' E 121°07'22346.9
2018-Feb-15 02:19N 31°30' E 121°22'207878741.6
2018-Feb-15 02:17N 01°21' E 103°37'2286182872.9
2018-Feb-15 02:16N 36°02' E 120°14'3897.2
2018-Feb-15 02:16N 36°06' E 120°14'3122031.9
2018-Feb-15 02:07N 30°58' E 121°15'4243975.1
2018-Feb-15 02:00N 24°29' E 118°04'976835166554.2
2018-Feb-15 02:00N 40°38' W 074°09'456116418275.9
2018-Feb-15 02:00N 44°09' E 028°40'95191370714.6
2018-Feb-15 02:00S 18°08' E 178°26'0 0.8
2018-Feb-15 02:00S 18°08' E 178°26'45204068273.7
2018-Feb-15 02:00N 31°12' E 121°07'487350472.7
2018-Feb-15 01:59N 23°44' E 117°32'751128781.7
2018-Feb-15 01:59N 36°02' E 120°14'70493894.7
2018-Feb-15 01:59N 24°27' E 118°04'1624254197.8
2018-Feb-15 01:58N 01°21' E 103°37'1549697075.4
2018-Feb-15 01:58N 23°25' E 117°20'24438148.1
2018-Feb-15 01:58N 25°09' E 121°22'2218924.2
2018-Feb-15 01:56N 23°49' E 117°36'50325152.7
2018-Feb-15 01:55N 31°29' E 121°24'111.1
2018-Feb-15 01:49N 31°30' E 121°22'49410914.8
2018-Feb-15 01:46N 23°55' E 117°44'459217870.8
2018-Feb-15 01:30N 44°09' E 028°40'45908262152.8
2018-Feb-15 01:30N 23°44' E 117°33'1572471576.6
2018-Feb-15 01:30N 01°21' E 103°37'2081624392.8
2018-Feb-15 01:30N 31°39' E 121°13'468561339.5
2018-Feb-15 01:30N 24°26' E 117°52'97611757046.4
2018-Feb-15 01:30N 40°38' W 074°09'1527513747897.4
2018-Feb-15 01:30S 18°08' E 178°26'45204068273.7
2018-Feb-15 01:30N 31°12' E 121°07'43450451.4
2018-Feb-15 01:29N 24°29' E 118°04'2283.2
2018-Feb-15 01:29N 24°27' E 118°04'18430104.1
2018-Feb-15 01:28N 25°09' E 121°22'21131723.7
2018-Feb-15 01:28N 23°55' E 117°44'104369.8
2018-Feb-15 01:28N 23°49' E 117°36'50311757.2
2018-Feb-15 01:25N 31°30' E 121°22'193.4
2018-Feb-15 01:24N 31°29' E 121°24'0 7.2
2018-Feb-15 01:23N 31°29' E 121°23'33270.6
2018-Feb-15 01:15N 30°59' E 121°09'33491.7
2018-Feb-15 01:11N 31°29' E 121°23'446024739.2
2018-Feb-15 01:00N 44°09' E 028°40'45902753843.0
2018-Feb-15 01:00N 23°44' E 117°32'457112.9
2018-Feb-15 01:00N 24°26' E 117°52'114500.6
2018-Feb-15 01:00N 24°29' E 118°04'44281138719.4
2018-Feb-15 01:00S 18°08' E 178°26'4532479876.7
2018-Feb-15 00:59N 31°39' E 121°13'46764704.8
2018-Feb-15 00:59N 24°24' E 117°59'441158623.0
2018-Feb-15 00:58N 31°12' E 121°07'47363041.6
2018-Feb-15 00:58N 23°55' E 117°44'1587408010.4
2018-Feb-15 00:58N 01°21' E 103°37'2078467592.8
2018-Feb-15 00:57N 31°29' E 121°24'3223195.7
2018-Feb-15 00:57N 31°01' E 121°07'321798.9
2018-Feb-15 00:56N 31°29' E 121°23'50390507.9
2018-Feb-15 00:56N 23°49' E 117°36'50322353.2
2018-Feb-15 00:55N 31°30' E 121°22'38041458.4
2018-Feb-15 00:54N 25°10' E 121°23'1867510.5
2018-Feb-15 00:53N 24°27' E 118°04'46411052.8
2018-Feb-15 00:50N 31°40' E 121°13'1341.1
2018-Feb-15 00:31N 31°29' E 121°24'44603211096.1
2018-Feb-15 00:30N 44°09' E 028°40'4585916961.9
2018-Feb-15 00:30N 24°29' E 118°04'456820145.2
2018-Feb-15 00:30N 31°29' E 121°23'95001221412.5
2018-Feb-15 00:30N 40°38' W 074°09'951211414394.2
2018-Feb-15 00:30N 31°03' E 121°03'451716260573.8
2018-Feb-15 00:30S 18°08' E 178°26'45204068273.7
2018-Feb-15 00:30N 31°12' E 121°07'2056274092.5
2018-Feb-15 00:29N 01°21' E 103°37'1617970212.4
2018-Feb-15 00:29N 24°26' E 117°52'331746.9
2018-Feb-15 00:28N 23°54' E 117°44'21324730.1
2018-Feb-15 00:27N 25°09' E 121°23'1866487.3
2018-Feb-15 00:26N 24°27' E 118°04'45728391.3
2018-Feb-15 00:25N 31°30' E 121°22'2793038.5
2018-Feb-15 00:19N 36°02' E 120°14'2961374.9
2018-Feb-15 00:06N 31°13' E 121°30'301718.7
2018-Feb-15 00:05N 31°39' E 121°13'4615866.5
2018-Feb-15 00:00N 24°29' E 118°04'45858252657.4
2018-Feb-15 00:00N 44°09' E 028°40'44453200530.5
2018-Feb-15 00:00N 31°39' E 121°13'1323998.6
2018-Feb-15 00:00N 31°29' E 121°23'950017099783.9
2018-Feb-15 00:00N 40°38' W 074°09'95228569924.7
2018-Feb-15 00:00N 31°13' E 121°30'45162409.9
2018-Feb-15 00:00N 24°26' E 117°52'44361330946.0
2018-Feb-15 00:00S 18°08' E 178°26'45202712180.2
2018-Feb-14 23:59N 31°12' E 121°07'48248151.7
2018-Feb-14 23:59N 23°49' E 117°36'469292.4
2018-Feb-14 23:59N 24°27' E 118°04'1624139203.5
2018-Feb-14 23:58N 01°21' E 103°37'2046204609.0
2018-Feb-14 23:57N 31°05' E 121°00'4293051.3
2018-Feb-14 23:49N 24°21' E 118°16'4616743.0
2018-Feb-14 23:45N 31°32' E 121°20'3838156.3
2018-Feb-14 23:42N 25°09' E 121°24'3571870.1
2018-Feb-14 23:30N 31°06' E 120°57'950334210098.6
2018-Feb-14 23:30N 40°38' W 074°09'456116418261.9
2018-Feb-14 23:30N 44°09' E 028°40'47161886275.2
2018-Feb-14 23:30N 25°10' E 121°23'222799807.8
2018-Feb-14 23:30N 23°49' E 117°36'15771419527.2
2018-Feb-14 23:30N 01°21' E 103°37'1625233999.2
2018-Feb-14 23:30N 24°21' E 118°16'44151222562.0
2018-Feb-14 23:30S 18°08' E 178°26'45203254616.3
2018-Feb-14 23:29N 31°12' E 121°07'441794093.8
2018-Feb-14 23:29N 24°26' E 117°52'107601613992.2
2018-Feb-14 23:29N 25°47' W 080°10'106207646370.0
2018-Feb-14 23:29N 31°29' E 121°23'45771572.9
2018-Feb-14 23:29N 24°27' E 118°04'45718293.1
2018-Feb-14 23:27N 31°28' E 121°26'2842046.9
2018-Feb-14 23:19N 36°06' E 120°14'71213856.5
2018-Feb-14 23:16N 24°19' E 118°32'4432897.7
2018-Feb-14 23:07N 31°18' E 121°12'3693612.4
2018-Feb-14 23:00N 25°09' E 121°22'380684726.3
2018-Feb-14 23:00N 31°30' E 121°24'44604013665.5
2018-Feb-14 23:00N 44°09' E 028°40'457716478137.3
2018-Feb-14 23:00N 24°26' E 117°52'107604303964.4
2018-Feb-14 23:00N 25°47' W 080°10'107737756445.2
2018-Feb-14 23:00N 23°49' E 117°36'4429549833.6
2018-Feb-14 23:00S 18°08' E 178°26'45205423800.4
2018-Feb-14 23:00N 31°18' E 121°12'725874.1
2018-Feb-14 22:59N 31°12' E 121°07'950434215719.3
2018-Feb-14 22:59N 40°38' W 074°09'10233682199.4
2018-Feb-14 22:59N 01°21' E 103°37'16245846547.0
2018-Feb-14 22:59N 24°27' E 118°04'4578709.9
2018-Feb-14 22:55N 31°29' E 121°23'459165206.4
2018-Feb-14 22:55N 24°21' E 118°16'15175.4
2018-Feb-14 22:50N 24°21' E 118°32'79786897.9
2018-Feb-14 22:50N 37°34' E 119°53'3723172.2
2018-Feb-14 22:43N 31°30' E 121°22'4623479.4
2018-Feb-14 22:35N 24°24' E 117°59'0 0.0
2018-Feb-14 22:31N 24°24' E 117°59'45848250906.7
2018-Feb-14 22:30N 44°09' E 028°40'45778239068.6
2018-Feb-14 22:30N 24°26' E 117°52'16172910635.2
2018-Feb-14 22:30N 01°21' E 103°37'10818794795.9
2018-Feb-14 22:30N 25°46' W 080°09'1570256528600.9
2018-Feb-14 22:30S 18°08' E 178°26'45203254616.3
2018-Feb-14 22:29N 31°12' E 121°07'95042851311.4
2018-Feb-14 22:29N 40°38' W 074°09'97861006543.9
2018-Feb-14 22:29N 24°21' E 118°16'124758.5
2018-Feb-14 22:29N 24°27' E 118°04'4618580.8
2018-Feb-14 22:28N 23°49' E 117°36'22128473.4
2018-Feb-14 22:28N 25°09' E 121°23'382125047.4
2018-Feb-14 22:28N 31°31' E 121°21'246.7
2018-Feb-14 22:25N 31°30' E 121°22'2795697.3
2018-Feb-14 22:22N 36°02' E 120°14'2791555.6
2018-Feb-14 22:11N 31°29' E 121°24'4622535.8
2018-Feb-14 22:00N 24°24' E 117°59'45848250915.3
2018-Feb-14 22:00N 44°09' E 028°40'47161886303.3
2018-Feb-14 22:00N 25°10' E 121°23'384230246.0
2018-Feb-14 22:00N 31°33' E 121°19'4611660055.6
2018-Feb-14 22:00N 24°21' E 118°16'789258358.9
2018-Feb-14 22:00N 37°26' E 119°56'827247952.7
2018-Feb-14 22:00N 23°49' E 117°36'40145186.8
2018-Feb-14 22:00N 24°26' E 117°52'97613904522.6
2018-Feb-14 22:00N 40°39' W 074°09'9411693480.6
2018-Feb-14 22:00N 25°46' W 080°05'1569956516847.6
2018-Feb-14 22:00S 18°08' E 178°26'45202712180.2
2018-Feb-14 21:59N 31°12' E 121°07'205644581.2
2018-Feb-14 21:57N 01°21' E 103°37'162483521.8
2018-Feb-14 21:56N 24°27' E 118°04'45730494.4
2018-Feb-14 21:55N 31°30' E 121°22'1 9.1
2018-Feb-14 21:47N 31°29' E 121°24'13299.4
2018-Feb-14 21:44N 31°40' E 121°13'1395.3
2018-Feb-14 21:36N 31°29' E 121°23'4625433.6
2018-Feb-14 21:31N 24°24' E 117°59'64564.5
2018-Feb-14 21:30N 24°26' E 117°52'97614392239.5
2018-Feb-14 21:30N 40°40' W 074°09'94873794615.3
2018-Feb-14 21:30N 31°36' E 121°17'445016021478.6
2018-Feb-14 21:30N 44°09' E 028°40'48784390050.4
2018-Feb-14 21:30N 01°21' E 103°37'108141297634.8
2018-Feb-14 21:30N 25°50' W 080°05'106127640561.6
2018-Feb-14 21:29N 31°12' E 121°07'36393369.6
2018-Feb-14 21:29N 25°09' E 121°24'38033362.0
2018-Feb-14 21:29N 31°29' E 121°24'4571646997.8
2018-Feb-14 21:29N 24°27' E 118°04'467964.1
2018-Feb-14 21:28N 23°49' E 117°36'4988105.5
2018-Feb-14 21:28N 24°21' E 118°16'45944657.1
2018-Feb-14 21:28N 31°29' E 121°23'2827942.3
2018-Feb-14 21:25N 36°06' E 120°14'28221570.0
2018-Feb-14 21:25N 31°30' E 121°22'2791181.1
2018-Feb-14 21:10N 36°02' E 120°14'7478591.5
2018-Feb-14 21:05N 23°46' E 117°47'5078303.4
2018-Feb-14 21:02N 31°40' E 121°13'4445235335.5
2018-Feb-14 21:00N 44°09' E 028°40'457716478158.1
2018-Feb-14 21:00N 24°26' E 117°52'463277624.0
2018-Feb-14 21:00N 31°29' E 121°24'112404.9
2018-Feb-14 21:00N 31°38' E 121°15'94832133586.1
2018-Feb-14 21:00N 40°40' W 074°09'95031800635.1
2018-Feb-14 20:59N 31°12' E 121°07'2056284634.5
2018-Feb-14 20:59N 01°21' E 103°37'108131390196.1
2018-Feb-14 20:59N 25°54' W 080°05'1076012912299.3
2018-Feb-14 20:59N 24°27' E 118°04'784403081.3
2018-Feb-14 20:58N 37°25' E 119°57'825141489.8
2018-Feb-14 20:58N 23°49' E 117°36'4429173317.1
2018-Feb-14 20:57S 18°08' E 178°26'4415299862.2
2018-Feb-14 20:56N 24°21' E 118°16'4661676714.9
2018-Feb-14 20:56N 31°40' E 121°13'121485.7
2018-Feb-14 20:55N 31°30' E 121°22'38014416.8
2018-Feb-14 20:54N 25°09' E 121°21'65630260.2
2018-Feb-14 20:52N 36°02' E 120°14'3332.6
2018-Feb-14 20:52N 36°06' E 120°14'7508359.4
2018-Feb-14 20:46N 23°46' E 117°48'40150.9
2018-Feb-14 20:30N 24°26' E 117°52'457716478140.8
2018-Feb-14 20:30N 44°09' E 028°40'48781254298.0
2018-Feb-14 20:30N 01°21' E 103°37'1623188448.0
2018-Feb-14 20:30N 24°20' E 118°13'97848805592.1
2018-Feb-14 20:30N 40°40' W 074°09'947911374860.4
2018-Feb-14 20:30N 31°39' E 121°12'453316318162.0
2018-Feb-14 20:30S 18°08' E 178°26'45205424364.9
2018-Feb-14 20:30N 31°12' E 121°07'281937.4
2018-Feb-14 20:29N 31°40' E 121°13'1058919060327.3
2018-Feb-14 20:29N 25°58' W 080°05'107587745628.4
2018-Feb-14 20:29N 24°27' E 118°04'784705392.2
2018-Feb-14 20:28N 37°25' E 119°57'82595847.9
2018-Feb-14 20:28N 23°49' E 117°36'5039098.5
2018-Feb-14 20:25N 31°30' E 121°22'122.2
2018-Feb-14 20:21N 31°29' E 121°23'2798111.2
2018-Feb-14 20:19N 36°02' E 120°14'6565365.6
2018-Feb-14 20:12N 25°09' E 121°22'1961020.5
2018-Feb-14 20:00N 24°26' E 117°52'174646.7
2018-Feb-14 20:00N 24°19' E 118°09'107665536712.4
2018-Feb-14 20:00N 26°01' W 080°05'928119306.5
2018-Feb-14 20:00N 40°40' W 074°09'1527518330576.8
2018-Feb-14 20:00S 18°08' E 178°26'44291138941.0
2018-Feb-14 19:59N 23°49' E 117°36'463413.2
2018-Feb-14 19:59N 24°27' E 118°04'784470257.9
2018-Feb-14 19:58N 37°25' E 119°57'23544236414.7
2018-Feb-14 19:58N 01°21' E 103°37'20561480100.3
2018-Feb-14 19:58N 31°12' E 121°07'221563.2
2018-Feb-14 19:57N 31°29' E 121°23'017.0
2018-Feb-14 19:57N 31°29' E 121°23'14716.7
2018-Feb-14 19:56N 31°40' E 121°13'1299.1
2018-Feb-14 19:49N 31°30' E 121°22'20786850.2
2018-Feb-14 19:30N 01°21' E 103°37'4878975566.2
2018-Feb-14 19:30N 44°09' E 028°40'54479804797.4
2018-Feb-14 19:30N 26°04' W 080°05'107432148589.9
2018-Feb-14 19:30N 24°26' E 117°52'44361330946.0
2018-Feb-14 19:30S 18°08' E 178°26'45203254618.9
2018-Feb-14 19:29N 31°12' E 121°07'482101968.3
2018-Feb-14 19:29N 23°49' E 117°36'97847044645.1
2018-Feb-14 19:29N 40°40' W 074°09'94801100877.7
2018-Feb-14 19:29N 31°40' E 121°13'464417244.3
2018-Feb-14 19:29N 24°27' E 118°04'784564309.5
2018-Feb-14 19:28N 37°25' E 119°57'7396842.3
2018-Feb-14 19:22N 25°09' E 121°23'3816850.5
2018-Feb-14 19:19N 31°30' E 121°22'1 9.2
2018-Feb-14 19:11N 31°29' E 121°23'4622647.0
2018-Feb-14 19:00N 24°26' E 117°52'4577915452.3
2018-Feb-14 19:00N 44°09' E 028°40'47164244215.6
2018-Feb-14 19:00N 25°09' E 121°23'185333611.3
2018-Feb-14 19:00N 24°27' E 118°04'97702512199.7
2018-Feb-14 19:00N 40°40' W 074°09'152764230150.9
2018-Feb-14 19:00S 18°08' E 178°26'4803254281.5
2018-Feb-14 18:58N 37°25' E 119°57'377150818.5
2018-Feb-14 18:58N 31°12' E 121°07'221839.5
2018-Feb-14 18:58N 31°30' E 121°22'2078103895.2
2018-Feb-14 18:56N 01°21' E 103°37'2082162949.9
2018-Feb-14 18:56N 31°40' E 121°13'50925097.7
2018-Feb-14 18:54N 23°49' E 117°36'503181019.5
2018-Feb-14 18:54N 31°29' E 121°23'446011251.3
2018-Feb-14 18:30N 44°09' E 028°40'45778239070.4
2018-Feb-14 18:30N 24°26' E 117°52'16172910636.2
2018-Feb-14 18:30N 01°21' E 103°37'102332455901.1
2018-Feb-14 18:30N 40°40' W 074°09'94994885178.3
2018-Feb-14 18:30N 31°29' E 121°23'4518580913.1
2018-Feb-14 18:30S 18°08' E 178°26'45325438538.9
2018-Feb-14 18:30N 31°40' E 121°13'28100725.0
2018-Feb-14 18:29N 31°12' E 121°07'48237683.5
2018-Feb-14 18:29N 23°49' E 117°36'50327024.1
2018-Feb-14 18:28N 31°30' E 121°22'36210023.3
2018-Feb-14 18:25N 37°25' E 119°57'78424750.6
2018-Feb-14 18:24N 24°27' E 118°04'4455009.3
2018-Feb-14 18:18N 31°13' E 121°30'17516.2
2018-Feb-14 18:16N 31°29' E 121°23'18397.8
2018-Feb-14 18:14N 31°42' E 121°09'185785.7
2018-Feb-14 18:13N 31°29' E 121°24'446020716.7
2018-Feb-14 18:00N 44°09' E 028°40'48784390044.9
2018-Feb-14 18:00N 01°21' E 103°37'2078748067.2
2018-Feb-14 18:00N 31°29' E 121°23'1760595.1
2018-Feb-14 18:00N 31°13' E 121°30'451202832.3
2018-Feb-14 18:00N 24°26' E 117°52'111324.1
2018-Feb-14 18:00N 24°27' E 118°04'436261653.3
2018-Feb-14 17:59N 31°12' E 121°07'950317106224.7
2018-Feb-14 17:59N 40°40' W 074°09'9480286784.2
2018-Feb-14 17:57N 31°40' E 121°13'35110355.1
2018-Feb-14 17:55N 37°25' E 119°57'36226592.5
2018-Feb-14 17:55N 31°30' E 121°22'2796228.1
2018-Feb-14 17:52N 36°02' E 120°14'2791899.7
2018-Feb-14 17:43N 31°29' E 121°24'446021097.9
2018-Feb-14 17:30N 44°09' E 028°40'45778239068.6
2018-Feb-14 17:30N 24°26' E 117°52'463555254.5
2018-Feb-14 17:30N 31°29' E 121°24'20781068783.6
2018-Feb-14 17:30N 01°21' E 103°37'20687444248.7
2018-Feb-14 17:30N 31°13' E 121°30'95212285093.3
2018-Feb-14 17:30N 40°40' W 074°09'152762390954.8
2018-Feb-14 17:30S 18°08' E 178°26'44273187621.9
2018-Feb-14 17:30N 24°27' E 118°04'436784969.9
2018-Feb-14 17:29N 31°12' E 121°07'221660.9
2018-Feb-14 17:29N 31°29' E 121°23'36393273.4
2018-Feb-14 17:28N 37°25' E 119°57'3517387.7
2018-Feb-14 17:26N 31°40' E 121°13'2671862.3
2018-Feb-14 17:17N 36°02' E 120°14'27912081.0
2018-Feb-14 17:16N 31°30' E 121°22'5035878.7
2018-Feb-14 17:10N 23°49' E 117°36'459027585.4
2018-Feb-14 17:00N 44°09' E 028°40'45772746356.8
2018-Feb-14 17:00N 24°26' E 117°52'97611003952.8
2018-Feb-14 17:00N 40°40' W 074°09'152763927998.4
2018-Feb-14 17:00S 18°08' E 178°26'45203254616.3
2018-Feb-14 16:59N 31°12' E 121°07'20561480095.9
2018-Feb-14 16:59N 01°21' E 103°37'2354148646.1
2018-Feb-14 16:58N 37°25' E 119°57'35166487.4
2018-Feb-14 16:58N 31°40' E 121°13'46417206.8
2018-Feb-14 16:57N 24°27' E 118°04'44511700.6
2018-Feb-14 16:54N 31°13' E 121°30'2961336.9
2018-Feb-14 16:41N 36°02' E 120°14'2793856.6
2018-Feb-14 16:37N 31°30' E 121°22'12120.9
2018-Feb-14 16:30N 31°40' E 121°13'20822498575.4
2018-Feb-14 16:30N 01°21' E 103°37'16172910636.2
2018-Feb-14 16:30N 24°26' E 117°52'45771098542.5
2018-Feb-14 16:30N 44°09' E 028°40'95191070871.3
2018-Feb-14 16:30S 18°08' E 178°26'45184066395.2
2018-Feb-14 16:30N 31°29' E 121°23'2226586.1
2018-Feb-14 16:29N 31°12' E 121°07'95033110222.2
2018-Feb-14 16:29N 40°40' W 074°09'9048626408.2
2018-Feb-14 16:28N 37°25' E 119°57'73946682.5
2018-Feb-14 16:27N 25°09' E 121°24'380455954.4
2018-Feb-14 16:27N 31°29' E 121°24'125.7
2018-Feb-14 16:25N 31°30' E 121°22'182459.2
2018-Feb-14 16:24N 31°13' E 121°30'323106.3
2018-Feb-14 16:24N 31°41' E 121°11'444211513.9
2018-Feb-14 16:00N 44°09' E 028°40'45774119534.3
2018-Feb-14 16:00N 24°26' E 117°52'97618784596.1
2018-Feb-14 16:00N 40°40' W 074°09'152761249819.0
2018-Feb-14 16:00S 18°08' E 178°26'45202712180.2
2018-Feb-14 15:59N 31°12' E 121°07'2279741.6
2018-Feb-14 15:59N 31°29' E 121°23'20781496134.8
2018-Feb-14 15:59N 01°21' E 103°37'2354146083.2
2018-Feb-14 15:58N 37°25' E 119°57'73970000.7
2018-Feb-14 15:58N 25°10' E 121°24'39110506.7
2018-Feb-14 15:56N 31°41' E 121°11'321436.4
2018-Feb-14 15:54N 31°13' E 121°30'29690.4
2018-Feb-14 15:52N 31°39' E 121°14'7354.2
2018-Feb-14 15:51N 31°35' E 121°21'14204.0
2018-Feb-14 15:46N 31°25' E 121°33'9165.3
2018-Feb-14 15:43N 31°29' E 121°24'121.5
2018-Feb-14 15:40N 31°30' E 121°22'445929130.1
2018-Feb-14 15:30N 44°09' E 028°40'45602052041.3
2018-Feb-14 15:30N 40°40' W 074°09'1527627496017.9
2018-Feb-14 15:30S 18°08' E 178°26'44363194270.4
2018-Feb-14 15:30N 24°26' E 117°52'468280948.5
2018-Feb-14 15:30N 31°36' E 121°23'71337.3
2018-Feb-14 15:30N 31°29' E 121°23'20782493558.1
2018-Feb-14 15:30N 01°21' E 103°37'2056435322.2
2018-Feb-14 15:29N 31°12' E 121°07'363130758.7
2018-Feb-14 15:29N 25°09' E 121°22'38031080.6
2018-Feb-14 15:29N 31°29' E 121°23'363217673.3
2018-Feb-14 15:28N 37°25' E 119°57'3637958.5
2018-Feb-14 15:26N 31°29' E 121°24'1122.7
2018-Feb-14 15:25N 31°30' E 121°22'7428.3
2018-Feb-14 15:24N 31°36' E 121°17'25254.7
2018-Feb-14 15:18N 31°13' E 121°30'2962670.5
2018-Feb-14 15:12N 36°02' E 120°14'26645613.4
2018-Feb-14 15:11N 31°41' E 121°11'4513161.4
2018-Feb-14 15:03N 24°31' E 118°33'4607126594.2
2018-Feb-14 15:00N 44°09' E 028°40'47162829719.6
2018-Feb-14 15:00N 25°09' E 121°23'42913861704.3
2018-Feb-14 15:00S 18°08' E 178°26'1527654992052.3
2018-Feb-14 15:00N 40°40' W 074°09'95218569112.3
2018-Feb-14 15:00N 31°13' E 121°30'2278047.0
2018-Feb-14 15:00N 31°33' E 121°20'58899.6
2018-Feb-14 15:00N 31°29' E 121°24'463208220.4
2018-Feb-14 15:00N 24°26' E 117°52'3815017.0
2018-Feb-14 15:00N 24°31' E 118°33'45195443.1
2018-Feb-14 15:00N 31°36' E 121°22'2714004.1
2018-Feb-14 14:59N 31°12' E 121°07'20561850120.3
2018-Feb-14 14:59N 01°21' E 103°37'15772839055.3
2018-Feb-14 14:59N 23°49' E 117°36'82553058.7
2018-Feb-14 14:58N 37°25' E 119°57'3503146.1
2018-Feb-14 14:52N 31°41' E 121°11'15142.7
2018-Feb-14 14:46N 31°30' E 121°22'16694.3
2018-Feb-14 14:44N 31°17' E 121°11'17151.9
2018-Feb-14 14:38N 31°29' E 121°23'4623881.1
2018-Feb-14 14:31N 24°26' E 117°52'45775492671.0
2018-Feb-14 14:30N 44°09' E 028°40'95192855645.8
2018-Feb-14 14:30S 18°08' E 178°26'42915148939.1
2018-Feb-14 14:30N 25°09' E 121°23'380684331.2
2018-Feb-14 14:30N 31°29' E 121°24'450107954.3
2018-Feb-14 14:30N 24°26' E 118°32'16375894444.6
2018-Feb-14 14:30N 01°21' E 103°37'20843751311.6
2018-Feb-14 14:30N 31°36' E 121°23'63418.1
2018-Feb-14 14:30N 31°31' E 121°24'94984273980.7
2018-Feb-14 14:30N 40°40' W 074°09'95011266744.3
2018-Feb-14 14:29N 31°17' E 121°09'37329834.1
2018-Feb-14 14:28N 37°25' E 119°57'3774539.8
2018-Feb-14 14:23N 31°12' E 121°07'22151.1
2018-Feb-14 14:15N 31°29' E 121°23'5036095.0
2018-Feb-14 14:10N 23°49' E 117°36'5035057.6
2018-Feb-14 14:04N 31°30' E 121°22'4638584.4
2018-Feb-14 14:01N 24°26' E 117°52'44584282.8
2018-Feb-14 14:00N 31°17' E 121°06'205907.3
2018-Feb-14 14:00N 31°29' E 121°23'74363.6
2018-Feb-14 14:00N 31°36' E 121°23'94915694692.0
2018-Feb-14 14:00N 40°40' W 074°09'456016416377.8
2018-Feb-14 14:00N 44°09' E 028°40'446416069877.8
2018-Feb-14 14:00N 31°28' E 121°28'45141354317.7
2018-Feb-14 14:00S 18°08' E 178°26'47414266985.3
2018-Feb-14 13:59N 36°06' E 120°14'28263499.3
2018-Feb-14 13:59N 31°29' E 121°24'503603665.7
2018-Feb-14 13:59N 23°49' E 117°36'82569099.7
2018-Feb-14 13:58N 37°25' E 119°57'23542824275.8
2018-Feb-14 13:58N 01°21' E 103°37'176739501.2
2018-Feb-14 13:56N 25°10' E 121°24'3797587.1
2018-Feb-14 13:53N 31°29' E 121°23'45462828.9
2018-Feb-14 13:52N 24°22' E 118°32'45451077.8
2018-Feb-14 13:52N 31°30' E 121°22'15295.9
2018-Feb-14 13:49N 31°41' E 121°11'291285.0
2018-Feb-14 13:47N 31°12' E 121°07'4191843.3
2018-Feb-14 13:34N 24°31' E 118°51'4239293448.2
2018-Feb-14 13:33N 45°20' E 036°30'3418190.8
2018-Feb-14 13:30N 44°09' E 028°40'45601824043.8
2018-Feb-14 13:30N 40°40' W 074°09'94993419630.6
2018-Feb-14 13:30N 31°29' E 121°23'380273240.0
2018-Feb-14 13:30N 25°10' E 121°23'43322227773.7
2018-Feb-14 13:30N 45°20' E 036°31'40722931515.7
2018-Feb-14 13:30N 31°36' E 121°23'20841071814.9
2018-Feb-14 13:30N 01°21' E 103°37'20581852018.5
2018-Feb-14 13:30N 31°16' E 121°04'45253257870.9
2018-Feb-14 13:30S 18°08' E 178°26'45202034135.2
2018-Feb-14 13:29N 31°12' E 121°07'482157585.5
2018-Feb-14 13:29N 23°49' E 117°36'4020741.0
2018-Feb-14 13:29N 24°26' E 117°52'78664325.7
2018-Feb-14 13:28N 37°25' E 119°57'7892841275.8
2018-Feb-14 13:28N 24°19' E 118°32'71227271.1
2018-Feb-14 13:27N 36°06' E 120°14'2823334.8
2018-Feb-14 13:22N 31°30' E 121°22'4393995.3
2018-Feb-14 13:15N 24°31' E 118°50'43815149.7
2018-Feb-14 13:13N 31°25' E 121°33'1175.5
2018-Feb-14 13:05N 31°14' E 121°30'31817.1
2018-Feb-14 13:02N 31°41' E 121°11'16561.7
2018-Feb-14 13:01N 31°29' E 121°23'44603211094.5
2018-Feb-14 13:00N 44°09' E 028°40'445716044303.5
2018-Feb-14 13:00N 31°36' E 121°25'225667.1
2018-Feb-14 13:00N 31°14' E 121°29'2529650.6
2018-Feb-14 13:00N 31°17' E 121°01'94931139178.3
2018-Feb-14 13:00N 40°40' W 074°09'989035603378.7
2018-Feb-14 13:00N 25°10' E 121°20'42947729970.0
2018-Feb-14 13:00S 18°08' E 178°26'44001056083.8
2018-Feb-14 12:59N 24°20' E 118°32'43568041.0
2018-Feb-14 12:59N 31°12' E 121°07'41850138.2
2018-Feb-14 12:58N 24°32' E 118°50'43911961.8
2018-Feb-14 12:56N 31°29' E 121°24'2078173988.0
2018-Feb-14 12:56N 01°21' E 103°37'207838165.6
2018-Feb-14 12:52N 31°30' E 121°22'10223.5
2018-Feb-14 12:49N 31°25' E 121°33'50234111.7
2018-Feb-14 12:49N 23°49' E 117°36'7474134.5
2018-Feb-14 12:38N 36°02' E 120°14'2792317.0
2018-Feb-14 12:31N 31°29' E 121°23'4621664941.9
2018-Feb-14 12:30N 24°26' E 117°52'45778239006.5
2018-Feb-14 12:30N 44°09' E 028°40'4878516472.7
2018-Feb-14 12:30N 01°21' E 103°37'1766529897.0
2018-Feb-14 12:30N 25°09' E 121°24'989411872627.1
2018-Feb-14 12:30N 40°40' W 074°09'152769165351.7
2018-Feb-14 12:30S 18°08' E 178°26'43935271127.6
2018-Feb-14 12:29N 24°33' E 118°51'42580552.7
2018-Feb-14 12:29N 31°15' E 121°29'37830248.4
2018-Feb-14 12:28N 37°25' E 119°57'788113521.7
2018-Feb-14 12:28N 24°20' E 118°32'43512717.8
2018-Feb-14 12:26N 31°12' E 121°07'22499.9
2018-Feb-14 12:23N 31°29' E 121°24'2792855.0
2018-Feb-14 12:17N 36°02' E 120°14'6967122.0
2018-Feb-14 12:12N 24°31' E 118°34'7005596.9
2018-Feb-14 12:04N 36°06' E 120°14'71011948.3
2018-Feb-14 12:00N 24°26' E 117°52'45778239006.5
2018-Feb-14 12:00N 44°09' E 028°40'46205543687.6
2018-Feb-14 12:00N 24°33' E 118°51'438121197.0
2018-Feb-14 12:00N 31°29' E 121°23'949917098161.6
2018-Feb-14 12:00N 40°40' W 074°09'152761666428.2
2018-Feb-14 12:00S 18°08' E 178°26'440115845208.4
2018-Feb-14 12:00N 24°21' E 118°32'1633183669.1
2018-Feb-14 11:59N 01°21' E 103°37'2354228995.2
2018-Feb-14 11:58N 37°25' E 119°57'37796954.8
2018-Feb-14 11:58N 31°12' E 121°07'363108854.4
2018-Feb-14 11:58N 25°10' E 121°23'38075940.8
2018-Feb-14 11:58N 31°29' E 121°24'4445208.8
2018-Feb-14 11:53N 24°31' E 118°34'43212631.4
2018-Feb-14 11:51N 31°14' E 121°30'2288.3
2018-Feb-14 11:36N 31°35' E 121°27'780.3
2018-Feb-14 11:31N 31°29' E 121°23'44604013866.4
2018-Feb-14 11:30N 44°09' E 028°40'4609790141.1
2018-Feb-14 11:30N 24°28' E 118°34'16412952971.1
2018-Feb-14 11:30N 01°21' E 103°37'16171164254.1
2018-Feb-14 11:30N 24°26' E 117°52'4436638854.1
2018-Feb-14 11:30S 18°08' E 178°26'4520439813.4
2018-Feb-14 11:29N 31°12' E 121°07'434312517.5
2018-Feb-14 11:29N 24°20' E 118°32'788109088.6
2018-Feb-14 11:28N 37°25' E 119°57'739266026.6
2018-Feb-14 11:28N 25°10' E 121°23'38615966.3
2018-Feb-14 11:27N 31°35' E 121°27'7589.4
2018-Feb-14 11:26N 31°29' E 121°24'16489.1
2018-Feb-14 11:24N 31°15' E 121°31'4289743.4
2018-Feb-14 11:22N 24°32' E 118°50'4392167.7
2018-Feb-14 11:09N 31°29' E 121°23'4623830.6
2018-Feb-14 11:02N 24°24' E 117°59'4584160210.6
2018-Feb-14 11:00N 44°09' E 028°40'46122075425.8
2018-Feb-14 11:00N 24°21' E 118°32'36130611.8
2018-Feb-14 11:00N 24°26' E 117°52'462110997.4
2018-Feb-14 11:00N 31°29' E 121°23'380124362.1
2018-Feb-14 11:00N 25°09' E 121°20'98928902352.0
2018-Feb-14 11:00N 40°40' W 074°09'97992939692.8
2018-Feb-14 11:00N 24°24' E 118°35'44003960161.4
2018-Feb-14 11:00S 18°08' E 178°26'4592435026.4
2018-Feb-14 10:59N 01°21' E 103°37'2354313808.4
2018-Feb-14 10:58N 37°25' E 119°57'787314911.7
2018-Feb-14 10:58N 24°24' E 117°59'441198281.3
2018-Feb-14 10:58N 31°12' E 121°07'4194928.3
2018-Feb-14 10:53N 24°31' E 118°49'4445087.2
2018-Feb-14 10:48N 31°35' E 121°18'8119.3
2018-Feb-14 10:44N 31°29' E 121°23'2792260.2
2018-Feb-14 10:36N 36°02' E 120°14'7087219.3
2018-Feb-14 10:31N 24°24' E 117°59'45845500563.1
2018-Feb-14 10:30N 44°09' E 028°40'461216603278.4
2018-Feb-14 10:30N 24°21' E 118°32'3614545.5
2018-Feb-14 10:30N 24°26' E 117°52'16171455318.6
2018-Feb-14 10:30N 01°21' E 103°37'102336139778.0
2018-Feb-14 10:30N 40°40' W 074°09'94841896729.0
2018-Feb-14 10:30N 31°37' E 121°15'116471.6
2018-Feb-14 10:30N 31°29' E 121°23'45182033195.9
2018-Feb-14 10:30S 18°08' E 178°26'452074647.2
2018-Feb-14 10:26N 31°12' E 121°07'37742417.7
2018-Feb-14 10:25N 37°25' E 119°57'73966509.1
2018-Feb-14 10:25N 25°10' E 121°23'14540136.0
2018-Feb-14 10:25N 24°31' E 118°49'16186.9
2018-Feb-14 10:19N 24°21' E 118°36'29345.7
2018-Feb-14 10:14N 24°27' E 118°04'45782348.9
2018-Feb-14 10:14N 31°29' E 121°24'50828156.3
2018-Feb-14 10:13N 23°44' E 117°33'5154364.4
2018-Feb-14 10:06N 31°35' E 121°27'445949695.8
2018-Feb-14 10:00N 44°09' E 028°40'45894130430.4
2018-Feb-14 10:00N 23°44' E 117°32'97852516115.3
2018-Feb-14 10:00N 40°40' W 074°09'976135138440.6
2018-Feb-14 10:00N 24°26' E 117°52'52187373.7
2018-Feb-14 10:00N 24°31' E 118°49'1968720.2
2018-Feb-14 10:00N 24°21' E 118°32'4401528133.2
2018-Feb-14 10:00S 18°08' E 178°26'4427996132.6
2018-Feb-14 09:59N 24°27' E 118°04'62064.5
2018-Feb-14 09:59N 24°24' E 117°59'78765911.7
2018-Feb-14 09:58N 37°25' E 119°57'37779845.1
2018-Feb-14 09:58N 31°12' E 121°07'433778507.2
2018-Feb-14 09:58N 24°21' E 118°36'1635255917.2
2018-Feb-14 09:58N 01°21' E 103°37'207824770.4
2018-Feb-14 09:53N 31°29' E 121°23'787.3
2018-Feb-14 09:48N 31°35' E 121°27'7157.7
2018-Feb-14 09:45N 31°29' E 121°24'46921389.3
2018-Feb-14 09:44N 23°56' E 119°07'4765052.2
2018-Feb-14 09:38N 31°38' E 121°14'4673607.0
2018-Feb-14 09:30N 24°24' E 117°59'622822.6
2018-Feb-14 09:30N 24°26' E 117°52'457716478013.0
2018-Feb-14 09:30N 44°09' E 028°40'4560912023.8
2018-Feb-14 09:30N 40°40' W 074°09'94961899111.9
2018-Feb-14 09:30N 31°35' E 121°27'466209885.3
2018-Feb-14 09:30N 24°24' E 118°06'44241990996.5
2018-Feb-14 09:30S 18°08' E 178°26'44001056021.9
2018-Feb-14 09:29N 24°19' E 118°32'43568083.2
2018-Feb-14 09:29N 31°12' E 121°07'20563700248.8
2018-Feb-14 09:29N 01°21' E 103°37'163531644.2
2018-Feb-14 09:26N 24°21' E 118°36'787134956.2
2018-Feb-14 09:25N 37°25' E 119°57'36323746.2
2018-Feb-14 09:25N 31°29' E 121°23'45646859.8
2018-Feb-14 09:24N 24°29' E 118°04'45660751.5
2018-Feb-14 09:24N 31°29' E 121°23'122722.7
2018-Feb-14 09:23N 31°38' E 121°14'50278605.5
2018-Feb-14 09:23N 23°48' E 117°56'4973516.2
2018-Feb-14 09:14N 31°29' E 121°24'2821837.3
2018-Feb-14 09:05N 36°06' E 120°14'75543820.7
2018-Feb-14 09:04N 23°44' E 117°33'8612880.5
2018-Feb-14 09:04N 23°56' E 119°06'465785530.5
2018-Feb-14 09:00N 44°09' E 028°40'459016525070.5
2018-Feb-14 09:00N 23°44' E 117°33'15721414616.4
2018-Feb-14 09:00N 01°21' E 103°37'16321957920.8
2018-Feb-14 09:00N 24°19' E 118°32'3766405.2
2018-Feb-14 09:00N 24°26' E 117°52'1513450.7
2018-Feb-14 09:00N 24°21' E 118°08'4501619235.7
2018-Feb-14 09:00N 31°13' E 121°30'4503438167.5
2018-Feb-14 09:00S 18°08' E 178°26'152767856018.7
2018-Feb-14 08:59N 40°40' W 074°09'9048517036.5
2018-Feb-14 08:58N 37°25' E 119°57'3631306039.8
2018-Feb-14 08:58N 31°29' E 121°23'224680.0
2018-Feb-14 08:58N 31°12' E 121°07'43311366.4
2018-Feb-14 08:56N 24°21' E 118°36'361839.1
2018-Feb-14 08:55N 23°57' E 119°05'381508.9
2018-Feb-14 08:53N 24°31' E 118°49'14558076.0
2018-Feb-14 08:53N 25°09' E 121°24'451399.1
2018-Feb-14 08:51N 25°21' E 120°36'18811663.3
2018-Feb-14 08:50N 23°49' E 117°36'50615848.8
2018-Feb-14 08:48N 31°35' E 121°17'8411.8
2018-Feb-14 08:47N 31°29' E 121°24'34714196.7
2018-Feb-14 08:46N 25°44' E 120°40'35515971.9
2018-Feb-14 08:44N 31°38' E 121°14'46136058.4
2018-Feb-14 08:43N 24°29' E 118°04'53245.8
2018-Feb-14 08:30N 23°44' E 117°33'52187107.5
2018-Feb-14 08:30N 24°28' E 118°04'458616507885.5
2018-Feb-14 08:30N 44°09' E 028°40'47162425194.5
2018-Feb-14 08:30N 25°09' E 121°23'18460158.7
2018-Feb-14 08:30N 24°22' E 118°07'145155.2
2018-Feb-14 08:30N 24°26' E 117°52'70251347.8
2018-Feb-14 08:30N 23°59' E 119°03'475122250.9
2018-Feb-14 08:30N 31°41' E 121°11'45352040660.5
2018-Feb-14 08:30S 18°08' E 178°26'4400720016.0
2018-Feb-14 08:29N 24°19' E 118°32'6019623.4
2018-Feb-14 08:29N 23°49' E 117°36'97842515960.9
2018-Feb-14 08:29N 40°40' W 074°09'90481480604.4
2018-Feb-14 08:28N 37°25' E 119°57'2354249200.9
2018-Feb-14 08:28N 01°21' E 103°37'1769289446.4
2018-Feb-14 08:28N 25°43' E 120°40'223278.7
2018-Feb-14 08:27N 25°22' E 120°36'10926115.5
2018-Feb-14 08:27N 24°31' E 118°49'439175765.4
2018-Feb-14 08:27N 31°29' E 121°23'221729.6
2018-Feb-14 08:26N 31°12' E 121°07'432259441.9
2018-Feb-14 08:26N 24°21' E 118°36'521147.0
2018-Feb-14 08:23N 23°46' E 117°53'4996395.9
2018-Feb-14 08:18N 31°29' E 121°24'2792034.3
2018-Feb-14 08:10N 36°02' E 120°14'  
Track history (hours):
 
Tides and Currents Weather Stations Pressure Air Temp Water Temp Dewpoint Dewpoint Depression Visibility Wind Speed Wind Dir Waves Ship Positions

Work Boat No.22

Last reported at 2018-Feb-24 08:01 UTC. Time now 2018-Feb-24 08:09 UTC.
Position N 01°21' E 103°37'.

Length 30 m.

Type: Cargo ship. MMSI: 4150008.

Date/timePositionNaut miles runAvg speedWind from/ knotsBaromVisibWave heightAir tempDewpointWater temp
2018-Feb-24 08:01N 01°21' E 103°37'15725658939.5
2018-Feb-24 08:00N 23°44' E 117°32'619862.3
2018-Feb-24 08:00N 23°49' E 117°36'45908261813.0
2018-Feb-24 08:00N 44°09' E 028°40'45773295628.2
2018-Feb-24 08:00N 24°26' E 117°52'5751684.0
2018-Feb-24 08:00N 23°39' E 117°17'57655188309.3
2018-Feb-24 08:00N 48°57' E 002°16'57634149059.6
2018-Feb-24 08:00N 24°33' E 118°12'43871597.9
2018-Feb-24 08:00N 31°14' E 121°30'5291903912.9
2018-Feb-24 08:00N 22°28' E 120°23'100061029137.7
2018-Feb-24 07:59N 40°38' W 074°09'97892517056.0
2018-Feb-24 07:59N 23°28' E 117°16'53842099.1
2018-Feb-24 07:58N 31°59' E 120°26'20771246266.5
2018-Feb-24 07:58N 01°21' E 103°37'2056145107.8
2018-Feb-24 07:57N 31°12' E 121°07'36313901.4
2018-Feb-24 07:56N 25°10' E 121°23'18517566.0
2018-Feb-24 07:55N 24°27' E 118°04'7102.2
2018-Feb-24 07:51N 24°24' E 117°58'16858.6
2018-Feb-24 07:50N 24°10' E 118°07'72128505.8
2018-Feb-24 07:49N 36°02' E 120°13'30484147.5
2018-Feb-24 07:48N 31°02' E 121°05'9353806.9
2018-Feb-24 07:34N 19°46' E 109°10'56911010.9
2018-Feb-24 07:30N 24°27' E 118°03'458516506713.4
2018-Feb-24 07:30N 44°09' E 028°40'447516109681.5
2018-Feb-24 07:30N 31°14' E 121°30'20682481360.0
2018-Feb-24 07:30N 01°21' E 103°37'16175821274.3
2018-Feb-24 07:30N 24°26' E 117°52'4654718.3
2018-Feb-24 07:30N 23°44' E 117°32'1865782.4
2018-Feb-24 07:30N 23°35' E 117°15'78281245.9
2018-Feb-24 07:30N 24°31' E 118°14'429386103.5
2018-Feb-24 07:30N 31°12' E 121°07'20563700539.4
2018-Feb-24 07:30N 01°21' E 103°37'16051925424.3
2018-Feb-24 07:30N 22°31' E 120°19'170610229.3
2018-Feb-24 07:30N 25°10' E 121°23'98942095249.0
2018-Feb-24 07:30N 40°38' W 074°09'97901762196.4
2018-Feb-24 07:30N 24°11' E 118°09'48379035.9
2018-Feb-24 07:29N 31°59' E 120°26'6511177.3
2018-Feb-24 07:29N 31°02' E 121°03'42533253.9
2018-Feb-24 07:28N 24°27' E 118°04'5705270.6
2018-Feb-24 07:22N 19°46' E 109°10'95919502.1
2018-Feb-24 07:19N 31°13' E 121°30'2962336.7
2018-Feb-24 07:11N 36°02' E 120°13'7174092.0
2018-Feb-24 07:00N 24°13' E 118°11'2213061.0
2018-Feb-24 07:00N 24°26' E 117°52'4682039.0
2018-Feb-24 07:00N 23°44' E 117°32'6054106.0
2018-Feb-24 07:00N 24°33' E 118°11'167150489.4
2018-Feb-24 07:00N 22°33' E 120°19'50973365.1
2018-Feb-24 07:00N 31°01' E 120°60'6428882.0
2018-Feb-24 07:00N 31°59' E 120°26'94223768949.8
2018-Feb-24 07:00N 40°38' W 074°09'97685861074.8
2018-Feb-24 06:59N 24°24' E 117°59'7469.4
2018-Feb-24 06:59N 24°23' E 118°06'1622201370.0
2018-Feb-24 06:58N 01°21' E 103°37'1153143132.9
2018-Feb-24 06:58N 19°46' E 109°10'959575239.5
2018-Feb-24 06:57N 31°14' E 121°30'205444.8
2018-Feb-24 06:57N 31°12' E 121°07'3639678.9
2018-Feb-24 06:55N 25°10' E 121°23'65621652.0
2018-Feb-24 06:53N 36°02' E 120°13'73017521.5
2018-Feb-24 06:51N 23°60' E 118°16'493161286.6
2018-Feb-24 06:50N 31°59' E 120°27'53918472.2
2018-Feb-24 06:49N 23°27' E 117°15'292850.4
2018-Feb-24 06:48N 23°49' E 117°36'41138.2
2018-Feb-24 06:31N 24°02' E 118°18'2137402.7
2018-Feb-24 06:30N 24°20' E 118°08'45948268908.9
2018-Feb-24 06:30N 44°09' E 028°40'48783512035.2
2018-Feb-24 06:30N 01°21' E 103°37'15722829020.8
2018-Feb-24 06:30N 23°44' E 117°32'473567603.3
2018-Feb-24 06:30N 31°01' E 120°56'1417118.1
2018-Feb-24 06:30N 31°12' E 121°07'4411588187.3
2018-Feb-24 06:30N 24°26' E 117°52'4016134.1
2018-Feb-24 06:30N 23°49' E 117°36'97851036057.8
2018-Feb-24 06:30N 40°38' W 074°09'942216960295.9
2018-Feb-24 06:29N 31°59' E 120°26'478861299.3
2018-Feb-24 06:29N 24°15' E 118°14'5722456.8
2018-Feb-24 06:15N 19°46' E 109°10'5047630.9
2018-Feb-24 06:12N 23°28' E 117°17'652202.6
2018-Feb-24 06:10N 24°25' E 117°52'43362351.5
2018-Feb-24 06:09N 31°06' E 120°58'950564804.3
2018-Feb-24 06:01N 40°38' W 074°09'999417988731.7
2018-Feb-24 06:00N 22°35' E 120°17'150269394.9
2018-Feb-24 06:00N 24°16' E 118°17'476285886.4
2018-Feb-24 06:00N 31°59' E 120°26'48758412.8
2018-Feb-24 06:00N 24°05' E 118°21'438262521.7
2018-Feb-24 06:00N 31°01' E 120°53'2040236863.9
2018-Feb-24 05:59N 01°21' E 103°37'16175821272.4
2018-Feb-24 05:59N 24°26' E 117°52'432259259.5
2018-Feb-24 05:59N 31°06' E 120°57'10328.5
2018-Feb-24 05:57N 31°12' E 121°07'50612836.5
2018-Feb-24 05:55N 23°29' E 117°17'5058957.4
2018-Feb-24 05:51N 19°46' E 109°10'62124841.9
2018-Feb-24 05:50N 23°25' E 119°35'1063497.5
2018-Feb-24 05:48N 24°24' E 117°58'41757.0
2018-Feb-24 05:45N 23°49' E 117°36'521.9
2018-Feb-24 05:30N 23°44' E 117°32'15721131823.1
2018-Feb-24 05:30N 01°21' E 103°37'16205832479.7
2018-Feb-24 05:30N 24°20' E 118°08'1657448.3
2018-Feb-24 05:30N 24°26' E 117°52'173311503.9
2018-Feb-24 05:30N 22°35' E 120°17'47704292704.0
2018-Feb-24 05:30N 44°09' E 028°40'45853301288.9
2018-Feb-24 05:30N 24°27' E 118°03'10226284.7
2018-Feb-24 05:30N 23°28' E 119°34'8576066.0
2018-Feb-24 05:30N 24°18' E 118°20'50178320.9
2018-Feb-24 05:30N 23°49' E 117°36'978511741988.0
2018-Feb-24 05:30N 40°38' W 074°09'98071217429.3
2018-Feb-24 05:29N 24°08' E 118°25'48326747.1
2018-Feb-24 05:28N 31°59' E 120°26'244438858.2
2018-Feb-24 05:28N 36°02' E 120°13'113991124.1
2018-Feb-24 05:27N 19°46' E 109°10'943226406.5
2018-Feb-24 05:27N 31°12' E 121°07'50741508.7
2018-Feb-24 05:26N 23°28' E 117°15'4908961.1
2018-Feb-24 05:23N 31°01' E 120°49'2992308.0
2018-Feb-24 05:15N 35°60' E 120°27'6983245.1
2018-Feb-24 05:03N 24°32' E 118°10'591739.8
2018-Feb-24 05:00N 23°44' E 117°33'11199809.4
2018-Feb-24 05:00N 23°30' E 119°33'16255849498.3
2018-Feb-24 05:00N 01°21' E 103°37'16205832479.7
2018-Feb-24 05:00N 24°20' E 118°08'1345490.9
2018-Feb-24 05:00N 24°20' E 118°22'2174039.9
2018-Feb-24 05:00N 24°25' E 118°01'6962474.5
2018-Feb-24 05:00N 23°29' E 117°16'45871651487.2
2018-Feb-24 05:00N 44°09' E 028°40'4590917978.2
2018-Feb-24 05:00N 23°49' E 117°36'5410158.7
2018-Feb-24 05:00N 24°32' E 118°10'181378.8
2018-Feb-24 04:59N 24°26' E 117°52'9761474878.4
2018-Feb-24 04:58N 40°38' W 074°09'95042012692.3
2018-Feb-24 04:57N 31°12' E 121°07'584538.5
2018-Feb-24 04:56N 31°59' E 120°26'2444026.3
2018-Feb-24 04:53N 36°02' E 120°13'7512019.7
2018-Feb-24 04:31N 23°44' E 117°32'45894130458.6
2018-Feb-24 04:30N 44°09' E 028°40'469316895556.2
2018-Feb-24 04:30N 23°33' E 119°32'90322253.1
2018-Feb-24 04:30N 24°20' E 118°08'235788.7
2018-Feb-24 04:30N 24°14' E 118°32'388636.4
2018-Feb-24 04:30N 24°26' E 117°52'193067.6
2018-Feb-24 04:30N 24°32' E 118°12'555039.3
2018-Feb-24 04:29N 23°49' E 117°36'51383923.1
2018-Feb-24 04:29N 31°59' E 120°26'470169133.7
2018-Feb-24 04:28N 24°21' E 118°25'97941101797.8
2018-Feb-24 04:28N 40°38' W 074°09'97887047658.8
2018-Feb-24 04:28N 23°28' E 117°16'50760888.0
2018-Feb-24 04:27N 31°12' E 121°07'3634970.2
2018-Feb-24 04:23N 25°09' E 121°23'6565402.0
2018-Feb-24 04:16N 36°02' E 120°13'113921811.6
2018-Feb-24 04:12N 19°46' E 109°10'59044263.1
2018-Feb-24 04:12N 24°33' E 118°27'271920.4
2018-Feb-24 04:11N 24°24' E 117°59'7231.5
2018-Feb-24 04:09N 24°25' E 117°51'748.6
2018-Feb-24 04:01N 24°24' E 117°59'3461787.4
2018-Feb-24 04:00N 24°18' E 118°36'67241458.0
2018-Feb-24 04:00N 23°44' E 117°32'111199194.1
2018-Feb-24 04:00N 23°37' E 119°33'104187186.3
2018-Feb-24 04:00N 24°26' E 117°52'16175821274.3
2018-Feb-24 04:00N 01°21' E 103°37'16202916231.8
2018-Feb-24 04:00N 24°20' E 118°08'441198668.1
2018-Feb-24 04:00N 31°12' E 121°07'95041425657.2
2018-Feb-24 04:00N 40°38' W 074°09'978817618151.7
2018-Feb-24 04:00N 23°27' E 117°15'836606.4
2018-Feb-24 03:59N 24°32' E 118°10'70187035.9
2018-Feb-24 03:59N 36°05' E 120°14'659124780.0
2018-Feb-24 03:58N 25°09' E 121°23'166119654.5
2018-Feb-24 03:58N 24°32' E 118°25'15618102.3